<?xml version='1.0' encoding='UTF-8'?><gpx version="1.1" creator="JPX - https://github.com/jenetics/jpx" xmlns="http://www.topografix.com/GPX/1/1"><trk><trkseg><trkpt lat="43.800805" lon="11.3340533"><ele>264.0</ele><time>2026-04-11T10:31:33.575Z</time></trkpt><trkpt lat="43.800745" lon="11.334295"><ele>264.0</ele><time>2026-04-11T10:31:36.075Z</time></trkpt><trkpt lat="43.800705" lon="11.3343817"><ele>264.0</ele><time>2026-04-11T10:31:37.076Z</time></trkpt><trkpt lat="43.8006983" lon="11.3344867"><ele>264.0</ele><time>2026-04-11T10:31:38.075Z</time></trkpt><trkpt lat="43.8006083" lon="11.3345417"><ele>264.0</ele><time>2026-04-11T10:31:42.075Z</time></trkpt><trkpt lat="43.8014317" lon="11.334145"><ele>264.0</ele><time>2026-04-11T10:31:43.075Z</time></trkpt><trkpt lat="43.8012467" lon="11.3341417"><ele>264.0</ele><time>2026-04-11T10:31:44.169Z</time></trkpt><trkpt lat="43.801065" lon="11.334135"><ele>264.0</ele><time>2026-04-11T10:31:45.169Z</time></trkpt><trkpt lat="43.8009833" lon="11.3341917"><ele>264.0</ele><time>2026-04-11T10:31:46.17Z</time></trkpt><trkpt lat="43.8009233" lon="11.3342483"><ele>264.0</ele><time>2026-04-11T10:31:47.169Z</time></trkpt><trkpt lat="43.80084" lon="11.3343183"><ele>264.0</ele><time>2026-04-11T10:31:48.169Z</time></trkpt><trkpt lat="43.8008033" lon="11.3343967"><ele>264.0</ele><time>2026-04-11T10:31:49.169Z</time></trkpt><trkpt lat="43.8007483" lon="11.334455"><ele>264.0</ele><time>2026-04-11T10:31:50.169Z</time></trkpt><trkpt lat="43.8007067" lon="11.3345767"><ele>264.0</ele><time>2026-04-11T10:31:52.169Z</time></trkpt><trkpt lat="43.80065" lon="11.3346617"><ele>262.3333333333333</ele><time>2026-04-11T10:31:54.169Z</time></trkpt><trkpt lat="43.8006483" lon="11.334765"><ele>260.6666666666667</ele><time>2026-04-11T10:31:56.169Z</time></trkpt><trkpt lat="43.8006817" lon="11.3349133"><ele>259.0</ele><time>2026-04-11T10:31:58.169Z</time></trkpt><trkpt lat="43.8006967" lon="11.3350333"><ele>257.33333333333337</ele><time>2026-04-11T10:32:01.169Z</time></trkpt><trkpt lat="43.80071" lon="11.3351417"><ele>255.66666666666669</ele><time>2026-04-11T10:32:04.169Z</time></trkpt><trkpt lat="43.8007467" lon="11.3352217"><ele>254.0</ele><time>2026-04-11T10:32:05.169Z</time></trkpt><trkpt lat="43.8007833" lon="11.3353067"><ele>254.0</ele><time>2026-04-11T10:32:06.169Z</time></trkpt><trkpt lat="43.800825" lon="11.3354383"><ele>254.0</ele><time>2026-04-11T10:32:08.169Z</time></trkpt><trkpt lat="43.8008667" lon="11.33557"><ele>254.0</ele><time>2026-04-11T10:32:10.17Z</time></trkpt><trkpt lat="43.80093" lon="11.3357417"><ele>254.0</ele><time>2026-04-11T10:32:12.169Z</time></trkpt><trkpt lat="43.8010117" lon="11.3358767"><ele>253.2</ele><time>2026-04-11T10:32:14.169Z</time></trkpt><trkpt lat="43.8010533" lon="11.3360017"><ele>252.39999999999998</ele><time>2026-04-11T10:32:16.169Z</time></trkpt><trkpt lat="43.801085" lon="11.3361683"><ele>251.6</ele><time>2026-04-11T10:32:18.17Z</time></trkpt><trkpt lat="43.8011133" lon="11.3362867"><ele>250.8</ele><time>2026-04-11T10:32:19.169Z</time></trkpt><trkpt lat="43.80114" lon="11.3364517"><ele>250.0</ele><time>2026-04-11T10:32:21.169Z</time></trkpt><trkpt lat="43.8011483" lon="11.3366"><ele>248.49999999999997</ele><time>2026-04-11T10:32:23.169Z</time></trkpt><trkpt lat="43.8011417" lon="11.3367217"><ele>247.0</ele><time>2026-04-11T10:32:25.169Z</time></trkpt><trkpt lat="43.8011967" lon="11.3368567"><ele>245.5</ele><time>2026-04-11T10:32:28.169Z</time></trkpt><trkpt lat="43.8012367" lon="11.33694"><ele>244.0</ele><time>2026-04-11T10:32:29.169Z</time></trkpt><trkpt lat="43.8012383" lon="11.33707"><ele>242.49999999999997</ele><time>2026-04-11T10:32:30.169Z</time></trkpt><trkpt lat="43.80128" lon="11.337165"><ele>241.0</ele><time>2026-04-11T10:32:31.17Z</time></trkpt><trkpt lat="43.8013083" lon="11.3372567"><ele>240.99999999999997</ele><time>2026-04-11T10:32:32.169Z</time></trkpt><trkpt lat="43.80137" lon="11.3371667"><ele>241.0</ele><time>2026-04-11T10:32:33.169Z</time></trkpt><trkpt lat="43.8012917" lon="11.33727"><ele>241.0</ele><time>2026-04-11T10:32:35.169Z</time></trkpt><trkpt lat="43.8012533" lon="11.33736"><ele>241.0</ele><time>2026-04-11T10:32:36.169Z</time></trkpt><trkpt lat="43.8012117" lon="11.3374417"><ele>240.99999999999997</ele><time>2026-04-11T10:32:37.169Z</time></trkpt><trkpt lat="43.8012133" lon="11.3375833"><ele>241.0</ele><time>2026-04-11T10:32:39.169Z</time></trkpt><trkpt lat="43.8012733" lon="11.3377033"><ele>239.4</ele><time>2026-04-11T10:32:41.169Z</time></trkpt><trkpt lat="43.8013517" lon="11.337805"><ele>237.8</ele><time>2026-04-11T10:32:43.169Z</time></trkpt><trkpt lat="43.8014433" lon="11.3379283"><ele>236.20000000000002</ele><time>2026-04-11T10:32:45.169Z</time></trkpt><trkpt lat="43.8014967" lon="11.3379883"><ele>234.60000000000002</ele><time>2026-04-11T10:32:46.169Z</time></trkpt><trkpt lat="43.80154" lon="11.3380733"><ele>233.0</ele><time>2026-04-11T10:32:47.169Z</time></trkpt><trkpt lat="43.8016383" lon="11.3381567"><ele>231.2</ele><time>2026-04-11T10:32:49.169Z</time></trkpt><trkpt lat="43.8017317" lon="11.3382"><ele>229.4</ele><time>2026-04-11T10:32:51.169Z</time></trkpt><trkpt lat="43.801815" lon="11.3382567"><ele>227.59999999999997</ele><time>2026-04-11T10:32:53.169Z</time></trkpt><trkpt lat="43.8019167" lon="11.3383267"><ele>225.79999999999998</ele><time>2026-04-11T10:32:55.169Z</time></trkpt><trkpt lat="43.8020183" lon="11.33837"><ele>224.0</ele><time>2026-04-11T10:32:57.169Z</time></trkpt><trkpt lat="43.8021033" lon="11.3383983"><ele>224.0</ele><time>2026-04-11T10:32:59.169Z</time></trkpt><trkpt lat="43.8021683" lon="11.3383917"><ele>224.0</ele><time>2026-04-11T10:33:02.17Z</time></trkpt><trkpt lat="43.80223" lon="11.3384367"><ele>224.0</ele><time>2026-04-11T10:33:06.169Z</time></trkpt><trkpt lat="43.80224" lon="11.338525"><ele>224.0</ele><time>2026-04-11T10:33:08.169Z</time></trkpt><trkpt lat="43.8022233" lon="11.33863"><ele>224.0</ele><time>2026-04-11T10:33:10.169Z</time></trkpt><trkpt lat="43.8022567" lon="11.3385433"><ele>224.0</ele><time>2026-04-11T10:33:49.169Z</time></trkpt><trkpt lat="43.8022767" lon="11.338445"><ele>224.0</ele><time>2026-04-11T10:33:50.169Z</time></trkpt><trkpt lat="43.8022883" lon="11.3383483"><ele>224.0</ele><time>2026-04-11T10:33:51.17Z</time></trkpt><trkpt lat="43.80218" lon="11.338215"><ele>224.0</ele><time>2026-04-11T10:33:54.169Z</time></trkpt><trkpt lat="43.8021667" lon="11.33854"><ele>224.0</ele><time>2026-04-11T10:34:04.169Z</time></trkpt><trkpt lat="43.8021683" lon="11.3387667"><ele>224.0</ele><time>2026-04-11T10:34:12.169Z</time></trkpt><trkpt lat="43.8021833" lon="11.3386783"><ele>223.99999999999997</ele><time>2026-04-11T10:34:37.17Z</time></trkpt><trkpt lat="43.8022217" lon="11.3384133"><ele>223.99999999999997</ele><time>2026-04-11T10:37:17.169Z</time></trkpt><trkpt lat="43.8021517" lon="11.33852"><ele>224.0</ele><time>2026-04-11T10:37:29.169Z</time></trkpt><trkpt lat="43.802195" lon="11.3385917"><ele>224.0</ele><time>2026-04-11T10:37:47.169Z</time></trkpt><trkpt lat="43.802165" lon="11.33873"><ele>224.0</ele><time>2026-04-11T10:38:01.169Z</time></trkpt><trkpt lat="43.8022367" lon="11.3387217"><ele>224.0</ele><time>2026-04-11T10:42:04.168Z</time></trkpt><trkpt lat="43.8022183" lon="11.3388067"><ele>224.0</ele><time>2026-04-11T10:42:10.169Z</time></trkpt><trkpt lat="43.8022911" lon="11.3387986"><ele>224.0</ele><time>2026-04-11T10:42:17.138Z</time></trkpt><trkpt lat="43.8023518" lon="11.3387483"><ele>224.0</ele><time>2026-04-11T10:42:27.235Z</time></trkpt><trkpt lat="43.8024149" lon="11.3387578"><ele>224.0</ele><time>2026-04-11T10:42:38.08Z</time></trkpt><trkpt lat="43.8023455" lon="11.3388092"><ele>224.0</ele><time>2026-04-11T10:44:00.22Z</time></trkpt></trkseg><trkseg><trkpt lat="43.802175" lon="11.338815"><ele>224.0</ele><time>2026-04-11T11:09:58.459Z</time></trkpt><trkpt lat="43.8022404" lon="11.3389747"><ele>223.99999999999997</ele><time>2026-04-11T11:09:59.656Z</time></trkpt><trkpt lat="43.8021734" lon="11.3388176"><ele>223.99999999999997</ele><time>2026-04-11T11:10:03.154Z</time></trkpt><trkpt lat="43.8021183" lon="11.3389"><ele>224.0</ele><time>2026-04-11T11:10:13.155Z</time></trkpt><trkpt lat="43.80207" lon="11.338985"><ele>224.0</ele><time>2026-04-11T11:10:15.154Z</time></trkpt><trkpt lat="43.80196" lon="11.3391417"><ele>223.83333333333334</ele><time>2026-04-11T11:10:17.154Z</time></trkpt><trkpt lat="43.801915" lon="11.33922"><ele>223.66666666666669</ele><time>2026-04-11T11:10:18.154Z</time></trkpt><trkpt lat="43.8018667" lon="11.3393117"><ele>223.5</ele><time>2026-04-11T11:10:19.154Z</time></trkpt><trkpt lat="43.8018283" lon="11.33943"><ele>223.33333333333331</ele><time>2026-04-11T11:10:20.155Z</time></trkpt><trkpt lat="43.8017867" lon="11.33954"><ele>223.16666666666666</ele><time>2026-04-11T11:10:21.154Z</time></trkpt><trkpt lat="43.8017467" lon="11.339645"><ele>223.0</ele><time>2026-04-11T11:10:22.154Z</time></trkpt><trkpt lat="43.8017017" lon="11.3397417"><ele>225.0</ele><time>2026-04-11T11:10:23.154Z</time></trkpt><trkpt lat="43.8016683" lon="11.3398283"><ele>227.0</ele><time>2026-04-11T11:10:24.154Z</time></trkpt><trkpt lat="43.8016383" lon="11.339915"><ele>229.0</ele><time>2026-04-11T11:10:25.154Z</time></trkpt><trkpt lat="43.8016017" lon="11.34"><ele>231.0</ele><time>2026-04-11T11:10:26.154Z</time></trkpt><trkpt lat="43.8015583" lon="11.3400767"><ele>233.0</ele><time>2026-04-11T11:10:27.155Z</time></trkpt><trkpt lat="43.8015083" lon="11.3401567"><ele>234.99999999999997</ele><time>2026-04-11T11:10:28.154Z</time></trkpt><trkpt lat="43.801455" lon="11.3402333"><ele>236.99999999999997</ele><time>2026-04-11T11:10:29.154Z</time></trkpt><trkpt lat="43.8014033" lon="11.3403067"><ele>237.0</ele><time>2026-04-11T11:10:30.154Z</time></trkpt><trkpt lat="43.8013433" lon="11.3403733"><ele>237.0</ele><time>2026-04-11T11:10:31.154Z</time></trkpt><trkpt lat="43.8012783" lon="11.3404283"><ele>237.0</ele><time>2026-04-11T11:10:32.154Z</time></trkpt><trkpt lat="43.8012167" lon="11.3404867"><ele>237.0</ele><time>2026-04-11T11:10:33.154Z</time></trkpt><trkpt lat="43.8011533" lon="11.3405467"><ele>237.0</ele><time>2026-04-11T11:10:34.154Z</time></trkpt><trkpt lat="43.8010967" lon="11.3406117"><ele>237.0</ele><time>2026-04-11T11:10:35.154Z</time></trkpt><trkpt lat="43.8010433" lon="11.3406817"><ele>234.83333333333334</ele><time>2026-04-11T11:10:36.154Z</time></trkpt><trkpt lat="43.8009917" lon="11.3407517"><ele>232.66666666666669</ele><time>2026-04-11T11:10:37.154Z</time></trkpt><trkpt lat="43.8009417" lon="11.3408317"><ele>230.5</ele><time>2026-04-11T11:10:38.155Z</time></trkpt><trkpt lat="43.8009017" lon="11.3409317"><ele>228.33333333333334</ele><time>2026-04-11T11:10:39.154Z</time></trkpt><trkpt lat="43.8008717" lon="11.34103"><ele>226.16666666666669</ele><time>2026-04-11T11:10:40.154Z</time></trkpt><trkpt lat="43.8008483" lon="11.3411317"><ele>224.0</ele><time>2026-04-11T11:10:41.155Z</time></trkpt><trkpt lat="43.8008267" lon="11.3412267"><ele>224.0</ele><time>2026-04-11T11:10:42.154Z</time></trkpt><trkpt lat="43.80081" lon="11.34132"><ele>224.0</ele><time>2026-04-11T11:10:43.154Z</time></trkpt><trkpt lat="43.800795" lon="11.3414083"><ele>224.0</ele><time>2026-04-11T11:10:44.154Z</time></trkpt><trkpt lat="43.8007733" lon="11.341495"><ele>224.0</ele><time>2026-04-11T11:10:45.154Z</time></trkpt><trkpt lat="43.800735" lon="11.341565"><ele>224.0</ele><time>2026-04-11T11:10:46.154Z</time></trkpt><trkpt lat="43.800705" lon="11.341645"><ele>224.0</ele><time>2026-04-11T11:10:47.154Z</time></trkpt><trkpt lat="43.8006733" lon="11.3417317"><ele>224.0</ele><time>2026-04-11T11:10:48.154Z</time></trkpt><trkpt lat="43.8006383" lon="11.3418283"><ele>226.71428571428572</ele><time>2026-04-11T11:10:49.154Z</time></trkpt><trkpt lat="43.8006033" lon="11.3419267"><ele>229.42857142857144</ele><time>2026-04-11T11:10:50.154Z</time></trkpt><trkpt lat="43.8005733" lon="11.3420133"><ele>232.14285714285714</ele><time>2026-04-11T11:10:51.154Z</time></trkpt><trkpt lat="43.8005333" lon="11.3420833"><ele>234.85714285714286</ele><time>2026-04-11T11:10:52.154Z</time></trkpt><trkpt lat="43.8004817" lon="11.3421367"><ele>237.57142857142858</ele><time>2026-04-11T11:10:53.154Z</time></trkpt><trkpt lat="43.80043" lon="11.3421917"><ele>240.28571428571428</ele><time>2026-04-11T11:10:54.154Z</time></trkpt><trkpt lat="43.80037" lon="11.3422483"><ele>243.0</ele><time>2026-04-11T11:10:55.154Z</time></trkpt><trkpt lat="43.8003083" lon="11.3423217"><ele>243.8</ele><time>2026-04-11T11:10:56.154Z</time></trkpt><trkpt lat="43.8002433" lon="11.3424117"><ele>244.60000000000002</ele><time>2026-04-11T11:10:57.154Z</time></trkpt><trkpt lat="43.8001717" lon="11.3425083"><ele>245.39999999999998</ele><time>2026-04-11T11:10:58.154Z</time></trkpt><trkpt lat="43.8000933" lon="11.3426117"><ele>246.2</ele><time>2026-04-11T11:10:59.154Z</time></trkpt><trkpt lat="43.800015" lon="11.3427033"><ele>247.0</ele><time>2026-04-11T11:11:00.154Z</time></trkpt><trkpt lat="43.7999383" lon="11.3427967"><ele>247.0</ele><time>2026-04-11T11:11:01.154Z</time></trkpt><trkpt lat="43.7998617" lon="11.34288"><ele>247.0</ele><time>2026-04-11T11:11:02.154Z</time></trkpt><trkpt lat="43.7997917" lon="11.342955"><ele>247.0</ele><time>2026-04-11T11:11:03.154Z</time></trkpt><trkpt lat="43.7997217" lon="11.3430333"><ele>247.0</ele><time>2026-04-11T11:11:04.154Z</time></trkpt><trkpt lat="43.7996483" lon="11.3431167"><ele>247.0</ele><time>2026-04-11T11:11:05.154Z</time></trkpt><trkpt lat="43.7995783" lon="11.3431933"><ele>247.39999999999998</ele><time>2026-04-11T11:11:06.154Z</time></trkpt><trkpt lat="43.7995117" lon="11.3432817"><ele>247.79999999999998</ele><time>2026-04-11T11:11:07.154Z</time></trkpt><trkpt lat="43.7994483" lon="11.3433767"><ele>248.2</ele><time>2026-04-11T11:11:08.154Z</time></trkpt><trkpt lat="43.79939" lon="11.3434817"><ele>248.6</ele><time>2026-04-11T11:11:09.154Z</time></trkpt><trkpt lat="43.7993333" lon="11.3435767"><ele>249.0</ele><time>2026-04-11T11:11:10.154Z</time></trkpt><trkpt lat="43.7992767" lon="11.3436689"><ele>249.0</ele><time>2026-04-11T11:11:11.154Z</time></trkpt><trkpt lat="43.7992241" lon="11.3437504"><ele>249.0</ele><time>2026-04-11T11:11:12.154Z</time></trkpt><trkpt lat="43.79917" lon="11.3438293"><ele>249.0</ele><time>2026-04-11T11:11:13.154Z</time></trkpt><trkpt lat="43.7991161" lon="11.3439159"><ele>249.0</ele><time>2026-04-11T11:11:14.154Z</time></trkpt><trkpt lat="43.7990636" lon="11.3440027"><ele>249.0</ele><time>2026-04-11T11:11:15.154Z</time></trkpt><trkpt lat="43.7990093" lon="11.3440798"><ele>249.0</ele><time>2026-04-11T11:11:16.154Z</time></trkpt><trkpt lat="43.79895" lon="11.3441422"><ele>251.6</ele><time>2026-04-11T11:11:17.154Z</time></trkpt><trkpt lat="43.7988911" lon="11.3441959"><ele>254.2</ele><time>2026-04-11T11:11:18.154Z</time></trkpt><trkpt lat="43.7988106" lon="11.3442492"><ele>256.79999999999995</ele><time>2026-04-11T11:11:20.155Z</time></trkpt><trkpt lat="43.7987587" lon="11.3443408"><ele>259.4</ele><time>2026-04-11T11:11:29.154Z</time></trkpt><trkpt lat="43.798765" lon="11.3444917"><ele>262.0</ele><time>2026-04-11T11:11:31.155Z</time></trkpt><trkpt lat="43.79874" lon="11.344645"><ele>262.0</ele><time>2026-04-11T11:11:33.154Z</time></trkpt><trkpt lat="43.7986783" lon="11.344795"><ele>262.0</ele><time>2026-04-11T11:11:35.154Z</time></trkpt><trkpt lat="43.79859" lon="11.3449033"><ele>262.0</ele><time>2026-04-11T11:11:37.154Z</time></trkpt><trkpt lat="43.79854" lon="11.3449617"><ele>262.0</ele><time>2026-04-11T11:11:38.154Z</time></trkpt><trkpt lat="43.7984833" lon="11.3450267"><ele>262.0</ele><time>2026-04-11T11:11:39.154Z</time></trkpt><trkpt lat="43.7984267" lon="11.3450933"><ele>262.0</ele><time>2026-04-11T11:11:40.154Z</time></trkpt><trkpt lat="43.7983283" lon="11.3451917"><ele>262.0</ele><time>2026-04-11T11:11:42.154Z</time></trkpt><trkpt lat="43.7982767" lon="11.3452483"><ele>262.0</ele><time>2026-04-11T11:11:43.154Z</time></trkpt><trkpt lat="43.7982117" lon="11.345305"><ele>262.0</ele><time>2026-04-11T11:11:44.154Z</time></trkpt><trkpt lat="43.7981567" lon="11.34536"><ele>262.0</ele><time>2026-04-11T11:11:45.155Z</time></trkpt><trkpt lat="43.798105" lon="11.345425"><ele>262.0</ele><time>2026-04-11T11:11:46.154Z</time></trkpt><trkpt lat="43.7980533" lon="11.3455067"><ele>264.4</ele><time>2026-04-11T11:11:47.154Z</time></trkpt><trkpt lat="43.7980083" lon="11.3455717"><ele>266.79999999999995</ele><time>2026-04-11T11:11:48.154Z</time></trkpt><trkpt lat="43.7979317" lon="11.3456917"><ele>269.2</ele><time>2026-04-11T11:11:50.154Z</time></trkpt><trkpt lat="43.7978817" lon="11.34584"><ele>271.59999999999997</ele><time>2026-04-11T11:11:52.154Z</time></trkpt><trkpt lat="43.7978783" lon="11.34593"><ele>274.0</ele><time>2026-04-11T11:11:53.154Z</time></trkpt><trkpt lat="43.7978783" lon="11.3460833"><ele>274.0</ele><time>2026-04-11T11:11:55.154Z</time></trkpt><trkpt lat="43.7978817" lon="11.3461933"><ele>274.0</ele><time>2026-04-11T11:11:57.154Z</time></trkpt><trkpt lat="43.7979067" lon="11.3463067"><ele>274.0</ele><time>2026-04-11T11:11:59.154Z</time></trkpt><trkpt lat="43.7979583" lon="11.3464133"><ele>274.0</ele><time>2026-04-11T11:12:01.154Z</time></trkpt><trkpt lat="43.7979633" lon="11.346525"><ele>274.0</ele><time>2026-04-11T11:12:03.154Z</time></trkpt><trkpt lat="43.79791" lon="11.3466517"><ele>274.0</ele><time>2026-04-11T11:12:05.154Z</time></trkpt><trkpt lat="43.797865" lon="11.34673"><ele>273.66666666666663</ele><time>2026-04-11T11:12:06.154Z</time></trkpt><trkpt lat="43.79782" lon="11.3468167"><ele>273.3333333333333</ele><time>2026-04-11T11:12:07.154Z</time></trkpt><trkpt lat="43.7977717" lon="11.3469117"><ele>273.0</ele><time>2026-04-11T11:12:08.154Z</time></trkpt><trkpt lat="43.79773" lon="11.347005"><ele>272.6666666666667</ele><time>2026-04-11T11:12:09.154Z</time></trkpt><trkpt lat="43.7976917" lon="11.3470817"><ele>272.33333333333337</ele><time>2026-04-11T11:12:10.154Z</time></trkpt><trkpt lat="43.797655" lon="11.3471717"><ele>272.0</ele><time>2026-04-11T11:12:11.154Z</time></trkpt><trkpt lat="43.797615" lon="11.3472533"><ele>277.6</ele><time>2026-04-11T11:12:12.154Z</time></trkpt><trkpt lat="43.797525" lon="11.347305"><ele>283.2</ele><time>2026-04-11T11:12:14.154Z</time></trkpt><trkpt lat="43.7974267" lon="11.347385"><ele>288.8</ele><time>2026-04-11T11:12:16.154Z</time></trkpt><trkpt lat="43.7973117" lon="11.3474733"><ele>294.4</ele><time>2026-04-11T11:12:18.155Z</time></trkpt><trkpt lat="43.7972567" lon="11.3475183"><ele>300.0</ele><time>2026-04-11T11:12:19.154Z</time></trkpt><trkpt lat="43.7971933" lon="11.3475683"><ele>300.0</ele><time>2026-04-11T11:12:20.154Z</time></trkpt><trkpt lat="43.7971317" lon="11.3476017"><ele>300.0</ele><time>2026-04-11T11:12:21.155Z</time></trkpt><trkpt lat="43.79701" lon="11.347655"><ele>300.0</ele><time>2026-04-11T11:12:23.153Z</time></trkpt><trkpt lat="43.7969383" lon="11.3476917"><ele>300.0</ele><time>2026-04-11T11:12:24.153Z</time></trkpt><trkpt lat="43.79687" lon="11.3477233"><ele>300.0</ele><time>2026-04-11T11:12:25.153Z</time></trkpt><trkpt lat="43.79681" lon="11.3477567"><ele>300.0</ele><time>2026-04-11T11:12:26.153Z</time></trkpt><trkpt lat="43.7967067" lon="11.3477833"><ele>301.6</ele><time>2026-04-11T11:12:28.153Z</time></trkpt><trkpt lat="43.7966283" lon="11.3478267"><ele>303.2</ele><time>2026-04-11T11:12:31.153Z</time></trkpt><trkpt lat="43.79651" lon="11.3479"><ele>304.8</ele><time>2026-04-11T11:13:10.153Z</time></trkpt><trkpt lat="43.7964483" lon="11.34795"><ele>306.4</ele><time>2026-04-11T11:13:12.153Z</time></trkpt><trkpt lat="43.79637" lon="11.3480267"><ele>308.0</ele><time>2026-04-11T11:13:14.153Z</time></trkpt><trkpt lat="43.79629" lon="11.34814"><ele>308.0</ele><time>2026-04-11T11:13:16.153Z</time></trkpt><trkpt lat="43.7962483" lon="11.348245"><ele>308.0</ele><time>2026-04-11T11:13:18.153Z</time></trkpt><trkpt lat="43.7962233" lon="11.3483767"><ele>308.0</ele><time>2026-04-11T11:13:20.153Z</time></trkpt><trkpt lat="43.7962383" lon="11.3485"><ele>308.0</ele><time>2026-04-11T11:13:22.153Z</time></trkpt><trkpt lat="43.7962717" lon="11.34862"><ele>308.0</ele><time>2026-04-11T11:13:24.153Z</time></trkpt><trkpt lat="43.7963067" lon="11.3487267"><ele>308.0</ele><time>2026-04-11T11:13:26.153Z</time></trkpt><trkpt lat="43.7963533" lon="11.3488583"><ele>308.0</ele><time>2026-04-11T11:13:28.153Z</time></trkpt><trkpt lat="43.7963917" lon="11.3490317"><ele>308.0</ele><time>2026-04-11T11:13:30.153Z</time></trkpt><trkpt lat="43.79644" lon="11.3492"><ele>308.0</ele><time>2026-04-11T11:13:32.153Z</time></trkpt><trkpt lat="43.796455" lon="11.349285"><ele>308.0</ele><time>2026-04-11T11:13:33.153Z</time></trkpt><trkpt lat="43.7964817" lon="11.3493767"><ele>308.1666666666667</ele><time>2026-04-11T11:13:34.153Z</time></trkpt><trkpt lat="43.79652" lon="11.34946"><ele>308.33333333333337</ele><time>2026-04-11T11:13:35.153Z</time></trkpt><trkpt lat="43.7965733" lon="11.34961"><ele>308.5</ele><time>2026-04-11T11:13:37.154Z</time></trkpt><trkpt lat="43.7966183" lon="11.3497367"><ele>308.6666666666667</ele><time>2026-04-11T11:13:39.153Z</time></trkpt><trkpt lat="43.7966483" lon="11.3498183"><ele>308.8333333333333</ele><time>2026-04-11T11:13:41.153Z</time></trkpt><trkpt lat="43.7966533" lon="11.3499067"><ele>309.0</ele><time>2026-04-11T11:13:43.154Z</time></trkpt><trkpt lat="43.79666" lon="11.3500283"><ele>307.8571428571429</ele><time>2026-04-11T11:13:46.153Z</time></trkpt><trkpt lat="43.7966467" lon="11.3501417"><ele>306.7142857142857</ele><time>2026-04-11T11:13:49.153Z</time></trkpt><trkpt lat="43.7966283" lon="11.3502317"><ele>305.57142857142856</ele><time>2026-04-11T11:13:52.153Z</time></trkpt><trkpt lat="43.7966417" lon="11.3503267"><ele>304.42857142857144</ele><time>2026-04-11T11:13:55.153Z</time></trkpt><trkpt lat="43.7966483" lon="11.3504233"><ele>303.2857142857143</ele><time>2026-04-11T11:13:57.153Z</time></trkpt><trkpt lat="43.7966283" lon="11.350525"><ele>302.14285714285717</ele><time>2026-04-11T11:13:59.153Z</time></trkpt><trkpt lat="43.7966033" lon="11.350615"><ele>301.0</ele><time>2026-04-11T11:14:01.153Z</time></trkpt><trkpt lat="43.7965817" lon="11.350725"><ele>299.14285714285717</ele><time>2026-04-11T11:14:03.153Z</time></trkpt><trkpt lat="43.7965417" lon="11.3508383"><ele>297.2857142857143</ele><time>2026-04-11T11:14:06.153Z</time></trkpt><trkpt lat="43.7964817" lon="11.3509083"><ele>295.42857142857144</ele><time>2026-04-11T11:14:09.153Z</time></trkpt><trkpt lat="43.7964383" lon="11.3509717"><ele>293.57142857142856</ele><time>2026-04-11T11:14:11.153Z</time></trkpt><trkpt lat="43.7963867" lon="11.3510317"><ele>291.7142857142857</ele><time>2026-04-11T11:14:14.153Z</time></trkpt><trkpt lat="43.7963484" lon="11.3511125"><ele>289.8571428571429</ele><time>2026-04-11T11:14:20.192Z</time></trkpt><trkpt lat="43.7963112" lon="11.3511859"><ele>288.0</ele><time>2026-04-11T11:14:23.198Z</time></trkpt><trkpt lat="43.796295" lon="11.3512933"><ele>285.0</ele><time>2026-04-11T11:14:27.153Z</time></trkpt><trkpt lat="43.7962833" lon="11.351405"><ele>282.0</ele><time>2026-04-11T11:14:30.153Z</time></trkpt><trkpt lat="43.7962733" lon="11.3515167"><ele>279.0</ele><time>2026-04-11T11:14:32.153Z</time></trkpt><trkpt lat="43.79626" lon="11.3516217"><ele>276.0</ele><time>2026-04-11T11:14:34.153Z</time></trkpt><trkpt lat="43.7962167" lon="11.351725"><ele>273.0</ele><time>2026-04-11T11:14:37.154Z</time></trkpt><trkpt lat="43.7961467" lon="11.3517617"><ele>270.0</ele><time>2026-04-11T11:14:40.154Z</time></trkpt><trkpt lat="43.796085" lon="11.3517433"><ele>270.0</ele><time>2026-04-11T11:14:42.153Z</time></trkpt><trkpt lat="43.796015" lon="11.3517167"><ele>270.0</ele><time>2026-04-11T11:14:44.153Z</time></trkpt><trkpt lat="43.79595" lon="11.3517367"><ele>270.0</ele><time>2026-04-11T11:14:46.154Z</time></trkpt><trkpt lat="43.7958917" lon="11.3517733"><ele>270.0</ele><time>2026-04-11T11:14:48.153Z</time></trkpt><trkpt lat="43.795835" lon="11.3518617"><ele>270.0</ele><time>2026-04-11T11:14:51.153Z</time></trkpt><trkpt lat="43.7958433" lon="11.35196"><ele>270.0</ele><time>2026-04-11T11:14:54.153Z</time></trkpt><trkpt lat="43.7958717" lon="11.3520517"><ele>270.0</ele><time>2026-04-11T11:14:57.153Z</time></trkpt><trkpt lat="43.7958967" lon="11.3521633"><ele>266.1666666666667</ele><time>2026-04-11T11:15:00.153Z</time></trkpt><trkpt lat="43.7959167" lon="11.3522633"><ele>262.3333333333333</ele><time>2026-04-11T11:15:03.154Z</time></trkpt><trkpt lat="43.795865" lon="11.352355"><ele>258.5</ele><time>2026-04-11T11:15:07.154Z</time></trkpt><trkpt lat="43.7957917" lon="11.3523783"><ele>254.66666666666666</ele><time>2026-04-11T11:15:09.153Z</time></trkpt><trkpt lat="43.7956867" lon="11.352395"><ele>250.83333333333331</ele><time>2026-04-11T11:15:11.153Z</time></trkpt><trkpt lat="43.795585" lon="11.3524433"><ele>247.0</ele><time>2026-04-11T11:15:13.153Z</time></trkpt><trkpt lat="43.79548" lon="11.35252"><ele>247.0</ele><time>2026-04-11T11:15:15.153Z</time></trkpt><trkpt lat="43.7953967" lon="11.352635"><ele>247.0</ele><time>2026-04-11T11:15:17.153Z</time></trkpt><trkpt lat="43.7953067" lon="11.3527017"><ele>247.0</ele><time>2026-04-11T11:15:20.153Z</time></trkpt><trkpt lat="43.7953233" lon="11.3527983"><ele>247.0</ele><time>2026-04-11T11:15:34.153Z</time></trkpt><trkpt lat="43.7953867" lon="11.3527983"><ele>247.0</ele><time>2026-04-11T11:15:36.153Z</time></trkpt><trkpt lat="43.7954817" lon="11.3527833"><ele>246.99999999999997</ele><time>2026-04-11T11:15:38.153Z</time></trkpt><trkpt lat="43.7955683" lon="11.352785"><ele>247.0</ele><time>2026-04-11T11:15:40.153Z</time></trkpt><trkpt lat="43.79564" lon="11.3528017"><ele>247.0</ele><time>2026-04-11T11:15:42.153Z</time></trkpt><trkpt lat="43.795715" lon="11.3528317"><ele>247.0</ele><time>2026-04-11T11:15:44.153Z</time></trkpt><trkpt lat="43.7957817" lon="11.3528633"><ele>246.99999999999997</ele><time>2026-04-11T11:15:46.153Z</time></trkpt><trkpt lat="43.7958617" lon="11.352905"><ele>247.0</ele><time>2026-04-11T11:15:48.153Z</time></trkpt><trkpt lat="43.7959417" lon="11.3529383"><ele>247.8</ele><time>2026-04-11T11:15:50.153Z</time></trkpt><trkpt lat="43.7960067" lon="11.353"><ele>248.6</ele><time>2026-04-11T11:15:52.153Z</time></trkpt><trkpt lat="43.7960767" lon="11.3531"><ele>249.40000000000003</ele><time>2026-04-11T11:15:54.153Z</time></trkpt><trkpt lat="43.7961533" lon="11.3532167"><ele>250.20000000000002</ele><time>2026-04-11T11:15:56.153Z</time></trkpt><trkpt lat="43.7962083" lon="11.353345"><ele>251.0</ele><time>2026-04-11T11:15:58.153Z</time></trkpt><trkpt lat="43.7962733" lon="11.3534733"><ele>249.00000000000003</ele><time>2026-04-11T11:16:00.153Z</time></trkpt><trkpt lat="43.7963417" lon="11.3535933"><ele>247.0</ele><time>2026-04-11T11:16:02.153Z</time></trkpt><trkpt lat="43.7964117" lon="11.353715"><ele>245.0</ele><time>2026-04-11T11:16:04.153Z</time></trkpt><trkpt lat="43.7964633" lon="11.3538033"><ele>243.0</ele><time>2026-04-11T11:16:06.153Z</time></trkpt><trkpt lat="43.7965" lon="11.353875"><ele>241.00000000000003</ele><time>2026-04-11T11:16:08.153Z</time></trkpt><trkpt lat="43.796555" lon="11.353945"><ele>239.0</ele><time>2026-04-11T11:16:10.153Z</time></trkpt><trkpt lat="43.7966467" lon="11.3540317"><ele>238.42857142857144</ele><time>2026-04-11T11:16:12.153Z</time></trkpt><trkpt lat="43.7967033" lon="11.35408"><ele>237.85714285714286</ele><time>2026-04-11T11:16:13.153Z</time></trkpt><trkpt lat="43.7967617" lon="11.3541233"><ele>237.28571428571428</ele><time>2026-04-11T11:16:14.153Z</time></trkpt><trkpt lat="43.7968217" lon="11.35417"><ele>236.71428571428572</ele><time>2026-04-11T11:16:15.153Z</time></trkpt><trkpt lat="43.7968867" lon="11.3542183"><ele>236.1428571428571</ele><time>2026-04-11T11:16:16.153Z</time></trkpt><trkpt lat="43.79695" lon="11.3542717"><ele>235.57142857142856</ele><time>2026-04-11T11:16:17.153Z</time></trkpt><trkpt lat="43.7970167" lon="11.35432"><ele>235.0</ele><time>2026-04-11T11:16:18.153Z</time></trkpt><trkpt lat="43.79709" lon="11.354365"><ele>234.99999999999997</ele><time>2026-04-11T11:16:19.153Z</time></trkpt><trkpt lat="43.7971467" lon="11.3544083"><ele>235.0</ele><time>2026-04-11T11:16:20.153Z</time></trkpt><trkpt lat="43.797205" lon="11.354465"><ele>235.0</ele><time>2026-04-11T11:16:21.153Z</time></trkpt><trkpt lat="43.7972667" lon="11.3545133"><ele>235.0</ele><time>2026-04-11T11:16:22.153Z</time></trkpt><trkpt lat="43.797325" lon="11.3545567"><ele>234.99999999999997</ele><time>2026-04-11T11:16:23.153Z</time></trkpt><trkpt lat="43.7974183" lon="11.354635"><ele>235.0</ele><time>2026-04-11T11:16:25.153Z</time></trkpt><trkpt lat="43.7974817" lon="11.3546783"><ele>233.16666666666666</ele><time>2026-04-11T11:16:27.153Z</time></trkpt><trkpt lat="43.7975317" lon="11.3547767"><ele>231.33333333333331</ele><time>2026-04-11T11:16:30.154Z</time></trkpt><trkpt lat="43.7975467" lon="11.3548683"><ele>229.5</ele><time>2026-04-11T11:16:32.153Z</time></trkpt><trkpt lat="43.79751" lon="11.3549783"><ele>227.66666666666669</ele><time>2026-04-11T11:16:35.153Z</time></trkpt><trkpt lat="43.7974417" lon="11.3550617"><ele>225.83333333333334</ele><time>2026-04-11T11:16:37.153Z</time></trkpt><trkpt lat="43.7973617" lon="11.35517"><ele>224.0</ele><time>2026-04-11T11:16:39.153Z</time></trkpt><trkpt lat="43.7972817" lon="11.355275"><ele>224.0</ele><time>2026-04-11T11:16:41.154Z</time></trkpt><trkpt lat="43.7972333" lon="11.3553517"><ele>223.99999999999997</ele><time>2026-04-11T11:16:43.153Z</time></trkpt><trkpt lat="43.797265" lon="11.3554383"><ele>223.99999999999997</ele><time>2026-04-11T11:16:47.153Z</time></trkpt><trkpt lat="43.7973417" lon="11.35538"><ele>224.0</ele><time>2026-04-11T11:16:50.153Z</time></trkpt><trkpt lat="43.7974333" lon="11.3553167"><ele>224.0</ele><time>2026-04-11T11:16:52.153Z</time></trkpt><trkpt lat="43.7975433" lon="11.3552283"><ele>224.0</ele><time>2026-04-11T11:16:54.153Z</time></trkpt><trkpt lat="43.797605" lon="11.3551783"><ele>223.99999999999997</ele><time>2026-04-11T11:16:55.153Z</time></trkpt><trkpt lat="43.79769" lon="11.355115"><ele>223.99999999999997</ele><time>2026-04-11T11:16:57.153Z</time></trkpt><trkpt lat="43.7977717" lon="11.3551583"><ele>224.0</ele><time>2026-04-11T11:17:14.153Z</time></trkpt><trkpt lat="43.7977317" lon="11.3552717"><ele>224.0</ele><time>2026-04-11T11:17:16.153Z</time></trkpt><trkpt lat="43.7976817" lon="11.3554183"><ele>222.75</ele><time>2026-04-11T11:17:18.153Z</time></trkpt><trkpt lat="43.7976483" lon="11.3555683"><ele>221.5</ele><time>2026-04-11T11:17:20.153Z</time></trkpt><trkpt lat="43.7976233" lon="11.3557367"><ele>220.25</ele><time>2026-04-11T11:17:22.153Z</time></trkpt><trkpt lat="43.7975783" lon="11.3558883"><ele>219.0</ele><time>2026-04-11T11:17:24.153Z</time></trkpt><trkpt lat="43.7975133" lon="11.3560317"><ele>219.0</ele><time>2026-04-11T11:17:26.153Z</time></trkpt><trkpt lat="43.797475" lon="11.35611"><ele>219.0</ele><time>2026-04-11T11:17:27.153Z</time></trkpt><trkpt lat="43.7974267" lon="11.3562583"><ele>219.0</ele><time>2026-04-11T11:17:29.153Z</time></trkpt><trkpt lat="43.7973533" lon="11.3563767"><ele>219.0</ele><time>2026-04-11T11:17:31.154Z</time></trkpt><trkpt lat="43.7972983" lon="11.3564267"><ele>219.0</ele><time>2026-04-11T11:17:32.153Z</time></trkpt><trkpt lat="43.7972317" lon="11.3564717"><ele>219.0</ele><time>2026-04-11T11:17:33.153Z</time></trkpt><trkpt lat="43.7971617" lon="11.35651"><ele>219.0</ele><time>2026-04-11T11:17:34.153Z</time></trkpt><trkpt lat="43.7970883" lon="11.3565367"><ele>219.0</ele><time>2026-04-11T11:17:35.153Z</time></trkpt><trkpt lat="43.797" lon="11.3565617"><ele>219.0</ele><time>2026-04-11T11:17:36.153Z</time></trkpt><trkpt lat="43.79691" lon="11.3565783"><ele>219.0</ele><time>2026-04-11T11:17:37.153Z</time></trkpt><trkpt lat="43.79682" lon="11.356605"><ele>219.0</ele><time>2026-04-11T11:17:38.153Z</time></trkpt><trkpt lat="43.7967383" lon="11.3566417"><ele>219.0</ele><time>2026-04-11T11:17:39.153Z</time></trkpt><trkpt lat="43.796655" lon="11.3566767"><ele>219.0</ele><time>2026-04-11T11:17:40.153Z</time></trkpt><trkpt lat="43.7965683" lon="11.3567183"><ele>219.0</ele><time>2026-04-11T11:17:41.153Z</time></trkpt><trkpt lat="43.7964883" lon="11.3567383"><ele>219.0</ele><time>2026-04-11T11:17:42.153Z</time></trkpt><trkpt lat="43.7964183" lon="11.3567483"><ele>219.0</ele><time>2026-04-11T11:17:43.153Z</time></trkpt><trkpt lat="43.7963417" lon="11.3567583"><ele>219.0</ele><time>2026-04-11T11:17:44.153Z</time></trkpt><trkpt lat="43.7962583" lon="11.3567817"><ele>219.0</ele><time>2026-04-11T11:17:45.153Z</time></trkpt><trkpt lat="43.79617" lon="11.3568067"><ele>219.0</ele><time>2026-04-11T11:17:46.153Z</time></trkpt><trkpt lat="43.79609" lon="11.35683"><ele>219.0</ele><time>2026-04-11T11:17:47.153Z</time></trkpt><trkpt lat="43.7959983" lon="11.356845"><ele>219.0</ele><time>2026-04-11T11:17:48.153Z</time></trkpt><trkpt lat="43.795915" lon="11.356865"><ele>219.0</ele><time>2026-04-11T11:17:49.153Z</time></trkpt><trkpt lat="43.7958367" lon="11.3568917"><ele>219.0</ele><time>2026-04-11T11:17:50.153Z</time></trkpt><trkpt lat="43.7957483" lon="11.3569367"><ele>219.0</ele><time>2026-04-11T11:17:52.153Z</time></trkpt><trkpt lat="43.7956833" lon="11.356965"><ele>217.33333333333334</ele><time>2026-04-11T11:17:54.153Z</time></trkpt><trkpt lat="43.79561" lon="11.3569983"><ele>215.66666666666669</ele><time>2026-04-11T11:17:56.153Z</time></trkpt><trkpt lat="43.7955383" lon="11.3570367"><ele>214.0</ele><time>2026-04-11T11:17:58.153Z</time></trkpt><trkpt lat="43.7954817" lon="11.3571167"><ele>212.33333333333334</ele><time>2026-04-11T11:18:00.153Z</time></trkpt><trkpt lat="43.795435" lon="11.357235"><ele>210.66666666666669</ele><time>2026-04-11T11:18:02.154Z</time></trkpt><trkpt lat="43.79539" lon="11.3573367"><ele>209.0</ele><time>2026-04-11T11:18:04.153Z</time></trkpt><trkpt lat="43.7953183" lon="11.3574167"><ele>208.50000000000003</ele><time>2026-04-11T11:18:06.153Z</time></trkpt><trkpt lat="43.7952267" lon="11.357495"><ele>208.0</ele><time>2026-04-11T11:18:08.153Z</time></trkpt><trkpt lat="43.7951683" lon="11.357555"><ele>207.5</ele><time>2026-04-11T11:18:09.154Z</time></trkpt><trkpt lat="43.7951067" lon="11.3576183"><ele>207.0</ele><time>2026-04-11T11:18:10.153Z</time></trkpt><trkpt lat="43.795045" lon="11.3576783"><ele>206.50000000000003</ele><time>2026-04-11T11:18:11.153Z</time></trkpt><trkpt lat="43.7949883" lon="11.35774"><ele>206.0</ele><time>2026-04-11T11:18:12.153Z</time></trkpt><trkpt lat="43.794935" lon="11.3578067"><ele>206.00000000000003</ele><time>2026-04-11T11:18:13.153Z</time></trkpt><trkpt lat="43.794885" lon="11.3578667"><ele>206.0</ele><time>2026-04-11T11:18:14.154Z</time></trkpt><trkpt lat="43.7948367" lon="11.35793"><ele>206.0</ele><time>2026-04-11T11:18:15.153Z</time></trkpt><trkpt lat="43.794735" lon="11.35804"><ele>206.0</ele><time>2026-04-11T11:18:17.153Z</time></trkpt><trkpt lat="43.794655" lon="11.3581333"><ele>206.00000000000003</ele><time>2026-04-11T11:18:19.153Z</time></trkpt><trkpt lat="43.7946" lon="11.3582083"><ele>206.0</ele><time>2026-04-11T11:18:21.153Z</time></trkpt><trkpt lat="43.7945483" lon="11.3582783"><ele>204.66666666666669</ele><time>2026-04-11T11:18:45.153Z</time></trkpt><trkpt lat="43.794485" lon="11.358345"><ele>203.33333333333334</ele><time>2026-04-11T11:18:47.153Z</time></trkpt><trkpt lat="43.7944067" lon="11.3584383"><ele>202.0</ele><time>2026-04-11T11:18:49.153Z</time></trkpt><trkpt lat="43.794355" lon="11.3585033"><ele>200.66666666666669</ele><time>2026-04-11T11:18:50.153Z</time></trkpt><trkpt lat="43.7942983" lon="11.3585717"><ele>199.33333333333334</ele><time>2026-04-11T11:18:51.153Z</time></trkpt><trkpt lat="43.7942383" lon="11.358645"><ele>198.0</ele><time>2026-04-11T11:18:52.153Z</time></trkpt><trkpt lat="43.7941833" lon="11.358715"><ele>198.0</ele><time>2026-04-11T11:18:53.153Z</time></trkpt><trkpt lat="43.79413" lon="11.3587767"><ele>198.0</ele><time>2026-04-11T11:18:54.153Z</time></trkpt><trkpt lat="43.794075" lon="11.3588367"><ele>198.0</ele><time>2026-04-11T11:18:55.153Z</time></trkpt><trkpt lat="43.79397" lon="11.3589233"><ele>198.0</ele><time>2026-04-11T11:18:57.153Z</time></trkpt><trkpt lat="43.7938533" lon="11.3589683"><ele>198.0</ele><time>2026-04-11T11:18:59.153Z</time></trkpt><trkpt lat="43.7937333" lon="11.35901"><ele>197.0</ele><time>2026-04-11T11:19:01.153Z</time></trkpt><trkpt lat="43.7936217" lon="11.3590483"><ele>196.0</ele><time>2026-04-11T11:19:03.153Z</time></trkpt><trkpt lat="43.79356" lon="11.3590733"><ele>195.0</ele><time>2026-04-11T11:19:04.153Z</time></trkpt><trkpt lat="43.7934883" lon="11.35909"><ele>194.0</ele><time>2026-04-11T11:19:05.153Z</time></trkpt><trkpt lat="43.79342" lon="11.3591"><ele>193.0</ele><time>2026-04-11T11:19:06.153Z</time></trkpt><trkpt lat="43.7933417" lon="11.3591067"><ele>192.0</ele><time>2026-04-11T11:19:07.153Z</time></trkpt><trkpt lat="43.7932617" lon="11.3591017"><ele>192.0</ele><time>2026-04-11T11:19:08.153Z</time></trkpt><trkpt lat="43.7931817" lon="11.3590817"><ele>192.0</ele><time>2026-04-11T11:19:09.153Z</time></trkpt><trkpt lat="43.7930917" lon="11.3590633"><ele>192.0</ele><time>2026-04-11T11:19:10.153Z</time></trkpt><trkpt lat="43.7930083" lon="11.3590517"><ele>192.0</ele><time>2026-04-11T11:19:11.153Z</time></trkpt><trkpt lat="43.7929317" lon="11.3590383"><ele>192.0</ele><time>2026-04-11T11:19:12.153Z</time></trkpt><trkpt lat="43.7928483" lon="11.35904"><ele>192.0</ele><time>2026-04-11T11:19:13.153Z</time></trkpt><trkpt lat="43.7927667" lon="11.3590383"><ele>192.0</ele><time>2026-04-11T11:19:14.153Z</time></trkpt><trkpt lat="43.7926983" lon="11.3590417"><ele>192.0</ele><time>2026-04-11T11:19:15.153Z</time></trkpt><trkpt lat="43.7925933" lon="11.3590467"><ele>192.0</ele><time>2026-04-11T11:19:17.153Z</time></trkpt><trkpt lat="43.792505" lon="11.3590633"><ele>192.0</ele><time>2026-04-11T11:19:20.153Z</time></trkpt><trkpt lat="43.7924433" lon="11.3591117"><ele>192.0</ele><time>2026-04-11T11:19:22.154Z</time></trkpt><trkpt lat="43.792385" lon="11.3591983"><ele>192.0</ele><time>2026-04-11T11:19:24.153Z</time></trkpt><trkpt lat="43.7923333" lon="11.3593033"><ele>191.83333333333334</ele><time>2026-04-11T11:19:26.154Z</time></trkpt><trkpt lat="43.792265" lon="11.359425"><ele>191.66666666666666</ele><time>2026-04-11T11:19:28.153Z</time></trkpt><trkpt lat="43.7922167" lon="11.3594883"><ele>191.5</ele><time>2026-04-11T11:19:29.154Z</time></trkpt><trkpt lat="43.7921733" lon="11.3595517"><ele>191.33333333333331</ele><time>2026-04-11T11:19:30.153Z</time></trkpt><trkpt lat="43.7921233" lon="11.3596167"><ele>191.16666666666666</ele><time>2026-04-11T11:19:31.153Z</time></trkpt><trkpt lat="43.7920733" lon="11.3597017"><ele>191.0</ele><time>2026-04-11T11:19:32.153Z</time></trkpt><trkpt lat="43.7920217" lon="11.359795"><ele>191.0</ele><time>2026-04-11T11:19:33.153Z</time></trkpt><trkpt lat="43.7919667" lon="11.3598783"><ele>191.0</ele><time>2026-04-11T11:19:34.153Z</time></trkpt><trkpt lat="43.791905" lon="11.359955"><ele>191.0</ele><time>2026-04-11T11:19:35.153Z</time></trkpt><trkpt lat="43.7918417" lon="11.3600267"><ele>191.0</ele><time>2026-04-11T11:19:36.153Z</time></trkpt><trkpt lat="43.79177" lon="11.3600933"><ele>191.0</ele><time>2026-04-11T11:19:37.153Z</time></trkpt><trkpt lat="43.7916983" lon="11.3601633"><ele>191.0</ele><time>2026-04-11T11:19:38.153Z</time></trkpt><trkpt lat="43.7916233" lon="11.360225"><ele>191.0</ele><time>2026-04-11T11:19:39.154Z</time></trkpt><trkpt lat="43.7915467" lon="11.3602767"><ele>191.0</ele><time>2026-04-11T11:19:40.153Z</time></trkpt><trkpt lat="43.7914667" lon="11.36032"><ele>191.0</ele><time>2026-04-11T11:19:41.153Z</time></trkpt><trkpt lat="43.7913967" lon="11.36036"><ele>191.0</ele><time>2026-04-11T11:19:42.153Z</time></trkpt><trkpt lat="43.7913283" lon="11.360395"><ele>191.0</ele><time>2026-04-11T11:19:43.153Z</time></trkpt><trkpt lat="43.7912617" lon="11.360425"><ele>191.0</ele><time>2026-04-11T11:19:44.153Z</time></trkpt><trkpt lat="43.7911433" lon="11.360475"><ele>191.0</ele><time>2026-04-11T11:19:46.153Z</time></trkpt><trkpt lat="43.7910817" lon="11.3605017"><ele>191.0</ele><time>2026-04-11T11:19:47.153Z</time></trkpt><trkpt lat="43.79102" lon="11.3605317"><ele>191.0</ele><time>2026-04-11T11:19:48.153Z</time></trkpt><trkpt lat="43.7909567" lon="11.3605583"><ele>191.0</ele><time>2026-04-11T11:19:49.153Z</time></trkpt><trkpt lat="43.79089" lon="11.3605767"><ele>191.0</ele><time>2026-04-11T11:19:50.153Z</time></trkpt><trkpt lat="43.79082" lon="11.360605"><ele>191.0</ele><time>2026-04-11T11:19:51.154Z</time></trkpt><trkpt lat="43.790745" lon="11.3606283"><ele>191.0</ele><time>2026-04-11T11:19:52.153Z</time></trkpt><trkpt lat="43.790675" lon="11.3606483"><ele>191.83333333333331</ele><time>2026-04-11T11:19:53.153Z</time></trkpt><trkpt lat="43.79061" lon="11.3606667"><ele>192.66666666666666</ele><time>2026-04-11T11:19:54.153Z</time></trkpt><trkpt lat="43.7905467" lon="11.36069"><ele>193.5</ele><time>2026-04-11T11:19:55.153Z</time></trkpt><trkpt lat="43.79045" lon="11.3607217"><ele>194.33333333333331</ele><time>2026-04-11T11:19:57.153Z</time></trkpt><trkpt lat="43.790395" lon="11.3607667"><ele>195.16666666666666</ele><time>2026-04-11T11:19:59.153Z</time></trkpt><trkpt lat="43.790345" lon="11.36082"><ele>196.0</ele><time>2026-04-11T11:20:01.154Z</time></trkpt><trkpt lat="43.790275" lon="11.36091"><ele>196.0</ele><time>2026-04-11T11:20:03.154Z</time></trkpt><trkpt lat="43.7901967" lon="11.36101"><ele>196.0</ele><time>2026-04-11T11:20:05.153Z</time></trkpt><trkpt lat="43.7901433" lon="11.36114"><ele>196.0</ele><time>2026-04-11T11:20:07.153Z</time></trkpt><trkpt lat="43.790105" lon="11.36127"><ele>196.0</ele><time>2026-04-11T11:20:09.153Z</time></trkpt><trkpt lat="43.7900533" lon="11.36135"><ele>196.0</ele><time>2026-04-11T11:20:11.153Z</time></trkpt><trkpt lat="43.7900017" lon="11.36129"><ele>193.16666666666666</ele><time>2026-04-11T11:20:14.153Z</time></trkpt><trkpt lat="43.7900067" lon="11.3611483"><ele>190.33333333333331</ele><time>2026-04-11T11:20:16.153Z</time></trkpt><trkpt lat="43.7900183" lon="11.361045"><ele>187.5</ele><time>2026-04-11T11:20:17.153Z</time></trkpt><trkpt lat="43.790035" lon="11.3609267"><ele>184.66666666666666</ele><time>2026-04-11T11:20:18.154Z</time></trkpt><trkpt lat="43.790055" lon="11.3608267"><ele>181.83333333333331</ele><time>2026-04-11T11:20:19.153Z</time></trkpt><trkpt lat="43.7900683" lon="11.360725"><ele>179.0</ele><time>2026-04-11T11:20:20.153Z</time></trkpt><trkpt lat="43.7900783" lon="11.3606167"><ele>177.00000000000003</ele><time>2026-04-11T11:20:21.153Z</time></trkpt><trkpt lat="43.79009" lon="11.360515"><ele>175.0</ele><time>2026-04-11T11:20:22.153Z</time></trkpt><trkpt lat="43.790105" lon="11.3604183"><ele>173.0</ele><time>2026-04-11T11:20:23.153Z</time></trkpt><trkpt lat="43.7901233" lon="11.36032"><ele>171.0</ele><time>2026-04-11T11:20:24.153Z</time></trkpt><trkpt lat="43.7901433" lon="11.36023"><ele>169.0</ele><time>2026-04-11T11:20:25.153Z</time></trkpt><trkpt lat="43.7901483" lon="11.3600983"><ele>167.00000000000003</ele><time>2026-04-11T11:20:27.153Z</time></trkpt><trkpt lat="43.790085" lon="11.36008"><ele>165.0</ele><time>2026-04-11T11:20:29.153Z</time></trkpt><trkpt lat="43.7900017" lon="11.3601783"><ele>165.0</ele><time>2026-04-11T11:20:31.153Z</time></trkpt><trkpt lat="43.7899633" lon="11.3602567"><ele>165.0</ele><time>2026-04-11T11:20:32.153Z</time></trkpt><trkpt lat="43.7899217" lon="11.3603617"><ele>165.0</ele><time>2026-04-11T11:20:33.153Z</time></trkpt><trkpt lat="43.7898783" lon="11.3604917"><ele>165.0</ele><time>2026-04-11T11:20:34.153Z</time></trkpt><trkpt lat="43.7898433" lon="11.3606033"><ele>165.0</ele><time>2026-04-11T11:20:35.153Z</time></trkpt><trkpt lat="43.7897983" lon="11.3607133"><ele>165.0</ele><time>2026-04-11T11:20:36.153Z</time></trkpt><trkpt lat="43.7897483" lon="11.36081"><ele>167.33333333333334</ele><time>2026-04-11T11:20:37.153Z</time></trkpt><trkpt lat="43.789695" lon="11.360895"><ele>169.66666666666666</ele><time>2026-04-11T11:20:38.153Z</time></trkpt><trkpt lat="43.7896433" lon="11.3609783"><ele>172.0</ele><time>2026-04-11T11:20:39.153Z</time></trkpt><trkpt lat="43.7895917" lon="11.3610483"><ele>174.33333333333331</ele><time>2026-04-11T11:20:40.153Z</time></trkpt><trkpt lat="43.7895217" lon="11.3611433"><ele>176.66666666666666</ele><time>2026-04-11T11:20:42.153Z</time></trkpt><trkpt lat="43.78949" lon="11.3612667"><ele>179.0</ele><time>2026-04-11T11:20:44.153Z</time></trkpt><trkpt lat="43.78947" lon="11.3613583"><ele>179.83333333333331</ele><time>2026-04-11T11:20:45.154Z</time></trkpt><trkpt lat="43.7894567" lon="11.36147"><ele>180.66666666666666</ele><time>2026-04-11T11:20:46.153Z</time></trkpt><trkpt lat="43.7894367" lon="11.3615817"><ele>181.5</ele><time>2026-04-11T11:20:47.153Z</time></trkpt><trkpt lat="43.7894167" lon="11.3617167"><ele>182.33333333333334</ele><time>2026-04-11T11:20:48.153Z</time></trkpt><trkpt lat="43.78939" lon="11.36185"><ele>183.16666666666669</ele><time>2026-04-11T11:20:49.153Z</time></trkpt><trkpt lat="43.7893767" lon="11.3619617"><ele>184.0</ele><time>2026-04-11T11:20:50.153Z</time></trkpt><trkpt lat="43.7893633" lon="11.3620617"><ele>184.0</ele><time>2026-04-11T11:20:51.153Z</time></trkpt><trkpt lat="43.7893567" lon="11.362165"><ele>184.0</ele><time>2026-04-11T11:20:52.153Z</time></trkpt><trkpt lat="43.7893483" lon="11.3622617"><ele>184.0</ele><time>2026-04-11T11:20:53.153Z</time></trkpt><trkpt lat="43.789345" lon="11.3623583"><ele>184.0</ele><time>2026-04-11T11:20:54.153Z</time></trkpt><trkpt lat="43.7893417" lon="11.36246"><ele>184.0</ele><time>2026-04-11T11:20:55.153Z</time></trkpt><trkpt lat="43.789335" lon="11.36256"><ele>184.0</ele><time>2026-04-11T11:20:56.153Z</time></trkpt><trkpt lat="43.7893167" lon="11.3626583"><ele>184.0</ele><time>2026-04-11T11:20:57.153Z</time></trkpt><trkpt lat="43.7892933" lon="11.3627667"><ele>177.39999999999998</ele><time>2026-04-11T11:20:58.153Z</time></trkpt><trkpt lat="43.7892617" lon="11.36289"><ele>170.79999999999998</ele><time>2026-04-11T11:20:59.153Z</time></trkpt><trkpt lat="43.7892183" lon="11.3630083"><ele>164.2</ele><time>2026-04-11T11:21:00.153Z</time></trkpt><trkpt lat="43.789165" lon="11.36313"><ele>157.6</ele><time>2026-04-11T11:21:01.153Z</time></trkpt><trkpt lat="43.7890983" lon="11.3632283"><ele>151.0</ele><time>2026-04-11T11:21:02.153Z</time></trkpt><trkpt lat="43.7890183" lon="11.3633117"><ele>150.5</ele><time>2026-04-11T11:21:03.153Z</time></trkpt><trkpt lat="43.788935" lon="11.3633783"><ele>150.0</ele><time>2026-04-11T11:21:04.153Z</time></trkpt><trkpt lat="43.7888583" lon="11.3634417"><ele>149.5</ele><time>2026-04-11T11:21:05.153Z</time></trkpt><trkpt lat="43.788795" lon="11.3634933"><ele>149.0</ele><time>2026-04-11T11:21:06.153Z</time></trkpt><trkpt lat="43.788725" lon="11.36355"><ele>148.5</ele><time>2026-04-11T11:21:07.153Z</time></trkpt><trkpt lat="43.7886617" lon="11.363605"><ele>148.0</ele><time>2026-04-11T11:21:08.153Z</time></trkpt><trkpt lat="43.7885933" lon="11.3636633"><ele>148.0</ele><time>2026-04-11T11:21:09.153Z</time></trkpt><trkpt lat="43.7885283" lon="11.3637183"><ele>148.0</ele><time>2026-04-11T11:21:10.153Z</time></trkpt><trkpt lat="43.7884683" lon="11.3637733"><ele>148.0</ele><time>2026-04-11T11:21:11.153Z</time></trkpt><trkpt lat="43.7884017" lon="11.3638283"><ele>148.0</ele><time>2026-04-11T11:21:12.154Z</time></trkpt><trkpt lat="43.7883383" lon="11.3638817"><ele>148.0</ele><time>2026-04-11T11:21:13.153Z</time></trkpt><trkpt lat="43.7882733" lon="11.3639333"><ele>148.0</ele><time>2026-04-11T11:21:14.153Z</time></trkpt><trkpt lat="43.7882083" lon="11.3639867"><ele>144.5</ele><time>2026-04-11T11:21:15.153Z</time></trkpt><trkpt lat="43.788145" lon="11.3640367"><ele>141.0</ele><time>2026-04-11T11:21:16.154Z</time></trkpt><trkpt lat="43.7880817" lon="11.3640867"><ele>137.5</ele><time>2026-04-11T11:21:17.153Z</time></trkpt><trkpt lat="43.7880183" lon="11.3641467"><ele>134.0</ele><time>2026-04-11T11:21:18.153Z</time></trkpt><trkpt lat="43.7879633" lon="11.36419"><ele>130.5</ele><time>2026-04-11T11:21:19.153Z</time></trkpt><trkpt lat="43.787895" lon="11.3642583"><ele>127.0</ele><time>2026-04-11T11:21:21.153Z</time></trkpt><trkpt lat="43.7879367" lon="11.3643667"><ele>127.00000000000001</ele><time>2026-04-11T11:21:24.153Z</time></trkpt><trkpt lat="43.7879983" lon="11.36448"><ele>127.0</ele><time>2026-04-11T11:21:26.153Z</time></trkpt><trkpt lat="43.7880283" lon="11.3645833"><ele>127.0</ele><time>2026-04-11T11:21:27.153Z</time></trkpt><trkpt lat="43.7880533" lon="11.3647"><ele>127.0</ele><time>2026-04-11T11:21:28.153Z</time></trkpt><trkpt lat="43.788085" lon="11.3648183"><ele>127.00000000000001</ele><time>2026-04-11T11:21:29.153Z</time></trkpt><trkpt lat="43.788115" lon="11.3649317"><ele>127.0</ele><time>2026-04-11T11:21:30.153Z</time></trkpt><trkpt lat="43.7881417" lon="11.3650383"><ele>126.00000000000001</ele><time>2026-04-11T11:21:31.153Z</time></trkpt><trkpt lat="43.78817" lon="11.3651433"><ele>125.0</ele><time>2026-04-11T11:21:32.153Z</time></trkpt><trkpt lat="43.78818" lon="11.3652367"><ele>124.0</ele><time>2026-04-11T11:21:33.154Z</time></trkpt><trkpt lat="43.7881767" lon="11.3653317"><ele>123.0</ele><time>2026-04-11T11:21:34.153Z</time></trkpt><trkpt lat="43.78816" lon="11.3654367"><ele>122.00000000000001</ele><time>2026-04-11T11:21:35.153Z</time></trkpt><trkpt lat="43.7881517" lon="11.36556"><ele>121.0</ele><time>2026-04-11T11:21:36.153Z</time></trkpt><trkpt lat="43.788145" lon="11.365715"><ele>121.0</ele><time>2026-04-11T11:21:37.153Z</time></trkpt><trkpt lat="43.7881383" lon="11.3658933"><ele>121.0</ele><time>2026-04-11T11:21:38.154Z</time></trkpt><trkpt lat="43.788125" lon="11.3660617"><ele>121.0</ele><time>2026-04-11T11:21:39.153Z</time></trkpt><trkpt lat="43.7881117" lon="11.3662167"><ele>121.0</ele><time>2026-04-11T11:21:40.154Z</time></trkpt><trkpt lat="43.7880933" lon="11.36635"><ele>121.16666666666667</ele><time>2026-04-11T11:21:41.153Z</time></trkpt><trkpt lat="43.7880617" lon="11.36647"><ele>121.33333333333334</ele><time>2026-04-11T11:21:42.153Z</time></trkpt><trkpt lat="43.7880233" lon="11.36657"><ele>121.5</ele><time>2026-04-11T11:21:43.153Z</time></trkpt><trkpt lat="43.7879817" lon="11.3666633"><ele>121.66666666666666</ele><time>2026-04-11T11:21:44.153Z</time></trkpt><trkpt lat="43.787935" lon="11.3667567"><ele>121.83333333333333</ele><time>2026-04-11T11:21:45.153Z</time></trkpt><trkpt lat="43.7878883" lon="11.3668733"><ele>122.0</ele><time>2026-04-11T11:21:46.153Z</time></trkpt><trkpt lat="43.7878533" lon="11.367005"><ele>121.99999999999999</ele><time>2026-04-11T11:21:47.154Z</time></trkpt><trkpt lat="43.7878283" lon="11.3671383"><ele>122.0</ele><time>2026-04-11T11:21:48.153Z</time></trkpt><trkpt lat="43.7878" lon="11.3672683"><ele>122.0</ele><time>2026-04-11T11:21:49.153Z</time></trkpt><trkpt lat="43.7877667" lon="11.3673883"><ele>122.0</ele><time>2026-04-11T11:21:50.153Z</time></trkpt><trkpt lat="43.7877417" lon="11.367495"><ele>121.99999999999999</ele><time>2026-04-11T11:21:51.153Z</time></trkpt><trkpt lat="43.7877233" lon="11.3675933"><ele>122.0</ele><time>2026-04-11T11:21:52.153Z</time></trkpt><trkpt lat="43.787695" lon="11.367705"><ele>121.25</ele><time>2026-04-11T11:21:54.153Z</time></trkpt><trkpt lat="43.78768" lon="11.3677917"><ele>120.5</ele><time>2026-04-11T11:21:58.153Z</time></trkpt><trkpt lat="43.7877417" lon="11.3679783"><ele>119.75</ele><time>2026-04-11T11:22:00.153Z</time></trkpt><trkpt lat="43.7878067" lon="11.3681367"><ele>119.0</ele><time>2026-04-11T11:22:01.153Z</time></trkpt><trkpt lat="43.7878783" lon="11.3683117"><ele>118.6</ele><time>2026-04-11T11:22:02.153Z</time></trkpt><trkpt lat="43.7879367" lon="11.3684667"><ele>118.2</ele><time>2026-04-11T11:22:03.153Z</time></trkpt><trkpt lat="43.7879933" lon="11.368595"><ele>117.79999999999998</ele><time>2026-04-11T11:22:04.153Z</time></trkpt><trkpt lat="43.78804" lon="11.3686933"><ele>117.39999999999999</ele><time>2026-04-11T11:22:05.153Z</time></trkpt><trkpt lat="43.7880867" lon="11.3687783"><ele>117.0</ele><time>2026-04-11T11:22:06.153Z</time></trkpt><trkpt lat="43.7881367" lon="11.368835"><ele>117.6</ele><time>2026-04-11T11:22:07.153Z</time></trkpt><trkpt lat="43.7882433" lon="11.3689417"><ele>118.19999999999999</ele><time>2026-04-11T11:22:09.153Z</time></trkpt><trkpt lat="43.7882983" lon="11.36901"><ele>118.8</ele><time>2026-04-11T11:22:10.153Z</time></trkpt><trkpt lat="43.7883817" lon="11.3690933"><ele>119.4</ele><time>2026-04-11T11:22:12.153Z</time></trkpt><trkpt lat="43.7884417" lon="11.36916"><ele>120.0</ele><time>2026-04-11T11:22:15.153Z</time></trkpt><trkpt lat="43.78856" lon="11.3693083"><ele>120.0</ele><time>2026-04-11T11:22:26.153Z</time></trkpt><trkpt lat="43.7886517" lon="11.3694167"><ele>120.0</ele><time>2026-04-11T11:22:27.153Z</time></trkpt><trkpt lat="43.7887483" lon="11.36955"><ele>120.0</ele><time>2026-04-11T11:22:28.153Z</time></trkpt><trkpt lat="43.7888367" lon="11.3697"><ele>120.0</ele><time>2026-04-11T11:22:29.153Z</time></trkpt><trkpt lat="43.7889167" lon="11.369855"><ele>120.0</ele><time>2026-04-11T11:22:30.154Z</time></trkpt><trkpt lat="43.7889867" lon="11.370005"><ele>120.0</ele><time>2026-04-11T11:22:31.153Z</time></trkpt><trkpt lat="43.7890433" lon="11.3701117"><ele>120.0</ele><time>2026-04-11T11:22:32.153Z</time></trkpt><trkpt lat="43.7890867" lon="11.370185"><ele>120.0</ele><time>2026-04-11T11:22:33.153Z</time></trkpt><trkpt lat="43.789145" lon="11.3702767"><ele>120.0</ele><time>2026-04-11T11:22:35.153Z</time></trkpt><trkpt lat="43.789205" lon="11.370325"><ele>120.0</ele><time>2026-04-11T11:22:39.153Z</time></trkpt><trkpt lat="43.7891083" lon="11.3702517"><ele>120.0</ele><time>2026-04-11T11:22:53.154Z</time></trkpt><trkpt lat="43.7890667" lon="11.3701783"><ele>120.0</ele><time>2026-04-11T11:22:55.153Z</time></trkpt><trkpt lat="43.7890017" lon="11.37016"><ele>120.0</ele><time>2026-04-11T11:23:16.153Z</time></trkpt><trkpt lat="43.7889067" lon="11.37024"><ele>120.0</ele><time>2026-04-11T11:23:18.153Z</time></trkpt><trkpt lat="43.7888417" lon="11.3703067"><ele>120.0</ele><time>2026-04-11T11:23:19.153Z</time></trkpt><trkpt lat="43.7887767" lon="11.3703783"><ele>120.0</ele><time>2026-04-11T11:23:20.153Z</time></trkpt><trkpt lat="43.78871" lon="11.3704517"><ele>120.0</ele><time>2026-04-11T11:23:21.153Z</time></trkpt><trkpt lat="43.7886433" lon="11.3705183"><ele>120.0</ele><time>2026-04-11T11:23:22.153Z</time></trkpt><trkpt lat="43.7885783" lon="11.37058"><ele>120.0</ele><time>2026-04-11T11:23:23.153Z</time></trkpt><trkpt lat="43.788515" lon="11.3706467"><ele>120.0</ele><time>2026-04-11T11:23:24.153Z</time></trkpt><trkpt lat="43.78846" lon="11.3707083"><ele>120.0</ele><time>2026-04-11T11:23:25.153Z</time></trkpt><trkpt lat="43.7884067" lon="11.3707633"><ele>118.16666666666667</ele><time>2026-04-11T11:23:26.153Z</time></trkpt><trkpt lat="43.78833" lon="11.3708433"><ele>116.33333333333334</ele><time>2026-04-11T11:23:28.153Z</time></trkpt><trkpt lat="43.7882633" lon="11.3709133"><ele>114.5</ele><time>2026-04-11T11:23:30.153Z</time></trkpt><trkpt lat="43.7882083" lon="11.3709783"><ele>112.66666666666667</ele><time>2026-04-11T11:23:32.153Z</time></trkpt><trkpt lat="43.7881383" lon="11.3710333"><ele>110.83333333333334</ele><time>2026-04-11T11:23:36.154Z</time></trkpt><trkpt lat="43.7880783" lon="11.3710683"><ele>109.0</ele><time>2026-04-11T11:23:38.153Z</time></trkpt><trkpt lat="43.787995" lon="11.3711"><ele>109.0</ele><time>2026-04-11T11:23:40.153Z</time></trkpt><trkpt lat="43.787895" lon="11.3711467"><ele>109.0</ele><time>2026-04-11T11:23:42.153Z</time></trkpt><trkpt lat="43.7877833" lon="11.3711883"><ele>109.0</ele><time>2026-04-11T11:23:44.153Z</time></trkpt><trkpt lat="43.7876633" lon="11.37124"><ele>109.0</ele><time>2026-04-11T11:23:46.153Z</time></trkpt><trkpt lat="43.7875967" lon="11.371265"><ele>109.0</ele><time>2026-04-11T11:23:47.153Z</time></trkpt><trkpt lat="43.787535" lon="11.371285"><ele>107.33333333333334</ele><time>2026-04-11T11:23:48.154Z</time></trkpt><trkpt lat="43.78747" lon="11.3713133"><ele>105.66666666666667</ele><time>2026-04-11T11:23:49.153Z</time></trkpt><trkpt lat="43.7874067" lon="11.371335"><ele>104.0</ele><time>2026-04-11T11:23:50.154Z</time></trkpt><trkpt lat="43.7873417" lon="11.3713617"><ele>102.33333333333334</ele><time>2026-04-11T11:23:51.153Z</time></trkpt><trkpt lat="43.7872783" lon="11.3713983"><ele>100.66666666666667</ele><time>2026-04-11T11:23:52.153Z</time></trkpt><trkpt lat="43.7872233" lon="11.3714533"><ele>99.0</ele><time>2026-04-11T11:23:53.153Z</time></trkpt><trkpt lat="43.7871567" lon="11.371595"><ele>97.6</ele><time>2026-04-11T11:23:55.154Z</time></trkpt><trkpt lat="43.7871217" lon="11.371755"><ele>96.2</ele><time>2026-04-11T11:23:57.153Z</time></trkpt><trkpt lat="43.7871083" lon="11.3718533"><ele>94.8</ele><time>2026-04-11T11:23:58.153Z</time></trkpt><trkpt lat="43.78709" lon="11.371945"><ele>93.39999999999999</ele><time>2026-04-11T11:23:59.153Z</time></trkpt><trkpt lat="43.787065" lon="11.3720883"><ele>92.0</ele><time>2026-04-11T11:24:01.153Z</time></trkpt><trkpt lat="43.7870367" lon="11.3722033"><ele>91.57142857142857</ele><time>2026-04-11T11:24:07.153Z</time></trkpt><trkpt lat="43.7869833" lon="11.3722533"><ele>91.14285714285714</ele><time>2026-04-11T11:24:09.153Z</time></trkpt><trkpt lat="43.7868767" lon="11.372285"><ele>90.71428571428571</ele><time>2026-04-11T11:24:11.153Z</time></trkpt><trkpt lat="43.7868133" lon="11.3722983"><ele>90.28571428571428</ele><time>2026-04-11T11:24:12.153Z</time></trkpt><trkpt lat="43.78675" lon="11.37231"><ele>89.85714285714286</ele><time>2026-04-11T11:24:13.153Z</time></trkpt><trkpt lat="43.7866833" lon="11.37232"><ele>89.42857142857142</ele><time>2026-04-11T11:24:14.153Z</time></trkpt><trkpt lat="43.7866083" lon="11.3723333"><ele>89.0</ele><time>2026-04-11T11:24:15.153Z</time></trkpt><trkpt lat="43.7865333" lon="11.3723417"><ele>87.99999999999999</ele><time>2026-04-11T11:24:16.154Z</time></trkpt><trkpt lat="43.7864633" lon="11.37235"><ele>87.0</ele><time>2026-04-11T11:24:17.153Z</time></trkpt><trkpt lat="43.78639" lon="11.3723633"><ele>86.0</ele><time>2026-04-11T11:24:18.153Z</time></trkpt><trkpt lat="43.7863167" lon="11.37237"><ele>85.0</ele><time>2026-04-11T11:24:19.153Z</time></trkpt><trkpt lat="43.78624" lon="11.3723817"><ele>84.0</ele><time>2026-04-11T11:24:20.154Z</time></trkpt><trkpt lat="43.786165" lon="11.3723883"><ele>82.99999999999999</ele><time>2026-04-11T11:24:21.153Z</time></trkpt><trkpt lat="43.7861" lon="11.3723883"><ele>82.0</ele><time>2026-04-11T11:24:22.154Z</time></trkpt><trkpt lat="43.78602" lon="11.3723817"><ele>82.0</ele><time>2026-04-11T11:24:24.153Z</time></trkpt><trkpt lat="43.7861" lon="11.3723883"><ele>82.0</ele><time>2026-04-11T11:24:49.153Z</time></trkpt><trkpt lat="43.7862517" lon="11.3723717"><ele>82.0</ele><time>2026-04-11T11:24:51.153Z</time></trkpt><trkpt lat="43.7863483" lon="11.372355"><ele>82.0</ele><time>2026-04-11T11:24:52.153Z</time></trkpt><trkpt lat="43.7864617" lon="11.3723417"><ele>82.0</ele><time>2026-04-11T11:24:53.153Z</time></trkpt><trkpt lat="43.78658" lon="11.3723267"><ele>82.0</ele><time>2026-04-11T11:24:54.153Z</time></trkpt><trkpt lat="43.7866717" lon="11.3723183"><ele>82.0</ele><time>2026-04-11T11:24:55.153Z</time></trkpt><trkpt lat="43.786755" lon="11.372305"><ele>82.0</ele><time>2026-04-11T11:24:56.153Z</time></trkpt><trkpt lat="43.78683" lon="11.3722917"><ele>82.0</ele><time>2026-04-11T11:24:57.153Z</time></trkpt><trkpt lat="43.7868967" lon="11.3722833"><ele>82.0</ele><time>2026-04-11T11:24:58.153Z</time></trkpt><trkpt lat="43.786985" lon="11.372255"><ele>82.0</ele><time>2026-04-11T11:25:00.153Z</time></trkpt><trkpt lat="43.7870633" lon="11.3722717"><ele>82.0</ele><time>2026-04-11T11:25:07.153Z</time></trkpt><trkpt lat="43.7869883" lon="11.3722517"><ele>82.0</ele><time>2026-04-11T11:26:21.153Z</time></trkpt><trkpt lat="43.786905" lon="11.3722933"><ele>82.0</ele><time>2026-04-11T11:26:24.153Z</time></trkpt><trkpt lat="43.7868417" lon="11.3723"><ele>82.0</ele><time>2026-04-11T11:26:25.154Z</time></trkpt><trkpt lat="43.7867633" lon="11.37231"><ele>82.0</ele><time>2026-04-11T11:26:26.153Z</time></trkpt><trkpt lat="43.7866783" lon="11.3723167"><ele>82.0</ele><time>2026-04-11T11:26:27.153Z</time></trkpt><trkpt lat="43.7865817" lon="11.3723283"><ele>82.0</ele><time>2026-04-11T11:26:28.153Z</time></trkpt><trkpt lat="43.78648" lon="11.372345"><ele>82.0</ele><time>2026-04-11T11:26:29.153Z</time></trkpt><trkpt lat="43.7863783" lon="11.3723617"><ele>82.0</ele><time>2026-04-11T11:26:30.153Z</time></trkpt><trkpt lat="43.78629" lon="11.3723717"><ele>82.0</ele><time>2026-04-11T11:26:31.153Z</time></trkpt><trkpt lat="43.7862167" lon="11.3723783"><ele>82.0</ele><time>2026-04-11T11:26:32.153Z</time></trkpt><trkpt lat="43.7861483" lon="11.37239"><ele>82.0</ele><time>2026-04-11T11:26:33.153Z</time></trkpt><trkpt lat="43.7860433" lon="11.37239"><ele>81.66666666666666</ele><time>2026-04-11T11:26:35.153Z</time></trkpt><trkpt lat="43.78599" lon="11.3722533"><ele>81.33333333333333</ele><time>2026-04-11T11:26:44.153Z</time></trkpt><trkpt lat="43.7859867" lon="11.3721133"><ele>81.0</ele><time>2026-04-11T11:26:46.153Z</time></trkpt><trkpt lat="43.7859517" lon="11.3720267"><ele>80.66666666666667</ele><time>2026-04-11T11:26:48.153Z</time></trkpt><trkpt lat="43.7858883" lon="11.3720217"><ele>80.33333333333334</ele><time>2026-04-11T11:26:51.154Z</time></trkpt><trkpt lat="43.7858033" lon="11.3720433"><ele>80.0</ele><time>2026-04-11T11:26:54.154Z</time></trkpt><trkpt lat="43.785735" lon="11.3720317"><ele>80.0</ele><time>2026-04-11T11:26:57.153Z</time></trkpt><trkpt lat="43.785665" lon="11.3719267"><ele>80.0</ele><time>2026-04-11T11:27:07.153Z</time></trkpt><trkpt lat="43.7856267" lon="11.37184"><ele>80.0</ele><time>2026-04-11T11:27:08.153Z</time></trkpt><trkpt lat="43.7856017" lon="11.3717433"><ele>80.0</ele><time>2026-04-11T11:27:09.153Z</time></trkpt><trkpt lat="43.78557" lon="11.37166"><ele>80.0</ele><time>2026-04-11T11:27:10.153Z</time></trkpt><trkpt lat="43.7855367" lon="11.3715783"><ele>80.0</ele><time>2026-04-11T11:27:11.153Z</time></trkpt><trkpt lat="43.7854917" lon="11.3714633"><ele>80.0</ele><time>2026-04-11T11:27:13.153Z</time></trkpt><trkpt lat="43.7854467" lon="11.3714"><ele>80.0</ele><time>2026-04-11T11:27:16.153Z</time></trkpt><trkpt lat="43.7853883" lon="11.3713433"><ele>80.0</ele><time>2026-04-11T11:27:22.153Z</time></trkpt><trkpt lat="43.7853617" lon="11.3714317"><ele>80.0</ele><time>2026-04-11T11:27:24.153Z</time></trkpt><trkpt lat="43.785435" lon="11.371605"><ele>80.0</ele><time>2026-04-11T11:27:26.153Z</time></trkpt><trkpt lat="43.7854967" lon="11.371745"><ele>80.0</ele><time>2026-04-11T11:27:27.153Z</time></trkpt><trkpt lat="43.7855583" lon="11.3719317"><ele>80.0</ele><time>2026-04-11T11:27:28.153Z</time></trkpt><trkpt lat="43.785615" lon="11.3721367"><ele>80.0</ele><time>2026-04-11T11:27:29.153Z</time></trkpt><trkpt lat="43.78567" lon="11.3723417"><ele>79.66666666666667</ele><time>2026-04-11T11:27:30.153Z</time></trkpt><trkpt lat="43.7857183" lon="11.3725617"><ele>79.33333333333333</ele><time>2026-04-11T11:27:31.153Z</time></trkpt><trkpt lat="43.78576" lon="11.3727817"><ele>79.0</ele><time>2026-04-11T11:27:32.153Z</time></trkpt><trkpt lat="43.7858083" lon="11.3730033"><ele>79.0</ele><time>2026-04-11T11:27:33.153Z</time></trkpt><trkpt lat="43.78586" lon="11.3732167"><ele>79.0</ele><time>2026-04-11T11:27:34.153Z</time></trkpt><trkpt lat="43.7859067" lon="11.3734383"><ele>79.0</ele><time>2026-04-11T11:27:35.153Z</time></trkpt><trkpt lat="43.78595" lon="11.3736617"><ele>79.33333333333333</ele><time>2026-04-11T11:27:36.153Z</time></trkpt><trkpt lat="43.7859933" lon="11.3738883"><ele>79.66666666666667</ele><time>2026-04-11T11:27:37.153Z</time></trkpt><trkpt lat="43.7860383" lon="11.3741183"><ele>80.0</ele><time>2026-04-11T11:27:38.153Z</time></trkpt><trkpt lat="43.7860833" lon="11.3743367"><ele>81.66666666666667</ele><time>2026-04-11T11:27:39.153Z</time></trkpt><trkpt lat="43.7861317" lon="11.3745533"><ele>83.33333333333333</ele><time>2026-04-11T11:27:40.153Z</time></trkpt><trkpt lat="43.786175" lon="11.374755"><ele>85.0</ele><time>2026-04-11T11:27:41.153Z</time></trkpt><trkpt lat="43.786215" lon="11.37494"><ele>85.4</ele><time>2026-04-11T11:27:42.153Z</time></trkpt><trkpt lat="43.7862583" lon="11.3751083"><ele>85.8</ele><time>2026-04-11T11:27:43.153Z</time></trkpt><trkpt lat="43.7862817" lon="11.375255"><ele>86.19999999999999</ele><time>2026-04-11T11:27:44.153Z</time></trkpt><trkpt lat="43.7862883" lon="11.3753817"><ele>86.6</ele><time>2026-04-11T11:27:45.154Z</time></trkpt><trkpt lat="43.7862633" lon="11.37549"><ele>87.0</ele><time>2026-04-11T11:27:46.153Z</time></trkpt><trkpt lat="43.78622" lon="11.3755917"><ele>86.19999999999999</ele><time>2026-04-11T11:27:47.154Z</time></trkpt><trkpt lat="43.786185" lon="11.3757017"><ele>85.4</ele><time>2026-04-11T11:27:48.154Z</time></trkpt><trkpt lat="43.78618" lon="11.3758233"><ele>84.6</ele><time>2026-04-11T11:27:49.154Z</time></trkpt><trkpt lat="43.7862067" lon="11.37595"><ele>83.80000000000001</ele><time>2026-04-11T11:27:50.153Z</time></trkpt><trkpt lat="43.7862533" lon="11.3760983"><ele>83.0</ele><time>2026-04-11T11:27:51.153Z</time></trkpt><trkpt lat="43.78631" lon="11.37627"><ele>82.25</ele><time>2026-04-11T11:27:52.153Z</time></trkpt><trkpt lat="43.7863733" lon="11.3764517"><ele>81.5</ele><time>2026-04-11T11:27:53.153Z</time></trkpt><trkpt lat="43.7864367" lon="11.3766417"><ele>80.75</ele><time>2026-04-11T11:27:54.154Z</time></trkpt><trkpt lat="43.7865017" lon="11.3768317"><ele>80.0</ele><time>2026-04-11T11:27:55.153Z</time></trkpt><trkpt lat="43.7865683" lon="11.37703"><ele>79.75</ele><time>2026-04-11T11:27:56.153Z</time></trkpt><trkpt lat="43.78663" lon="11.377215"><ele>79.5</ele><time>2026-04-11T11:27:57.153Z</time></trkpt><trkpt lat="43.786685" lon="11.37738"><ele>79.25</ele><time>2026-04-11T11:27:58.153Z</time></trkpt><trkpt lat="43.7867383" lon="11.37753"><ele>79.0</ele><time>2026-04-11T11:27:59.153Z</time></trkpt><trkpt lat="43.7867817" lon="11.3776683"><ele>79.0</ele><time>2026-04-11T11:28:00.153Z</time></trkpt><trkpt lat="43.7868183" lon="11.3777817"><ele>79.0</ele><time>2026-04-11T11:28:01.154Z</time></trkpt><trkpt lat="43.78685" lon="11.3778883"><ele>79.0</ele><time>2026-04-11T11:28:02.153Z</time></trkpt><trkpt lat="43.7868783" lon="11.3779933"><ele>79.0</ele><time>2026-04-11T11:28:03.153Z</time></trkpt><trkpt lat="43.7869183" lon="11.3780967"><ele>79.0</ele><time>2026-04-11T11:28:04.153Z</time></trkpt><trkpt lat="43.7869617" lon="11.3782067"><ele>79.0</ele><time>2026-04-11T11:28:05.153Z</time></trkpt><trkpt lat="43.7870083" lon="11.3783267"><ele>82.0</ele><time>2026-04-11T11:28:06.154Z</time></trkpt><trkpt lat="43.7870683" lon="11.3784417"><ele>85.0</ele><time>2026-04-11T11:28:07.154Z</time></trkpt><trkpt lat="43.7871467" lon="11.3785517"><ele>88.0</ele><time>2026-04-11T11:28:08.153Z</time></trkpt><trkpt lat="43.7872333" lon="11.3786583"><ele>91.0</ele><time>2026-04-11T11:28:09.153Z</time></trkpt><trkpt lat="43.7873283" lon="11.37876"><ele>88.75</ele><time>2026-04-11T11:28:10.154Z</time></trkpt><trkpt lat="43.78742" lon="11.3788633"><ele>86.5</ele><time>2026-04-11T11:28:11.153Z</time></trkpt><trkpt lat="43.787505" lon="11.3789717"><ele>84.25</ele><time>2026-04-11T11:28:12.153Z</time></trkpt><trkpt lat="43.7875867" lon="11.379095"><ele>82.0</ele><time>2026-04-11T11:28:13.153Z</time></trkpt><trkpt lat="43.7876683" lon="11.379235"><ele>82.0</ele><time>2026-04-11T11:28:14.153Z</time></trkpt><trkpt lat="43.7877567" lon="11.3793767"><ele>82.0</ele><time>2026-04-11T11:28:15.153Z</time></trkpt><trkpt lat="43.7878517" lon="11.3795283"><ele>82.0</ele><time>2026-04-11T11:28:16.153Z</time></trkpt><trkpt lat="43.7879583" lon="11.379675"><ele>82.0</ele><time>2026-04-11T11:28:17.153Z</time></trkpt><trkpt lat="43.788065" lon="11.3798267"><ele>82.0</ele><time>2026-04-11T11:28:18.153Z</time></trkpt><trkpt lat="43.7881767" lon="11.37998"><ele>82.0</ele><time>2026-04-11T11:28:19.153Z</time></trkpt><trkpt lat="43.7883033" lon="11.380125"><ele>82.0</ele><time>2026-04-11T11:28:20.153Z</time></trkpt><trkpt lat="43.788425" lon="11.3802717"><ele>81.33333333333333</ele><time>2026-04-11T11:28:21.153Z</time></trkpt><trkpt lat="43.7885533" lon="11.3804167"><ele>80.66666666666667</ele><time>2026-04-11T11:28:22.154Z</time></trkpt><trkpt lat="43.7886783" lon="11.3805567"><ele>80.0</ele><time>2026-04-11T11:28:23.153Z</time></trkpt><trkpt lat="43.788805" lon="11.3807"><ele>80.0</ele><time>2026-04-11T11:28:24.153Z</time></trkpt><trkpt lat="43.7889267" lon="11.38085"><ele>80.0</ele><time>2026-04-11T11:28:25.153Z</time></trkpt><trkpt lat="43.7890517" lon="11.38099"><ele>80.0</ele><time>2026-04-11T11:28:26.153Z</time></trkpt><trkpt lat="43.7891817" lon="11.3811283"><ele>80.0</ele><time>2026-04-11T11:28:27.153Z</time></trkpt><trkpt lat="43.7893067" lon="11.3812617"><ele>80.0</ele><time>2026-04-11T11:28:28.153Z</time></trkpt><trkpt lat="43.7894283" lon="11.3814"><ele>80.0</ele><time>2026-04-11T11:28:29.153Z</time></trkpt><trkpt lat="43.78955" lon="11.3815317"><ele>80.0</ele><time>2026-04-11T11:28:30.153Z</time></trkpt><trkpt lat="43.78967" lon="11.38166"><ele>80.0</ele><time>2026-04-11T11:28:31.153Z</time></trkpt><trkpt lat="43.7897833" lon="11.3817817"><ele>80.0</ele><time>2026-04-11T11:28:32.153Z</time></trkpt><trkpt lat="43.789885" lon="11.3818967"><ele>80.0</ele><time>2026-04-11T11:28:33.153Z</time></trkpt><trkpt lat="43.789975" lon="11.3820117"><ele>80.0</ele><time>2026-04-11T11:28:34.153Z</time></trkpt><trkpt lat="43.790035" lon="11.3821467"><ele>80.0</ele><time>2026-04-11T11:28:35.154Z</time></trkpt><trkpt lat="43.79007" lon="11.38231"><ele>80.0</ele><time>2026-04-11T11:28:36.153Z</time></trkpt><trkpt lat="43.790075" lon="11.3824967"><ele>80.0</ele><time>2026-04-11T11:28:37.153Z</time></trkpt><trkpt lat="43.790065" lon="11.382685"><ele>79.5</ele><time>2026-04-11T11:28:38.153Z</time></trkpt><trkpt lat="43.790055" lon="11.38287"><ele>79.0</ele><time>2026-04-11T11:28:39.153Z</time></trkpt><trkpt lat="43.790045" lon="11.38304"><ele>78.5</ele><time>2026-04-11T11:28:40.153Z</time></trkpt><trkpt lat="43.7900433" lon="11.3832"><ele>78.0</ele><time>2026-04-11T11:28:41.153Z</time></trkpt><trkpt lat="43.790065" lon="11.38336"><ele>77.5</ele><time>2026-04-11T11:28:42.153Z</time></trkpt><trkpt lat="43.7901133" lon="11.3835067"><ele>77.0</ele><time>2026-04-11T11:28:43.154Z</time></trkpt><trkpt lat="43.7901983" lon="11.38362"><ele>76.5</ele><time>2026-04-11T11:28:44.154Z</time></trkpt><trkpt lat="43.79031" lon="11.3837033"><ele>76.0</ele><time>2026-04-11T11:28:45.153Z</time></trkpt><trkpt lat="43.7904217" lon="11.3837783"><ele>75.25</ele><time>2026-04-11T11:28:46.153Z</time></trkpt><trkpt lat="43.7905433" lon="11.383855"><ele>74.5</ele><time>2026-04-11T11:28:47.153Z</time></trkpt><trkpt lat="43.7906533" lon="11.3839117"><ele>73.75</ele><time>2026-04-11T11:28:48.153Z</time></trkpt><trkpt lat="43.79077" lon="11.3839433"><ele>73.0</ele><time>2026-04-11T11:28:49.153Z</time></trkpt><trkpt lat="43.7908817" lon="11.3839783"><ele>73.0</ele><time>2026-04-11T11:28:50.153Z</time></trkpt><trkpt lat="43.7909767" lon="11.3839983"><ele>73.0</ele><time>2026-04-11T11:28:51.153Z</time></trkpt><trkpt lat="43.7910567" lon="11.3840083"><ele>73.0</ele><time>2026-04-11T11:28:52.153Z</time></trkpt><trkpt lat="43.79115" lon="11.3840233"><ele>73.0</ele><time>2026-04-11T11:28:54.153Z</time></trkpt><trkpt lat="43.79129" lon="11.3840583"><ele>73.0</ele><time>2026-04-11T11:28:56.153Z</time></trkpt><trkpt lat="43.7913917" lon="11.3840817"><ele>73.25</ele><time>2026-04-11T11:28:57.153Z</time></trkpt><trkpt lat="43.79151" lon="11.38411"><ele>73.5</ele><time>2026-04-11T11:28:58.153Z</time></trkpt><trkpt lat="43.79163" lon="11.38415"><ele>73.75</ele><time>2026-04-11T11:28:59.153Z</time></trkpt><trkpt lat="43.791745" lon="11.38419"><ele>74.0</ele><time>2026-04-11T11:29:00.153Z</time></trkpt><trkpt lat="43.791855" lon="11.3842417"><ele>75.2</ele><time>2026-04-11T11:29:01.153Z</time></trkpt><trkpt lat="43.79194" lon="11.38431"><ele>76.4</ele><time>2026-04-11T11:29:02.153Z</time></trkpt><trkpt lat="43.7920133" lon="11.3843867"><ele>77.6</ele><time>2026-04-11T11:29:03.153Z</time></trkpt><trkpt lat="43.7920683" lon="11.384455"><ele>78.8</ele><time>2026-04-11T11:29:04.153Z</time></trkpt><trkpt lat="43.7921583" lon="11.3845183"><ele>80.0</ele><time>2026-04-11T11:29:06.153Z</time></trkpt><trkpt lat="43.7922533" lon="11.3844967"><ele>80.0</ele><time>2026-04-11T11:29:08.153Z</time></trkpt><trkpt lat="43.79231" lon="11.3844033"><ele>80.0</ele><time>2026-04-11T11:29:09.153Z</time></trkpt><trkpt lat="43.792365" lon="11.3842917"><ele>80.0</ele><time>2026-04-11T11:29:10.153Z</time></trkpt><trkpt lat="43.7924117" lon="11.38419"><ele>80.0</ele><time>2026-04-11T11:29:11.154Z</time></trkpt><trkpt lat="43.7925117" lon="11.384135"><ele>80.0</ele><time>2026-04-11T11:29:13.153Z</time></trkpt><trkpt lat="43.79258" lon="11.38427"><ele>80.0</ele><time>2026-04-11T11:29:15.153Z</time></trkpt><trkpt lat="43.7925833" lon="11.3843733"><ele>80.0</ele><time>2026-04-11T11:29:16.153Z</time></trkpt><trkpt lat="43.7926133" lon="11.384515"><ele>80.0</ele><time>2026-04-11T11:29:18.153Z</time></trkpt><trkpt lat="43.7926983" lon="11.3845217"><ele>80.0</ele><time>2026-04-11T11:29:20.153Z</time></trkpt><trkpt lat="43.792795" lon="11.384415"><ele>80.0</ele><time>2026-04-11T11:29:22.153Z</time></trkpt><trkpt lat="43.7928533" lon="11.3843517"><ele>81.4</ele><time>2026-04-11T11:29:24.153Z</time></trkpt><trkpt lat="43.7927933" lon="11.3844283"><ele>82.8</ele><time>2026-04-11T11:29:49.153Z</time></trkpt><trkpt lat="43.7927767" lon="11.3845367"><ele>84.19999999999999</ele><time>2026-04-11T11:29:53.153Z</time></trkpt><trkpt lat="43.7928317" lon="11.3846133"><ele>85.6</ele><time>2026-04-11T11:29:55.153Z</time></trkpt><trkpt lat="43.7929033" lon="11.3847117"><ele>87.0</ele><time>2026-04-11T11:29:57.153Z</time></trkpt><trkpt lat="43.7929783" lon="11.3848417"><ele>87.0</ele><time>2026-04-11T11:29:59.153Z</time></trkpt><trkpt lat="43.7930183" lon="11.3849167"><ele>87.0</ele><time>2026-04-11T11:30:00.153Z</time></trkpt><trkpt lat="43.793055" lon="11.3850033"><ele>87.0</ele><time>2026-04-11T11:30:01.153Z</time></trkpt><trkpt lat="43.7930917" lon="11.38509"><ele>87.0</ele><time>2026-04-11T11:30:02.153Z</time></trkpt><trkpt lat="43.7931217" lon="11.3851767"><ele>87.0</ele><time>2026-04-11T11:30:03.154Z</time></trkpt><trkpt lat="43.7931517" lon="11.385265"><ele>87.0</ele><time>2026-04-11T11:30:04.153Z</time></trkpt><trkpt lat="43.7931733" lon="11.385355"><ele>87.0</ele><time>2026-04-11T11:30:05.153Z</time></trkpt><trkpt lat="43.793205" lon="11.3854533"><ele>86.28571428571428</ele><time>2026-04-11T11:30:06.153Z</time></trkpt><trkpt lat="43.7932283" lon="11.3855467"><ele>85.57142857142857</ele><time>2026-04-11T11:30:07.153Z</time></trkpt><trkpt lat="43.793255" lon="11.3856467"><ele>84.85714285714286</ele><time>2026-04-11T11:30:08.153Z</time></trkpt><trkpt lat="43.7932817" lon="11.3857417"><ele>84.14285714285714</ele><time>2026-04-11T11:30:09.153Z</time></trkpt><trkpt lat="43.7933017" lon="11.3858333"><ele>83.42857142857143</ele><time>2026-04-11T11:30:10.153Z</time></trkpt><trkpt lat="43.7933267" lon="11.3859267"><ele>82.71428571428571</ele><time>2026-04-11T11:30:11.153Z</time></trkpt><trkpt lat="43.793355" lon="11.3860333"><ele>82.0</ele><time>2026-04-11T11:30:12.153Z</time></trkpt><trkpt lat="43.79338" lon="11.3861383"><ele>82.0</ele><time>2026-04-11T11:30:13.153Z</time></trkpt><trkpt lat="43.7934017" lon="11.386245"><ele>82.0</ele><time>2026-04-11T11:30:14.153Z</time></trkpt><trkpt lat="43.7934183" lon="11.3863433"><ele>82.0</ele><time>2026-04-11T11:30:15.153Z</time></trkpt><trkpt lat="43.79343" lon="11.3864317"><ele>82.0</ele><time>2026-04-11T11:30:16.153Z</time></trkpt><trkpt lat="43.79343" lon="11.3866"><ele>82.0</ele><time>2026-04-11T11:30:18.153Z</time></trkpt><trkpt lat="43.7934483" lon="11.38677"><ele>81.8</ele><time>2026-04-11T11:30:20.153Z</time></trkpt><trkpt lat="43.793475" lon="11.3868567"><ele>81.6</ele><time>2026-04-11T11:30:21.153Z</time></trkpt><trkpt lat="43.793505" lon="11.3869417"><ele>81.39999999999999</ele><time>2026-04-11T11:30:22.154Z</time></trkpt><trkpt lat="43.7935533" lon="11.3870883"><ele>81.19999999999999</ele><time>2026-04-11T11:30:24.153Z</time></trkpt><trkpt lat="43.7935783" lon="11.3872267"><ele>81.0</ele><time>2026-04-11T11:30:26.153Z</time></trkpt><trkpt lat="43.7935717" lon="11.3873683"><ele>82.33333333333333</ele><time>2026-04-11T11:30:28.153Z</time></trkpt><trkpt lat="43.7935717" lon="11.387515"><ele>83.66666666666667</ele><time>2026-04-11T11:30:30.154Z</time></trkpt><trkpt lat="43.7936017" lon="11.387675"><ele>85.0</ele><time>2026-04-11T11:30:32.153Z</time></trkpt><trkpt lat="43.7936183" lon="11.3877683"><ele>86.33333333333334</ele><time>2026-04-11T11:30:33.154Z</time></trkpt><trkpt lat="43.7936367" lon="11.38786"><ele>87.66666666666667</ele><time>2026-04-11T11:30:34.154Z</time></trkpt><trkpt lat="43.7936533" lon="11.38795"><ele>89.0</ele><time>2026-04-11T11:30:35.154Z</time></trkpt><trkpt lat="43.7936833" lon="11.38809"><ele>89.0</ele><time>2026-04-11T11:30:37.153Z</time></trkpt><trkpt lat="43.7937083" lon="11.3882183"><ele>89.0</ele><time>2026-04-11T11:30:39.153Z</time></trkpt><trkpt lat="43.7937467" lon="11.3883733"><ele>89.0</ele><time>2026-04-11T11:30:41.153Z</time></trkpt><trkpt lat="43.7938083" lon="11.3885033"><ele>89.0</ele><time>2026-04-11T11:30:43.153Z</time></trkpt><trkpt lat="43.7938467" lon="11.388575"><ele>89.0</ele><time>2026-04-11T11:30:44.153Z</time></trkpt><trkpt lat="43.79389" lon="11.3886467"><ele>89.0</ele><time>2026-04-11T11:30:45.154Z</time></trkpt><trkpt lat="43.7939417" lon="11.388715"><ele>89.0</ele><time>2026-04-11T11:30:46.153Z</time></trkpt><trkpt lat="43.79399" lon="11.3887767"><ele>89.0</ele><time>2026-04-11T11:30:47.153Z</time></trkpt><trkpt lat="43.7940733" lon="11.3888583"><ele>89.0</ele><time>2026-04-11T11:30:49.153Z</time></trkpt><trkpt lat="43.79414" lon="11.3889383"><ele>89.0</ele><time>2026-04-11T11:30:52.153Z</time></trkpt><trkpt lat="43.79409" lon="11.3890467"><ele>89.0</ele><time>2026-04-11T11:30:57.153Z</time></trkpt><trkpt lat="43.794025" lon="11.3891133"><ele>87.0</ele><time>2026-04-11T11:30:59.153Z</time></trkpt><trkpt lat="43.79394" lon="11.3891533"><ele>85.0</ele><time>2026-04-11T11:31:01.153Z</time></trkpt><trkpt lat="43.7938067" lon="11.3891067"><ele>83.0</ele><time>2026-04-11T11:31:03.153Z</time></trkpt><trkpt lat="43.7937267" lon="11.3890433"><ele>81.0</ele><time>2026-04-11T11:31:04.153Z</time></trkpt><trkpt lat="43.7936633" lon="11.3889767"><ele>79.0</ele><time>2026-04-11T11:31:05.154Z</time></trkpt><trkpt lat="43.79361" lon="11.3889217"><ele>79.0</ele><time>2026-04-11T11:31:06.153Z</time></trkpt><trkpt lat="43.793555" lon="11.3888683"><ele>79.0</ele><time>2026-04-11T11:31:07.153Z</time></trkpt><trkpt lat="43.7935033" lon="11.388815"><ele>79.0</ele><time>2026-04-11T11:31:08.153Z</time></trkpt><trkpt lat="43.793445" lon="11.3887567"><ele>79.0</ele><time>2026-04-11T11:31:09.153Z</time></trkpt><trkpt lat="43.7933933" lon="11.3886983"><ele>79.0</ele><time>2026-04-11T11:31:10.153Z</time></trkpt><trkpt lat="43.7933217" lon="11.388595"><ele>79.0</ele><time>2026-04-11T11:31:12.153Z</time></trkpt><trkpt lat="43.79323" lon="11.388525"><ele>78.2</ele><time>2026-04-11T11:31:14.153Z</time></trkpt><trkpt lat="43.7931383" lon="11.3884733"><ele>77.4</ele><time>2026-04-11T11:31:16.153Z</time></trkpt><trkpt lat="43.7930483" lon="11.3884333"><ele>76.6</ele><time>2026-04-11T11:31:18.153Z</time></trkpt><trkpt lat="43.79299" lon="11.3884767"><ele>75.8</ele><time>2026-04-11T11:31:23.153Z</time></trkpt><trkpt lat="43.7929767" lon="11.388645"><ele>75.0</ele><time>2026-04-11T11:31:25.153Z</time></trkpt><trkpt lat="43.79296" lon="11.3887617"><ele>74.83333333333333</ele><time>2026-04-11T11:31:26.153Z</time></trkpt><trkpt lat="43.7929417" lon="11.3888817"><ele>74.66666666666667</ele><time>2026-04-11T11:31:27.153Z</time></trkpt><trkpt lat="43.7929083" lon="11.3890083"><ele>74.5</ele><time>2026-04-11T11:31:28.154Z</time></trkpt><trkpt lat="43.792865" lon="11.38912"><ele>74.33333333333334</ele><time>2026-04-11T11:31:29.153Z</time></trkpt><trkpt lat="43.7928217" lon="11.38922"><ele>74.16666666666667</ele><time>2026-04-11T11:31:30.153Z</time></trkpt><trkpt lat="43.7927867" lon="11.3893117"><ele>74.0</ele><time>2026-04-11T11:31:31.153Z</time></trkpt><trkpt lat="43.7927417" lon="11.3894367"><ele>74.0</ele><time>2026-04-11T11:31:33.153Z</time></trkpt><trkpt lat="43.792705" lon="11.38951"><ele>74.0</ele><time>2026-04-11T11:31:37.153Z</time></trkpt><trkpt lat="43.792755" lon="11.3895917"><ele>74.0</ele><time>2026-04-11T11:31:40.153Z</time></trkpt><trkpt lat="43.7928167" lon="11.3896217"><ele>74.0</ele><time>2026-04-11T11:31:41.153Z</time></trkpt><trkpt lat="43.7929017" lon="11.389655"><ele>74.0</ele><time>2026-04-11T11:31:42.153Z</time></trkpt><trkpt lat="43.7930033" lon="11.3897017"><ele>74.0</ele><time>2026-04-11T11:31:43.153Z</time></trkpt><trkpt lat="43.793105" lon="11.3897583"><ele>74.4</ele><time>2026-04-11T11:31:44.153Z</time></trkpt><trkpt lat="43.7932033" lon="11.3898133"><ele>74.80000000000001</ele><time>2026-04-11T11:31:45.153Z</time></trkpt><trkpt lat="43.7932933" lon="11.3898633"><ele>75.19999999999999</ele><time>2026-04-11T11:31:46.154Z</time></trkpt><trkpt lat="43.793395" lon="11.3899333"><ele>75.6</ele><time>2026-04-11T11:31:47.154Z</time></trkpt><trkpt lat="43.793495" lon="11.3899983"><ele>76.0</ele><time>2026-04-11T11:31:48.153Z</time></trkpt><trkpt lat="43.7935933" lon="11.3900583"><ele>76.2</ele><time>2026-04-11T11:31:49.153Z</time></trkpt><trkpt lat="43.7936917" lon="11.3901017"><ele>76.39999999999999</ele><time>2026-04-11T11:31:50.153Z</time></trkpt><trkpt lat="43.7937917" lon="11.3901317"><ele>76.6</ele><time>2026-04-11T11:31:51.153Z</time></trkpt><trkpt lat="43.793895" lon="11.390145"><ele>76.8</ele><time>2026-04-11T11:31:52.153Z</time></trkpt><trkpt lat="43.7939933" lon="11.3901317"><ele>77.0</ele><time>2026-04-11T11:31:53.154Z</time></trkpt><trkpt lat="43.7940883" lon="11.3901167"><ele>77.0</ele><time>2026-04-11T11:31:54.153Z</time></trkpt><trkpt lat="43.794185" lon="11.3900983"><ele>77.0</ele><time>2026-04-11T11:31:55.153Z</time></trkpt><trkpt lat="43.794285" lon="11.39007"><ele>77.0</ele><time>2026-04-11T11:31:56.153Z</time></trkpt><trkpt lat="43.7943883" lon="11.3900367"><ele>77.0</ele><time>2026-04-11T11:31:57.153Z</time></trkpt><trkpt lat="43.794485" lon="11.389995"><ele>77.0</ele><time>2026-04-11T11:31:58.153Z</time></trkpt><trkpt lat="43.7945917" lon="11.3899633"><ele>77.0</ele><time>2026-04-11T11:31:59.154Z</time></trkpt><trkpt lat="43.79469" lon="11.38993"><ele>77.0</ele><time>2026-04-11T11:32:00.154Z</time></trkpt><trkpt lat="43.79478" lon="11.38989"><ele>77.0</ele><time>2026-04-11T11:32:01.153Z</time></trkpt><trkpt lat="43.7948717" lon="11.38986"><ele>77.0</ele><time>2026-04-11T11:32:02.153Z</time></trkpt><trkpt lat="43.79496" lon="11.3898333"><ele>77.0</ele><time>2026-04-11T11:32:03.153Z</time></trkpt><trkpt lat="43.79504" lon="11.3898067"><ele>77.0</ele><time>2026-04-11T11:32:04.153Z</time></trkpt><trkpt lat="43.79511" lon="11.3897783"><ele>77.0</ele><time>2026-04-11T11:32:05.153Z</time></trkpt><trkpt lat="43.7952083" lon="11.3897533"><ele>77.0</ele><time>2026-04-11T11:32:07.153Z</time></trkpt><trkpt lat="43.7951267" lon="11.389765"><ele>77.0</ele><time>2026-04-11T11:32:23.154Z</time></trkpt><trkpt lat="43.7951067" lon="11.3899167"><ele>77.0</ele><time>2026-04-11T11:32:27.153Z</time></trkpt><trkpt lat="43.7951267" lon="11.3900283"><ele>77.0</ele><time>2026-04-11T11:32:28.153Z</time></trkpt><trkpt lat="43.7951467" lon="11.3901383"><ele>77.0</ele><time>2026-04-11T11:32:29.154Z</time></trkpt><trkpt lat="43.79516" lon="11.3902333"><ele>77.0</ele><time>2026-04-11T11:32:30.153Z</time></trkpt><trkpt lat="43.795185" lon="11.39032"><ele>77.0</ele><time>2026-04-11T11:32:32.153Z</time></trkpt><trkpt lat="43.7952583" lon="11.3903633"><ele>77.0</ele><time>2026-04-11T11:32:47.153Z</time></trkpt><trkpt lat="43.795335" lon="11.3903967"><ele>77.0</ele><time>2026-04-11T11:32:48.153Z</time></trkpt><trkpt lat="43.7954083" lon="11.3904533"><ele>77.0</ele><time>2026-04-11T11:32:49.153Z</time></trkpt><trkpt lat="43.79547" lon="11.390555"><ele>79.0</ele><time>2026-04-11T11:32:50.153Z</time></trkpt><trkpt lat="43.7955183" lon="11.3906867"><ele>81.0</ele><time>2026-04-11T11:32:51.154Z</time></trkpt><trkpt lat="43.7955567" lon="11.3908333"><ele>83.0</ele><time>2026-04-11T11:32:52.153Z</time></trkpt><trkpt lat="43.79557" lon="11.391005"><ele>85.0</ele><time>2026-04-11T11:32:53.154Z</time></trkpt><trkpt lat="43.795575" lon="11.3911717"><ele>85.0</ele><time>2026-04-11T11:32:54.153Z</time></trkpt><trkpt lat="43.7955883" lon="11.391315"><ele>85.0</ele><time>2026-04-11T11:32:55.153Z</time></trkpt><trkpt lat="43.7955983" lon="11.3914533"><ele>85.0</ele><time>2026-04-11T11:32:56.153Z</time></trkpt><trkpt lat="43.79561" lon="11.39156"><ele>85.0</ele><time>2026-04-11T11:32:57.153Z</time></trkpt><trkpt lat="43.795615" lon="11.391695"><ele>85.0</ele><time>2026-04-11T11:32:59.154Z</time></trkpt><trkpt lat="43.7955417" lon="11.391805"><ele>86.83333333333333</ele><time>2026-04-11T11:33:01.154Z</time></trkpt><trkpt lat="43.7954633" lon="11.39183"><ele>88.66666666666666</ele><time>2026-04-11T11:33:02.154Z</time></trkpt><trkpt lat="43.79537" lon="11.39184"><ele>90.5</ele><time>2026-04-11T11:33:03.153Z</time></trkpt><trkpt lat="43.7952967" lon="11.3918367"><ele>92.33333333333333</ele><time>2026-04-11T11:33:04.154Z</time></trkpt><trkpt lat="43.7952133" lon="11.3918633"><ele>94.16666666666667</ele><time>2026-04-11T11:33:06.154Z</time></trkpt><trkpt lat="43.7951267" lon="11.3918383"><ele>96.0</ele><time>2026-04-11T11:33:10.153Z</time></trkpt><trkpt lat="43.795055" lon="11.3918233"><ele>96.0</ele><time>2026-04-11T11:33:11.153Z</time></trkpt><trkpt lat="43.7949583" lon="11.3918167"><ele>96.0</ele><time>2026-04-11T11:33:12.153Z</time></trkpt><trkpt lat="43.79486" lon="11.3918183"><ele>96.0</ele><time>2026-04-11T11:33:13.153Z</time></trkpt><trkpt lat="43.7947667" lon="11.391805"><ele>96.0</ele><time>2026-04-11T11:33:14.153Z</time></trkpt><trkpt lat="43.794665" lon="11.3917633"><ele>96.0</ele><time>2026-04-11T11:33:15.153Z</time></trkpt><trkpt lat="43.79456" lon="11.39169"><ele>96.0</ele><time>2026-04-11T11:33:16.154Z</time></trkpt><trkpt lat="43.794465" lon="11.3916133"><ele>96.0</ele><time>2026-04-11T11:33:17.153Z</time></trkpt><trkpt lat="43.7943833" lon="11.3915333"><ele>96.0</ele><time>2026-04-11T11:33:18.153Z</time></trkpt><trkpt lat="43.794315" lon="11.39146"><ele>96.0</ele><time>2026-04-11T11:33:19.153Z</time></trkpt><trkpt lat="43.7942617" lon="11.3913867"><ele>96.0</ele><time>2026-04-11T11:33:20.153Z</time></trkpt><trkpt lat="43.79422" lon="11.39132"><ele>96.0</ele><time>2026-04-11T11:33:21.153Z</time></trkpt><trkpt lat="43.794165" lon="11.3912767"><ele>95.4</ele><time>2026-04-11T11:33:23.153Z</time></trkpt><trkpt lat="43.7941" lon="11.391315"><ele>94.8</ele><time>2026-04-11T11:33:25.153Z</time></trkpt><trkpt lat="43.7940383" lon="11.391425"><ele>94.2</ele><time>2026-04-11T11:33:27.153Z</time></trkpt><trkpt lat="43.793975" lon="11.3915533"><ele>93.60000000000001</ele><time>2026-04-11T11:33:29.153Z</time></trkpt><trkpt lat="43.7938917" lon="11.3916583"><ele>93.0</ele><time>2026-04-11T11:33:31.153Z</time></trkpt><trkpt lat="43.793815" lon="11.39176"><ele>93.0</ele><time>2026-04-11T11:33:33.153Z</time></trkpt><trkpt lat="43.79375" lon="11.391835"><ele>93.0</ele><time>2026-04-11T11:33:35.153Z</time></trkpt><trkpt lat="43.7936767" lon="11.391915"><ele>93.0</ele><time>2026-04-11T11:33:37.153Z</time></trkpt><trkpt lat="43.793605" lon="11.392015"><ele>93.0</ele><time>2026-04-11T11:33:39.153Z</time></trkpt><trkpt lat="43.79354" lon="11.3921067"><ele>93.0</ele><time>2026-04-11T11:33:41.153Z</time></trkpt><trkpt lat="43.7934717" lon="11.3921917"><ele>94.5</ele><time>2026-04-11T11:33:44.153Z</time></trkpt><trkpt lat="43.7934326" lon="11.392273"><ele>96.0</ele><time>2026-04-11T11:33:46.2Z</time></trkpt><trkpt lat="43.7933661" lon="11.3923347"><ele>97.5</ele><time>2026-04-11T11:33:48.231Z</time></trkpt><trkpt lat="43.7933" lon="11.3923995"><ele>99.0</ele><time>2026-04-11T11:33:50.153Z</time></trkpt><trkpt lat="43.7932364" lon="11.3924702"><ele>100.5</ele><time>2026-04-11T11:33:52.081Z</time></trkpt><trkpt lat="43.7931736" lon="11.3925467"><ele>102.0</ele><time>2026-04-11T11:33:54.02Z</time></trkpt><trkpt lat="43.7931005" lon="11.392608"><ele>102.0</ele><time>2026-04-11T11:33:56.246Z</time></trkpt><trkpt lat="43.7930208" lon="11.3926644"><ele>102.0</ele><time>2026-04-11T11:33:59.251Z</time></trkpt><trkpt lat="43.7929555" lon="11.3927311"><ele>102.0</ele><time>2026-04-11T11:34:01.099Z</time></trkpt><trkpt lat="43.7929044" lon="11.3927887"><ele>102.0</ele><time>2026-04-11T11:34:03.159Z</time></trkpt><trkpt lat="43.7928388" lon="11.3928687"><ele>102.0</ele><time>2026-04-11T11:34:06.078Z</time></trkpt><trkpt lat="43.7927821" lon="11.3929265"><ele>102.0</ele><time>2026-04-11T11:34:08.003Z</time></trkpt><trkpt lat="43.7927196" lon="11.393005"><ele>101.57142857142857</ele><time>2026-04-11T11:34:10.239Z</time></trkpt><trkpt lat="43.7927107" lon="11.3930995"><ele>101.14285714285714</ele><time>2026-04-11T11:34:13.177Z</time></trkpt><trkpt lat="43.7927276" lon="11.3931938"><ele>100.71428571428572</ele><time>2026-04-11T11:34:15.18Z</time></trkpt><trkpt lat="43.7927032" lon="11.3932824"><ele>100.28571428571428</ele><time>2026-04-11T11:34:18.292Z</time></trkpt><trkpt lat="43.7926667" lon="11.3933861"><ele>99.85714285714285</ele><time>2026-04-11T11:34:20.217Z</time></trkpt><trkpt lat="43.7926279" lon="11.3934958"><ele>99.42857142857143</ele><time>2026-04-11T11:34:23.277Z</time></trkpt><trkpt lat="43.7926083" lon="11.393585"><ele>99.0</ele><time>2026-04-11T11:34:46.154Z</time></trkpt><trkpt lat="43.7925983" lon="11.3937017"><ele>99.0</ele><time>2026-04-11T11:34:49.153Z</time></trkpt><trkpt lat="43.7925967" lon="11.393805"><ele>99.0</ele><time>2026-04-11T11:34:51.154Z</time></trkpt><trkpt lat="43.7925883" lon="11.393905"><ele>99.0</ele><time>2026-04-11T11:34:53.153Z</time></trkpt><trkpt lat="43.7925817" lon="11.3940033"><ele>99.0</ele><time>2026-04-11T11:34:55.153Z</time></trkpt><trkpt lat="43.7925667" lon="11.3941217"><ele>99.0</ele><time>2026-04-11T11:34:57.154Z</time></trkpt><trkpt lat="43.7925483" lon="11.3942233"><ele>99.0</ele><time>2026-04-11T11:34:59.154Z</time></trkpt><trkpt lat="43.7925367" lon="11.39433"><ele>100.5</ele><time>2026-04-11T11:35:03.153Z</time></trkpt><trkpt lat="43.7925233" lon="11.3944183"><ele>102.0</ele><time>2026-04-11T11:35:05.154Z</time></trkpt><trkpt lat="43.79251" lon="11.39453"><ele>103.5</ele><time>2026-04-11T11:35:07.153Z</time></trkpt><trkpt lat="43.7925" lon="11.3946483"><ele>105.0</ele><time>2026-04-11T11:35:10.153Z</time></trkpt><trkpt lat="43.792495" lon="11.39476"><ele>106.5</ele><time>2026-04-11T11:35:14.153Z</time></trkpt><trkpt lat="43.792475" lon="11.3948717"><ele>108.0</ele><time>2026-04-11T11:35:17.153Z</time></trkpt><trkpt lat="43.79247" lon="11.3949883"><ele>108.0</ele><time>2026-04-11T11:35:22.153Z</time></trkpt><trkpt lat="43.792485" lon="11.3950767"><ele>108.0</ele><time>2026-04-11T11:35:24.153Z</time></trkpt><trkpt lat="43.7924717" lon="11.395185"><ele>108.0</ele><time>2026-04-11T11:35:27.153Z</time></trkpt><trkpt lat="43.7924817" lon="11.3952917"><ele>108.0</ele><time>2026-04-11T11:35:30.153Z</time></trkpt><trkpt lat="43.792495" lon="11.3953833"><ele>108.0</ele><time>2026-04-11T11:35:32.154Z</time></trkpt><trkpt lat="43.7925067" lon="11.3954717"><ele>108.0</ele><time>2026-04-11T11:35:34.153Z</time></trkpt><trkpt lat="43.7925283" lon="11.3955617"><ele>108.0</ele><time>2026-04-11T11:35:36.153Z</time></trkpt><trkpt lat="43.7925467" lon="11.3956717"><ele>108.0</ele><time>2026-04-11T11:35:39.153Z</time></trkpt><trkpt lat="43.7925767" lon="11.395825"><ele>108.00000000000001</ele><time>2026-04-11T11:36:27.153Z</time></trkpt><trkpt lat="43.7925917" lon="11.3959417"><ele>108.00000000000001</ele><time>2026-04-11T11:36:31.153Z</time></trkpt><trkpt lat="43.7926317" lon="11.39607"><ele>108.0</ele><time>2026-04-11T11:36:34.153Z</time></trkpt><trkpt lat="43.7926667" lon="11.396165"><ele>108.0</ele><time>2026-04-11T11:36:36.153Z</time></trkpt><trkpt lat="43.7926767" lon="11.3962833"><ele>128.0</ele><time>2026-04-11T11:36:39.153Z</time></trkpt><trkpt lat="43.79266" lon="11.396395"><ele>110.0</ele><time>2026-04-11T11:36:41.153Z</time></trkpt><trkpt lat="43.7926183" lon="11.396535"><ele>110.0</ele><time>2026-04-11T11:36:43.153Z</time></trkpt><trkpt lat="43.7925617" lon="11.3966767"><ele>110.0</ele><time>2026-04-11T11:36:45.153Z</time></trkpt><trkpt lat="43.7925383" lon="11.3967767"><ele>110.0</ele><time>2026-04-11T11:36:47.153Z</time></trkpt></trkseg><trkseg><trkpt lat="43.7978533" lon="11.41831"><ele>257.0</ele><time>2026-04-11T11:57:12.155Z</time></trkpt><trkpt lat="43.7978367" lon="11.41842"><ele>257.0</ele><time>2026-04-11T11:57:15.155Z</time></trkpt><trkpt lat="43.79785" lon="11.418535"><ele>257.0</ele><time>2026-04-11T11:57:19.156Z</time></trkpt><trkpt lat="43.79787" lon="11.418655"><ele>257.0</ele><time>2026-04-11T11:57:21.156Z</time></trkpt><trkpt lat="43.7978883" lon="11.418745"><ele>257.0</ele><time>2026-04-11T11:57:22.155Z</time></trkpt><trkpt lat="43.7979" lon="11.4188383"><ele>257.0</ele><time>2026-04-11T11:57:23.155Z</time></trkpt><trkpt lat="43.797905" lon="11.4189367"><ele>256.6666666666667</ele><time>2026-04-11T11:57:24.156Z</time></trkpt><trkpt lat="43.7979133" lon="11.4190317"><ele>256.33333333333337</ele><time>2026-04-11T11:57:25.156Z</time></trkpt><trkpt lat="43.7979167" lon="11.419125"><ele>256.0</ele><time>2026-04-11T11:57:26.155Z</time></trkpt><trkpt lat="43.7979183" lon="11.4192833"><ele>255.66666666666669</ele><time>2026-04-11T11:57:28.155Z</time></trkpt><trkpt lat="43.7979167" lon="11.4193767"><ele>255.33333333333334</ele><time>2026-04-11T11:57:29.155Z</time></trkpt><trkpt lat="43.7979067" lon="11.4195017"><ele>255.0</ele><time>2026-04-11T11:57:30.155Z</time></trkpt><trkpt lat="43.7978833" lon="11.4196417"><ele>254.2</ele><time>2026-04-11T11:57:31.155Z</time></trkpt><trkpt lat="43.7978533" lon="11.4197783"><ele>253.4</ele><time>2026-04-11T11:57:32.155Z</time></trkpt><trkpt lat="43.7978133" lon="11.4199067"><ele>252.60000000000002</ele><time>2026-04-11T11:57:33.155Z</time></trkpt><trkpt lat="43.7977733" lon="11.4200333"><ele>251.8</ele><time>2026-04-11T11:57:34.156Z</time></trkpt><trkpt lat="43.79772" lon="11.4201533"><ele>251.0</ele><time>2026-04-11T11:57:35.155Z</time></trkpt><trkpt lat="43.7976583" lon="11.42028"><ele>248.60000000000002</ele><time>2026-04-11T11:57:36.155Z</time></trkpt><trkpt lat="43.7975833" lon="11.4203983"><ele>246.20000000000002</ele><time>2026-04-11T11:57:37.155Z</time></trkpt><trkpt lat="43.7975117" lon="11.4205117"><ele>243.79999999999998</ele><time>2026-04-11T11:57:38.155Z</time></trkpt><trkpt lat="43.7974433" lon="11.4206283"><ele>241.39999999999998</ele><time>2026-04-11T11:57:39.155Z</time></trkpt><trkpt lat="43.7973767" lon="11.4207617"><ele>239.0</ele><time>2026-04-11T11:57:40.155Z</time></trkpt><trkpt lat="43.7973083" lon="11.4209133"><ele>239.0</ele><time>2026-04-11T11:57:41.155Z</time></trkpt><trkpt lat="43.7972417" lon="11.4210683"><ele>239.0</ele><time>2026-04-11T11:57:42.155Z</time></trkpt><trkpt lat="43.7971867" lon="11.4212117"><ele>239.0</ele><time>2026-04-11T11:57:43.155Z</time></trkpt><trkpt lat="43.79713" lon="11.421355"><ele>239.0</ele><time>2026-04-11T11:57:44.155Z</time></trkpt><trkpt lat="43.7970717" lon="11.4215117"><ele>239.79999999999998</ele><time>2026-04-11T11:57:45.155Z</time></trkpt><trkpt lat="43.79702" lon="11.4216667"><ele>240.59999999999997</ele><time>2026-04-11T11:57:46.155Z</time></trkpt><trkpt lat="43.7969667" lon="11.421815"><ele>241.4</ele><time>2026-04-11T11:57:47.155Z</time></trkpt><trkpt lat="43.7969233" lon="11.4219417"><ele>242.2</ele><time>2026-04-11T11:57:48.155Z</time></trkpt><trkpt lat="43.7968883" lon="11.4220467"><ele>243.0</ele><time>2026-04-11T11:57:49.155Z</time></trkpt><trkpt lat="43.7968683" lon="11.4221417"><ele>243.14285714285714</ele><time>2026-04-11T11:57:50.155Z</time></trkpt><trkpt lat="43.7968567" lon="11.4222467"><ele>243.28571428571428</ele><time>2026-04-11T11:57:51.155Z</time></trkpt><trkpt lat="43.7968583" lon="11.4223433"><ele>243.42857142857142</ele><time>2026-04-11T11:57:52.155Z</time></trkpt><trkpt lat="43.796865" lon="11.4224417"><ele>243.57142857142856</ele><time>2026-04-11T11:57:53.155Z</time></trkpt><trkpt lat="43.7968767" lon="11.42254"><ele>243.71428571428572</ele><time>2026-04-11T11:57:54.155Z</time></trkpt><trkpt lat="43.7968817" lon="11.422645"><ele>243.85714285714283</ele><time>2026-04-11T11:57:55.155Z</time></trkpt><trkpt lat="43.7968717" lon="11.4227583"><ele>243.99999999999997</ele><time>2026-04-11T11:57:56.156Z</time></trkpt><trkpt lat="43.7968383" lon="11.4228767"><ele>240.99999999999997</ele><time>2026-04-11T11:57:57.156Z</time></trkpt><trkpt lat="43.7967767" lon="11.4229717"><ele>238.0</ele><time>2026-04-11T11:57:58.155Z</time></trkpt><trkpt lat="43.7967033" lon="11.4230583"><ele>235.0</ele><time>2026-04-11T11:57:59.155Z</time></trkpt><trkpt lat="43.796645" lon="11.423125"><ele>232.0</ele><time>2026-04-11T11:58:00.155Z</time></trkpt><trkpt lat="43.7965883" lon="11.4232167"><ele>228.99999999999997</ele><time>2026-04-11T11:58:01.155Z</time></trkpt><trkpt lat="43.79655" lon="11.4233283"><ele>226.0</ele><time>2026-04-11T11:58:02.156Z</time></trkpt><trkpt lat="43.7965217" lon="11.423465"><ele>226.5</ele><time>2026-04-11T11:58:03.155Z</time></trkpt><trkpt lat="43.7964967" lon="11.4236267"><ele>227.0</ele><time>2026-04-11T11:58:04.155Z</time></trkpt><trkpt lat="43.7964617" lon="11.4238133"><ele>227.5</ele><time>2026-04-11T11:58:05.155Z</time></trkpt><trkpt lat="43.7964317" lon="11.423995"><ele>228.0</ele><time>2026-04-11T11:58:06.155Z</time></trkpt><trkpt lat="43.7963967" lon="11.424165"><ele>228.0</ele><time>2026-04-11T11:58:07.155Z</time></trkpt><trkpt lat="43.7963567" lon="11.4243183"><ele>228.0</ele><time>2026-04-11T11:58:08.156Z</time></trkpt><trkpt lat="43.796315" lon="11.42444"><ele>228.0</ele><time>2026-04-11T11:58:09.155Z</time></trkpt><trkpt lat="43.79627" lon="11.4245533"><ele>228.0</ele><time>2026-04-11T11:58:10.156Z</time></trkpt><trkpt lat="43.7962317" lon="11.4246617"><ele>228.0</ele><time>2026-04-11T11:58:11.155Z</time></trkpt><trkpt lat="43.7962067" lon="11.4247817"><ele>228.8</ele><time>2026-04-11T11:58:12.155Z</time></trkpt><trkpt lat="43.7962017" lon="11.4249067"><ele>229.60000000000002</ele><time>2026-04-11T11:58:13.155Z</time></trkpt><trkpt lat="43.7962" lon="11.4250167"><ele>230.39999999999998</ele><time>2026-04-11T11:58:14.155Z</time></trkpt><trkpt lat="43.7961867" lon="11.4251083"><ele>231.2</ele><time>2026-04-11T11:58:15.155Z</time></trkpt><trkpt lat="43.796105" lon="11.4252167"><ele>232.0</ele><time>2026-04-11T11:58:17.155Z</time></trkpt><trkpt lat="43.7959767" lon="11.4251867"><ele>228.6</ele><time>2026-04-11T11:58:19.155Z</time></trkpt><trkpt lat="43.79589" lon="11.4251417"><ele>225.2</ele><time>2026-04-11T11:58:20.155Z</time></trkpt><trkpt lat="43.795785" lon="11.425105"><ele>221.8</ele><time>2026-04-11T11:58:21.155Z</time></trkpt><trkpt lat="43.7956717" lon="11.42508"><ele>218.4</ele><time>2026-04-11T11:58:22.155Z</time></trkpt><trkpt lat="43.795565" lon="11.4250767"><ele>215.0</ele><time>2026-04-11T11:58:23.155Z</time></trkpt><trkpt lat="43.79547" lon="11.4251083"><ele>215.0</ele><time>2026-04-11T11:58:24.155Z</time></trkpt><trkpt lat="43.7953883" lon="11.4250717"><ele>215.0</ele><time>2026-04-11T11:58:25.155Z</time></trkpt><trkpt lat="43.7952867" lon="11.4250367"><ele>215.0</ele><time>2026-04-11T11:58:27.155Z</time></trkpt><trkpt lat="43.7952317" lon="11.424985"><ele>215.0</ele><time>2026-04-11T11:58:29.155Z</time></trkpt><trkpt lat="43.7951283" lon="11.4249267"><ele>215.0</ele><time>2026-04-11T11:58:31.155Z</time></trkpt><trkpt lat="43.795025" lon="11.4248617"><ele>216.0</ele><time>2026-04-11T11:58:32.155Z</time></trkpt><trkpt lat="43.794905" lon="11.4248017"><ele>217.0</ele><time>2026-04-11T11:58:33.156Z</time></trkpt><trkpt lat="43.7947867" lon="11.4247333"><ele>218.0</ele><time>2026-04-11T11:58:34.155Z</time></trkpt><trkpt lat="43.7946767" lon="11.4246617"><ele>219.0</ele><time>2026-04-11T11:58:35.155Z</time></trkpt><trkpt lat="43.7945933" lon="11.4245817"><ele>216.83333333333334</ele><time>2026-04-11T11:58:36.155Z</time></trkpt><trkpt lat="43.794525" lon="11.4244967"><ele>214.66666666666669</ele><time>2026-04-11T11:58:37.155Z</time></trkpt><trkpt lat="43.7944767" lon="11.424395"><ele>212.5</ele><time>2026-04-11T11:58:38.155Z</time></trkpt><trkpt lat="43.7944433" lon="11.4242817"><ele>210.33333333333334</ele><time>2026-04-11T11:58:39.155Z</time></trkpt><trkpt lat="43.7944383" lon="11.4241583"><ele>208.16666666666669</ele><time>2026-04-11T11:58:40.155Z</time></trkpt><trkpt lat="43.7944567" lon="11.4240467"><ele>206.0</ele><time>2026-04-11T11:58:41.155Z</time></trkpt><trkpt lat="43.7944683" lon="11.4239333"><ele>206.00000000000003</ele><time>2026-04-11T11:58:42.155Z</time></trkpt><trkpt lat="43.79447" lon="11.4238383"><ele>206.0</ele><time>2026-04-11T11:58:43.155Z</time></trkpt><trkpt lat="43.79446" lon="11.423745"><ele>206.0</ele><time>2026-04-11T11:58:44.155Z</time></trkpt><trkpt lat="43.7943917" lon="11.4236"><ele>206.0</ele><time>2026-04-11T11:58:46.155Z</time></trkpt><trkpt lat="43.7943133" lon="11.4235067"><ele>206.00000000000003</ele><time>2026-04-11T11:58:48.155Z</time></trkpt><trkpt lat="43.7942517" lon="11.4234817"><ele>206.0</ele><time>2026-04-11T11:58:53.155Z</time></trkpt><trkpt lat="43.7941233" lon="11.42346"><ele>206.28571428571428</ele><time>2026-04-11T11:58:55.155Z</time></trkpt><trkpt lat="43.79405" lon="11.4234683"><ele>206.57142857142856</ele><time>2026-04-11T11:58:56.155Z</time></trkpt><trkpt lat="43.7939717" lon="11.4234867"><ele>206.85714285714283</ele><time>2026-04-11T11:58:57.155Z</time></trkpt><trkpt lat="43.793895" lon="11.4235017"><ele>207.14285714285714</ele><time>2026-04-11T11:58:58.155Z</time></trkpt><trkpt lat="43.7938217" lon="11.4235017"><ele>207.42857142857144</ele><time>2026-04-11T11:58:59.155Z</time></trkpt><trkpt lat="43.793755" lon="11.4234917"><ele>207.7142857142857</ele><time>2026-04-11T11:59:00.155Z</time></trkpt><trkpt lat="43.793685" lon="11.42347"><ele>208.0</ele><time>2026-04-11T11:59:01.155Z</time></trkpt><trkpt lat="43.79361" lon="11.4234467"><ele>208.0</ele><time>2026-04-11T11:59:02.155Z</time></trkpt><trkpt lat="43.7935283" lon="11.423405"><ele>208.0</ele><time>2026-04-11T11:59:03.155Z</time></trkpt><trkpt lat="43.7934433" lon="11.4233533"><ele>208.0</ele><time>2026-04-11T11:59:04.155Z</time></trkpt><trkpt lat="43.7933467" lon="11.4232833"><ele>208.0</ele><time>2026-04-11T11:59:05.155Z</time></trkpt><trkpt lat="43.793255" lon="11.423195"><ele>208.0</ele><time>2026-04-11T11:59:06.155Z</time></trkpt><trkpt lat="43.7931767" lon="11.4231067"><ele>209.4</ele><time>2026-04-11T11:59:07.156Z</time></trkpt><trkpt lat="43.7931067" lon="11.4230417"><ele>210.8</ele><time>2026-04-11T11:59:08.155Z</time></trkpt><trkpt lat="43.7930283" lon="11.422995"><ele>212.2</ele><time>2026-04-11T11:59:09.155Z</time></trkpt><trkpt lat="43.7929367" lon="11.4229583"><ele>213.6</ele><time>2026-04-11T11:59:10.155Z</time></trkpt><trkpt lat="43.7928417" lon="11.422935"><ele>215.0</ele><time>2026-04-11T11:59:11.156Z</time></trkpt><trkpt lat="43.79274" lon="11.422915"><ele>213.83333333333334</ele><time>2026-04-11T11:59:12.155Z</time></trkpt><trkpt lat="43.7926417" lon="11.4228783"><ele>212.66666666666669</ele><time>2026-04-11T11:59:13.155Z</time></trkpt><trkpt lat="43.79256" lon="11.422825"><ele>211.5</ele><time>2026-04-11T11:59:14.155Z</time></trkpt><trkpt lat="43.7924883" lon="11.42278"><ele>210.33333333333331</ele><time>2026-04-11T11:59:15.155Z</time></trkpt><trkpt lat="43.7924167" lon="11.4227633"><ele>209.16666666666666</ele><time>2026-04-11T11:59:16.155Z</time></trkpt><trkpt lat="43.7923367" lon="11.422785"><ele>208.0</ele><time>2026-04-11T11:59:17.155Z</time></trkpt><trkpt lat="43.7922467" lon="11.4228317"><ele>207.99999999999997</ele><time>2026-04-11T11:59:18.156Z</time></trkpt><trkpt lat="43.792175" lon="11.4228833"><ele>208.0</ele><time>2026-04-11T11:59:19.156Z</time></trkpt><trkpt lat="43.7921033" lon="11.4229167"><ele>208.0</ele><time>2026-04-11T11:59:20.155Z</time></trkpt><trkpt lat="43.79203" lon="11.42293"><ele>208.0</ele><time>2026-04-11T11:59:21.156Z</time></trkpt><trkpt lat="43.79196" lon="11.4229167"><ele>207.99999999999997</ele><time>2026-04-11T11:59:22.156Z</time></trkpt><trkpt lat="43.7919033" lon="11.42287"><ele>208.0</ele><time>2026-04-11T11:59:23.156Z</time></trkpt><trkpt lat="43.7918817" lon="11.422685"><ele>208.0</ele><time>2026-04-11T11:59:25.155Z</time></trkpt><trkpt lat="43.7918933" lon="11.4225667"><ele>208.0</ele><time>2026-04-11T11:59:26.155Z</time></trkpt><trkpt lat="43.7918983" lon="11.4224317"><ele>208.0</ele><time>2026-04-11T11:59:27.155Z</time></trkpt><trkpt lat="43.791885" lon="11.42229"><ele>208.0</ele><time>2026-04-11T11:59:28.155Z</time></trkpt><trkpt lat="43.79186" lon="11.4221567"><ele>208.0</ele><time>2026-04-11T11:59:29.155Z</time></trkpt><trkpt lat="43.7918283" lon="11.4220333"><ele>208.99999999999997</ele><time>2026-04-11T11:59:30.155Z</time></trkpt><trkpt lat="43.7917983" lon="11.4219317"><ele>210.0</ele><time>2026-04-11T11:59:31.155Z</time></trkpt><trkpt lat="43.7917583" lon="11.421855"><ele>211.0</ele><time>2026-04-11T11:59:32.155Z</time></trkpt><trkpt lat="43.7916983" lon="11.421795"><ele>212.0</ele><time>2026-04-11T11:59:33.155Z</time></trkpt><trkpt lat="43.791605" lon="11.4217567"><ele>212.99999999999997</ele><time>2026-04-11T11:59:34.155Z</time></trkpt><trkpt lat="43.7914867" lon="11.42172"><ele>214.0</ele><time>2026-04-11T11:59:35.155Z</time></trkpt><trkpt lat="43.79137" lon="11.4216783"><ele>214.0</ele><time>2026-04-11T11:59:36.155Z</time></trkpt><trkpt lat="43.7912617" lon="11.42163"><ele>213.99999999999997</ele><time>2026-04-11T11:59:37.155Z</time></trkpt><trkpt lat="43.7911633" lon="11.4215833"><ele>213.99999999999997</ele><time>2026-04-11T11:59:38.155Z</time></trkpt><trkpt lat="43.7910733" lon="11.4215117"><ele>214.0</ele><time>2026-04-11T11:59:39.155Z</time></trkpt><trkpt lat="43.7909967" lon="11.4214167"><ele>214.0</ele><time>2026-04-11T11:59:40.156Z</time></trkpt><trkpt lat="43.7909367" lon="11.42131"><ele>213.83333333333331</ele><time>2026-04-11T11:59:41.155Z</time></trkpt><trkpt lat="43.7908817" lon="11.4212283"><ele>213.66666666666666</ele><time>2026-04-11T11:59:42.155Z</time></trkpt><trkpt lat="43.7908283" lon="11.42116"><ele>213.5</ele><time>2026-04-11T11:59:43.155Z</time></trkpt><trkpt lat="43.7907683" lon="11.4211117"><ele>213.33333333333331</ele><time>2026-04-11T11:59:44.155Z</time></trkpt><trkpt lat="43.7906983" lon="11.4210933"><ele>213.16666666666666</ele><time>2026-04-11T11:59:45.155Z</time></trkpt><trkpt lat="43.79061" lon="11.4211033"><ele>213.0</ele><time>2026-04-11T11:59:46.155Z</time></trkpt><trkpt lat="43.79051" lon="11.4211533"><ele>213.0</ele><time>2026-04-11T11:59:47.155Z</time></trkpt><trkpt lat="43.7903917" lon="11.4212317"><ele>213.0</ele><time>2026-04-11T11:59:48.155Z</time></trkpt><trkpt lat="43.7902833" lon="11.4213033"><ele>213.0</ele><time>2026-04-11T11:59:49.155Z</time></trkpt><trkpt lat="43.79018" lon="11.4213733"><ele>213.0</ele><time>2026-04-11T11:59:50.155Z</time></trkpt><trkpt lat="43.7900817" lon="11.4214317"><ele>216.2</ele><time>2026-04-11T11:59:51.155Z</time></trkpt><trkpt lat="43.78999" lon="11.4214933"><ele>219.4</ele><time>2026-04-11T11:59:52.155Z</time></trkpt><trkpt lat="43.7899" lon="11.4215483"><ele>222.59999999999997</ele><time>2026-04-11T11:59:53.155Z</time></trkpt><trkpt lat="43.789815" lon="11.421575"><ele>225.79999999999998</ele><time>2026-04-11T11:59:54.155Z</time></trkpt><trkpt lat="43.7897317" lon="11.4215717"><ele>229.0</ele><time>2026-04-11T11:59:55.155Z</time></trkpt><trkpt lat="43.7896533" lon="11.4215333"><ele>229.0</ele><time>2026-04-11T11:59:56.155Z</time></trkpt><trkpt lat="43.7895767" lon="11.4214583"><ele>228.99999999999997</ele><time>2026-04-11T11:59:57.155Z</time></trkpt><trkpt lat="43.7894967" lon="11.4213433"><ele>228.99999999999997</ele><time>2026-04-11T11:59:58.155Z</time></trkpt><trkpt lat="43.78942" lon="11.4212183"><ele>229.0</ele><time>2026-04-11T11:59:59.156Z</time></trkpt><trkpt lat="43.789345" lon="11.42111"><ele>229.0</ele><time>2026-04-11T12:00:00.155Z</time></trkpt><trkpt lat="43.7892617" lon="11.4210183"><ele>229.0</ele><time>2026-04-11T12:00:01.155Z</time></trkpt><trkpt lat="43.78918" lon="11.42094"><ele>228.99999999999997</ele><time>2026-04-11T12:00:02.155Z</time></trkpt><trkpt lat="43.7890817" lon="11.42087"><ele>228.99999999999997</ele><time>2026-04-11T12:00:03.155Z</time></trkpt><trkpt lat="43.7889833" lon="11.4208183"><ele>229.0</ele><time>2026-04-11T12:00:04.155Z</time></trkpt><trkpt lat="43.7888683" lon="11.42076"><ele>229.0</ele><time>2026-04-11T12:00:05.156Z</time></trkpt><trkpt lat="43.7887383" lon="11.4207117"><ele>229.0</ele><time>2026-04-11T12:00:06.155Z</time></trkpt><trkpt lat="43.78862" lon="11.4206567"><ele>229.0</ele><time>2026-04-11T12:00:07.155Z</time></trkpt><trkpt lat="43.788495" lon="11.4206067"><ele>229.0</ele><time>2026-04-11T12:00:08.155Z</time></trkpt><trkpt lat="43.7883783" lon="11.42056"><ele>229.0</ele><time>2026-04-11T12:00:09.155Z</time></trkpt><trkpt lat="43.7882633" lon="11.4205317"><ele>228.66666666666666</ele><time>2026-04-11T12:00:10.155Z</time></trkpt><trkpt lat="43.7881567" lon="11.4205033"><ele>228.33333333333331</ele><time>2026-04-11T12:00:11.155Z</time></trkpt><trkpt lat="43.7880767" lon="11.42045"><ele>228.0</ele><time>2026-04-11T12:00:12.156Z</time></trkpt><trkpt lat="43.7880167" lon="11.4204017"><ele>227.66666666666669</ele><time>2026-04-11T12:00:13.156Z</time></trkpt><trkpt lat="43.7879517" lon="11.4203583"><ele>227.33333333333334</ele><time>2026-04-11T12:00:15.155Z</time></trkpt><trkpt lat="43.78795" lon="11.4204883"><ele>227.0</ele><time>2026-04-11T12:00:18.155Z</time></trkpt><trkpt lat="43.788005" lon="11.4205833"><ele>228.83333333333334</ele><time>2026-04-11T12:00:19.155Z</time></trkpt><trkpt lat="43.7880717" lon="11.4206967"><ele>230.66666666666669</ele><time>2026-04-11T12:00:20.155Z</time></trkpt><trkpt lat="43.7881233" lon="11.4208083"><ele>232.5</ele><time>2026-04-11T12:00:21.155Z</time></trkpt><trkpt lat="43.78816" lon="11.4208917"><ele>234.33333333333331</ele><time>2026-04-11T12:00:22.155Z</time></trkpt><trkpt lat="43.788185" lon="11.4209733"><ele>236.16666666666666</ele><time>2026-04-11T12:00:23.155Z</time></trkpt><trkpt lat="43.7882283" lon="11.421115"><ele>238.0</ele><time>2026-04-11T12:00:25.156Z</time></trkpt><trkpt lat="43.788255" lon="11.421195"><ele>238.0</ele><time>2026-04-11T12:00:26.155Z</time></trkpt><trkpt lat="43.7882883" lon="11.4212933"><ele>238.0</ele><time>2026-04-11T12:00:27.155Z</time></trkpt><trkpt lat="43.7883267" lon="11.4214133"><ele>238.0</ele><time>2026-04-11T12:00:28.156Z</time></trkpt><trkpt lat="43.7883667" lon="11.4215167"><ele>238.0</ele><time>2026-04-11T12:00:29.155Z</time></trkpt><trkpt lat="43.788405" lon="11.421685"><ele>238.0</ele><time>2026-04-11T12:00:30.155Z</time></trkpt><trkpt lat="43.788445" lon="11.4218617"><ele>239.4</ele><time>2026-04-11T12:00:31.156Z</time></trkpt><trkpt lat="43.78848" lon="11.4220217"><ele>240.8</ele><time>2026-04-11T12:00:32.155Z</time></trkpt><trkpt lat="43.7885083" lon="11.4221517"><ele>242.2</ele><time>2026-04-11T12:00:33.155Z</time></trkpt><trkpt lat="43.7885367" lon="11.4222633"><ele>243.6</ele><time>2026-04-11T12:00:34.155Z</time></trkpt><trkpt lat="43.78855" lon="11.4223767"><ele>245.0</ele><time>2026-04-11T12:00:35.155Z</time></trkpt><trkpt lat="43.7885483" lon="11.4224983"><ele>245.16666666666669</ele><time>2026-04-11T12:00:36.156Z</time></trkpt><trkpt lat="43.7885383" lon="11.4226083"><ele>245.33333333333334</ele><time>2026-04-11T12:00:37.155Z</time></trkpt><trkpt lat="43.78853" lon="11.422765"><ele>245.5</ele><time>2026-04-11T12:00:39.155Z</time></trkpt><trkpt lat="43.788515" lon="11.4228617"><ele>245.66666666666669</ele><time>2026-04-11T12:00:41.155Z</time></trkpt><trkpt lat="43.78844" lon="11.4229133"><ele>245.83333333333334</ele><time>2026-04-11T12:00:44.155Z</time></trkpt><trkpt lat="43.7883517" lon="11.4229433"><ele>246.0</ele><time>2026-04-11T12:00:46.155Z</time></trkpt><trkpt lat="43.788255" lon="11.42297"><ele>248.0</ele><time>2026-04-11T12:00:48.155Z</time></trkpt><trkpt lat="43.7881617" lon="11.423"><ele>250.00000000000003</ele><time>2026-04-11T12:00:50.155Z</time></trkpt><trkpt lat="43.7880667" lon="11.4230217"><ele>252.00000000000003</ele><time>2026-04-11T12:00:52.156Z</time></trkpt><trkpt lat="43.7879617" lon="11.4230567"><ele>254.0</ele><time>2026-04-11T12:00:54.155Z</time></trkpt><trkpt lat="43.7878533" lon="11.4230917"><ele>256.0</ele><time>2026-04-11T12:00:56.155Z</time></trkpt><trkpt lat="43.787745" lon="11.42312"><ele>252.8</ele><time>2026-04-11T12:00:58.155Z</time></trkpt><trkpt lat="43.78764" lon="11.4231483"><ele>249.60000000000002</ele><time>2026-04-11T12:01:00.155Z</time></trkpt><trkpt lat="43.7875383" lon="11.423185"><ele>246.4</ele><time>2026-04-11T12:01:02.155Z</time></trkpt><trkpt lat="43.7874417" lon="11.42322"><ele>243.2</ele><time>2026-04-11T12:01:04.155Z</time></trkpt><trkpt lat="43.7873333" lon="11.4232517"><ele>240.0</ele><time>2026-04-11T12:01:06.155Z</time></trkpt><trkpt lat="43.78723" lon="11.4232783"><ele>240.0</ele><time>2026-04-11T12:01:08.155Z</time></trkpt><trkpt lat="43.7871433" lon="11.42331"><ele>240.0</ele><time>2026-04-11T12:01:10.155Z</time></trkpt><trkpt lat="43.78707" lon="11.4233533"><ele>240.0</ele><time>2026-04-11T12:01:12.155Z</time></trkpt><trkpt lat="43.7869983" lon="11.423375"><ele>240.0</ele><time>2026-04-11T12:01:14.155Z</time></trkpt><trkpt lat="43.7869183" lon="11.4234"><ele>240.0</ele><time>2026-04-11T12:01:16.155Z</time></trkpt><trkpt lat="43.7868267" lon="11.42344"><ele>240.0</ele><time>2026-04-11T12:01:18.155Z</time></trkpt><trkpt lat="43.7867383" lon="11.42347"><ele>237.0</ele><time>2026-04-11T12:01:20.155Z</time></trkpt><trkpt lat="43.78665" lon="11.4235067"><ele>234.0</ele><time>2026-04-11T12:01:22.155Z</time></trkpt><trkpt lat="43.7865733" lon="11.4235417"><ele>231.0</ele><time>2026-04-11T12:01:24.155Z</time></trkpt><trkpt lat="43.7865117" lon="11.4235633"><ele>228.0</ele><time>2026-04-11T12:01:26.155Z</time></trkpt><trkpt lat="43.7864267" lon="11.42357"><ele>225.0</ele><time>2026-04-11T12:01:43.155Z</time></trkpt><trkpt lat="43.7863517" lon="11.4235783"><ele>222.0</ele><time>2026-04-11T12:01:52.155Z</time></trkpt><trkpt lat="43.7862967" lon="11.423635"><ele>222.0</ele><time>2026-04-11T12:02:23.155Z</time></trkpt><trkpt lat="43.7862433" lon="11.4237"><ele>222.0</ele><time>2026-04-11T12:02:24.156Z</time></trkpt><trkpt lat="43.786165" lon="11.4237783"><ele>222.0</ele><time>2026-04-11T12:02:25.155Z</time></trkpt><trkpt lat="43.7860833" lon="11.42386"><ele>222.0</ele><time>2026-04-11T12:02:26.156Z</time></trkpt><trkpt lat="43.786005" lon="11.4239467"><ele>222.0</ele><time>2026-04-11T12:02:27.155Z</time></trkpt><trkpt lat="43.7859367" lon="11.4240333"><ele>219.8</ele><time>2026-04-11T12:02:28.155Z</time></trkpt><trkpt lat="43.7858667" lon="11.4241283"><ele>217.6</ele><time>2026-04-11T12:02:29.155Z</time></trkpt><trkpt lat="43.7858" lon="11.42422"><ele>215.4</ele><time>2026-04-11T12:02:30.156Z</time></trkpt><trkpt lat="43.7857333" lon="11.4243133"><ele>213.20000000000002</ele><time>2026-04-11T12:02:31.156Z</time></trkpt><trkpt lat="43.7856717" lon="11.4244067"><ele>211.0</ele><time>2026-04-11T12:02:32.155Z</time></trkpt><trkpt lat="43.7855983" lon="11.4245067"><ele>211.0</ele><time>2026-04-11T12:02:33.156Z</time></trkpt><trkpt lat="43.7855183" lon="11.4246067"><ele>211.0</ele><time>2026-04-11T12:02:34.155Z</time></trkpt><trkpt lat="43.785435" lon="11.42469"><ele>211.0</ele><time>2026-04-11T12:02:35.155Z</time></trkpt><trkpt lat="43.7853617" lon="11.4247683"><ele>211.0</ele><time>2026-04-11T12:02:36.155Z</time></trkpt><trkpt lat="43.7853033" lon="11.4248567"><ele>211.0</ele><time>2026-04-11T12:02:37.155Z</time></trkpt><trkpt lat="43.7852633" lon="11.4249567"><ele>211.33333333333331</ele><time>2026-04-11T12:02:38.155Z</time></trkpt><trkpt lat="43.7852467" lon="11.4250717"><ele>211.66666666666666</ele><time>2026-04-11T12:02:39.155Z</time></trkpt><trkpt lat="43.7852317" lon="11.4251767"><ele>212.0</ele><time>2026-04-11T12:02:40.155Z</time></trkpt><trkpt lat="43.78521" lon="11.4252767"><ele>212.33333333333331</ele><time>2026-04-11T12:02:41.156Z</time></trkpt><trkpt lat="43.7851633" lon="11.4253633"><ele>212.66666666666666</ele><time>2026-04-11T12:02:42.155Z</time></trkpt><trkpt lat="43.7850933" lon="11.4254133"><ele>213.0</ele><time>2026-04-11T12:02:43.155Z</time></trkpt><trkpt lat="43.7850067" lon="11.4254267"><ele>211.60000000000002</ele><time>2026-04-11T12:02:44.155Z</time></trkpt><trkpt lat="43.7849083" lon="11.4254333"><ele>210.20000000000002</ele><time>2026-04-11T12:02:45.155Z</time></trkpt><trkpt lat="43.7848033" lon="11.4254383"><ele>208.8</ele><time>2026-04-11T12:02:46.155Z</time></trkpt><trkpt lat="43.7846983" lon="11.42544"><ele>207.4</ele><time>2026-04-11T12:02:47.155Z</time></trkpt><trkpt lat="43.7845933" lon="11.42546"><ele>206.0</ele><time>2026-04-11T12:02:48.156Z</time></trkpt><trkpt lat="43.7844967" lon="11.4254967"><ele>206.0</ele><time>2026-04-11T12:02:49.155Z</time></trkpt><trkpt lat="43.7844" lon="11.4255467"><ele>206.0</ele><time>2026-04-11T12:02:50.155Z</time></trkpt><trkpt lat="43.7843067" lon="11.42561"><ele>206.0</ele><time>2026-04-11T12:02:51.155Z</time></trkpt><trkpt lat="43.78422" lon="11.4256867"><ele>206.0</ele><time>2026-04-11T12:02:52.155Z</time></trkpt><trkpt lat="43.7841233" lon="11.425765"><ele>206.0</ele><time>2026-04-11T12:02:53.155Z</time></trkpt><trkpt lat="43.78403" lon="11.4258383"><ele>204.60000000000002</ele><time>2026-04-11T12:02:54.156Z</time></trkpt><trkpt lat="43.7839433" lon="11.4259"><ele>203.2</ele><time>2026-04-11T12:02:55.155Z</time></trkpt><trkpt lat="43.7838517" lon="11.4259517"><ele>201.8</ele><time>2026-04-11T12:02:56.155Z</time></trkpt><trkpt lat="43.783745" lon="11.42599"><ele>200.39999999999998</ele><time>2026-04-11T12:02:57.155Z</time></trkpt><trkpt lat="43.78362" lon="11.4260083"><ele>199.0</ele><time>2026-04-11T12:02:58.155Z</time></trkpt><trkpt lat="43.78349" lon="11.4260067"><ele>197.25</ele><time>2026-04-11T12:02:59.156Z</time></trkpt><trkpt lat="43.783355" lon="11.42601"><ele>195.5</ele><time>2026-04-11T12:03:00.155Z</time></trkpt><trkpt lat="43.7832183" lon="11.4260117"><ele>193.75</ele><time>2026-04-11T12:03:01.155Z</time></trkpt><trkpt lat="43.7830833" lon="11.42601"><ele>192.0</ele><time>2026-04-11T12:03:02.155Z</time></trkpt><trkpt lat="43.7829517" lon="11.4260067"><ele>192.0</ele><time>2026-04-11T12:03:03.155Z</time></trkpt><trkpt lat="43.782805" lon="11.4260017"><ele>192.0</ele><time>2026-04-11T12:03:04.155Z</time></trkpt><trkpt lat="43.7826417" lon="11.4260017"><ele>192.0</ele><time>2026-04-11T12:03:05.156Z</time></trkpt><trkpt lat="43.78249" lon="11.4260017"><ele>189.75</ele><time>2026-04-11T12:03:06.155Z</time></trkpt><trkpt lat="43.7823433" lon="11.426"><ele>187.5</ele><time>2026-04-11T12:03:07.155Z</time></trkpt><trkpt lat="43.78221" lon="11.4259983"><ele>185.25</ele><time>2026-04-11T12:03:08.155Z</time></trkpt><trkpt lat="43.7820767" lon="11.425995"><ele>183.0</ele><time>2026-04-11T12:03:09.155Z</time></trkpt><trkpt lat="43.78195" lon="11.425985"><ele>182.0</ele><time>2026-04-11T12:03:10.155Z</time></trkpt><trkpt lat="43.78182" lon="11.4259867"><ele>181.0</ele><time>2026-04-11T12:03:11.155Z</time></trkpt><trkpt lat="43.781695" lon="11.4259917"><ele>180.0</ele><time>2026-04-11T12:03:12.156Z</time></trkpt><trkpt lat="43.7815767" lon="11.42601"><ele>179.0</ele><time>2026-04-11T12:03:13.155Z</time></trkpt><trkpt lat="43.7814617" lon="11.4260317"><ele>179.0</ele><time>2026-04-11T12:03:14.155Z</time></trkpt><trkpt lat="43.78135" lon="11.426055"><ele>179.0</ele><time>2026-04-11T12:03:15.155Z</time></trkpt><trkpt lat="43.7812417" lon="11.4260833"><ele>179.0</ele><time>2026-04-11T12:03:16.155Z</time></trkpt><trkpt lat="43.7811433" lon="11.426115"><ele>179.0</ele><time>2026-04-11T12:03:17.155Z</time></trkpt><trkpt lat="43.78104" lon="11.4261517"><ele>179.0</ele><time>2026-04-11T12:03:18.156Z</time></trkpt><trkpt lat="43.7809467" lon="11.426205"><ele>177.25</ele><time>2026-04-11T12:03:19.155Z</time></trkpt><trkpt lat="43.780865" lon="11.4262883"><ele>175.5</ele><time>2026-04-11T12:03:20.156Z</time></trkpt><trkpt lat="43.78079" lon="11.426425"><ele>173.75</ele><time>2026-04-11T12:03:21.155Z</time></trkpt><trkpt lat="43.78073" lon="11.426595"><ele>172.0</ele><time>2026-04-11T12:03:22.155Z</time></trkpt><trkpt lat="43.7806767" lon="11.4267817"><ele>172.0</ele><time>2026-04-11T12:03:23.156Z</time></trkpt><trkpt lat="43.7806267" lon="11.426965"><ele>172.0</ele><time>2026-04-11T12:03:24.155Z</time></trkpt><trkpt lat="43.7805767" lon="11.4271333"><ele>172.0</ele><time>2026-04-11T12:03:25.155Z</time></trkpt><trkpt lat="43.780525" lon="11.4273117"><ele>172.0</ele><time>2026-04-11T12:03:26.155Z</time></trkpt><trkpt lat="43.7804667" lon="11.4274933"><ele>172.66666666666669</ele><time>2026-04-11T12:03:27.155Z</time></trkpt><trkpt lat="43.7804033" lon="11.427685"><ele>173.33333333333334</ele><time>2026-04-11T12:03:28.155Z</time></trkpt><trkpt lat="43.7803417" lon="11.42789"><ele>174.0</ele><time>2026-04-11T12:03:29.156Z</time></trkpt><trkpt lat="43.7802767" lon="11.428095"><ele>174.0</ele><time>2026-04-11T12:03:30.155Z</time></trkpt><trkpt lat="43.78022" lon="11.4282933"><ele>174.0</ele><time>2026-04-11T12:03:31.155Z</time></trkpt><trkpt lat="43.780165" lon="11.4284783"><ele>174.0</ele><time>2026-04-11T12:03:32.155Z</time></trkpt><trkpt lat="43.7801233" lon="11.4286483"><ele>174.0</ele><time>2026-04-11T12:03:33.155Z</time></trkpt><trkpt lat="43.7800733" lon="11.4288167"><ele>168.0</ele><time>2026-04-11T12:03:34.156Z</time></trkpt><trkpt lat="43.78003" lon="11.4289867"><ele>162.0</ele><time>2026-04-11T12:03:35.155Z</time></trkpt><trkpt lat="43.7799867" lon="11.42917"><ele>156.0</ele><time>2026-04-11T12:03:36.155Z</time></trkpt><trkpt lat="43.77994" lon="11.42936"><ele>150.0</ele><time>2026-04-11T12:03:37.155Z</time></trkpt><trkpt lat="43.77988" lon="11.4295583"><ele>149.66666666666666</ele><time>2026-04-11T12:03:38.155Z</time></trkpt><trkpt lat="43.7798267" lon="11.42976"><ele>149.33333333333331</ele><time>2026-04-11T12:03:39.155Z</time></trkpt><trkpt lat="43.7797717" lon="11.4299483"><ele>149.0</ele><time>2026-04-11T12:03:40.155Z</time></trkpt><trkpt lat="43.7796983" lon="11.4301433"><ele>149.0</ele><time>2026-04-11T12:03:41.155Z</time></trkpt><trkpt lat="43.779615" lon="11.4303333"><ele>149.0</ele><time>2026-04-11T12:03:42.155Z</time></trkpt><trkpt lat="43.7795217" lon="11.4305017"><ele>149.0</ele><time>2026-04-11T12:03:43.155Z</time></trkpt><trkpt lat="43.7794283" lon="11.4306583"><ele>147.75</ele><time>2026-04-11T12:03:44.155Z</time></trkpt><trkpt lat="43.779335" lon="11.4308283"><ele>146.5</ele><time>2026-04-11T12:03:45.155Z</time></trkpt><trkpt lat="43.7792317" lon="11.4309983"><ele>145.25</ele><time>2026-04-11T12:03:46.155Z</time></trkpt><trkpt lat="43.7791467" lon="11.4311433"><ele>144.0</ele><time>2026-04-11T12:03:47.155Z</time></trkpt><trkpt lat="43.7790667" lon="11.4312833"><ele>145.75</ele><time>2026-04-11T12:03:48.156Z</time></trkpt><trkpt lat="43.7789817" lon="11.431425"><ele>147.5</ele><time>2026-04-11T12:03:49.155Z</time></trkpt><trkpt lat="43.7789017" lon="11.4315683"><ele>149.25</ele><time>2026-04-11T12:03:50.155Z</time></trkpt><trkpt lat="43.7788217" lon="11.431705"><ele>151.0</ele><time>2026-04-11T12:03:51.155Z</time></trkpt><trkpt lat="43.7787367" lon="11.4318333"><ele>151.0</ele><time>2026-04-11T12:03:52.155Z</time></trkpt><trkpt lat="43.7786567" lon="11.43197"><ele>151.0</ele><time>2026-04-11T12:03:53.155Z</time></trkpt><trkpt lat="43.7785783" lon="11.4321017"><ele>151.0</ele><time>2026-04-11T12:03:54.155Z</time></trkpt><trkpt lat="43.7785083" lon="11.4322283"><ele>151.0</ele><time>2026-04-11T12:03:55.155Z</time></trkpt><trkpt lat="43.7784383" lon="11.4323567"><ele>148.25</ele><time>2026-04-11T12:03:56.156Z</time></trkpt><trkpt lat="43.7783683" lon="11.4324883"><ele>145.5</ele><time>2026-04-11T12:03:57.155Z</time></trkpt><trkpt lat="43.7782983" lon="11.432615"><ele>142.75</ele><time>2026-04-11T12:03:58.155Z</time></trkpt><trkpt lat="43.7782217" lon="11.4327367"><ele>140.0</ele><time>2026-04-11T12:03:59.155Z</time></trkpt><trkpt lat="43.7781433" lon="11.4328583"><ele>140.0</ele><time>2026-04-11T12:04:00.155Z</time></trkpt><trkpt lat="43.7780583" lon="11.4329667"><ele>140.0</ele><time>2026-04-11T12:04:01.155Z</time></trkpt><trkpt lat="43.7779733" lon="11.433075"><ele>140.0</ele><time>2026-04-11T12:04:02.155Z</time></trkpt><trkpt lat="43.7778867" lon="11.4331883"><ele>140.0</ele><time>2026-04-11T12:04:03.155Z</time></trkpt><trkpt lat="43.7778067" lon="11.4333"><ele>140.5</ele><time>2026-04-11T12:04:04.155Z</time></trkpt><trkpt lat="43.7777217" lon="11.4334133"><ele>141.0</ele><time>2026-04-11T12:04:05.155Z</time></trkpt><trkpt lat="43.7776383" lon="11.4335217"><ele>141.5</ele><time>2026-04-11T12:04:06.155Z</time></trkpt><trkpt lat="43.77756" lon="11.4336367"><ele>142.0</ele><time>2026-04-11T12:04:07.155Z</time></trkpt><trkpt lat="43.777475" lon="11.4337483"><ele>139.2</ele><time>2026-04-11T12:04:08.155Z</time></trkpt><trkpt lat="43.777395" lon="11.43385"><ele>136.39999999999998</ele><time>2026-04-11T12:04:09.155Z</time></trkpt><trkpt lat="43.7773183" lon="11.433945"><ele>133.60000000000002</ele><time>2026-04-11T12:04:10.155Z</time></trkpt><trkpt lat="43.7772433" lon="11.434035"><ele>130.8</ele><time>2026-04-11T12:04:11.155Z</time></trkpt><trkpt lat="43.7771583" lon="11.4341083"><ele>128.0</ele><time>2026-04-11T12:04:12.155Z</time></trkpt><trkpt lat="43.7770817" lon="11.4341883"><ele>128.0</ele><time>2026-04-11T12:04:13.155Z</time></trkpt><trkpt lat="43.776995" lon="11.4342717"><ele>128.0</ele><time>2026-04-11T12:04:14.156Z</time></trkpt><trkpt lat="43.776915" lon="11.434355"><ele>128.0</ele><time>2026-04-11T12:04:15.155Z</time></trkpt><trkpt lat="43.7768333" lon="11.434435"><ele>128.0</ele><time>2026-04-11T12:04:16.155Z</time></trkpt><trkpt lat="43.776755" lon="11.4345183"><ele>128.0</ele><time>2026-04-11T12:04:17.156Z</time></trkpt><trkpt lat="43.77668" lon="11.4346"><ele>125.33333333333333</ele><time>2026-04-11T12:04:18.155Z</time></trkpt><trkpt lat="43.7766083" lon="11.434685"><ele>122.66666666666666</ele><time>2026-04-11T12:04:19.155Z</time></trkpt><trkpt lat="43.77653" lon="11.4347683"><ele>120.0</ele><time>2026-04-11T12:04:20.155Z</time></trkpt><trkpt lat="43.7764633" lon="11.434865"><ele>117.33333333333334</ele><time>2026-04-11T12:04:21.155Z</time></trkpt><trkpt lat="43.7764083" lon="11.4349333"><ele>114.66666666666667</ele><time>2026-04-11T12:04:22.155Z</time></trkpt><trkpt lat="43.7763533" lon="11.4349867"><ele>112.0</ele><time>2026-04-11T12:04:23.155Z</time></trkpt><trkpt lat="43.7762983" lon="11.435045"><ele>112.00000000000001</ele><time>2026-04-11T12:04:24.155Z</time></trkpt><trkpt lat="43.776245" lon="11.435125"><ele>112.0</ele><time>2026-04-11T12:04:25.155Z</time></trkpt><trkpt lat="43.7761917" lon="11.43521"><ele>112.0</ele><time>2026-04-11T12:04:26.156Z</time></trkpt><trkpt lat="43.7761367" lon="11.43529"><ele>112.0</ele><time>2026-04-11T12:04:27.155Z</time></trkpt><trkpt lat="43.7760767" lon="11.4353783"><ele>112.00000000000001</ele><time>2026-04-11T12:04:28.156Z</time></trkpt><trkpt lat="43.7760167" lon="11.4354667"><ele>112.0</ele><time>2026-04-11T12:04:29.155Z</time></trkpt><trkpt lat="43.775965" lon="11.43556"><ele>110.33333333333334</ele><time>2026-04-11T12:04:30.155Z</time></trkpt><trkpt lat="43.77592" lon="11.435665"><ele>108.66666666666667</ele><time>2026-04-11T12:04:31.155Z</time></trkpt><trkpt lat="43.7758817" lon="11.4357617"><ele>107.0</ele><time>2026-04-11T12:04:32.156Z</time></trkpt><trkpt lat="43.7758483" lon="11.4358367"><ele>105.33333333333334</ele><time>2026-04-11T12:04:33.155Z</time></trkpt><trkpt lat="43.7758033" lon="11.4359"><ele>103.66666666666667</ele><time>2026-04-11T12:04:34.156Z</time></trkpt><trkpt lat="43.775685" lon="11.435935"><ele>102.0</ele><time>2026-04-11T12:04:36.155Z</time></trkpt><trkpt lat="43.7756217" lon="11.435945"><ele>102.0</ele><time>2026-04-11T12:04:37.156Z</time></trkpt><trkpt lat="43.7755167" lon="11.435955"><ele>102.0</ele><time>2026-04-11T12:04:39.156Z</time></trkpt><trkpt lat="43.77545" lon="11.43597"><ele>102.0</ele><time>2026-04-11T12:04:41.156Z</time></trkpt><trkpt lat="43.775385" lon="11.436005"><ele>102.0</ele><time>2026-04-11T12:04:44.155Z</time></trkpt><trkpt lat="43.7753483" lon="11.4360983"><ele>102.0</ele><time>2026-04-11T12:04:47.155Z</time></trkpt><trkpt lat="43.77531" lon="11.4361733"><ele>102.0</ele><time>2026-04-11T12:04:49.155Z</time></trkpt><trkpt lat="43.77524" lon="11.43618"><ele>100.5</ele><time>2026-04-11T12:04:51.155Z</time></trkpt><trkpt lat="43.7751367" lon="11.436125"><ele>99.0</ele><time>2026-04-11T12:04:53.155Z</time></trkpt><trkpt lat="43.7750367" lon="11.4360767"><ele>97.5</ele><time>2026-04-11T12:04:55.155Z</time></trkpt><trkpt lat="43.7749583" lon="11.4360583"><ele>96.0</ele><time>2026-04-11T12:04:57.155Z</time></trkpt><trkpt lat="43.7748933" lon="11.436025"><ele>94.5</ele><time>2026-04-11T12:05:00.155Z</time></trkpt><trkpt lat="43.7748433" lon="11.4360883"><ele>93.0</ele><time>2026-04-11T12:05:04.155Z</time></trkpt><trkpt lat="43.7748267" lon="11.4362217"><ele>93.4</ele><time>2026-04-11T12:05:06.155Z</time></trkpt><trkpt lat="43.77483" lon="11.436365"><ele>93.80000000000001</ele><time>2026-04-11T12:05:08.155Z</time></trkpt><trkpt lat="43.7748283" lon="11.4364733"><ele>94.2</ele><time>2026-04-11T12:05:09.155Z</time></trkpt><trkpt lat="43.7748233" lon="11.4365983"><ele>94.6</ele><time>2026-04-11T12:05:10.155Z</time></trkpt><trkpt lat="43.774815" lon="11.4367633"><ele>95.0</ele><time>2026-04-11T12:05:11.155Z</time></trkpt><trkpt lat="43.7747983" lon="11.436945"><ele>95.0</ele><time>2026-04-11T12:05:12.155Z</time></trkpt><trkpt lat="43.7747783" lon="11.4371133"><ele>95.0</ele><time>2026-04-11T12:05:13.155Z</time></trkpt><trkpt lat="43.77477" lon="11.43727"><ele>95.0</ele><time>2026-04-11T12:05:14.155Z</time></trkpt><trkpt lat="43.7747617" lon="11.437415"><ele>95.0</ele><time>2026-04-11T12:05:15.155Z</time></trkpt><trkpt lat="43.774755" lon="11.437555"><ele>95.0</ele><time>2026-04-11T12:05:16.155Z</time></trkpt><trkpt lat="43.774745" lon="11.4376783"><ele>95.0</ele><time>2026-04-11T12:05:17.155Z</time></trkpt><trkpt lat="43.7747383" lon="11.4378"><ele>95.0</ele><time>2026-04-11T12:05:18.155Z</time></trkpt><trkpt lat="43.77473" lon="11.437905"><ele>95.0</ele><time>2026-04-11T12:05:19.155Z</time></trkpt><trkpt lat="43.7747267" lon="11.4380167"><ele>95.0</ele><time>2026-04-11T12:05:20.155Z</time></trkpt><trkpt lat="43.7747183" lon="11.4381267"><ele>95.0</ele><time>2026-04-11T12:05:21.155Z</time></trkpt><trkpt lat="43.7747083" lon="11.4382433"><ele>95.0</ele><time>2026-04-11T12:05:22.155Z</time></trkpt><trkpt lat="43.7747" lon="11.438355"><ele>95.66666666666667</ele><time>2026-04-11T12:05:23.155Z</time></trkpt><trkpt lat="43.7746967" lon="11.4384717"><ele>96.33333333333334</ele><time>2026-04-11T12:05:24.155Z</time></trkpt><trkpt lat="43.7747" lon="11.4385917"><ele>97.0</ele><time>2026-04-11T12:05:25.155Z</time></trkpt><trkpt lat="43.7747067" lon="11.438715"><ele>97.66666666666667</ele><time>2026-04-11T12:05:26.155Z</time></trkpt><trkpt lat="43.7747083" lon="11.4388433"><ele>98.33333333333333</ele><time>2026-04-11T12:05:27.155Z</time></trkpt><trkpt lat="43.7747" lon="11.438975"><ele>99.0</ele><time>2026-04-11T12:05:28.155Z</time></trkpt><trkpt lat="43.77469" lon="11.4390983"><ele>99.0</ele><time>2026-04-11T12:05:29.155Z</time></trkpt><trkpt lat="43.774675" lon="11.43923"><ele>99.0</ele><time>2026-04-11T12:05:30.155Z</time></trkpt><trkpt lat="43.7746633" lon="11.4393517"><ele>99.0</ele><time>2026-04-11T12:05:31.155Z</time></trkpt><trkpt lat="43.7746583" lon="11.4394783"><ele>99.0</ele><time>2026-04-11T12:05:32.155Z</time></trkpt><trkpt lat="43.7746533" lon="11.4396033"><ele>99.0</ele><time>2026-04-11T12:05:33.155Z</time></trkpt><trkpt lat="43.774645" lon="11.43973"><ele>98.83333333333333</ele><time>2026-04-11T12:05:34.156Z</time></trkpt><trkpt lat="43.7746517" lon="11.4398567"><ele>98.66666666666666</ele><time>2026-04-11T12:05:35.155Z</time></trkpt><trkpt lat="43.77465" lon="11.439985"><ele>98.5</ele><time>2026-04-11T12:05:36.155Z</time></trkpt><trkpt lat="43.774655" lon="11.44011"><ele>98.33333333333333</ele><time>2026-04-11T12:05:37.155Z</time></trkpt><trkpt lat="43.7746683" lon="11.440225"><ele>98.16666666666666</ele><time>2026-04-11T12:05:38.155Z</time></trkpt><trkpt lat="43.7746867" lon="11.4403317"><ele>98.0</ele><time>2026-04-11T12:05:39.155Z</time></trkpt><trkpt lat="43.774705" lon="11.4404467"><ele>97.99999999999999</ele><time>2026-04-11T12:05:41.155Z</time></trkpt><trkpt lat="43.7746767" lon="11.4405417"><ele>98.0</ele><time>2026-04-11T12:05:44.155Z</time></trkpt><trkpt lat="43.7747083" lon="11.4404067"><ele>98.0</ele><time>2026-04-11T12:05:52.155Z</time></trkpt><trkpt lat="43.7746983" lon="11.44029"><ele>98.0</ele><time>2026-04-11T12:05:53.155Z</time></trkpt><trkpt lat="43.7746867" lon="11.4401667"><ele>97.99999999999999</ele><time>2026-04-11T12:05:54.155Z</time></trkpt><trkpt lat="43.7746817" lon="11.4400683"><ele>98.0</ele><time>2026-04-11T12:05:55.155Z</time></trkpt><trkpt lat="43.7746417" lon="11.439965"><ele>97.99999999999999</ele><time>2026-04-11T12:06:15.155Z</time></trkpt><trkpt lat="43.7746767" lon="11.4398783"><ele>98.0</ele><time>2026-04-11T12:06:19.155Z</time></trkpt><trkpt lat="43.7747683" lon="11.43988"><ele>98.0</ele><time>2026-04-11T12:06:23.155Z</time></trkpt><trkpt lat="43.7748117" lon="11.4399667"><ele>98.0</ele><time>2026-04-11T12:06:25.156Z</time></trkpt><trkpt lat="43.7748433" lon="11.4401267"><ele>97.99999999999999</ele><time>2026-04-11T12:06:27.155Z</time></trkpt><trkpt lat="43.7748583" lon="11.440215"><ele>98.0</ele><time>2026-04-11T12:06:28.155Z</time></trkpt><trkpt lat="43.7748733" lon="11.440305"><ele>98.0</ele><time>2026-04-11T12:06:29.155Z</time></trkpt><trkpt lat="43.7748917" lon="11.4403933"><ele>98.0</ele><time>2026-04-11T12:06:30.155Z</time></trkpt><trkpt lat="43.7749133" lon="11.44048"><ele>98.0</ele><time>2026-04-11T12:06:31.155Z</time></trkpt><trkpt lat="43.7749267" lon="11.44057"><ele>98.0</ele><time>2026-04-11T12:06:32.155Z</time></trkpt><trkpt lat="43.774945" lon="11.44066"><ele>98.0</ele><time>2026-04-11T12:06:33.155Z</time></trkpt><trkpt lat="43.7749683" lon="11.440745"><ele>98.0</ele><time>2026-04-11T12:06:34.155Z</time></trkpt><trkpt lat="43.7749917" lon="11.4408283"><ele>98.0</ele><time>2026-04-11T12:06:35.155Z</time></trkpt><trkpt lat="43.7750767" lon="11.4409667"><ele>97.66666666666666</ele><time>2026-04-11T12:06:37.155Z</time></trkpt><trkpt lat="43.775155" lon="11.44104"><ele>97.33333333333333</ele><time>2026-04-11T12:06:38.155Z</time></trkpt><trkpt lat="43.7752283" lon="11.441115"><ele>97.0</ele><time>2026-04-11T12:06:39.155Z</time></trkpt><trkpt lat="43.7752967" lon="11.441185"><ele>96.66666666666666</ele><time>2026-04-11T12:06:40.155Z</time></trkpt><trkpt lat="43.7753467" lon="11.4412467"><ele>96.33333333333333</ele><time>2026-04-11T12:06:41.155Z</time></trkpt><trkpt lat="43.7754317" lon="11.4413467"><ele>96.0</ele><time>2026-04-11T12:06:43.155Z</time></trkpt><trkpt lat="43.7754983" lon="11.4413817"><ele>96.0</ele><time>2026-04-11T12:06:47.155Z</time></trkpt><trkpt lat="43.7755717" lon="11.441365"><ele>96.0</ele><time>2026-04-11T12:06:50.155Z</time></trkpt><trkpt lat="43.7756567" lon="11.44134"><ele>96.0</ele><time>2026-04-11T12:06:52.155Z</time></trkpt><trkpt lat="43.7757717" lon="11.4413"><ele>96.0</ele><time>2026-04-11T12:06:54.155Z</time></trkpt><trkpt lat="43.775835" lon="11.4412817"><ele>96.0</ele><time>2026-04-11T12:06:55.155Z</time></trkpt><trkpt lat="43.77591" lon="11.4412633"><ele>96.0</ele><time>2026-04-11T12:06:57.155Z</time></trkpt><trkpt lat="43.7760017" lon="11.44134"><ele>96.19999999999999</ele><time>2026-04-11T12:07:00.155Z</time></trkpt><trkpt lat="43.7760583" lon="11.441395"><ele>96.39999999999999</ele><time>2026-04-11T12:07:02.155Z</time></trkpt><trkpt lat="43.77622" lon="11.4414217"><ele>96.6</ele><time>2026-04-11T12:08:08.154Z</time></trkpt><trkpt lat="43.776275" lon="11.4414967"><ele>96.8</ele><time>2026-04-11T12:08:10.154Z</time></trkpt><trkpt lat="43.7763533" lon="11.4415817"><ele>97.0</ele><time>2026-04-11T12:08:12.154Z</time></trkpt><trkpt lat="43.7764333" lon="11.4416683"><ele>97.0</ele><time>2026-04-11T12:08:14.154Z</time></trkpt><trkpt lat="43.7765067" lon="11.4417633"><ele>97.0</ele><time>2026-04-11T12:08:16.154Z</time></trkpt><trkpt lat="43.7765933" lon="11.441845"><ele>97.0</ele><time>2026-04-11T12:08:18.154Z</time></trkpt><trkpt lat="43.776685" lon="11.441935"><ele>97.0</ele><time>2026-04-11T12:08:20.154Z</time></trkpt><trkpt lat="43.7767733" lon="11.4420317"><ele>97.0</ele><time>2026-04-11T12:08:22.154Z</time></trkpt><trkpt lat="43.7768717" lon="11.4421267"><ele>97.6</ele><time>2026-04-11T12:08:24.154Z</time></trkpt><trkpt lat="43.77694" lon="11.442215"><ele>98.19999999999999</ele><time>2026-04-11T12:08:26.154Z</time></trkpt><trkpt lat="43.7770067" lon="11.4423"><ele>98.8</ele><time>2026-04-11T12:08:28.154Z</time></trkpt><trkpt lat="43.7770833" lon="11.442405"><ele>99.4</ele><time>2026-04-11T12:08:30.154Z</time></trkpt><trkpt lat="43.7771733" lon="11.4424967"><ele>100.0</ele><time>2026-04-11T12:08:32.154Z</time></trkpt><trkpt lat="43.7772433" lon="11.442575"><ele>100.0</ele><time>2026-04-11T12:08:34.154Z</time></trkpt><trkpt lat="43.7773067" lon="11.4426567"><ele>100.0</ele><time>2026-04-11T12:08:36.155Z</time></trkpt><trkpt lat="43.7773667" lon="11.4427283"><ele>100.0</ele><time>2026-04-11T12:08:38.154Z</time></trkpt><trkpt lat="43.777455" lon="11.4427917"><ele>100.0</ele><time>2026-04-11T12:08:40.154Z</time></trkpt><trkpt lat="43.7775417" lon="11.442865"><ele>100.0</ele><time>2026-04-11T12:08:42.154Z</time></trkpt><trkpt lat="43.777615" lon="11.4429267"><ele>98.4</ele><time>2026-04-11T12:08:44.154Z</time></trkpt><trkpt lat="43.7777033" lon="11.443"><ele>96.8</ele><time>2026-04-11T12:08:46.154Z</time></trkpt><trkpt lat="43.7778083" lon="11.4430717"><ele>95.19999999999999</ele><time>2026-04-11T12:08:48.154Z</time></trkpt><trkpt lat="43.7779033" lon="11.443115"><ele>93.6</ele><time>2026-04-11T12:08:50.154Z</time></trkpt><trkpt lat="43.7780117" lon="11.44317"><ele>92.0</ele><time>2026-04-11T12:08:52.154Z</time></trkpt><trkpt lat="43.7781233" lon="11.44322"><ele>92.0</ele><time>2026-04-11T12:08:54.154Z</time></trkpt><trkpt lat="43.778205" lon="11.443275"><ele>92.0</ele><time>2026-04-11T12:08:56.154Z</time></trkpt><trkpt lat="43.778255" lon="11.4433333"><ele>92.0</ele><time>2026-04-11T12:08:58.154Z</time></trkpt><trkpt lat="43.77833" lon="11.4434483"><ele>92.0</ele><time>2026-04-11T12:09:00.154Z</time></trkpt><trkpt lat="43.7784117" lon="11.4435417"><ele>92.0</ele><time>2026-04-11T12:09:02.154Z</time></trkpt><trkpt lat="43.778505" lon="11.4435683"><ele>92.83333333333334</ele><time>2026-04-11T12:09:04.154Z</time></trkpt><trkpt lat="43.7785683" lon="11.4435833"><ele>93.66666666666667</ele><time>2026-04-11T12:09:06.154Z</time></trkpt><trkpt lat="43.7786383" lon="11.4435833"><ele>94.5</ele><time>2026-04-11T12:09:09.154Z</time></trkpt><trkpt lat="43.778735" lon="11.4435667"><ele>95.33333333333334</ele><time>2026-04-11T12:09:23.154Z</time></trkpt><trkpt lat="43.77885" lon="11.4436"><ele>96.16666666666667</ele><time>2026-04-11T12:09:25.154Z</time></trkpt><trkpt lat="43.77892" lon="11.4436283"><ele>97.0</ele><time>2026-04-11T12:09:26.155Z</time></trkpt><trkpt lat="43.7790067" lon="11.4436817"><ele>97.0</ele><time>2026-04-11T12:09:27.154Z</time></trkpt><trkpt lat="43.779095" lon="11.4437467"><ele>97.0</ele><time>2026-04-11T12:09:28.154Z</time></trkpt><trkpt lat="43.77919" lon="11.4438367"><ele>97.0</ele><time>2026-04-11T12:09:29.154Z</time></trkpt><trkpt lat="43.77929" lon="11.443935"><ele>97.0</ele><time>2026-04-11T12:09:30.154Z</time></trkpt><trkpt lat="43.7793833" lon="11.4440417"><ele>96.0</ele><time>2026-04-11T12:09:31.154Z</time></trkpt><trkpt lat="43.77945" lon="11.4441233"><ele>95.0</ele><time>2026-04-11T12:09:32.154Z</time></trkpt><trkpt lat="43.7795167" lon="11.4441917"><ele>94.0</ele><time>2026-04-11T12:09:33.154Z</time></trkpt><trkpt lat="43.7795667" lon="11.4443033"><ele>93.0</ele><time>2026-04-11T12:09:34.154Z</time></trkpt><trkpt lat="43.7796283" lon="11.4444283"><ele>92.0</ele><time>2026-04-11T12:09:35.154Z</time></trkpt><trkpt lat="43.779715" lon="11.4445617"><ele>91.0</ele><time>2026-04-11T12:09:36.154Z</time></trkpt><trkpt lat="43.7798" lon="11.4447333"><ele>90.0</ele><time>2026-04-11T12:09:37.154Z</time></trkpt><trkpt lat="43.779875" lon="11.444895"><ele>89.0</ele><time>2026-04-11T12:09:38.155Z</time></trkpt><trkpt lat="43.7799483" lon="11.4450283"><ele>88.0</ele><time>2026-04-11T12:09:39.154Z</time></trkpt><trkpt lat="43.7800267" lon="11.44515"><ele>88.0</ele><time>2026-04-11T12:09:40.154Z</time></trkpt><trkpt lat="43.7801133" lon="11.4452733"><ele>88.0</ele><time>2026-04-11T12:09:41.154Z</time></trkpt><trkpt lat="43.7802017" lon="11.44542"><ele>88.0</ele><time>2026-04-11T12:09:42.154Z</time></trkpt><trkpt lat="43.7802983" lon="11.445545"><ele>88.0</ele><time>2026-04-11T12:09:43.154Z</time></trkpt><trkpt lat="43.7803817" lon="11.44568"><ele>87.4</ele><time>2026-04-11T12:09:44.154Z</time></trkpt><trkpt lat="43.78045" lon="11.4458"><ele>86.80000000000001</ele><time>2026-04-11T12:09:45.154Z</time></trkpt><trkpt lat="43.7805083" lon="11.4459067"><ele>86.2</ele><time>2026-04-11T12:09:46.154Z</time></trkpt><trkpt lat="43.7805633" lon="11.446005"><ele>85.6</ele><time>2026-04-11T12:09:47.155Z</time></trkpt><trkpt lat="43.78062" lon="11.44608"><ele>85.0</ele><time>2026-04-11T12:09:48.154Z</time></trkpt><trkpt lat="43.7807" lon="11.4462033"><ele>84.4</ele><time>2026-04-11T12:09:50.155Z</time></trkpt><trkpt lat="43.7807733" lon="11.4463017"><ele>83.8</ele><time>2026-04-11T12:09:52.154Z</time></trkpt><trkpt lat="43.7808483" lon="11.4463533"><ele>83.19999999999999</ele><time>2026-04-11T12:09:54.155Z</time></trkpt><trkpt lat="43.780925" lon="11.44641"><ele>82.6</ele><time>2026-04-11T12:09:56.154Z</time></trkpt><trkpt lat="43.7809833" lon="11.4463567"><ele>82.0</ele><time>2026-04-11T12:09:58.154Z</time></trkpt><trkpt lat="43.7810367" lon="11.4462133"><ele>83.33333333333333</ele><time>2026-04-11T12:10:00.154Z</time></trkpt><trkpt lat="43.7810717" lon="11.44614"><ele>84.66666666666666</ele><time>2026-04-11T12:10:01.154Z</time></trkpt><trkpt lat="43.7811133" lon="11.4460367"><ele>86.0</ele><time>2026-04-11T12:10:03.154Z</time></trkpt><trkpt lat="43.7811783" lon="11.4459667"><ele>87.33333333333333</ele><time>2026-04-11T12:10:06.154Z</time></trkpt><trkpt lat="43.7812367" lon="11.4458867"><ele>88.66666666666667</ele><time>2026-04-11T12:10:09.154Z</time></trkpt><trkpt lat="43.781315" lon="11.4458567"><ele>90.0</ele><time>2026-04-11T12:10:11.154Z</time></trkpt><trkpt lat="43.78145" lon="11.4459"><ele>90.0</ele><time>2026-04-11T12:10:13.155Z</time></trkpt><trkpt lat="43.781535" lon="11.4459383"><ele>90.0</ele><time>2026-04-11T12:10:14.154Z</time></trkpt><trkpt lat="43.78163" lon="11.4459967"><ele>90.0</ele><time>2026-04-11T12:10:15.154Z</time></trkpt><trkpt lat="43.7817317" lon="11.4460533"><ele>90.0</ele><time>2026-04-11T12:10:16.155Z</time></trkpt><trkpt lat="43.781825" lon="11.446105"><ele>90.0</ele><time>2026-04-11T12:10:17.154Z</time></trkpt><trkpt lat="43.7819067" lon="11.44616"><ele>90.0</ele><time>2026-04-11T12:10:18.154Z</time></trkpt><trkpt lat="43.7819917" lon="11.44621"><ele>90.0</ele><time>2026-04-11T12:10:19.154Z</time></trkpt><trkpt lat="43.7820717" lon="11.4462583"><ele>90.0</ele><time>2026-04-11T12:10:20.154Z</time></trkpt><trkpt lat="43.7821467" lon="11.4463033"><ele>90.0</ele><time>2026-04-11T12:10:21.154Z</time></trkpt><trkpt lat="43.78222" lon="11.4463433"><ele>90.0</ele><time>2026-04-11T12:10:22.154Z</time></trkpt><trkpt lat="43.7823" lon="11.446395"><ele>90.0</ele><time>2026-04-11T12:10:23.154Z</time></trkpt><trkpt lat="43.7823717" lon="11.4464483"><ele>90.0</ele><time>2026-04-11T12:10:24.154Z</time></trkpt><trkpt lat="43.78244" lon="11.44652"><ele>90.0</ele><time>2026-04-11T12:10:25.154Z</time></trkpt><trkpt lat="43.7825017" lon="11.446605"><ele>90.0</ele><time>2026-04-11T12:10:26.155Z</time></trkpt><trkpt lat="43.7825467" lon="11.446675"><ele>90.0</ele><time>2026-04-11T12:10:27.155Z</time></trkpt><trkpt lat="43.7826033" lon="11.4467983"><ele>90.0</ele><time>2026-04-11T12:10:29.154Z</time></trkpt><trkpt lat="43.7826617" lon="11.4469083"><ele>90.0</ele><time>2026-04-11T12:10:31.154Z</time></trkpt><trkpt lat="43.7827117" lon="11.4469967"><ele>89.75</ele><time>2026-04-11T12:10:32.154Z</time></trkpt><trkpt lat="43.782785" lon="11.447115"><ele>89.5</ele><time>2026-04-11T12:10:33.155Z</time></trkpt><trkpt lat="43.7828717" lon="11.4472383"><ele>89.25</ele><time>2026-04-11T12:10:34.154Z</time></trkpt><trkpt lat="43.782965" lon="11.4473583"><ele>89.0</ele><time>2026-04-11T12:10:35.154Z</time></trkpt><trkpt lat="43.7830667" lon="11.4474733"><ele>89.0</ele><time>2026-04-11T12:10:36.154Z</time></trkpt><trkpt lat="43.7831617" lon="11.4475683"><ele>89.0</ele><time>2026-04-11T12:10:37.154Z</time></trkpt><trkpt lat="43.7832567" lon="11.4476433"><ele>89.0</ele><time>2026-04-11T12:10:38.154Z</time></trkpt><trkpt lat="43.7833567" lon="11.4477017"><ele>89.0</ele><time>2026-04-11T12:10:39.154Z</time></trkpt><trkpt lat="43.7834617" lon="11.447755"><ele>89.0</ele><time>2026-04-11T12:10:40.154Z</time></trkpt><trkpt lat="43.7835483" lon="11.4478267"><ele>89.16666666666667</ele><time>2026-04-11T12:10:41.154Z</time></trkpt><trkpt lat="43.783625" lon="11.447905"><ele>89.33333333333334</ele><time>2026-04-11T12:10:42.154Z</time></trkpt><trkpt lat="43.78369" lon="11.4479967"><ele>89.5</ele><time>2026-04-11T12:10:43.155Z</time></trkpt><trkpt lat="43.7837433" lon="11.44808"><ele>89.66666666666667</ele><time>2026-04-11T12:10:44.154Z</time></trkpt><trkpt lat="43.7837983" lon="11.4481617"><ele>89.83333333333333</ele><time>2026-04-11T12:10:45.154Z</time></trkpt><trkpt lat="43.7838567" lon="11.4482467"><ele>90.0</ele><time>2026-04-11T12:10:46.154Z</time></trkpt><trkpt lat="43.7839167" lon="11.4483433"><ele>90.0</ele><time>2026-04-11T12:10:47.154Z</time></trkpt><trkpt lat="43.783975" lon="11.4484667"><ele>90.0</ele><time>2026-04-11T12:10:48.154Z</time></trkpt><trkpt lat="43.78405" lon="11.448585"><ele>90.0</ele><time>2026-04-11T12:10:49.154Z</time></trkpt><trkpt lat="43.7841417" lon="11.4486983"><ele>90.0</ele><time>2026-04-11T12:10:50.154Z</time></trkpt><trkpt lat="43.78424" lon="11.4488033"><ele>90.25</ele><time>2026-04-11T12:10:51.155Z</time></trkpt><trkpt lat="43.7843533" lon="11.448895"><ele>90.5</ele><time>2026-04-11T12:10:52.154Z</time></trkpt><trkpt lat="43.784465" lon="11.4489983"><ele>90.75</ele><time>2026-04-11T12:10:53.154Z</time></trkpt><trkpt lat="43.78457" lon="11.44909"><ele>91.0</ele><time>2026-04-11T12:10:54.154Z</time></trkpt><trkpt lat="43.784675" lon="11.449195"><ele>91.0</ele><time>2026-04-11T12:10:55.154Z</time></trkpt><trkpt lat="43.784775" lon="11.449305"><ele>91.0</ele><time>2026-04-11T12:10:56.154Z</time></trkpt><trkpt lat="43.7848717" lon="11.4494167"><ele>91.0</ele><time>2026-04-11T12:10:57.154Z</time></trkpt><trkpt lat="43.784965" lon="11.44954"><ele>91.0</ele><time>2026-04-11T12:10:58.154Z</time></trkpt><trkpt lat="43.785045" lon="11.4496583"><ele>90.5</ele><time>2026-04-11T12:10:59.154Z</time></trkpt><trkpt lat="43.7851067" lon="11.449765"><ele>90.0</ele><time>2026-04-11T12:11:00.154Z</time></trkpt><trkpt lat="43.78516" lon="11.44986"><ele>89.5</ele><time>2026-04-11T12:11:01.154Z</time></trkpt><trkpt lat="43.785215" lon="11.4499467"><ele>89.0</ele><time>2026-04-11T12:11:02.154Z</time></trkpt><trkpt lat="43.78527" lon="11.450035"><ele>88.5</ele><time>2026-04-11T12:11:03.154Z</time></trkpt><trkpt lat="43.7853233" lon="11.4501067"><ele>88.0</ele><time>2026-04-11T12:11:04.155Z</time></trkpt><trkpt lat="43.78537" lon="11.4501717"><ele>89.4</ele><time>2026-04-11T12:11:05.155Z</time></trkpt><trkpt lat="43.7854367" lon="11.4502433"><ele>90.80000000000001</ele><time>2026-04-11T12:11:07.154Z</time></trkpt><trkpt lat="43.785475" lon="11.450135"><ele>92.2</ele><time>2026-04-11T12:11:15.154Z</time></trkpt><trkpt lat="43.785555" lon="11.4500667"><ele>93.6</ele><time>2026-04-11T12:11:17.154Z</time></trkpt><trkpt lat="43.7856383" lon="11.4500317"><ele>95.0</ele><time>2026-04-11T12:11:18.154Z</time></trkpt><trkpt lat="43.78574" lon="11.4499833"><ele>95.0</ele><time>2026-04-11T12:11:19.154Z</time></trkpt><trkpt lat="43.7858517" lon="11.4499233"><ele>95.0</ele><time>2026-04-11T12:11:20.154Z</time></trkpt><trkpt lat="43.7859717" lon="11.449855"><ele>95.0</ele><time>2026-04-11T12:11:21.154Z</time></trkpt><trkpt lat="43.78608" lon="11.4497883"><ele>95.0</ele><time>2026-04-11T12:11:22.155Z</time></trkpt><trkpt lat="43.7861767" lon="11.4497317"><ele>96.5</ele><time>2026-04-11T12:11:23.154Z</time></trkpt><trkpt lat="43.7862733" lon="11.44971"><ele>98.0</ele><time>2026-04-11T12:11:24.154Z</time></trkpt><trkpt lat="43.7864017" lon="11.4497167"><ele>99.5</ele><time>2026-04-11T12:11:25.154Z</time></trkpt><trkpt lat="43.7865433" lon="11.4497367"><ele>101.0</ele><time>2026-04-11T12:11:26.154Z</time></trkpt><trkpt lat="43.78667" lon="11.4497733"><ele>101.0</ele><time>2026-04-11T12:11:27.154Z</time></trkpt><trkpt lat="43.7867833" lon="11.4498133"><ele>101.0</ele><time>2026-04-11T12:11:28.155Z</time></trkpt><trkpt lat="43.7869" lon="11.4498733"><ele>101.0</ele><time>2026-04-11T12:11:29.154Z</time></trkpt><trkpt lat="43.78703" lon="11.449945"><ele>101.0</ele><time>2026-04-11T12:11:30.154Z</time></trkpt><trkpt lat="43.7871517" lon="11.4500083"><ele>103.8</ele><time>2026-04-11T12:11:31.154Z</time></trkpt><trkpt lat="43.7872617" lon="11.4500667"><ele>106.6</ele><time>2026-04-11T12:11:32.154Z</time></trkpt><trkpt lat="43.7873517" lon="11.45013"><ele>109.4</ele><time>2026-04-11T12:11:33.155Z</time></trkpt><trkpt lat="43.7874217" lon="11.45021"><ele>112.2</ele><time>2026-04-11T12:11:34.154Z</time></trkpt><trkpt lat="43.7874783" lon="11.4503333"><ele>115.0</ele><time>2026-04-11T12:11:35.154Z</time></trkpt><trkpt lat="43.7875183" lon="11.450475"><ele>115.0</ele><time>2026-04-11T12:11:36.154Z</time></trkpt><trkpt lat="43.78757" lon="11.4506283"><ele>115.0</ele><time>2026-04-11T12:11:37.154Z</time></trkpt><trkpt lat="43.787645" lon="11.4507983"><ele>115.0</ele><time>2026-04-11T12:11:38.155Z</time></trkpt><trkpt lat="43.7877317" lon="11.4509667"><ele>115.0</ele><time>2026-04-11T12:11:39.154Z</time></trkpt><trkpt lat="43.78783" lon="11.4511417"><ele>119.66666666666667</ele><time>2026-04-11T12:11:40.154Z</time></trkpt><trkpt lat="43.7879317" lon="11.45132"><ele>124.33333333333334</ele><time>2026-04-11T12:11:41.154Z</time></trkpt><trkpt lat="43.7880217" lon="11.4514933"><ele>129.0</ele><time>2026-04-11T12:11:42.154Z</time></trkpt><trkpt lat="43.7881183" lon="11.4516583"><ele>129.0</ele><time>2026-04-11T12:11:43.154Z</time></trkpt><trkpt lat="43.7882167" lon="11.4518167"><ele>129.0</ele><time>2026-04-11T12:11:44.154Z</time></trkpt><trkpt lat="43.788325" lon="11.4519717"><ele>129.0</ele><time>2026-04-11T12:11:45.154Z</time></trkpt><trkpt lat="43.7884417" lon="11.45211"><ele>132.66666666666666</ele><time>2026-04-11T12:11:46.154Z</time></trkpt><trkpt lat="43.7885583" lon="11.4522567"><ele>136.33333333333331</ele><time>2026-04-11T12:11:47.154Z</time></trkpt><trkpt lat="43.7886817" lon="11.4524133"><ele>140.0</ele><time>2026-04-11T12:11:48.155Z</time></trkpt><trkpt lat="43.7888017" lon="11.452575"><ele>140.0</ele><time>2026-04-11T12:11:49.154Z</time></trkpt><trkpt lat="43.7889133" lon="11.4527467"><ele>140.0</ele><time>2026-04-11T12:11:50.154Z</time></trkpt><trkpt lat="43.7890233" lon="11.4529167"><ele>140.0</ele><time>2026-04-11T12:11:51.154Z</time></trkpt><trkpt lat="43.7891333" lon="11.45309"><ele>141.25</ele><time>2026-04-11T12:11:52.154Z</time></trkpt><trkpt lat="43.7892383" lon="11.4532567"><ele>142.5</ele><time>2026-04-11T12:11:53.154Z</time></trkpt><trkpt lat="43.7893283" lon="11.453405"><ele>143.75</ele><time>2026-04-11T12:11:54.154Z</time></trkpt><trkpt lat="43.7894017" lon="11.4535383"><ele>145.0</ele><time>2026-04-11T12:11:55.154Z</time></trkpt><trkpt lat="43.7894733" lon="11.4536517"><ele>145.0</ele><time>2026-04-11T12:11:56.154Z</time></trkpt><trkpt lat="43.7895367" lon="11.45374"><ele>145.0</ele><time>2026-04-11T12:11:57.154Z</time></trkpt><trkpt lat="43.7896017" lon="11.4537983"><ele>145.0</ele><time>2026-04-11T12:11:58.155Z</time></trkpt><trkpt lat="43.7896817" lon="11.4538333"><ele>145.0</ele><time>2026-04-11T12:11:59.154Z</time></trkpt><trkpt lat="43.7897767" lon="11.4538633"><ele>145.0</ele><time>2026-04-11T12:12:00.154Z</time></trkpt><trkpt lat="43.7898767" lon="11.4538983"><ele>146.0</ele><time>2026-04-11T12:12:01.154Z</time></trkpt><trkpt lat="43.78999" lon="11.453925"><ele>147.0</ele><time>2026-04-11T12:12:02.154Z</time></trkpt><trkpt lat="43.7901133" lon="11.4539483"><ele>148.0</ele><time>2026-04-11T12:12:03.154Z</time></trkpt><trkpt lat="43.7902417" lon="11.4539733"><ele>149.0</ele><time>2026-04-11T12:12:04.154Z</time></trkpt><trkpt lat="43.790385" lon="11.454005"><ele>149.0</ele><time>2026-04-11T12:12:05.154Z</time></trkpt><trkpt lat="43.790545" lon="11.4540283"><ele>149.0</ele><time>2026-04-11T12:12:06.154Z</time></trkpt><trkpt lat="43.790715" lon="11.4540233"><ele>149.0</ele><time>2026-04-11T12:12:07.154Z</time></trkpt><trkpt lat="43.790885" lon="11.4540033"><ele>150.66666666666666</ele><time>2026-04-11T12:12:08.154Z</time></trkpt><trkpt lat="43.791055" lon="11.4539767"><ele>152.33333333333334</ele><time>2026-04-11T12:12:09.155Z</time></trkpt><trkpt lat="43.791205" lon="11.4539467"><ele>154.0</ele><time>2026-04-11T12:12:10.155Z</time></trkpt><trkpt lat="43.7913333" lon="11.4539167"><ele>154.0</ele><time>2026-04-11T12:12:11.155Z</time></trkpt><trkpt lat="43.7914517" lon="11.45388"><ele>154.0</ele><time>2026-04-11T12:12:12.154Z</time></trkpt><trkpt lat="43.791555" lon="11.4538283"><ele>154.0</ele><time>2026-04-11T12:12:13.154Z</time></trkpt><trkpt lat="43.791645" lon="11.4537333"><ele>154.0</ele><time>2026-04-11T12:12:14.154Z</time></trkpt><trkpt lat="43.791715" lon="11.4535933"><ele>155.75</ele><time>2026-04-11T12:12:15.154Z</time></trkpt><trkpt lat="43.7917633" lon="11.4534283"><ele>157.5</ele><time>2026-04-11T12:12:16.155Z</time></trkpt><trkpt lat="43.7917883" lon="11.4532433"><ele>159.25</ele><time>2026-04-11T12:12:17.154Z</time></trkpt><trkpt lat="43.7917933" lon="11.4530567"><ele>161.0</ele><time>2026-04-11T12:12:18.154Z</time></trkpt><trkpt lat="43.7917733" lon="11.4528817"><ele>163.25</ele><time>2026-04-11T12:12:19.154Z</time></trkpt><trkpt lat="43.791715" lon="11.4527283"><ele>165.5</ele><time>2026-04-11T12:12:20.154Z</time></trkpt><trkpt lat="43.79163" lon="11.4525883"><ele>167.75</ele><time>2026-04-11T12:12:21.154Z</time></trkpt><trkpt lat="43.7915267" lon="11.4524433"><ele>170.0</ele><time>2026-04-11T12:12:22.154Z</time></trkpt><trkpt lat="43.7914167" lon="11.4522933"><ele>170.0</ele><time>2026-04-11T12:12:23.155Z</time></trkpt><trkpt lat="43.7913117" lon="11.4521533"><ele>170.0</ele><time>2026-04-11T12:12:24.155Z</time></trkpt><trkpt lat="43.791225" lon="11.45202"><ele>170.0</ele><time>2026-04-11T12:12:25.154Z</time></trkpt><trkpt lat="43.791165" lon="11.4518983"><ele>170.0</ele><time>2026-04-11T12:12:26.154Z</time></trkpt><trkpt lat="43.7911317" lon="11.4518"><ele>172.0</ele><time>2026-04-11T12:12:27.154Z</time></trkpt><trkpt lat="43.79112" lon="11.45171"><ele>174.0</ele><time>2026-04-11T12:12:28.155Z</time></trkpt><trkpt lat="43.7911417" lon="11.451625"><ele>176.0</ele><time>2026-04-11T12:12:29.154Z</time></trkpt><trkpt lat="43.7911967" lon="11.4515783"><ele>178.0</ele><time>2026-04-11T12:12:30.154Z</time></trkpt><trkpt lat="43.79128" lon="11.4515817"><ele>180.0</ele><time>2026-04-11T12:12:31.154Z</time></trkpt><trkpt lat="43.7913833" lon="11.4516033"><ele>182.0</ele><time>2026-04-11T12:12:32.155Z</time></trkpt><trkpt lat="43.7915033" lon="11.4516233"><ele>182.0</ele><time>2026-04-11T12:12:33.155Z</time></trkpt><trkpt lat="43.7916417" lon="11.4516367"><ele>182.0</ele><time>2026-04-11T12:12:34.155Z</time></trkpt><trkpt lat="43.7917933" lon="11.451635"><ele>182.0</ele><time>2026-04-11T12:12:35.154Z</time></trkpt><trkpt lat="43.7919533" lon="11.4516367"><ele>184.0</ele><time>2026-04-11T12:12:36.155Z</time></trkpt><trkpt lat="43.7921117" lon="11.4516317"><ele>186.0</ele><time>2026-04-11T12:12:37.154Z</time></trkpt><trkpt lat="43.792295" lon="11.451625"><ele>188.0</ele><time>2026-04-11T12:12:38.154Z</time></trkpt><trkpt lat="43.7924717" lon="11.4516167"><ele>188.0</ele><time>2026-04-11T12:12:39.154Z</time></trkpt><trkpt lat="43.79264" lon="11.4516033"><ele>188.0</ele><time>2026-04-11T12:12:40.155Z</time></trkpt><trkpt lat="43.7928083" lon="11.4516"><ele>188.0</ele><time>2026-04-11T12:12:41.154Z</time></trkpt><trkpt lat="43.7929817" lon="11.4516117"><ele>190.33333333333331</ele><time>2026-04-11T12:12:42.154Z</time></trkpt><trkpt lat="43.7931617" lon="11.4516233"><ele>192.66666666666666</ele><time>2026-04-11T12:12:43.154Z</time></trkpt><trkpt lat="43.7933433" lon="11.4516367"><ele>195.0</ele><time>2026-04-11T12:12:44.154Z</time></trkpt><trkpt lat="43.79353" lon="11.4516567"><ele>198.0</ele><time>2026-04-11T12:12:45.154Z</time></trkpt><trkpt lat="43.7937017" lon="11.451685"><ele>201.0</ele><time>2026-04-11T12:12:46.154Z</time></trkpt><trkpt lat="43.7938583" lon="11.4517083"><ele>204.0</ele><time>2026-04-11T12:12:47.154Z</time></trkpt><trkpt lat="43.793995" lon="11.4517283"><ele>204.0</ele><time>2026-04-11T12:12:48.154Z</time></trkpt><trkpt lat="43.7941233" lon="11.451745"><ele>204.0</ele><time>2026-04-11T12:12:49.154Z</time></trkpt><trkpt lat="43.7942317" lon="11.4517633"><ele>204.0</ele><time>2026-04-11T12:12:50.154Z</time></trkpt><trkpt lat="43.7943317" lon="11.4517683"><ele>204.0</ele><time>2026-04-11T12:12:51.154Z</time></trkpt><trkpt lat="43.7944317" lon="11.4517517"><ele>204.0</ele><time>2026-04-11T12:12:52.154Z</time></trkpt><trkpt lat="43.79452" lon="11.451715"><ele>206.0</ele><time>2026-04-11T12:12:53.154Z</time></trkpt><trkpt lat="43.7946" lon="11.4516583"><ele>208.0</ele><time>2026-04-11T12:12:54.154Z</time></trkpt><trkpt lat="43.7946767" lon="11.45156"><ele>209.99999999999997</ele><time>2026-04-11T12:12:55.154Z</time></trkpt><trkpt lat="43.7947517" lon="11.4514533"><ele>212.0</ele><time>2026-04-11T12:12:56.154Z</time></trkpt><trkpt lat="43.79482" lon="11.45137"><ele>214.0</ele><time>2026-04-11T12:12:57.154Z</time></trkpt><trkpt lat="43.7948883" lon="11.4513317"><ele>214.0</ele><time>2026-04-11T12:12:58.154Z</time></trkpt><trkpt lat="43.7950017" lon="11.4514133"><ele>214.0</ele><time>2026-04-11T12:13:00.154Z</time></trkpt><trkpt lat="43.79505" lon="11.4515333"><ele>214.0</ele><time>2026-04-11T12:13:01.154Z</time></trkpt><trkpt lat="43.79508" lon="11.4516767"><ele>214.0</ele><time>2026-04-11T12:13:02.154Z</time></trkpt><trkpt lat="43.7951217" lon="11.4518267"><ele>216.5</ele><time>2026-04-11T12:13:03.154Z</time></trkpt><trkpt lat="43.795185" lon="11.4519717"><ele>219.0</ele><time>2026-04-11T12:13:04.154Z</time></trkpt><trkpt lat="43.7952633" lon="11.4521283"><ele>221.5</ele><time>2026-04-11T12:13:05.154Z</time></trkpt><trkpt lat="43.7953333" lon="11.4522717"><ele>224.0</ele><time>2026-04-11T12:13:06.154Z</time></trkpt><trkpt lat="43.7953833" lon="11.4523917"><ele>224.0</ele><time>2026-04-11T12:13:07.154Z</time></trkpt><trkpt lat="43.795445" lon="11.452495"><ele>224.0</ele><time>2026-04-11T12:13:08.154Z</time></trkpt><trkpt lat="43.7955283" lon="11.4525783"><ele>224.0</ele><time>2026-04-11T12:13:09.154Z</time></trkpt><trkpt lat="43.795635" lon="11.4526467"><ele>224.0</ele><time>2026-04-11T12:13:10.154Z</time></trkpt><trkpt lat="43.7957617" lon="11.4527067"><ele>224.0</ele><time>2026-04-11T12:13:11.155Z</time></trkpt><trkpt lat="43.7959" lon="11.4527383"><ele>224.0</ele><time>2026-04-11T12:13:12.154Z</time></trkpt><trkpt lat="43.79604" lon="11.452765"><ele>224.0</ele><time>2026-04-11T12:13:13.154Z</time></trkpt><trkpt lat="43.7961567" lon="11.4527867"><ele>224.0</ele><time>2026-04-11T12:13:14.154Z</time></trkpt><trkpt lat="43.7962533" lon="11.4527883"><ele>225.16666666666669</ele><time>2026-04-11T12:13:15.154Z</time></trkpt><trkpt lat="43.7963317" lon="11.4527633"><ele>226.33333333333334</ele><time>2026-04-11T12:13:16.154Z</time></trkpt><trkpt lat="43.7964283" lon="11.45269"><ele>227.5</ele><time>2026-04-11T12:13:18.155Z</time></trkpt><trkpt lat="43.7964833" lon="11.45263"><ele>228.66666666666669</ele><time>2026-04-11T12:13:20.154Z</time></trkpt><trkpt lat="43.7965617" lon="11.4525883"><ele>229.83333333333334</ele><time>2026-04-11T12:13:22.154Z</time></trkpt><trkpt lat="43.79665" lon="11.452545"><ele>231.0</ele><time>2026-04-11T12:13:24.154Z</time></trkpt><trkpt lat="43.796715" lon="11.4525333"><ele>231.0</ele><time>2026-04-11T12:13:27.155Z</time></trkpt><trkpt lat="43.7967783" lon="11.4525567"><ele>231.00000000000003</ele><time>2026-04-11T12:13:31.154Z</time></trkpt><trkpt lat="43.7968533" lon="11.4525967"><ele>231.00000000000003</ele><time>2026-04-11T12:13:33.154Z</time></trkpt><trkpt lat="43.7969483" lon="11.4526683"><ele>231.0</ele><time>2026-04-11T12:13:35.155Z</time></trkpt><trkpt lat="43.7970433" lon="11.4527483"><ele>231.0</ele><time>2026-04-11T12:13:37.154Z</time></trkpt><trkpt lat="43.7971447" lon="11.4528348"><ele>231.5</ele><time>2026-04-11T12:13:39.154Z</time></trkpt><trkpt lat="43.7972459" lon="11.4529294"><ele>232.0</ele><time>2026-04-11T12:13:41.154Z</time></trkpt><trkpt lat="43.7973062" lon="11.4529777"><ele>232.5</ele><time>2026-04-11T12:13:42.154Z</time></trkpt><trkpt lat="43.7973767" lon="11.4530361"><ele>233.0</ele><time>2026-04-11T12:13:43.154Z</time></trkpt><trkpt lat="43.7974523" lon="11.4530913"><ele>233.5</ele><time>2026-04-11T12:13:44.155Z</time></trkpt><trkpt lat="43.7975264" lon="11.4531292"><ele>234.0</ele><time>2026-04-11T12:13:45.154Z</time></trkpt><trkpt lat="43.7976032" lon="11.4531555"><ele>237.33333333333334</ele><time>2026-04-11T12:13:46.154Z</time></trkpt><trkpt lat="43.7976748" lon="11.4531886"><ele>240.66666666666669</ele><time>2026-04-11T12:13:47.154Z</time></trkpt><trkpt lat="43.7977454" lon="11.4532354"><ele>244.0</ele><time>2026-04-11T12:13:48.154Z</time></trkpt><trkpt lat="43.7978166" lon="11.4532818"><ele>247.33333333333334</ele><time>2026-04-11T12:13:49.155Z</time></trkpt><trkpt lat="43.797877" lon="11.4533205"><ele>250.66666666666669</ele><time>2026-04-11T12:13:50.154Z</time></trkpt><trkpt lat="43.797974" lon="11.4533882"><ele>254.0</ele><time>2026-04-11T12:13:52.154Z</time></trkpt><trkpt lat="43.7980595" lon="11.4534855"><ele>254.0</ele><time>2026-04-11T12:13:54.155Z</time></trkpt><trkpt lat="43.7981454" lon="11.4535979"><ele>254.0</ele><time>2026-04-11T12:13:56.154Z</time></trkpt><trkpt lat="43.7982223" lon="11.4537062"><ele>254.0</ele><time>2026-04-11T12:13:58.154Z</time></trkpt><trkpt lat="43.7982703" lon="11.4538109"><ele>254.0</ele><time>2026-04-11T12:14:00.155Z</time></trkpt><trkpt lat="43.7983519" lon="11.4539712"><ele>254.57142857142858</ele><time>2026-04-11T12:14:02.154Z</time></trkpt><trkpt lat="43.7983928" lon="11.4540697"><ele>255.1428571428571</ele><time>2026-04-11T12:14:03.154Z</time></trkpt><trkpt lat="43.7984321" lon="11.4541464"><ele>255.7142857142857</ele><time>2026-04-11T12:14:04.154Z</time></trkpt><trkpt lat="43.7984799" lon="11.4542061"><ele>256.2857142857143</ele><time>2026-04-11T12:14:05.154Z</time></trkpt><trkpt lat="43.7985341" lon="11.4542506"><ele>256.85714285714283</ele><time>2026-04-11T12:14:06.154Z</time></trkpt><trkpt lat="43.7985962" lon="11.454288"><ele>257.4285714285714</ele><time>2026-04-11T12:14:07.154Z</time></trkpt><trkpt lat="43.7986707" lon="11.4543177"><ele>258.0</ele><time>2026-04-11T12:14:08.154Z</time></trkpt><trkpt lat="43.7987486" lon="11.4543579"><ele>258.0</ele><time>2026-04-11T12:14:09.154Z</time></trkpt><trkpt lat="43.7988243" lon="11.454398"><ele>258.0</ele><time>2026-04-11T12:14:10.154Z</time></trkpt><trkpt lat="43.7988934" lon="11.4544365"><ele>258.0</ele><time>2026-04-11T12:14:11.154Z</time></trkpt><trkpt lat="43.7989633" lon="11.4544764"><ele>258.0</ele><time>2026-04-11T12:14:12.154Z</time></trkpt><trkpt lat="43.799042" lon="11.4545123"><ele>258.0</ele><time>2026-04-11T12:14:13.154Z</time></trkpt><trkpt lat="43.7991301" lon="11.4545487"><ele>258.0</ele><time>2026-04-11T12:14:14.154Z</time></trkpt><trkpt lat="43.7992124" lon="11.4545815"><ele>258.0</ele><time>2026-04-11T12:14:15.154Z</time></trkpt><trkpt lat="43.7992938" lon="11.4546161"><ele>258.0</ele><time>2026-04-11T12:14:16.154Z</time></trkpt><trkpt lat="43.7993756" lon="11.4546436"><ele>258.0</ele><time>2026-04-11T12:14:17.154Z</time></trkpt><trkpt lat="43.7994548" lon="11.4546701"><ele>258.0</ele><time>2026-04-11T12:14:18.154Z</time></trkpt><trkpt lat="43.7995242" lon="11.4546902"><ele>258.0</ele><time>2026-04-11T12:14:19.154Z</time></trkpt><trkpt lat="43.7996382" lon="11.4547375"><ele>258.0</ele><time>2026-04-11T12:14:21.154Z</time></trkpt><trkpt lat="43.7997448" lon="11.4547776"><ele>259.0</ele><time>2026-04-11T12:14:23.154Z</time></trkpt><trkpt lat="43.7998454" lon="11.4548147"><ele>260.0</ele><time>2026-04-11T12:14:25.155Z</time></trkpt><trkpt lat="43.7999112" lon="11.4548518"><ele>261.0</ele><time>2026-04-11T12:14:26.154Z</time></trkpt><trkpt lat="43.7999831" lon="11.4549046"><ele>262.0</ele><time>2026-04-11T12:14:27.154Z</time></trkpt><trkpt lat="43.8000626" lon="11.4549719"><ele>263.0</ele><time>2026-04-11T12:14:28.154Z</time></trkpt><trkpt lat="43.8001431" lon="11.4550407"><ele>264.0</ele><time>2026-04-11T12:14:29.154Z</time></trkpt><trkpt lat="43.800225" lon="11.4551187"><ele>264.0</ele><time>2026-04-11T12:14:30.155Z</time></trkpt><trkpt lat="43.8003073" lon="11.4552005"><ele>264.0</ele><time>2026-04-11T12:14:31.154Z</time></trkpt><trkpt lat="43.8003933" lon="11.4552853"><ele>264.0</ele><time>2026-04-11T12:14:32.154Z</time></trkpt><trkpt lat="43.8004744" lon="11.4553714"><ele>264.0</ele><time>2026-04-11T12:14:33.154Z</time></trkpt><trkpt lat="43.8005522" lon="11.4554598"><ele>264.0</ele><time>2026-04-11T12:14:34.154Z</time></trkpt><trkpt lat="43.800629" lon="11.4555443"><ele>264.8333333333333</ele><time>2026-04-11T12:14:35.154Z</time></trkpt><trkpt lat="43.8007029" lon="11.4556217"><ele>265.6666666666667</ele><time>2026-04-11T12:14:36.154Z</time></trkpt><trkpt lat="43.8007778" lon="11.4556927"><ele>266.5</ele><time>2026-04-11T12:14:37.154Z</time></trkpt><trkpt lat="43.8008539" lon="11.4557643"><ele>267.33333333333337</ele><time>2026-04-11T12:14:38.154Z</time></trkpt><trkpt lat="43.8009224" lon="11.4558341"><ele>268.1666666666667</ele><time>2026-04-11T12:14:39.154Z</time></trkpt><trkpt lat="43.8009875" lon="11.4558984"><ele>269.0</ele><time>2026-04-11T12:14:40.154Z</time></trkpt><trkpt lat="43.8010482" lon="11.4559563"><ele>269.0</ele><time>2026-04-11T12:14:41.154Z</time></trkpt><trkpt lat="43.8011141" lon="11.4560099"><ele>269.0</ele><time>2026-04-11T12:14:42.155Z</time></trkpt><trkpt lat="43.8011727" lon="11.4560567"><ele>269.0</ele><time>2026-04-11T12:14:43.154Z</time></trkpt><trkpt lat="43.8012539" lon="11.4560958"><ele>269.0</ele><time>2026-04-11T12:14:45.154Z</time></trkpt><trkpt lat="43.801345" lon="11.45615"><ele>269.0</ele><time>2026-04-11T12:14:54.154Z</time></trkpt><trkpt lat="43.8013883" lon="11.4562283"><ele>269.0</ele><time>2026-04-11T12:14:57.154Z</time></trkpt><trkpt lat="43.8013633" lon="11.456395"><ele>265.8</ele><time>2026-04-11T12:15:00.154Z</time></trkpt><trkpt lat="43.80132" lon="11.45648"><ele>262.59999999999997</ele><time>2026-04-11T12:15:02.154Z</time></trkpt><trkpt lat="43.801265" lon="11.4565833"><ele>259.4</ele><time>2026-04-11T12:15:04.154Z</time></trkpt><trkpt lat="43.8011967" lon="11.456685"><ele>256.2</ele><time>2026-04-11T12:15:06.154Z</time></trkpt><trkpt lat="43.8011317" lon="11.456795"><ele>253.0</ele><time>2026-04-11T12:15:08.154Z</time></trkpt><trkpt lat="43.801075" lon="11.4569167"><ele>252.99999999999997</ele><time>2026-04-11T12:15:10.155Z</time></trkpt><trkpt lat="43.8010283" lon="11.4570067"><ele>253.0</ele><time>2026-04-11T12:15:12.154Z</time></trkpt><trkpt lat="43.8010017" lon="11.45709"><ele>253.0</ele><time>2026-04-11T12:15:16.155Z</time></trkpt><trkpt lat="43.801025" lon="11.4569883"><ele>253.0</ele><time>2026-04-11T12:16:22.154Z</time></trkpt><trkpt lat="43.80107" lon="11.4568983"><ele>252.99999999999997</ele><time>2026-04-11T12:16:24.154Z</time></trkpt><trkpt lat="43.8011467" lon="11.4567633"><ele>253.0</ele><time>2026-04-11T12:16:26.154Z</time></trkpt><trkpt lat="43.80119" lon="11.45668"><ele>252.99999999999997</ele><time>2026-04-11T12:16:27.155Z</time></trkpt><trkpt lat="43.80123" lon="11.4566083"><ele>253.0</ele><time>2026-04-11T12:16:28.154Z</time></trkpt><trkpt lat="43.801275" lon="11.45654"><ele>253.0</ele><time>2026-04-11T12:16:29.154Z</time></trkpt><trkpt lat="43.8013117" lon="11.4564633"><ele>253.0</ele><time>2026-04-11T12:16:30.154Z</time></trkpt><trkpt lat="43.8013467" lon="11.4563867"><ele>252.99999999999997</ele><time>2026-04-11T12:16:31.154Z</time></trkpt><trkpt lat="43.8014167" lon="11.4562633"><ele>253.0</ele><time>2026-04-11T12:16:33.154Z</time></trkpt><trkpt lat="43.8014933" lon="11.45622"><ele>256.2</ele><time>2026-04-11T12:16:35.154Z</time></trkpt><trkpt lat="43.8016317" lon="11.456235"><ele>259.4</ele><time>2026-04-11T12:16:37.154Z</time></trkpt><trkpt lat="43.8017233" lon="11.4562383"><ele>262.59999999999997</ele><time>2026-04-11T12:16:38.154Z</time></trkpt><trkpt lat="43.80182" lon="11.456235"><ele>265.8</ele><time>2026-04-11T12:16:39.154Z</time></trkpt><trkpt lat="43.80192" lon="11.45622"><ele>269.0</ele><time>2026-04-11T12:16:40.154Z</time></trkpt><trkpt lat="43.8020083" lon="11.4562033"><ele>270.5</ele><time>2026-04-11T12:16:41.154Z</time></trkpt><trkpt lat="43.8020883" lon="11.456185"><ele>272.0</ele><time>2026-04-11T12:16:42.154Z</time></trkpt><trkpt lat="43.8021617" lon="11.4561717"><ele>273.5</ele><time>2026-04-11T12:16:43.154Z</time></trkpt><trkpt lat="43.8022367" lon="11.456155"><ele>275.0</ele><time>2026-04-11T12:16:44.154Z</time></trkpt><trkpt lat="43.802315" lon="11.45614"><ele>276.5</ele><time>2026-04-11T12:16:45.154Z</time></trkpt><trkpt lat="43.8023933" lon="11.45613"><ele>278.0</ele><time>2026-04-11T12:16:46.154Z</time></trkpt><trkpt lat="43.8024683" lon="11.456115"><ele>278.0</ele><time>2026-04-11T12:16:47.154Z</time></trkpt><trkpt lat="43.802545" lon="11.4560983"><ele>278.0</ele><time>2026-04-11T12:16:48.154Z</time></trkpt><trkpt lat="43.8026333" lon="11.456085"><ele>278.0</ele><time>2026-04-11T12:16:49.155Z</time></trkpt><trkpt lat="43.80272" lon="11.4560733"><ele>278.0</ele><time>2026-04-11T12:16:50.154Z</time></trkpt><trkpt lat="43.8027933" lon="11.4560667"><ele>278.0</ele><time>2026-04-11T12:16:51.154Z</time></trkpt><trkpt lat="43.8028933" lon="11.45605"><ele>278.0</ele><time>2026-04-11T12:16:53.154Z</time></trkpt><trkpt lat="43.8029567" lon="11.4560633"><ele>279.8</ele><time>2026-04-11T12:16:58.154Z</time></trkpt><trkpt lat="43.803085" lon="11.4560733"><ele>281.6</ele><time>2026-04-11T12:17:00.154Z</time></trkpt><trkpt lat="43.803155" lon="11.4560733"><ele>283.4</ele><time>2026-04-11T12:17:01.154Z</time></trkpt><trkpt lat="43.803255" lon="11.4561133"><ele>285.2</ele><time>2026-04-11T12:17:03.154Z</time></trkpt><trkpt lat="43.8033117" lon="11.4561667"><ele>287.0</ele><time>2026-04-11T12:17:04.154Z</time></trkpt><trkpt lat="43.8033783" lon="11.45625"><ele>286.75</ele><time>2026-04-11T12:17:05.154Z</time></trkpt><trkpt lat="43.8034783" lon="11.4563583"><ele>286.5</ele><time>2026-04-11T12:17:06.154Z</time></trkpt><trkpt lat="43.8035933" lon="11.4564833"><ele>286.25</ele><time>2026-04-11T12:17:07.154Z</time></trkpt><trkpt lat="43.8037117" lon="11.4566167"><ele>286.0</ele><time>2026-04-11T12:17:08.154Z</time></trkpt><trkpt lat="43.8038317" lon="11.45676"><ele>286.0</ele><time>2026-04-11T12:17:09.154Z</time></trkpt><trkpt lat="43.80395" lon="11.4568967"><ele>286.0</ele><time>2026-04-11T12:17:10.155Z</time></trkpt><trkpt lat="43.8040583" lon="11.4570267"><ele>286.0</ele><time>2026-04-11T12:17:11.154Z</time></trkpt><trkpt lat="43.8041567" lon="11.4571567"><ele>286.0</ele><time>2026-04-11T12:17:12.154Z</time></trkpt><trkpt lat="43.8042433" lon="11.457285"><ele>286.5</ele><time>2026-04-11T12:17:13.154Z</time></trkpt><trkpt lat="43.8043333" lon="11.4574233"><ele>287.0</ele><time>2026-04-11T12:17:14.154Z</time></trkpt><trkpt lat="43.80442" lon="11.4575867"><ele>287.5</ele><time>2026-04-11T12:17:15.154Z</time></trkpt><trkpt lat="43.8045033" lon="11.4577483"><ele>288.0</ele><time>2026-04-11T12:17:16.154Z</time></trkpt><trkpt lat="43.8045817" lon="11.4578967"><ele>287.6</ele><time>2026-04-11T12:17:17.154Z</time></trkpt><trkpt lat="43.8046483" lon="11.45803"><ele>287.20000000000005</ele><time>2026-04-11T12:17:18.155Z</time></trkpt><trkpt lat="43.80471" lon="11.4581467"><ele>286.8</ele><time>2026-04-11T12:17:19.154Z</time></trkpt><trkpt lat="43.8047517" lon="11.4582567"><ele>286.40000000000003</ele><time>2026-04-11T12:17:20.154Z</time></trkpt><trkpt lat="43.8047983" lon="11.4583817"><ele>286.0</ele><time>2026-04-11T12:17:22.154Z</time></trkpt><trkpt lat="43.8047683" lon="11.45848"><ele>286.0</ele><time>2026-04-11T12:17:38.155Z</time></trkpt><trkpt lat="43.80472" lon="11.4585617"><ele>286.0</ele><time>2026-04-11T12:17:40.154Z</time></trkpt><trkpt lat="43.804665" lon="11.4586683"><ele>286.0</ele><time>2026-04-11T12:17:42.155Z</time></trkpt><trkpt lat="43.804605" lon="11.4587617"><ele>286.0</ele><time>2026-04-11T12:17:44.154Z</time></trkpt><trkpt lat="43.8045283" lon="11.4588133"><ele>286.0</ele><time>2026-04-11T12:17:46.154Z</time></trkpt><trkpt lat="43.8044533" lon="11.45884"><ele>286.0</ele><time>2026-04-11T12:17:48.155Z</time></trkpt><trkpt lat="43.8043917" lon="11.458875"><ele>283.16666666666663</ele><time>2026-04-11T12:17:50.155Z</time></trkpt><trkpt lat="43.8043017" lon="11.4589083"><ele>280.3333333333333</ele><time>2026-04-11T12:17:53.154Z</time></trkpt><trkpt lat="43.80422" lon="11.458915"><ele>277.5</ele><time>2026-04-11T12:17:55.154Z</time></trkpt><trkpt lat="43.804145" lon="11.4589383"><ele>274.6666666666667</ele><time>2026-04-11T12:17:57.154Z</time></trkpt><trkpt lat="43.8040883" lon="11.4589833"><ele>271.83333333333337</ele><time>2026-04-11T12:18:00.154Z</time></trkpt><trkpt lat="43.8040817" lon="11.4591367"><ele>269.0</ele><time>2026-04-11T12:18:03.154Z</time></trkpt><trkpt lat="43.8041083" lon="11.45926"><ele>269.0</ele><time>2026-04-11T12:18:05.154Z</time></trkpt><trkpt lat="43.8041133" lon="11.4593483"><ele>269.0</ele><time>2026-04-11T12:18:06.154Z</time></trkpt><trkpt lat="43.8041183" lon="11.45946"><ele>269.0</ele><time>2026-04-11T12:18:07.154Z</time></trkpt><trkpt lat="43.8041233" lon="11.4595833"><ele>269.0</ele><time>2026-04-11T12:18:08.154Z</time></trkpt><trkpt lat="43.8041333" lon="11.4597083"><ele>269.0</ele><time>2026-04-11T12:18:09.154Z</time></trkpt><trkpt lat="43.8041433" lon="11.4598267"><ele>269.0</ele><time>2026-04-11T12:18:10.154Z</time></trkpt><trkpt lat="43.8041467" lon="11.4599317"><ele>269.0</ele><time>2026-04-11T12:18:11.154Z</time></trkpt><trkpt lat="43.8041667" lon="11.4600783"><ele>269.0</ele><time>2026-04-11T12:18:13.154Z</time></trkpt><trkpt lat="43.804205" lon="11.46019"><ele>269.0</ele><time>2026-04-11T12:18:15.154Z</time></trkpt><trkpt lat="43.80428" lon="11.4602817"><ele>269.0</ele><time>2026-04-11T12:18:17.155Z</time></trkpt><trkpt lat="43.804385" lon="11.46037"><ele>269.0</ele><time>2026-04-11T12:18:19.154Z</time></trkpt><trkpt lat="43.8044833" lon="11.4604383"><ele>271.0</ele><time>2026-04-11T12:18:21.154Z</time></trkpt><trkpt lat="43.8045817" lon="11.460505"><ele>273.0</ele><time>2026-04-11T12:18:23.154Z</time></trkpt><trkpt lat="43.8046767" lon="11.4605683"><ele>275.0</ele><time>2026-04-11T12:18:25.154Z</time></trkpt><trkpt lat="43.8047883" lon="11.460645"><ele>277.0</ele><time>2026-04-11T12:18:27.155Z</time></trkpt><trkpt lat="43.8048917" lon="11.4607017"><ele>277.0</ele><time>2026-04-11T12:18:29.154Z</time></trkpt><trkpt lat="43.8049817" lon="11.46076"><ele>277.0</ele><time>2026-04-11T12:18:31.154Z</time></trkpt><trkpt lat="43.8050933" lon="11.4608517"><ele>277.0</ele><time>2026-04-11T12:18:33.154Z</time></trkpt><trkpt lat="43.8051467" lon="11.4609"><ele>277.0</ele><time>2026-04-11T12:18:34.154Z</time></trkpt><trkpt lat="43.8052433" lon="11.46099"><ele>277.0</ele><time>2026-04-11T12:18:36.154Z</time></trkpt><trkpt lat="43.8053167" lon="11.4610517"><ele>278.0</ele><time>2026-04-11T12:18:38.154Z</time></trkpt><trkpt lat="43.8053833" lon="11.4611067"><ele>279.0</ele><time>2026-04-11T12:18:40.154Z</time></trkpt><trkpt lat="43.805465" lon="11.4611783"><ele>280.0</ele><time>2026-04-11T12:18:42.154Z</time></trkpt><trkpt lat="43.80554" lon="11.4612367"><ele>281.0</ele><time>2026-04-11T12:18:44.154Z</time></trkpt><trkpt lat="43.8056133" lon="11.4613033"><ele>282.0</ele><time>2026-04-11T12:18:46.154Z</time></trkpt><trkpt lat="43.80569" lon="11.461355"><ele>283.0</ele><time>2026-04-11T12:18:48.154Z</time></trkpt><trkpt lat="43.8057717" lon="11.46137"><ele>283.0</ele><time>2026-04-11T12:18:51.154Z</time></trkpt><trkpt lat="43.8058383" lon="11.4613"><ele>283.0</ele><time>2026-04-11T12:18:54.155Z</time></trkpt><trkpt lat="43.8059067" lon="11.461195"><ele>283.0</ele><time>2026-04-11T12:18:56.154Z</time></trkpt><trkpt lat="43.8059917" lon="11.4610833"><ele>283.0</ele><time>2026-04-11T12:18:58.154Z</time></trkpt><trkpt lat="43.8060683" lon="11.4609883"><ele>283.0</ele><time>2026-04-11T12:19:00.154Z</time></trkpt><trkpt lat="43.80612" lon="11.4609317"><ele>280.5</ele><time>2026-04-11T12:19:02.155Z</time></trkpt><trkpt lat="43.806205" lon="11.4609433"><ele>278.0</ele><time>2026-04-11T12:19:05.155Z</time></trkpt><trkpt lat="43.8062567" lon="11.4609933"><ele>275.5</ele><time>2026-04-11T12:19:08.154Z</time></trkpt><trkpt lat="43.8062417" lon="11.4610917"><ele>273.0</ele><time>2026-04-11T12:19:13.154Z</time></trkpt><trkpt lat="43.8062067" lon="11.4611917"><ele>270.5</ele><time>2026-04-11T12:19:15.154Z</time></trkpt><trkpt lat="43.8061717" lon="11.46132"><ele>268.0</ele><time>2026-04-11T12:19:17.154Z</time></trkpt><trkpt lat="43.8061317" lon="11.46146"><ele>264.66666666666663</ele><time>2026-04-11T12:19:19.154Z</time></trkpt><trkpt lat="43.8060933" lon="11.4615717"><ele>261.3333333333333</ele><time>2026-04-11T12:19:21.154Z</time></trkpt><trkpt lat="43.8060733" lon="11.4616583"><ele>258.0</ele><time>2026-04-11T12:19:23.154Z</time></trkpt><trkpt lat="43.8061483" lon="11.4617167"><ele>254.66666666666669</ele><time>2026-04-11T12:19:30.154Z</time></trkpt><trkpt lat="43.8062233" lon="11.4616317"><ele>251.33333333333334</ele><time>2026-04-11T12:19:33.154Z</time></trkpt><trkpt lat="43.8063033" lon="11.46157"><ele>248.0</ele><time>2026-04-11T12:19:35.154Z</time></trkpt><trkpt lat="43.806415" lon="11.4615367"><ele>248.0</ele><time>2026-04-11T12:19:37.154Z</time></trkpt><trkpt lat="43.806495" lon="11.4615067"><ele>248.0</ele><time>2026-04-11T12:19:39.154Z</time></trkpt><trkpt lat="43.8066067" lon="11.46146"><ele>248.0</ele><time>2026-04-11T12:19:41.154Z</time></trkpt><trkpt lat="43.806695" lon="11.461375"><ele>248.0</ele><time>2026-04-11T12:19:43.154Z</time></trkpt><trkpt lat="43.8067633" lon="11.4612317"><ele>248.0</ele><time>2026-04-11T12:19:45.154Z</time></trkpt><trkpt lat="43.806845" lon="11.4611333"><ele>247.00000000000003</ele><time>2026-04-11T12:19:47.154Z</time></trkpt><trkpt lat="43.8069133" lon="11.4611117"><ele>246.0</ele><time>2026-04-11T12:19:49.154Z</time></trkpt><trkpt lat="43.8070033" lon="11.4611633"><ele>245.0</ele><time>2026-04-11T12:19:51.154Z</time></trkpt><trkpt lat="43.80707" lon="11.4612467"><ele>244.0</ele><time>2026-04-11T12:19:53.154Z</time></trkpt><trkpt lat="43.8071133" lon="11.46132"><ele>243.00000000000003</ele><time>2026-04-11T12:19:55.155Z</time></trkpt><trkpt lat="43.807165" lon="11.4614"><ele>242.0</ele><time>2026-04-11T12:19:57.154Z</time></trkpt><trkpt lat="43.80724" lon="11.46149"><ele>242.0</ele><time>2026-04-11T12:19:59.154Z</time></trkpt><trkpt lat="43.8073267" lon="11.46159"><ele>242.0</ele><time>2026-04-11T12:20:01.154Z</time></trkpt><trkpt lat="43.8073767" lon="11.4617"><ele>242.0</ele><time>2026-04-11T12:20:03.154Z</time></trkpt><trkpt lat="43.8073783" lon="11.4618017"><ele>242.0</ele><time>2026-04-11T12:20:05.154Z</time></trkpt><trkpt lat="43.8073783" lon="11.4619183"><ele>242.0</ele><time>2026-04-11T12:20:07.154Z</time></trkpt><trkpt lat="43.8074167" lon="11.4620467"><ele>240.50000000000003</ele><time>2026-04-11T12:20:09.154Z</time></trkpt><trkpt lat="43.8074517" lon="11.4621883"><ele>239.0</ele><time>2026-04-11T12:20:11.154Z</time></trkpt><trkpt lat="43.8074667" lon="11.4622767"><ele>237.5</ele><time>2026-04-11T12:20:12.154Z</time></trkpt><trkpt lat="43.8074833" lon="11.4623767"><ele>236.0</ele><time>2026-04-11T12:20:13.154Z</time></trkpt><trkpt lat="43.8075083" lon="11.4624983"><ele>234.50000000000003</ele><time>2026-04-11T12:20:14.154Z</time></trkpt><trkpt lat="43.8075267" lon="11.4625967"><ele>233.0</ele><time>2026-04-11T12:20:15.154Z</time></trkpt><trkpt lat="43.807555" lon="11.4627333"><ele>233.00000000000003</ele><time>2026-04-11T12:20:17.154Z</time></trkpt><trkpt lat="43.80757" lon="11.46288"><ele>233.0</ele><time>2026-04-11T12:20:19.154Z</time></trkpt><trkpt lat="43.8075883" lon="11.463015"><ele>233.0</ele><time>2026-04-11T12:20:21.154Z</time></trkpt><trkpt lat="43.80759" lon="11.4631317"><ele>233.0</ele><time>2026-04-11T12:20:23.154Z</time></trkpt><trkpt lat="43.8075833" lon="11.463235"><ele>233.00000000000003</ele><time>2026-04-11T12:20:26.151Z</time></trkpt><trkpt lat="43.8075617" lon="11.4633283"><ele>233.0</ele><time>2026-04-11T12:20:28.155Z</time></trkpt><trkpt lat="43.8075467" lon="11.4634467"><ele>232.28571428571428</ele><time>2026-04-11T12:20:30.154Z</time></trkpt><trkpt lat="43.8075417" lon="11.463535"><ele>231.57142857142856</ele><time>2026-04-11T12:20:31.154Z</time></trkpt><trkpt lat="43.8075433" lon="11.4636317"><ele>230.85714285714283</ele><time>2026-04-11T12:20:32.154Z</time></trkpt><trkpt lat="43.8075483" lon="11.4637283"><ele>230.14285714285714</ele><time>2026-04-11T12:20:33.155Z</time></trkpt><trkpt lat="43.8075567" lon="11.4638167"><ele>229.4285714285714</ele><time>2026-04-11T12:20:34.154Z</time></trkpt><trkpt lat="43.8075617" lon="11.4639067"><ele>228.7142857142857</ele><time>2026-04-11T12:20:35.154Z</time></trkpt><trkpt lat="43.8075633" lon="11.4640033"><ele>228.0</ele><time>2026-04-11T12:20:36.154Z</time></trkpt><trkpt lat="43.80757" lon="11.464115"><ele>226.83333333333334</ele><time>2026-04-11T12:20:37.154Z</time></trkpt><trkpt lat="43.80758" lon="11.4642333"><ele>225.66666666666669</ele><time>2026-04-11T12:20:38.154Z</time></trkpt><trkpt lat="43.8075867" lon="11.4643517"><ele>224.5</ele><time>2026-04-11T12:20:39.154Z</time></trkpt><trkpt lat="43.8075917" lon="11.4644667"><ele>223.33333333333334</ele><time>2026-04-11T12:20:40.155Z</time></trkpt><trkpt lat="43.8075983" lon="11.4645733"><ele>222.16666666666669</ele><time>2026-04-11T12:20:41.154Z</time></trkpt><trkpt lat="43.8076017" lon="11.4646833"><ele>221.0</ele><time>2026-04-11T12:20:42.155Z</time></trkpt><trkpt lat="43.8076067" lon="11.4647817"><ele>220.60000000000002</ele><time>2026-04-11T12:20:43.154Z</time></trkpt><trkpt lat="43.807615" lon="11.46494"><ele>220.20000000000002</ele><time>2026-04-11T12:20:45.154Z</time></trkpt><trkpt lat="43.80762" lon="11.4650633"><ele>219.79999999999998</ele><time>2026-04-11T12:20:47.154Z</time></trkpt><trkpt lat="43.8076283" lon="11.46516"><ele>219.39999999999998</ele><time>2026-04-11T12:20:49.154Z</time></trkpt><trkpt lat="43.8076417" lon="11.465295"><ele>219.0</ele><time>2026-04-11T12:20:52.154Z</time></trkpt><trkpt lat="43.8076467" lon="11.4654233"><ele>218.71428571428572</ele><time>2026-04-11T12:20:54.154Z</time></trkpt><trkpt lat="43.8076067" lon="11.4655083"><ele>218.42857142857142</ele><time>2026-04-11T12:20:55.155Z</time></trkpt><trkpt lat="43.8076167" lon="11.4656183"><ele>218.14285714285714</ele><time>2026-04-11T12:20:57.154Z</time></trkpt><trkpt lat="43.8076317" lon="11.4657083"><ele>217.85714285714286</ele><time>2026-04-11T12:20:59.154Z</time></trkpt><trkpt lat="43.8076933" lon="11.4657717"><ele>217.57142857142856</ele><time>2026-04-11T12:21:20.154Z</time></trkpt><trkpt lat="43.80776" lon="11.4657583"><ele>217.28571428571428</ele><time>2026-04-11T12:21:22.155Z</time></trkpt><trkpt lat="43.8078317" lon="11.465735"><ele>217.0</ele><time>2026-04-11T12:21:24.154Z</time></trkpt><trkpt lat="43.8078917" lon="11.4656883"><ele>219.83333333333331</ele><time>2026-04-11T12:21:27.154Z</time></trkpt><trkpt lat="43.8079633" lon="11.46572"><ele>222.66666666666666</ele><time>2026-04-11T12:21:33.154Z</time></trkpt><trkpt lat="43.8080383" lon="11.4657933"><ele>225.5</ele><time>2026-04-11T12:21:39.155Z</time></trkpt><trkpt lat="43.808105" lon="11.465845"><ele>228.33333333333331</ele><time>2026-04-11T12:21:43.154Z</time></trkpt><trkpt lat="43.8081783" lon="11.4658933"><ele>231.16666666666666</ele><time>2026-04-11T12:21:47.154Z</time></trkpt><trkpt lat="43.8082483" lon="11.4659517"><ele>234.0</ele><time>2026-04-11T12:21:51.154Z</time></trkpt><trkpt lat="43.808325" lon="11.4660083"><ele>234.0</ele><time>2026-04-11T12:21:54.154Z</time></trkpt><trkpt lat="43.808405" lon="11.466055"><ele>234.0</ele><time>2026-04-11T12:21:57.154Z</time></trkpt><trkpt lat="43.8084617" lon="11.4660967"><ele>234.0</ele><time>2026-04-11T12:22:00.154Z</time></trkpt><trkpt lat="43.80853" lon="11.4661383"><ele>234.0</ele><time>2026-04-11T12:22:03.154Z</time></trkpt><trkpt lat="43.8085933" lon="11.46619"><ele>234.0</ele><time>2026-04-11T12:22:06.155Z</time></trkpt><trkpt lat="43.8086617" lon="11.466225"><ele>234.0</ele><time>2026-04-11T12:22:09.154Z</time></trkpt><trkpt lat="43.80879" lon="11.4663117"><ele>231.6</ele><time>2026-04-11T12:22:18.154Z</time></trkpt><trkpt lat="43.808875" lon="11.4663717"><ele>229.2</ele><time>2026-04-11T12:22:21.155Z</time></trkpt><trkpt lat="43.8089416" lon="11.466409"><ele>226.79999999999998</ele><time>2026-04-11T12:22:25.142Z</time></trkpt><trkpt lat="43.8090579" lon="11.4665493"><ele>224.39999999999998</ele><time>2026-04-11T12:22:58.19Z</time></trkpt><trkpt lat="43.8090877" lon="11.466636"><ele>222.0</ele><time>2026-04-11T12:23:02.197Z</time></trkpt><trkpt lat="43.8091181" lon="11.4667266"><ele>222.0</ele><time>2026-04-11T12:23:04.201Z</time></trkpt><trkpt lat="43.8091604" lon="11.4668078"><ele>222.0</ele><time>2026-04-11T12:23:06.145Z</time></trkpt><trkpt lat="43.8092046" lon="11.4668858"><ele>222.0</ele><time>2026-04-11T12:23:08.209Z</time></trkpt><trkpt lat="43.8092511" lon="11.4669731"><ele>222.0</ele><time>2026-04-11T12:23:11.214Z</time></trkpt><trkpt lat="43.8092868" lon="11.4670661"><ele>222.0</ele><time>2026-04-11T12:23:14.242Z</time></trkpt><trkpt lat="43.8093147" lon="11.4671496"><ele>222.0</ele><time>2026-04-11T12:23:16.224Z</time></trkpt><trkpt lat="43.8093408" lon="11.4672436"><ele>222.0</ele><time>2026-04-11T12:23:19.141Z</time></trkpt><trkpt lat="43.809385" lon="11.4673617"><ele>222.57142857142856</ele><time>2026-04-11T12:23:25.154Z</time></trkpt><trkpt lat="43.809435" lon="11.4674567"><ele>223.14285714285717</ele><time>2026-04-11T12:23:28.155Z</time></trkpt><trkpt lat="43.80948" lon="11.4675183"><ele>223.71428571428572</ele><time>2026-04-11T12:23:30.154Z</time></trkpt><trkpt lat="43.8095267" lon="11.4675883"><ele>224.28571428571428</ele><time>2026-04-11T12:23:32.154Z</time></trkpt><trkpt lat="43.8095633" lon="11.46768"><ele>224.85714285714283</ele><time>2026-04-11T12:23:36.155Z</time></trkpt><trkpt lat="43.8095967" lon="11.4677767"><ele>225.42857142857144</ele><time>2026-04-11T12:23:40.154Z</time></trkpt><trkpt lat="43.8096267" lon="11.4678583"><ele>226.0</ele><time>2026-04-11T12:23:43.154Z</time></trkpt><trkpt lat="43.8097033" lon="11.4679633"><ele>221.83333333333331</ele><time>2026-04-11T12:28:18.153Z</time></trkpt><trkpt lat="43.80975" lon="11.468025"><ele>217.66666666666666</ele><time>2026-04-11T12:28:21.153Z</time></trkpt><trkpt lat="43.809805" lon="11.4680933"><ele>213.5</ele><time>2026-04-11T12:28:41.153Z</time></trkpt><trkpt lat="43.80989" lon="11.4681233"><ele>209.33333333333331</ele><time>2026-04-11T12:28:49.153Z</time></trkpt><trkpt lat="43.8099817" lon="11.46813"><ele>205.16666666666666</ele><time>2026-04-11T12:29:06.153Z</time></trkpt><trkpt lat="43.8100533" lon="11.4681717"><ele>201.0</ele><time>2026-04-11T12:29:11.153Z</time></trkpt><trkpt lat="43.8101667" lon="11.46823"><ele>201.0</ele><time>2026-04-11T12:29:41.153Z</time></trkpt><trkpt lat="43.8102383" lon="11.4682417"><ele>201.0</ele><time>2026-04-11T12:29:46.153Z</time></trkpt><trkpt lat="43.8103083" lon="11.4682683"><ele>201.0</ele><time>2026-04-11T12:29:51.153Z</time></trkpt><trkpt lat="43.8103783" lon="11.4683017"><ele>201.0</ele><time>2026-04-11T12:29:58.153Z</time></trkpt><trkpt lat="43.81043" lon="11.468355"><ele>201.0</ele><time>2026-04-11T12:30:04.153Z</time></trkpt><trkpt lat="43.8105033" lon="11.468445"><ele>201.0</ele><time>2026-04-11T12:30:20.153Z</time></trkpt><trkpt lat="43.8105867" lon="11.46853"><ele>201.0</ele><time>2026-04-11T12:30:33.153Z</time></trkpt><trkpt lat="43.81064" lon="11.4686"><ele>201.0</ele><time>2026-04-11T12:30:38.153Z</time></trkpt><trkpt lat="43.8106717" lon="11.4686933"><ele>201.0</ele><time>2026-04-11T12:30:41.154Z</time></trkpt><trkpt lat="43.8107133" lon="11.46879"><ele>201.0</ele><time>2026-04-11T12:30:44.153Z</time></trkpt><trkpt lat="43.8108167" lon="11.4688367"><ele>201.0</ele><time>2026-04-11T12:30:53.153Z</time></trkpt><trkpt lat="43.8108854" lon="11.4688568"><ele>201.0</ele><time>2026-04-11T12:30:56.253Z</time></trkpt><trkpt lat="43.8109625" lon="11.4688723"><ele>199.0</ele><time>2026-04-11T12:30:57.203Z</time></trkpt><trkpt lat="43.8111112" lon="11.4689021"><ele>197.0</ele><time>2026-04-11T12:31:00.209Z</time></trkpt><trkpt lat="43.8111866" lon="11.4688448"><ele>195.0</ele><time>2026-04-11T12:31:02.214Z</time></trkpt><trkpt lat="43.8112652" lon="11.4688824"><ele>193.0</ele><time>2026-04-11T12:31:04.217Z</time></trkpt><trkpt lat="43.8113293" lon="11.4689136"><ele>191.0</ele><time>2026-04-11T12:31:05.165Z</time></trkpt><trkpt lat="43.8114194" lon="11.4689117"><ele>191.0</ele><time>2026-04-11T12:31:07.223Z</time></trkpt><trkpt lat="43.811507" lon="11.4689322"><ele>191.0</ele><time>2026-04-11T12:31:09.226Z</time></trkpt><trkpt lat="43.8115985" lon="11.4689469"><ele>191.0</ele><time>2026-04-11T12:31:11.23Z</time></trkpt><trkpt lat="43.8116679" lon="11.4689584"><ele>191.0</ele><time>2026-04-11T12:31:13.201Z</time></trkpt><trkpt lat="43.8117467" lon="11.468955"><ele>191.0</ele><time>2026-04-11T12:31:15.153Z</time></trkpt><trkpt lat="43.811895" lon="11.4689517"><ele>191.5</ele><time>2026-04-11T12:31:34.153Z</time></trkpt><trkpt lat="43.8119767" lon="11.4689583"><ele>192.0</ele><time>2026-04-11T12:31:54.154Z</time></trkpt><trkpt lat="43.8120583" lon="11.46897"><ele>192.5</ele><time>2026-04-11T12:31:57.153Z</time></trkpt><trkpt lat="43.8121533" lon="11.46899"><ele>193.0</ele><time>2026-04-11T12:32:00.153Z</time></trkpt><trkpt lat="43.8122233" lon="11.469"><ele>193.50000000000003</ele><time>2026-04-11T12:32:02.153Z</time></trkpt><trkpt lat="43.8122867" lon="11.4689767"><ele>194.0</ele><time>2026-04-11T12:32:04.153Z</time></trkpt><trkpt lat="43.8123467" lon="11.4689217"><ele>194.00000000000003</ele><time>2026-04-11T12:32:06.153Z</time></trkpt><trkpt lat="43.812405" lon="11.4688667"><ele>194.0</ele><time>2026-04-11T12:32:08.154Z</time></trkpt><trkpt lat="43.812455" lon="11.4688033"><ele>194.0</ele><time>2026-04-11T12:32:10.153Z</time></trkpt><trkpt lat="43.8125033" lon="11.4687433"><ele>194.0</ele><time>2026-04-11T12:32:12.153Z</time></trkpt><trkpt lat="43.8125667" lon="11.4686617"><ele>194.00000000000003</ele><time>2026-04-11T12:32:15.153Z</time></trkpt><trkpt lat="43.8126367" lon="11.4686033"><ele>194.0</ele><time>2026-04-11T12:32:23.153Z</time></trkpt><trkpt lat="43.812695" lon="11.4685183"><ele>194.66666666666669</ele><time>2026-04-11T12:32:25.153Z</time></trkpt><trkpt lat="43.8127683" lon="11.4684317"><ele>195.33333333333334</ele><time>2026-04-11T12:32:27.153Z</time></trkpt><trkpt lat="43.8128383" lon="11.468355"><ele>196.0</ele><time>2026-04-11T12:32:29.153Z</time></trkpt><trkpt lat="43.8129033" lon="11.4682967"><ele>196.66666666666669</ele><time>2026-04-11T12:32:31.153Z</time></trkpt><trkpt lat="43.8129717" lon="11.4682667"><ele>197.33333333333334</ele><time>2026-04-11T12:32:33.153Z</time></trkpt><trkpt lat="43.813045" lon="11.468245"><ele>198.0</ele><time>2026-04-11T12:32:35.153Z</time></trkpt><trkpt lat="43.8131417" lon="11.4682217"><ele>198.0</ele><time>2026-04-11T12:32:37.154Z</time></trkpt><trkpt lat="43.81326" lon="11.4681967"><ele>198.0</ele><time>2026-04-11T12:32:39.154Z</time></trkpt><trkpt lat="43.8133683" lon="11.4681783"><ele>198.0</ele><time>2026-04-11T12:32:41.153Z</time></trkpt><trkpt lat="43.8134617" lon="11.4681533"><ele>198.0</ele><time>2026-04-11T12:32:43.154Z</time></trkpt><trkpt lat="43.8135767" lon="11.46814"><ele>198.0</ele><time>2026-04-11T12:32:45.153Z</time></trkpt><trkpt lat="43.8136417" lon="11.468125"><ele>197.5</ele><time>2026-04-11T12:32:46.153Z</time></trkpt><trkpt lat="43.8137083" lon="11.4681117"><ele>197.0</ele><time>2026-04-11T12:32:47.153Z</time></trkpt><trkpt lat="43.8137767" lon="11.4680983"><ele>196.5</ele><time>2026-04-11T12:32:48.153Z</time></trkpt><trkpt lat="43.81384" lon="11.4680933"><ele>196.0</ele><time>2026-04-11T12:32:49.154Z</time></trkpt><trkpt lat="43.813945" lon="11.4680733"><ele>195.5</ele><time>2026-04-11T12:32:51.153Z</time></trkpt><trkpt lat="43.814065" lon="11.468045"><ele>195.0</ele><time>2026-04-11T12:32:53.153Z</time></trkpt><trkpt lat="43.81417" lon="11.4680283"><ele>195.0</ele><time>2026-04-11T12:32:55.154Z</time></trkpt><trkpt lat="43.8142567" lon="11.4680067"><ele>195.0</ele><time>2026-04-11T12:32:57.153Z</time></trkpt><trkpt lat="43.8143383" lon="11.4679917"><ele>195.0</ele><time>2026-04-11T12:32:59.153Z</time></trkpt><trkpt lat="43.8144067" lon="11.467975"><ele>195.0</ele><time>2026-04-11T12:33:01.153Z</time></trkpt><trkpt lat="43.81449" lon="11.467985"><ele>195.0</ele><time>2026-04-11T12:33:04.153Z</time></trkpt><trkpt lat="43.81452" lon="11.4681017"><ele>195.0</ele><time>2026-04-11T12:33:07.153Z</time></trkpt><trkpt lat="43.8145267" lon="11.4682317"><ele>192.83333333333334</ele><time>2026-04-11T12:33:10.153Z</time></trkpt><trkpt lat="43.8145317" lon="11.468325"><ele>190.66666666666666</ele><time>2026-04-11T12:33:12.153Z</time></trkpt><trkpt lat="43.81451" lon="11.4684317"><ele>188.5</ele><time>2026-04-11T12:33:15.153Z</time></trkpt><trkpt lat="43.8144933" lon="11.4685167"><ele>186.33333333333331</ele><time>2026-04-11T12:33:17.153Z</time></trkpt><trkpt lat="43.8145233" lon="11.468605"><ele>184.16666666666666</ele><time>2026-04-11T12:33:21.153Z</time></trkpt><trkpt lat="43.8146" lon="11.4685983"><ele>182.0</ele><time>2026-04-11T12:33:25.153Z</time></trkpt><trkpt lat="43.8146933" lon="11.4685817"><ele>182.0</ele><time>2026-04-11T12:33:28.154Z</time></trkpt><trkpt lat="43.8147633" lon="11.4685717"><ele>182.0</ele><time>2026-04-11T12:33:30.153Z</time></trkpt><trkpt lat="43.8148517" lon="11.46856"><ele>182.0</ele><time>2026-04-11T12:33:33.153Z</time></trkpt><trkpt lat="43.8149267" lon="11.46855"><ele>182.0</ele><time>2026-04-11T12:33:36.154Z</time></trkpt><trkpt lat="43.8149933" lon="11.468515"><ele>182.0</ele><time>2026-04-11T12:33:40.153Z</time></trkpt><trkpt lat="43.81505" lon="11.4684117"><ele>182.0</ele><time>2026-04-11T12:33:43.154Z</time></trkpt><trkpt lat="43.8151" lon="11.468305"><ele>182.0</ele><time>2026-04-11T12:33:45.153Z</time></trkpt><trkpt lat="43.8151467" lon="11.4682167"><ele>182.0</ele><time>2026-04-11T12:33:47.153Z</time></trkpt><trkpt lat="43.815185" lon="11.4681317"><ele>182.0</ele><time>2026-04-11T12:33:49.153Z</time></trkpt><trkpt lat="43.81523" lon="11.4680583"><ele>182.0</ele><time>2026-04-11T12:33:51.153Z</time></trkpt><trkpt lat="43.81529" lon="11.467975"><ele>182.0</ele><time>2026-04-11T12:33:53.154Z</time></trkpt><trkpt lat="43.8153583" lon="11.4679117"><ele>182.0</ele><time>2026-04-11T12:33:55.154Z</time></trkpt><trkpt lat="43.8154183" lon="11.4678467"><ele>180.28571428571428</ele><time>2026-04-11T12:33:57.153Z</time></trkpt><trkpt lat="43.81547" lon="11.4677733"><ele>178.57142857142856</ele><time>2026-04-11T12:33:59.153Z</time></trkpt><trkpt lat="43.8155217" lon="11.4676983"><ele>176.85714285714286</ele><time>2026-04-11T12:34:01.153Z</time></trkpt><trkpt lat="43.8155933" lon="11.4676167"><ele>175.14285714285714</ele><time>2026-04-11T12:34:09.153Z</time></trkpt><trkpt lat="43.8156367" lon="11.4675467"><ele>173.42857142857142</ele><time>2026-04-11T12:34:14.153Z</time></trkpt><trkpt lat="43.81568" lon="11.4674817"><ele>171.71428571428572</ele><time>2026-04-11T12:34:20.153Z</time></trkpt><trkpt lat="43.81572" lon="11.4674083"><ele>170.0</ele><time>2026-04-11T12:34:24.154Z</time></trkpt><trkpt lat="43.81577" lon="11.4673417"><ele>170.0</ele><time>2026-04-11T12:34:27.153Z</time></trkpt><trkpt lat="43.8158283" lon="11.46727"><ele>170.0</ele><time>2026-04-11T12:34:31.154Z</time></trkpt><trkpt lat="43.8158983" lon="11.467255"><ele>170.0</ele><time>2026-04-11T12:34:35.153Z</time></trkpt><trkpt lat="43.8159883" lon="11.4673233"><ele>170.0</ele><time>2026-04-11T12:34:38.153Z</time></trkpt><trkpt lat="43.8160517" lon="11.4673883"><ele>170.0</ele><time>2026-04-11T12:34:40.153Z</time></trkpt><trkpt lat="43.8161183" lon="11.46745"><ele>170.0</ele><time>2026-04-11T12:34:42.153Z</time></trkpt><trkpt lat="43.8161867" lon="11.4675167"><ele>169.5</ele><time>2026-04-11T12:34:44.154Z</time></trkpt><trkpt lat="43.816257" lon="11.4675875"><ele>169.0</ele><time>2026-04-11T12:34:46.154Z</time></trkpt><trkpt lat="43.8163334" lon="11.467654"><ele>168.5</ele><time>2026-04-11T12:34:48.157Z</time></trkpt><trkpt lat="43.8163977" lon="11.4677013"><ele>168.0</ele><time>2026-04-11T12:34:50.161Z</time></trkpt><trkpt lat="43.8164483" lon="11.4677617"><ele>167.5</ele><time>2026-04-11T12:34:55.154Z</time></trkpt><trkpt lat="43.8164683" lon="11.4678567"><ele>167.0</ele><time>2026-04-11T12:35:00.153Z</time></trkpt><trkpt lat="43.816445" lon="11.4679517"><ele>166.33333333333331</ele><time>2026-04-11T12:35:03.153Z</time></trkpt><trkpt lat="43.8163983" lon="11.4680217"><ele>165.66666666666666</ele><time>2026-04-11T12:35:06.153Z</time></trkpt><trkpt lat="43.8163783" lon="11.4681183"><ele>165.0</ele><time>2026-04-11T12:35:09.153Z</time></trkpt><trkpt lat="43.8164017" lon="11.4682033"><ele>164.33333333333334</ele><time>2026-04-11T12:35:12.153Z</time></trkpt><trkpt lat="43.8164783" lon="11.4682217"><ele>163.66666666666669</ele><time>2026-04-11T12:35:15.153Z</time></trkpt><trkpt lat="43.8166" lon="11.4682667"><ele>163.0</ele><time>2026-04-11T12:35:26.153Z</time></trkpt><trkpt lat="43.816675" lon="11.4683367"><ele>163.0</ele><time>2026-04-11T12:35:28.153Z</time></trkpt><trkpt lat="43.816755" lon="11.4683983"><ele>163.0</ele><time>2026-04-11T12:35:30.153Z</time></trkpt><trkpt lat="43.816845" lon="11.4684567"><ele>163.0</ele><time>2026-04-11T12:35:32.153Z</time></trkpt><trkpt lat="43.8169133" lon="11.4685617"><ele>163.0</ele><time>2026-04-11T12:35:34.153Z</time></trkpt><trkpt lat="43.8169517" lon="11.4687183"><ele>163.0</ele><time>2026-04-11T12:35:36.153Z</time></trkpt><trkpt lat="43.8169667" lon="11.468805"><ele>164.16666666666669</ele><time>2026-04-11T12:35:37.153Z</time></trkpt><trkpt lat="43.8169933" lon="11.46897"><ele>165.33333333333334</ele><time>2026-04-11T12:35:39.153Z</time></trkpt><trkpt lat="43.8170067" lon="11.4690567"><ele>166.5</ele><time>2026-04-11T12:35:40.153Z</time></trkpt><trkpt lat="43.817025" lon="11.469145"><ele>167.66666666666666</ele><time>2026-04-11T12:35:41.153Z</time></trkpt><trkpt lat="43.8170383" lon="11.469235"><ele>168.83333333333331</ele><time>2026-04-11T12:35:42.153Z</time></trkpt><trkpt lat="43.81705" lon="11.4693317"><ele>170.0</ele><time>2026-04-11T12:35:43.153Z</time></trkpt><trkpt lat="43.817065" lon="11.4694333"><ele>170.0</ele><time>2026-04-11T12:35:44.154Z</time></trkpt><trkpt lat="43.8170883" lon="11.469545"><ele>170.0</ele><time>2026-04-11T12:35:45.153Z</time></trkpt><trkpt lat="43.8171067" lon="11.4696483"><ele>170.0</ele><time>2026-04-11T12:35:46.153Z</time></trkpt><trkpt lat="43.8171233" lon="11.469735"><ele>170.0</ele><time>2026-04-11T12:35:47.153Z</time></trkpt><trkpt lat="43.8171533" lon="11.4698983"><ele>170.0</ele><time>2026-04-11T12:35:49.153Z</time></trkpt><trkpt lat="43.8171717" lon="11.4699867"><ele>170.0</ele><time>2026-04-11T12:35:50.153Z</time></trkpt><trkpt lat="43.8171867" lon="11.4700817"><ele>169.85714285714286</ele><time>2026-04-11T12:35:51.153Z</time></trkpt><trkpt lat="43.8172017" lon="11.4701833"><ele>169.7142857142857</ele><time>2026-04-11T12:35:52.153Z</time></trkpt><trkpt lat="43.8172183" lon="11.4702767"><ele>169.57142857142856</ele><time>2026-04-11T12:35:53.153Z</time></trkpt><trkpt lat="43.8172367" lon="11.4703767"><ele>169.42857142857144</ele><time>2026-04-11T12:35:54.153Z</time></trkpt><trkpt lat="43.81726" lon="11.4704817"><ele>169.28571428571428</ele><time>2026-04-11T12:35:55.153Z</time></trkpt><trkpt lat="43.8172767" lon="11.47058"><ele>169.14285714285714</ele><time>2026-04-11T12:35:56.153Z</time></trkpt><trkpt lat="43.81729" lon="11.4706667"><ele>169.0</ele><time>2026-04-11T12:35:57.153Z</time></trkpt><trkpt lat="43.81732" lon="11.470825"><ele>168.39999999999998</ele><time>2026-04-11T12:35:59.153Z</time></trkpt><trkpt lat="43.8173383" lon="11.4709733"><ele>167.8</ele><time>2026-04-11T12:36:01.153Z</time></trkpt><trkpt lat="43.8173683" lon="11.4711167"><ele>167.2</ele><time>2026-04-11T12:36:03.153Z</time></trkpt><trkpt lat="43.817405" lon="11.4712783"><ele>166.60000000000002</ele><time>2026-04-11T12:36:05.153Z</time></trkpt><trkpt lat="43.81743" lon="11.4713617"><ele>166.0</ele><time>2026-04-11T12:36:06.154Z</time></trkpt><trkpt lat="43.8174617" lon="11.4714583"><ele>165.33333333333334</ele><time>2026-04-11T12:36:07.153Z</time></trkpt><trkpt lat="43.81749" lon="11.47155"><ele>164.66666666666669</ele><time>2026-04-11T12:36:08.153Z</time></trkpt><trkpt lat="43.81753" lon="11.4717083"><ele>164.0</ele><time>2026-04-11T12:36:10.153Z</time></trkpt><trkpt lat="43.81753" lon="11.4718817"><ele>163.33333333333334</ele><time>2026-04-11T12:36:12.153Z</time></trkpt><trkpt lat="43.8175167" lon="11.47197"><ele>162.66666666666666</ele><time>2026-04-11T12:36:13.153Z</time></trkpt><trkpt lat="43.8175" lon="11.472055"><ele>162.0</ele><time>2026-04-11T12:36:14.153Z</time></trkpt><trkpt lat="43.817455" lon="11.472215"><ele>161.0</ele><time>2026-04-11T12:36:16.153Z</time></trkpt><trkpt lat="43.8174317" lon="11.4723033"><ele>160.0</ele><time>2026-04-11T12:36:17.153Z</time></trkpt><trkpt lat="43.8174083" lon="11.47239"><ele>159.0</ele><time>2026-04-11T12:36:18.153Z</time></trkpt><trkpt lat="43.8173867" lon="11.47248"><ele>158.0</ele><time>2026-04-11T12:36:19.153Z</time></trkpt><trkpt lat="43.81735" lon="11.4726467"><ele>157.0</ele><time>2026-04-11T12:36:21.154Z</time></trkpt><trkpt lat="43.8173167" lon="11.4728133"><ele>156.99999999999997</ele><time>2026-04-11T12:36:23.154Z</time></trkpt><trkpt lat="43.8172883" lon="11.4729017"><ele>157.0</ele><time>2026-04-11T12:36:24.154Z</time></trkpt><trkpt lat="43.8172583" lon="11.4729833"><ele>157.0</ele><time>2026-04-11T12:36:25.153Z</time></trkpt><trkpt lat="43.8172283" lon="11.4730617"><ele>157.0</ele><time>2026-04-11T12:36:26.153Z</time></trkpt><trkpt lat="43.8171967" lon="11.47314"><ele>157.0</ele><time>2026-04-11T12:36:27.153Z</time></trkpt><trkpt lat="43.81716" lon="11.4732167"><ele>156.99999999999997</ele><time>2026-04-11T12:36:28.153Z</time></trkpt><trkpt lat="43.8171233" lon="11.4732967"><ele>157.0</ele><time>2026-04-11T12:36:29.153Z</time></trkpt><trkpt lat="43.8170783" lon="11.4733733"><ele>156.66666666666669</ele><time>2026-04-11T12:36:30.153Z</time></trkpt><trkpt lat="43.8170317" lon="11.4734467"><ele>156.33333333333334</ele><time>2026-04-11T12:36:31.153Z</time></trkpt><trkpt lat="43.8169933" lon="11.4735283"><ele>156.0</ele><time>2026-04-11T12:36:33.152Z</time></trkpt><trkpt lat="43.8170183" lon="11.47361"><ele>155.66666666666666</ele><time>2026-04-11T12:36:35.152Z</time></trkpt><trkpt lat="43.8170767" lon="11.4736633"><ele>155.33333333333331</ele><time>2026-04-11T12:36:37.152Z</time></trkpt><trkpt lat="43.817195" lon="11.473655"><ele>155.0</ele><time>2026-04-11T12:36:39.152Z</time></trkpt><trkpt lat="43.8172917" lon="11.4736083"><ele>155.0</ele><time>2026-04-11T12:36:41.153Z</time></trkpt><trkpt lat="43.817375" lon="11.4735517"><ele>155.0</ele><time>2026-04-11T12:36:43.152Z</time></trkpt><trkpt lat="43.81748" lon="11.4734617"><ele>155.0</ele><time>2026-04-11T12:36:45.152Z</time></trkpt><trkpt lat="43.8175467" lon="11.47339"><ele>155.0</ele><time>2026-04-11T12:36:46.152Z</time></trkpt><trkpt lat="43.8176133" lon="11.4733183"><ele>155.0</ele><time>2026-04-11T12:36:47.153Z</time></trkpt><trkpt lat="43.817685" lon="11.4732317"><ele>154.83333333333331</ele><time>2026-04-11T12:36:48.153Z</time></trkpt><trkpt lat="43.81775" lon="11.4731367"><ele>154.66666666666666</ele><time>2026-04-11T12:36:49.152Z</time></trkpt><trkpt lat="43.81781" lon="11.4730483"><ele>154.5</ele><time>2026-04-11T12:36:50.152Z</time></trkpt><trkpt lat="43.81786" lon="11.472975"><ele>154.33333333333334</ele><time>2026-04-11T12:36:51.152Z</time></trkpt><trkpt lat="43.8179417" lon="11.47287"><ele>154.16666666666669</ele><time>2026-04-11T12:36:53.152Z</time></trkpt><trkpt lat="43.8179983" lon="11.4728033"><ele>154.0</ele><time>2026-04-11T12:36:55.153Z</time></trkpt><trkpt lat="43.8181" lon="11.4727283"><ele>155.0</ele><time>2026-04-11T12:37:12.152Z</time></trkpt><trkpt lat="43.818175" lon="11.4726717"><ele>156.0</ele><time>2026-04-11T12:37:13.152Z</time></trkpt><trkpt lat="43.8182367" lon="11.4726333"><ele>157.0</ele><time>2026-04-11T12:37:14.152Z</time></trkpt><trkpt lat="43.818315" lon="11.4725933"><ele>158.0</ele><time>2026-04-11T12:37:16.152Z</time></trkpt><trkpt lat="43.8182367" lon="11.4725833"><ele>159.0</ele><time>2026-04-11T12:37:28.152Z</time></trkpt><trkpt lat="43.8181517" lon="11.4726617"><ele>160.0</ele><time>2026-04-11T12:37:29.152Z</time></trkpt><trkpt lat="43.818045" lon="11.4727517"><ele>160.0</ele><time>2026-04-11T12:37:30.152Z</time></trkpt><trkpt lat="43.817945" lon="11.472855"><ele>160.0</ele><time>2026-04-11T12:37:31.152Z</time></trkpt><trkpt lat="43.81785" lon="11.4729767"><ele>160.0</ele><time>2026-04-11T12:37:32.153Z</time></trkpt><trkpt lat="43.8177633" lon="11.4730983"><ele>160.0</ele><time>2026-04-11T12:37:33.152Z</time></trkpt><trkpt lat="43.8176817" lon="11.4732133"><ele>159.0</ele><time>2026-04-11T12:37:34.152Z</time></trkpt><trkpt lat="43.8176017" lon="11.4733117"><ele>158.0</ele><time>2026-04-11T12:37:35.152Z</time></trkpt><trkpt lat="43.81752" lon="11.4734017"><ele>157.0</ele><time>2026-04-11T12:37:36.152Z</time></trkpt><trkpt lat="43.817435" lon="11.473485"><ele>156.0</ele><time>2026-04-11T12:37:37.152Z</time></trkpt><trkpt lat="43.8173583" lon="11.473545"><ele>155.0</ele><time>2026-04-11T12:37:38.152Z</time></trkpt><trkpt lat="43.8172867" lon="11.4736"><ele>155.0</ele><time>2026-04-11T12:37:39.152Z</time></trkpt><trkpt lat="43.81722" lon="11.47364"><ele>155.0</ele><time>2026-04-11T12:37:40.153Z</time></trkpt><trkpt lat="43.81715" lon="11.4737"><ele>155.0</ele><time>2026-04-11T12:37:42.152Z</time></trkpt><trkpt lat="43.8171667" lon="11.4738233"><ele>155.0</ele><time>2026-04-11T12:37:45.152Z</time></trkpt><trkpt lat="43.817215" lon="11.4739817"><ele>155.0</ele><time>2026-04-11T12:37:47.152Z</time></trkpt><trkpt lat="43.8172367" lon="11.4740683"><ele>155.0</ele><time>2026-04-11T12:37:48.152Z</time></trkpt><trkpt lat="43.8172717" lon="11.4742133"><ele>154.0</ele><time>2026-04-11T12:37:50.152Z</time></trkpt><trkpt lat="43.8173" lon="11.4743267"><ele>153.0</ele><time>2026-04-11T12:37:52.152Z</time></trkpt><trkpt lat="43.81733" lon="11.4744317"><ele>152.0</ele><time>2026-04-11T12:37:54.152Z</time></trkpt><trkpt lat="43.8173483" lon="11.474535"><ele>151.0</ele><time>2026-04-11T12:37:56.152Z</time></trkpt><trkpt lat="43.8173733" lon="11.4746533"><ele>150.0</ele><time>2026-04-11T12:37:58.152Z</time></trkpt><trkpt lat="43.817395" lon="11.47477"><ele>149.0</ele><time>2026-04-11T12:38:00.152Z</time></trkpt><trkpt lat="43.8174233" lon="11.4748683"><ele>147.8</ele><time>2026-04-11T12:38:02.152Z</time></trkpt><trkpt lat="43.8174533" lon="11.4749867"><ele>146.60000000000002</ele><time>2026-04-11T12:38:04.152Z</time></trkpt><trkpt lat="43.817485" lon="11.4751167"><ele>145.4</ele><time>2026-04-11T12:38:06.152Z</time></trkpt><trkpt lat="43.81751" lon="11.47524"><ele>144.20000000000002</ele><time>2026-04-11T12:38:08.152Z</time></trkpt><trkpt lat="43.8175467" lon="11.4753717"><ele>143.0</ele><time>2026-04-11T12:38:10.153Z</time></trkpt><trkpt lat="43.817575" lon="11.47548"><ele>142.0</ele><time>2026-04-11T12:38:12.153Z</time></trkpt><trkpt lat="43.81761" lon="11.475585"><ele>141.0</ele><time>2026-04-11T12:38:14.152Z</time></trkpt><trkpt lat="43.8176467" lon="11.4756967"><ele>140.0</ele><time>2026-04-11T12:38:16.152Z</time></trkpt><trkpt lat="43.817675" lon="11.47582"><ele>139.0</ele><time>2026-04-11T12:38:18.152Z</time></trkpt><trkpt lat="43.8176917" lon="11.4759333"><ele>138.0</ele><time>2026-04-11T12:38:20.152Z</time></trkpt><trkpt lat="43.8176983" lon="11.476035"><ele>137.0</ele><time>2026-04-11T12:38:22.152Z</time></trkpt><trkpt lat="43.8177317" lon="11.476145"><ele>137.0</ele><time>2026-04-11T12:38:25.152Z</time></trkpt><trkpt lat="43.817845" lon="11.47626"><ele>137.0</ele><time>2026-04-11T12:38:27.152Z</time></trkpt><trkpt lat="43.81795" lon="11.47634"><ele>137.0</ele><time>2026-04-11T12:38:28.152Z</time></trkpt><trkpt lat="43.8180533" lon="11.4764033"><ele>137.0</ele><time>2026-04-11T12:38:29.152Z</time></trkpt><trkpt lat="43.8181583" lon="11.4764417"><ele>136.0</ele><time>2026-04-11T12:38:30.152Z</time></trkpt><trkpt lat="43.818275" lon="11.47645"><ele>135.0</ele><time>2026-04-11T12:38:31.152Z</time></trkpt><trkpt lat="43.8183967" lon="11.4764367"><ele>134.0</ele><time>2026-04-11T12:38:32.152Z</time></trkpt><trkpt lat="43.8185183" lon="11.476415"><ele>133.0</ele><time>2026-04-11T12:38:33.153Z</time></trkpt><trkpt lat="43.8186283" lon="11.4763983"><ele>133.0</ele><time>2026-04-11T12:38:34.152Z</time></trkpt><trkpt lat="43.81873" lon="11.4764167"><ele>133.0</ele><time>2026-04-11T12:38:35.152Z</time></trkpt><trkpt lat="43.81882" lon="11.476465"><ele>133.0</ele><time>2026-04-11T12:38:36.152Z</time></trkpt><trkpt lat="43.8189083" lon="11.4765367"><ele>133.0</ele><time>2026-04-11T12:38:37.153Z</time></trkpt><trkpt lat="43.8189933" lon="11.4766"><ele>133.0</ele><time>2026-04-11T12:38:38.152Z</time></trkpt><trkpt lat="43.8190683" lon="11.4766467"><ele>133.0</ele><time>2026-04-11T12:38:39.152Z</time></trkpt><trkpt lat="43.819135" lon="11.4766783"><ele>133.0</ele><time>2026-04-11T12:38:40.152Z</time></trkpt><trkpt lat="43.8192033" lon="11.47669"><ele>133.0</ele><time>2026-04-11T12:38:41.152Z</time></trkpt><trkpt lat="43.81927" lon="11.4766817"><ele>133.0</ele><time>2026-04-11T12:38:42.152Z</time></trkpt><trkpt lat="43.819345" lon="11.4766533"><ele>133.0</ele><time>2026-04-11T12:38:43.152Z</time></trkpt><trkpt lat="43.81943" lon="11.4766067"><ele>133.0</ele><time>2026-04-11T12:38:44.152Z</time></trkpt><trkpt lat="43.8195433" lon="11.4765267"><ele>132.0</ele><time>2026-04-11T12:38:45.152Z</time></trkpt><trkpt lat="43.819675" lon="11.4764383"><ele>131.0</ele><time>2026-04-11T12:38:46.153Z</time></trkpt><trkpt lat="43.8198067" lon="11.47636"><ele>130.0</ele><time>2026-04-11T12:38:47.152Z</time></trkpt><trkpt lat="43.8199433" lon="11.4762967"><ele>129.0</ele><time>2026-04-11T12:38:48.152Z</time></trkpt><trkpt lat="43.82008" lon="11.4762233"><ele>131.33333333333334</ele><time>2026-04-11T12:38:49.152Z</time></trkpt><trkpt lat="43.8202317" lon="11.476195"><ele>133.66666666666669</ele><time>2026-04-11T12:38:50.152Z</time></trkpt><trkpt lat="43.8203917" lon="11.4762083"><ele>136.0</ele><time>2026-04-11T12:38:51.152Z</time></trkpt><trkpt lat="43.8205583" lon="11.4762417"><ele>135.33333333333334</ele><time>2026-04-11T12:38:52.152Z</time></trkpt><trkpt lat="43.8207183" lon="11.4762883"><ele>134.66666666666666</ele><time>2026-04-11T12:38:53.152Z</time></trkpt><trkpt lat="43.820865" lon="11.4763267"><ele>134.0</ele><time>2026-04-11T12:38:54.152Z</time></trkpt><trkpt lat="43.821005" lon="11.4763667"><ele>134.0</ele><time>2026-04-11T12:38:55.152Z</time></trkpt><trkpt lat="43.8211233" lon="11.4764067"><ele>134.0</ele><time>2026-04-11T12:38:56.152Z</time></trkpt><trkpt lat="43.8212317" lon="11.4764417"><ele>134.0</ele><time>2026-04-11T12:38:57.152Z</time></trkpt><trkpt lat="43.82135" lon="11.4764717"><ele>134.0</ele><time>2026-04-11T12:38:58.152Z</time></trkpt><trkpt lat="43.8214783" lon="11.476505"><ele>134.0</ele><time>2026-04-11T12:38:59.152Z</time></trkpt><trkpt lat="43.8216033" lon="11.47654"><ele>134.0</ele><time>2026-04-11T12:39:00.152Z</time></trkpt><trkpt lat="43.8217333" lon="11.47658"><ele>134.0</ele><time>2026-04-11T12:39:01.152Z</time></trkpt><trkpt lat="43.82186" lon="11.4766217"><ele>134.0</ele><time>2026-04-11T12:39:02.152Z</time></trkpt><trkpt lat="43.8219867" lon="11.47666"><ele>134.0</ele><time>2026-04-11T12:39:03.152Z</time></trkpt><trkpt lat="43.822115" lon="11.476695"><ele>134.0</ele><time>2026-04-11T12:39:04.152Z</time></trkpt><trkpt lat="43.822245" lon="11.4767267"><ele>134.0</ele><time>2026-04-11T12:39:05.152Z</time></trkpt><trkpt lat="43.8223767" lon="11.476755"><ele>134.0</ele><time>2026-04-11T12:39:06.152Z</time></trkpt><trkpt lat="43.822515" lon="11.4767817"><ele>134.66666666666666</ele><time>2026-04-11T12:39:07.152Z</time></trkpt><trkpt lat="43.8226683" lon="11.4767983"><ele>135.33333333333334</ele><time>2026-04-11T12:39:08.152Z</time></trkpt><trkpt lat="43.8228233" lon="11.4768117"><ele>136.0</ele><time>2026-04-11T12:39:09.152Z</time></trkpt><trkpt lat="43.822965" lon="11.4768267"><ele>136.0</ele><time>2026-04-11T12:39:10.152Z</time></trkpt><trkpt lat="43.8231" lon="11.4768433"><ele>136.0</ele><time>2026-04-11T12:39:11.152Z</time></trkpt><trkpt lat="43.8232233" lon="11.4768617"><ele>136.0</ele><time>2026-04-11T12:39:12.152Z</time></trkpt><trkpt lat="43.823335" lon="11.476895"><ele>136.0</ele><time>2026-04-11T12:39:13.152Z</time></trkpt><trkpt lat="43.82344" lon="11.4769683"><ele>136.5</ele><time>2026-04-11T12:39:14.152Z</time></trkpt><trkpt lat="43.8235567" lon="11.47706"><ele>137.0</ele><time>2026-04-11T12:39:15.152Z</time></trkpt><trkpt lat="43.823675" lon="11.477155"><ele>137.5</ele><time>2026-04-11T12:39:16.152Z</time></trkpt><trkpt lat="43.823805" lon="11.4772367"><ele>138.0</ele><time>2026-04-11T12:39:17.152Z</time></trkpt><trkpt lat="43.8239383" lon="11.477305"><ele>136.5</ele><time>2026-04-11T12:39:18.152Z</time></trkpt><trkpt lat="43.8240733" lon="11.477365"><ele>135.0</ele><time>2026-04-11T12:39:19.152Z</time></trkpt><trkpt lat="43.82421" lon="11.477425"><ele>133.5</ele><time>2026-04-11T12:39:20.152Z</time></trkpt><trkpt lat="43.824355" lon="11.47749"><ele>132.0</ele><time>2026-04-11T12:39:21.152Z</time></trkpt><trkpt lat="43.8245" lon="11.4775517"><ele>132.0</ele><time>2026-04-11T12:39:22.152Z</time></trkpt><trkpt lat="43.8246517" lon="11.477615"><ele>132.0</ele><time>2026-04-11T12:39:23.152Z</time></trkpt><trkpt lat="43.8248067" lon="11.4776817"><ele>132.0</ele><time>2026-04-11T12:39:24.152Z</time></trkpt><trkpt lat="43.8249533" lon="11.477745"><ele>132.0</ele><time>2026-04-11T12:39:25.152Z</time></trkpt><trkpt lat="43.82509" lon="11.4778083"><ele>132.0</ele><time>2026-04-11T12:39:26.152Z</time></trkpt><trkpt lat="43.82523" lon="11.47787"><ele>132.0</ele><time>2026-04-11T12:39:27.152Z</time></trkpt><trkpt lat="43.82536" lon="11.477925"><ele>132.0</ele><time>2026-04-11T12:39:28.152Z</time></trkpt><trkpt lat="43.8254917" lon="11.477985"><ele>129.5</ele><time>2026-04-11T12:39:29.152Z</time></trkpt><trkpt lat="43.825615" lon="11.478055"><ele>127.0</ele><time>2026-04-11T12:39:30.152Z</time></trkpt><trkpt lat="43.8257367" lon="11.4781233"><ele>124.5</ele><time>2026-04-11T12:39:31.152Z</time></trkpt><trkpt lat="43.825855" lon="11.4782"><ele>122.0</ele><time>2026-04-11T12:39:32.152Z</time></trkpt><trkpt lat="43.8259633" lon="11.4782817"><ele>119.75</ele><time>2026-04-11T12:39:33.152Z</time></trkpt><trkpt lat="43.8260533" lon="11.4783483"><ele>117.5</ele><time>2026-04-11T12:39:34.152Z</time></trkpt><trkpt lat="43.82615" lon="11.4784033"><ele>115.25</ele><time>2026-04-11T12:39:35.152Z</time></trkpt><trkpt lat="43.8262633" lon="11.4784317"><ele>113.0</ele><time>2026-04-11T12:39:36.152Z</time></trkpt><trkpt lat="43.826395" lon="11.4784367"><ele>113.0</ele><time>2026-04-11T12:39:37.152Z</time></trkpt><trkpt lat="43.82654" lon="11.4784183"><ele>113.0</ele><time>2026-04-11T12:39:38.152Z</time></trkpt><trkpt lat="43.82668" lon="11.478405"><ele>113.0</ele><time>2026-04-11T12:39:39.152Z</time></trkpt><trkpt lat="43.8268083" lon="11.4783983"><ele>113.0</ele><time>2026-04-11T12:39:40.152Z</time></trkpt><trkpt lat="43.82692" lon="11.4784083"><ele>112.5</ele><time>2026-04-11T12:39:41.152Z</time></trkpt><trkpt lat="43.8270267" lon="11.4784483"><ele>112.0</ele><time>2026-04-11T12:39:42.152Z</time></trkpt><trkpt lat="43.8271383" lon="11.4785367"><ele>111.5</ele><time>2026-04-11T12:39:43.152Z</time></trkpt><trkpt lat="43.827265" lon="11.4786417"><ele>111.0</ele><time>2026-04-11T12:39:44.152Z</time></trkpt><trkpt lat="43.8274017" lon="11.4787517"><ele>111.0</ele><time>2026-04-11T12:39:45.152Z</time></trkpt><trkpt lat="43.827525" lon="11.4788533"><ele>111.0</ele><time>2026-04-11T12:39:46.152Z</time></trkpt><trkpt lat="43.827645" lon="11.4789617"><ele>111.0</ele><time>2026-04-11T12:39:47.152Z</time></trkpt><trkpt lat="43.8277683" lon="11.4790633"><ele>111.0</ele><time>2026-04-11T12:39:48.152Z</time></trkpt><trkpt lat="43.827885" lon="11.479175"><ele>110.75</ele><time>2026-04-11T12:39:49.152Z</time></trkpt><trkpt lat="43.8279933" lon="11.4792867"><ele>110.5</ele><time>2026-04-11T12:39:50.152Z</time></trkpt><trkpt lat="43.8280983" lon="11.4794167"><ele>110.25</ele><time>2026-04-11T12:39:51.152Z</time></trkpt><trkpt lat="43.8281917" lon="11.4795633"><ele>110.0</ele><time>2026-04-11T12:39:52.152Z</time></trkpt><trkpt lat="43.8282783" lon="11.4797367"><ele>110.0</ele><time>2026-04-11T12:39:53.152Z</time></trkpt><trkpt lat="43.8283583" lon="11.4799083"><ele>110.0</ele><time>2026-04-11T12:39:54.152Z</time></trkpt><trkpt lat="43.8284383" lon="11.480085"><ele>110.0</ele><time>2026-04-11T12:39:55.152Z</time></trkpt><trkpt lat="43.8285267" lon="11.4802583"><ele>110.0</ele><time>2026-04-11T12:39:56.152Z</time></trkpt><trkpt lat="43.82861" lon="11.480435"><ele>110.0</ele><time>2026-04-11T12:39:57.152Z</time></trkpt><trkpt lat="43.8286933" lon="11.4805983"><ele>110.0</ele><time>2026-04-11T12:39:58.152Z</time></trkpt><trkpt lat="43.8287817" lon="11.48076"><ele>110.0</ele><time>2026-04-11T12:39:59.152Z</time></trkpt><trkpt lat="43.8288683" lon="11.4809283"><ele>110.0</ele><time>2026-04-11T12:40:00.152Z</time></trkpt><trkpt lat="43.8289533" lon="11.4811017"><ele>110.0</ele><time>2026-04-11T12:40:01.152Z</time></trkpt><trkpt lat="43.82904" lon="11.4812617"><ele>110.0</ele><time>2026-04-11T12:40:02.152Z</time></trkpt><trkpt lat="43.8291233" lon="11.4814083"><ele>110.0</ele><time>2026-04-11T12:40:03.152Z</time></trkpt><trkpt lat="43.8292083" lon="11.48154"><ele>110.0</ele><time>2026-04-11T12:40:04.152Z</time></trkpt><trkpt lat="43.829295" lon="11.4816467"><ele>110.0</ele><time>2026-04-11T12:40:05.152Z</time></trkpt><trkpt lat="43.829385" lon="11.48173"><ele>110.0</ele><time>2026-04-11T12:40:06.152Z</time></trkpt><trkpt lat="43.829475" lon="11.4817733"><ele>110.0</ele><time>2026-04-11T12:40:07.152Z</time></trkpt><trkpt lat="43.8295567" lon="11.4817767"><ele>110.0</ele><time>2026-04-11T12:40:08.152Z</time></trkpt><trkpt lat="43.8296317" lon="11.48176"><ele>110.4</ele><time>2026-04-11T12:40:09.152Z</time></trkpt><trkpt lat="43.82975" lon="11.4817967"><ele>110.8</ele><time>2026-04-11T12:40:11.152Z</time></trkpt><trkpt lat="43.8298033" lon="11.481875"><ele>111.19999999999999</ele><time>2026-04-11T12:40:12.152Z</time></trkpt><trkpt lat="43.8298433" lon="11.481995"><ele>111.6</ele><time>2026-04-11T12:40:13.152Z</time></trkpt><trkpt lat="43.8298733" lon="11.4821217"><ele>112.0</ele><time>2026-04-11T12:40:14.152Z</time></trkpt><trkpt lat="43.8299067" lon="11.482235"><ele>112.0</ele><time>2026-04-11T12:40:15.152Z</time></trkpt><trkpt lat="43.829935" lon="11.4823367"><ele>111.99999999999999</ele><time>2026-04-11T12:40:16.152Z</time></trkpt><trkpt lat="43.82997" lon="11.4824417"><ele>111.99999999999999</ele><time>2026-04-11T12:40:17.152Z</time></trkpt><trkpt lat="43.8300033" lon="11.4825517"><ele>112.0</ele><time>2026-04-11T12:40:18.152Z</time></trkpt><trkpt lat="43.8300483" lon="11.4826817"><ele>112.0</ele><time>2026-04-11T12:40:19.152Z</time></trkpt><trkpt lat="43.83009" lon="11.48281"><ele>113.00000000000001</ele><time>2026-04-11T12:40:20.153Z</time></trkpt><trkpt lat="43.830125" lon="11.4829333"><ele>114.0</ele><time>2026-04-11T12:40:21.152Z</time></trkpt><trkpt lat="43.83016" lon="11.4830383"><ele>115.0</ele><time>2026-04-11T12:40:22.152Z</time></trkpt><trkpt lat="43.8301883" lon="11.4831333"><ele>116.0</ele><time>2026-04-11T12:40:23.152Z</time></trkpt><trkpt lat="43.8302183" lon="11.4832217"><ele>117.00000000000001</ele><time>2026-04-11T12:40:24.152Z</time></trkpt><trkpt lat="43.830245" lon="11.4833117"><ele>118.0</ele><time>2026-04-11T12:40:25.152Z</time></trkpt><trkpt lat="43.8302717" lon="11.483405"><ele>118.83333333333334</ele><time>2026-04-11T12:40:26.152Z</time></trkpt><trkpt lat="43.830295" lon="11.4835017"><ele>119.66666666666667</ele><time>2026-04-11T12:40:27.152Z</time></trkpt><trkpt lat="43.8303233" lon="11.4836067"><ele>120.5</ele><time>2026-04-11T12:40:28.152Z</time></trkpt><trkpt lat="43.8303567" lon="11.4837233"><ele>121.33333333333334</ele><time>2026-04-11T12:40:29.152Z</time></trkpt><trkpt lat="43.8304067" lon="11.4838317"><ele>122.16666666666667</ele><time>2026-04-11T12:40:30.152Z</time></trkpt><trkpt lat="43.83047" lon="11.4839517"><ele>123.0</ele><time>2026-04-11T12:40:31.152Z</time></trkpt><trkpt lat="43.8305283" lon="11.48406"><ele>123.80000000000001</ele><time>2026-04-11T12:40:32.152Z</time></trkpt><trkpt lat="43.8306" lon="11.4841483"><ele>124.60000000000001</ele><time>2026-04-11T12:40:33.152Z</time></trkpt><trkpt lat="43.8306683" lon="11.484235"><ele>125.39999999999999</ele><time>2026-04-11T12:40:34.152Z</time></trkpt><trkpt lat="43.8307317" lon="11.4843233"><ele>126.19999999999999</ele><time>2026-04-11T12:40:35.152Z</time></trkpt><trkpt lat="43.83078" lon="11.48443"><ele>127.0</ele><time>2026-04-11T12:40:36.153Z</time></trkpt><trkpt lat="43.8308117" lon="11.4845433"><ele>127.19999999999999</ele><time>2026-04-11T12:40:37.152Z</time></trkpt><trkpt lat="43.83083" lon="11.48467"><ele>127.39999999999999</ele><time>2026-04-11T12:40:38.152Z</time></trkpt><trkpt lat="43.8308383" lon="11.4848083"><ele>127.60000000000001</ele><time>2026-04-11T12:40:39.153Z</time></trkpt><trkpt lat="43.830825" lon="11.48496"><ele>127.80000000000001</ele><time>2026-04-11T12:40:40.153Z</time></trkpt><trkpt lat="43.8308083" lon="11.4851117"><ele>128.0</ele><time>2026-04-11T12:40:41.152Z</time></trkpt><trkpt lat="43.830785" lon="11.48526"><ele>128.0</ele><time>2026-04-11T12:40:42.152Z</time></trkpt><trkpt lat="43.8307533" lon="11.4854067"><ele>128.0</ele><time>2026-04-11T12:40:43.152Z</time></trkpt><trkpt lat="43.8307233" lon="11.4855383"><ele>128.0</ele><time>2026-04-11T12:40:44.152Z</time></trkpt><trkpt lat="43.8306967" lon="11.4856667"><ele>128.0</ele><time>2026-04-11T12:40:45.152Z</time></trkpt><trkpt lat="43.8306667" lon="11.48578"><ele>128.0</ele><time>2026-04-11T12:40:46.152Z</time></trkpt><trkpt lat="43.8306433" lon="11.4858867"><ele>127.83333333333333</ele><time>2026-04-11T12:40:47.153Z</time></trkpt><trkpt lat="43.8306133" lon="11.4859883"><ele>127.66666666666666</ele><time>2026-04-11T12:40:48.152Z</time></trkpt><trkpt lat="43.8305867" lon="11.486095"><ele>127.5</ele><time>2026-04-11T12:40:49.152Z</time></trkpt><trkpt lat="43.8305733" lon="11.4862017"><ele>127.33333333333334</ele><time>2026-04-11T12:40:50.153Z</time></trkpt><trkpt lat="43.8305667" lon="11.4863017"><ele>127.16666666666667</ele><time>2026-04-11T12:40:51.152Z</time></trkpt><trkpt lat="43.8305983" lon="11.4864683"><ele>127.0</ele><time>2026-04-11T12:40:53.153Z</time></trkpt><trkpt lat="43.8306267" lon="11.4866033"><ele>126.5</ele><time>2026-04-11T12:40:55.152Z</time></trkpt><trkpt lat="43.8305833" lon="11.48672"><ele>126.0</ele><time>2026-04-11T12:40:57.152Z</time></trkpt><trkpt lat="43.8304517" lon="11.4868033"><ele>125.5</ele><time>2026-04-11T12:40:59.152Z</time></trkpt><trkpt lat="43.8303467" lon="11.48686"><ele>125.0</ele><time>2026-04-11T12:41:00.152Z</time></trkpt><trkpt lat="43.8302333" lon="11.4869217"><ele>124.16666666666666</ele><time>2026-04-11T12:41:01.153Z</time></trkpt><trkpt lat="43.830135" lon="11.486975"><ele>123.33333333333333</ele><time>2026-04-11T12:41:02.153Z</time></trkpt><trkpt lat="43.8300567" lon="11.4870217"><ele>122.5</ele><time>2026-04-11T12:41:03.152Z</time></trkpt><trkpt lat="43.82999" lon="11.4870717"><ele>121.66666666666666</ele><time>2026-04-11T12:41:04.153Z</time></trkpt><trkpt lat="43.8299233" lon="11.487155"><ele>120.83333333333333</ele><time>2026-04-11T12:41:06.152Z</time></trkpt><trkpt lat="43.8298933" lon="11.487265"><ele>120.0</ele><time>2026-04-11T12:41:08.153Z</time></trkpt><trkpt lat="43.8298717" lon="11.4873683"><ele>119.83333333333333</ele><time>2026-04-11T12:41:10.153Z</time></trkpt><trkpt lat="43.8298333" lon="11.487465"><ele>119.66666666666666</ele><time>2026-04-11T12:41:12.152Z</time></trkpt><trkpt lat="43.8297833" lon="11.4875967"><ele>119.5</ele><time>2026-04-11T12:41:14.152Z</time></trkpt><trkpt lat="43.8297583" lon="11.4876783"><ele>119.33333333333333</ele><time>2026-04-11T12:41:15.152Z</time></trkpt><trkpt lat="43.82969" lon="11.48781"><ele>119.16666666666666</ele><time>2026-04-11T12:41:17.152Z</time></trkpt><trkpt lat="43.8296283" lon="11.4878483"><ele>119.0</ele><time>2026-04-11T12:41:18.153Z</time></trkpt><trkpt lat="43.82955" lon="11.4878767"><ele>119.0</ele><time>2026-04-11T12:41:19.152Z</time></trkpt><trkpt lat="43.8294667" lon="11.4879033"><ele>119.0</ele><time>2026-04-11T12:41:20.152Z</time></trkpt><trkpt lat="43.8293783" lon="11.48793"><ele>119.0</ele><time>2026-04-11T12:41:21.152Z</time></trkpt><trkpt lat="43.8292767" lon="11.4879333"><ele>119.0</ele><time>2026-04-11T12:41:22.152Z</time></trkpt><trkpt lat="43.8291667" lon="11.487945"><ele>119.0</ele><time>2026-04-11T12:41:23.152Z</time></trkpt><trkpt lat="43.82906" lon="11.4879383"><ele>118.49999999999999</ele><time>2026-04-11T12:41:24.152Z</time></trkpt><trkpt lat="43.8289617" lon="11.48793"><ele>118.0</ele><time>2026-04-11T12:41:25.153Z</time></trkpt><trkpt lat="43.8288717" lon="11.48793"><ele>117.5</ele><time>2026-04-11T12:41:26.152Z</time></trkpt><trkpt lat="43.828785" lon="11.4879267"><ele>117.0</ele><time>2026-04-11T12:41:27.153Z</time></trkpt><trkpt lat="43.828705" lon="11.487925"><ele>116.49999999999999</ele><time>2026-04-11T12:41:28.152Z</time></trkpt><trkpt lat="43.8286333" lon="11.4879167"><ele>116.0</ele><time>2026-04-11T12:41:29.152Z</time></trkpt><trkpt lat="43.828565" lon="11.48791"><ele>115.6</ele><time>2026-04-11T12:41:30.152Z</time></trkpt><trkpt lat="43.8284533" lon="11.487915"><ele>115.19999999999999</ele><time>2026-04-11T12:41:32.152Z</time></trkpt><trkpt lat="43.8283467" lon="11.4879283"><ele>114.80000000000001</ele><time>2026-04-11T12:41:34.152Z</time></trkpt><trkpt lat="43.8282583" lon="11.48794"><ele>114.4</ele><time>2026-04-11T12:41:37.152Z</time></trkpt><trkpt lat="43.828165" lon="11.4879967"><ele>114.0</ele><time>2026-04-11T12:41:39.153Z</time></trkpt><trkpt lat="43.828095" lon="11.4880683"><ele>114.0</ele><time>2026-04-11T12:41:40.152Z</time></trkpt><trkpt lat="43.8280167" lon="11.4881833"><ele>114.0</ele><time>2026-04-11T12:41:41.152Z</time></trkpt><trkpt lat="43.8279283" lon="11.4882967"><ele>114.0</ele><time>2026-04-11T12:41:42.152Z</time></trkpt><trkpt lat="43.8278467" lon="11.4884033"><ele>114.0</ele><time>2026-04-11T12:41:43.152Z</time></trkpt><trkpt lat="43.8277517" lon="11.488515"><ele>114.0</ele><time>2026-04-11T12:41:44.152Z</time></trkpt><trkpt lat="43.8276583" lon="11.48863"><ele>114.0</ele><time>2026-04-11T12:41:45.153Z</time></trkpt><trkpt lat="43.8275667" lon="11.4887433"><ele>114.0</ele><time>2026-04-11T12:41:46.152Z</time></trkpt><trkpt lat="43.8274917" lon="11.4888517"><ele>114.0</ele><time>2026-04-11T12:41:47.152Z</time></trkpt><trkpt lat="43.8274183" lon="11.48895"><ele>114.33333333333333</ele><time>2026-04-11T12:41:48.152Z</time></trkpt><trkpt lat="43.82734" lon="11.489025"><ele>114.66666666666666</ele><time>2026-04-11T12:41:49.152Z</time></trkpt><trkpt lat="43.8272717" lon="11.4890883"><ele>115.0</ele><time>2026-04-11T12:41:50.152Z</time></trkpt><trkpt lat="43.8272067" lon="11.4891283"><ele>115.33333333333333</ele><time>2026-04-11T12:41:51.152Z</time></trkpt><trkpt lat="43.82715" lon="11.4891717"><ele>115.66666666666666</ele><time>2026-04-11T12:41:52.152Z</time></trkpt><trkpt lat="43.8271083" lon="11.48933"><ele>116.0</ele><time>2026-04-11T12:42:14.152Z</time></trkpt><trkpt lat="43.8271383" lon="11.4894433"><ele>116.0</ele><time>2026-04-11T12:42:15.152Z</time></trkpt><trkpt lat="43.8271783" lon="11.4895667"><ele>116.0</ele><time>2026-04-11T12:42:16.152Z</time></trkpt><trkpt lat="43.8272283" lon="11.489675"><ele>116.0</ele><time>2026-04-11T12:42:17.153Z</time></trkpt><trkpt lat="43.8272517" lon="11.4898183"><ele>116.0</ele><time>2026-04-11T12:42:18.152Z</time></trkpt><trkpt lat="43.8272733" lon="11.489945"><ele>116.0</ele><time>2026-04-11T12:42:19.153Z</time></trkpt><trkpt lat="43.8272933" lon="11.4900667"><ele>116.33333333333333</ele><time>2026-04-11T12:42:20.152Z</time></trkpt><trkpt lat="43.8273" lon="11.4901917"><ele>116.66666666666666</ele><time>2026-04-11T12:42:21.152Z</time></trkpt><trkpt lat="43.8272867" lon="11.490305"><ele>117.0</ele><time>2026-04-11T12:42:22.152Z</time></trkpt><trkpt lat="43.8272617" lon="11.490395"><ele>117.33333333333334</ele><time>2026-04-11T12:42:23.152Z</time></trkpt><trkpt lat="43.827235" lon="11.490475"><ele>117.66666666666667</ele><time>2026-04-11T12:42:24.152Z</time></trkpt><trkpt lat="43.8271583" lon="11.4905333"><ele>118.0</ele><time>2026-04-11T12:42:26.152Z</time></trkpt><trkpt lat="43.8270917" lon="11.4905583"><ele>118.2</ele><time>2026-04-11T12:42:27.152Z</time></trkpt><trkpt lat="43.8270083" lon="11.4905667"><ele>118.4</ele><time>2026-04-11T12:42:28.152Z</time></trkpt><trkpt lat="43.82691" lon="11.4905933"><ele>118.60000000000001</ele><time>2026-04-11T12:42:29.152Z</time></trkpt><trkpt lat="43.8267983" lon="11.4905983"><ele>118.80000000000001</ele><time>2026-04-11T12:42:30.152Z</time></trkpt><trkpt lat="43.8267067" lon="11.49061"><ele>119.0</ele><time>2026-04-11T12:42:31.152Z</time></trkpt><trkpt lat="43.8266383" lon="11.4906167"><ele>119.0</ele><time>2026-04-11T12:42:32.152Z</time></trkpt><trkpt lat="43.8265717" lon="11.490605"><ele>119.0</ele><time>2026-04-11T12:42:34.152Z</time></trkpt></trkseg><trkseg><trkpt lat="43.82649" lon="11.4906683"><ele>118.99999999999999</ele><time>2026-04-11T12:58:52.152Z</time></trkpt><trkpt lat="43.826415" lon="11.4907167"><ele>119.0</ele><time>2026-04-11T12:58:54.152Z</time></trkpt><trkpt lat="43.8262983" lon="11.4907617"><ele>119.0</ele><time>2026-04-11T12:58:56.152Z</time></trkpt><trkpt lat="43.8262217" lon="11.490785"><ele>119.0</ele><time>2026-04-11T12:58:57.152Z</time></trkpt><trkpt lat="43.8261433" lon="11.4908117"><ele>118.99999999999999</ele><time>2026-04-11T12:58:58.152Z</time></trkpt><trkpt lat="43.8260667" lon="11.4908383"><ele>119.0</ele><time>2026-04-11T12:58:59.152Z</time></trkpt><trkpt lat="43.8259817" lon="11.490855"><ele>119.4</ele><time>2026-04-11T12:59:00.152Z</time></trkpt><trkpt lat="43.8259017" lon="11.4908717"><ele>119.80000000000001</ele><time>2026-04-11T12:59:01.153Z</time></trkpt><trkpt lat="43.825835" lon="11.4908833"><ele>120.19999999999999</ele><time>2026-04-11T12:59:02.152Z</time></trkpt><trkpt lat="43.825725" lon="11.4908933"><ele>120.6</ele><time>2026-04-11T12:59:04.152Z</time></trkpt><trkpt lat="43.8256633" lon="11.490955"><ele>121.0</ele><time>2026-04-11T12:59:06.152Z</time></trkpt><trkpt lat="43.82563" lon="11.4911367"><ele>121.00000000000001</ele><time>2026-04-11T12:59:08.152Z</time></trkpt><trkpt lat="43.8255967" lon="11.49125"><ele>121.0</ele><time>2026-04-11T12:59:09.152Z</time></trkpt><trkpt lat="43.8255533" lon="11.491345"><ele>121.0</ele><time>2026-04-11T12:59:10.152Z</time></trkpt><trkpt lat="43.8254883" lon="11.4914217"><ele>121.0</ele><time>2026-04-11T12:59:11.152Z</time></trkpt><trkpt lat="43.8254083" lon="11.49147"><ele>121.00000000000001</ele><time>2026-04-11T12:59:12.152Z</time></trkpt><trkpt lat="43.8253183" lon="11.4914967"><ele>121.0</ele><time>2026-04-11T12:59:13.152Z</time></trkpt><trkpt lat="43.8252117" lon="11.4915083"><ele>121.5</ele><time>2026-04-11T12:59:14.152Z</time></trkpt><trkpt lat="43.8250933" lon="11.49152"><ele>122.0</ele><time>2026-04-11T12:59:15.153Z</time></trkpt><trkpt lat="43.8249667" lon="11.491535"><ele>122.5</ele><time>2026-04-11T12:59:16.153Z</time></trkpt><trkpt lat="43.8248367" lon="11.49155"><ele>123.0</ele><time>2026-04-11T12:59:17.152Z</time></trkpt><trkpt lat="43.824705" lon="11.49157"><ele>123.0</ele><time>2026-04-11T12:59:18.152Z</time></trkpt><trkpt lat="43.824575" lon="11.4915783"><ele>123.0</ele><time>2026-04-11T12:59:19.153Z</time></trkpt><trkpt lat="43.8244567" lon="11.4915967"><ele>123.0</ele><time>2026-04-11T12:59:20.152Z</time></trkpt><trkpt lat="43.8243433" lon="11.4916283"><ele>123.0</ele><time>2026-04-11T12:59:21.153Z</time></trkpt><trkpt lat="43.8242317" lon="11.491675"><ele>123.5</ele><time>2026-04-11T12:59:22.152Z</time></trkpt><trkpt lat="43.82412" lon="11.4917417"><ele>124.0</ele><time>2026-04-11T12:59:23.152Z</time></trkpt><trkpt lat="43.8240017" lon="11.4918067"><ele>124.5</ele><time>2026-04-11T12:59:24.152Z</time></trkpt><trkpt lat="43.823875" lon="11.4918717"><ele>125.0</ele><time>2026-04-11T12:59:25.152Z</time></trkpt><trkpt lat="43.8237467" lon="11.4919333"><ele>125.0</ele><time>2026-04-11T12:59:26.152Z</time></trkpt><trkpt lat="43.8236217" lon="11.491995"><ele>125.0</ele><time>2026-04-11T12:59:27.153Z</time></trkpt><trkpt lat="43.8234983" lon="11.4920517"><ele>125.0</ele><time>2026-04-11T12:59:28.153Z</time></trkpt><trkpt lat="43.8233783" lon="11.4921133"><ele>125.0</ele><time>2026-04-11T12:59:29.152Z</time></trkpt><trkpt lat="43.8232617" lon="11.49218"><ele>125.25</ele><time>2026-04-11T12:59:30.152Z</time></trkpt><trkpt lat="43.8231483" lon="11.4922433"><ele>125.5</ele><time>2026-04-11T12:59:31.153Z</time></trkpt><trkpt lat="43.823035" lon="11.4923183"><ele>125.75</ele><time>2026-04-11T12:59:32.152Z</time></trkpt><trkpt lat="43.8229367" lon="11.4924033"><ele>126.0</ele><time>2026-04-11T12:59:33.152Z</time></trkpt><trkpt lat="43.8228467" lon="11.4925"><ele>126.0</ele><time>2026-04-11T12:59:34.152Z</time></trkpt><trkpt lat="43.8227567" lon="11.4926067"><ele>126.0</ele><time>2026-04-11T12:59:35.152Z</time></trkpt><trkpt lat="43.8226867" lon="11.49271"><ele>126.0</ele><time>2026-04-11T12:59:36.152Z</time></trkpt><trkpt lat="43.8226117" lon="11.492805"><ele>126.0</ele><time>2026-04-11T12:59:37.152Z</time></trkpt><trkpt lat="43.822535" lon="11.492905"><ele>126.0</ele><time>2026-04-11T12:59:38.153Z</time></trkpt><trkpt lat="43.8224683" lon="11.4930117"><ele>127.8</ele><time>2026-04-11T12:59:39.152Z</time></trkpt><trkpt lat="43.8224133" lon="11.4931367"><ele>129.6</ele><time>2026-04-11T12:59:40.152Z</time></trkpt><trkpt lat="43.8223617" lon="11.493275"><ele>131.4</ele><time>2026-04-11T12:59:41.152Z</time></trkpt><trkpt lat="43.82231" lon="11.4934133"><ele>133.2</ele><time>2026-04-11T12:59:42.152Z</time></trkpt><trkpt lat="43.822245" lon="11.4935483"><ele>135.0</ele><time>2026-04-11T12:59:43.152Z</time></trkpt><trkpt lat="43.8221783" lon="11.493695"><ele>137.75</ele><time>2026-04-11T12:59:44.152Z</time></trkpt><trkpt lat="43.8221133" lon="11.4938583"><ele>140.5</ele><time>2026-04-11T12:59:45.152Z</time></trkpt><trkpt lat="43.8220467" lon="11.49403"><ele>143.25</ele><time>2026-04-11T12:59:46.152Z</time></trkpt><trkpt lat="43.821985" lon="11.4941867"><ele>146.0</ele><time>2026-04-11T12:59:47.152Z</time></trkpt><trkpt lat="43.8219183" lon="11.4943283"><ele>146.0</ele><time>2026-04-11T12:59:48.152Z</time></trkpt><trkpt lat="43.8218567" lon="11.49447"><ele>146.0</ele><time>2026-04-11T12:59:49.152Z</time></trkpt><trkpt lat="43.8218017" lon="11.49461"><ele>146.0</ele><time>2026-04-11T12:59:50.152Z</time></trkpt><trkpt lat="43.8217633" lon="11.494755"><ele>146.0</ele><time>2026-04-11T12:59:51.152Z</time></trkpt><trkpt lat="43.8217483" lon="11.4949067"><ele>146.5</ele><time>2026-04-11T12:59:52.152Z</time></trkpt><trkpt lat="43.8217617" lon="11.49506"><ele>147.0</ele><time>2026-04-11T12:59:53.153Z</time></trkpt><trkpt lat="43.821795" lon="11.4952133"><ele>147.5</ele><time>2026-04-11T12:59:54.152Z</time></trkpt><trkpt lat="43.821825" lon="11.4953717"><ele>148.0</ele><time>2026-04-11T12:59:55.152Z</time></trkpt><trkpt lat="43.8218567" lon="11.4955267"><ele>149.75</ele><time>2026-04-11T12:59:56.153Z</time></trkpt><trkpt lat="43.8218883" lon="11.4956833"><ele>151.5</ele><time>2026-04-11T12:59:57.152Z</time></trkpt><trkpt lat="43.8219233" lon="11.4958483"><ele>153.25</ele><time>2026-04-11T12:59:58.152Z</time></trkpt><trkpt lat="43.8219717" lon="11.496015"><ele>155.0</ele><time>2026-04-11T12:59:59.152Z</time></trkpt><trkpt lat="43.8220083" lon="11.49618"><ele>160.0</ele><time>2026-04-11T13:00:00.152Z</time></trkpt><trkpt lat="43.8220349" lon="11.496335"><ele>165.0</ele><time>2026-04-11T13:00:01.152Z</time></trkpt><trkpt lat="43.8220433" lon="11.4964908"><ele>170.0</ele><time>2026-04-11T13:00:02.153Z</time></trkpt><trkpt lat="43.8220229" lon="11.4966512"><ele>175.0</ele><time>2026-04-11T13:00:03.152Z</time></trkpt><trkpt lat="43.8219754" lon="11.4967991"><ele>175.0</ele><time>2026-04-11T13:00:04.152Z</time></trkpt><trkpt lat="43.8219062" lon="11.496924"><ele>175.0</ele><time>2026-04-11T13:00:05.153Z</time></trkpt><trkpt lat="43.8218137" lon="11.4970337"><ele>175.0</ele><time>2026-04-11T13:00:06.152Z</time></trkpt><trkpt lat="43.8217264" lon="11.4971443"><ele>175.0</ele><time>2026-04-11T13:00:07.152Z</time></trkpt><trkpt lat="43.8216557" lon="11.4972634"><ele>168.5</ele><time>2026-04-11T13:00:08.152Z</time></trkpt><trkpt lat="43.8216039" lon="11.497404"><ele>162.0</ele><time>2026-04-11T13:00:09.152Z</time></trkpt><trkpt lat="43.8215824" lon="11.4975614"><ele>155.5</ele><time>2026-04-11T13:00:10.152Z</time></trkpt><trkpt lat="43.8215847" lon="11.4977316"><ele>149.0</ele><time>2026-04-11T13:00:11.152Z</time></trkpt><trkpt lat="43.8216045" lon="11.4979057"><ele>149.75</ele><time>2026-04-11T13:00:12.152Z</time></trkpt><trkpt lat="43.8216512" lon="11.4980847"><ele>150.5</ele><time>2026-04-11T13:00:13.152Z</time></trkpt><trkpt lat="43.8217102" lon="11.498267"><ele>151.25</ele><time>2026-04-11T13:00:14.152Z</time></trkpt><trkpt lat="43.8217662" lon="11.4984397"><ele>152.0</ele><time>2026-04-11T13:00:15.152Z</time></trkpt><trkpt lat="43.8218159" lon="11.4986092"><ele>158.25</ele><time>2026-04-11T13:00:16.152Z</time></trkpt><trkpt lat="43.8218634" lon="11.4987772"><ele>164.5</ele><time>2026-04-11T13:00:17.152Z</time></trkpt><trkpt lat="43.8219074" lon="11.4989398"><ele>170.75</ele><time>2026-04-11T13:00:18.152Z</time></trkpt><trkpt lat="43.8219459" lon="11.4990891"><ele>177.0</ele><time>2026-04-11T13:00:19.152Z</time></trkpt><trkpt lat="43.8219786" lon="11.4992193"><ele>177.0</ele><time>2026-04-11T13:00:20.152Z</time></trkpt><trkpt lat="43.8220054" lon="11.4993172"><ele>177.0</ele><time>2026-04-11T13:00:21.152Z</time></trkpt><trkpt lat="43.8220537" lon="11.4994097"><ele>177.0</ele><time>2026-04-11T13:00:22.152Z</time></trkpt><trkpt lat="43.8221235" lon="11.4994887"><ele>177.0</ele><time>2026-04-11T13:00:23.152Z</time></trkpt><trkpt lat="43.8222181" lon="11.4995591"><ele>177.0</ele><time>2026-04-11T13:00:24.152Z</time></trkpt><trkpt lat="43.8223283" lon="11.4996244"><ele>179.75</ele><time>2026-04-11T13:00:25.152Z</time></trkpt><trkpt lat="43.8224455" lon="11.4996885"><ele>182.5</ele><time>2026-04-11T13:00:26.152Z</time></trkpt><trkpt lat="43.8225626" lon="11.4997579"><ele>185.25</ele><time>2026-04-11T13:00:27.152Z</time></trkpt><trkpt lat="43.8226664" lon="11.499868"><ele>188.0</ele><time>2026-04-11T13:00:28.152Z</time></trkpt><trkpt lat="43.822738" lon="11.4999801"><ele>188.0</ele><time>2026-04-11T13:00:29.152Z</time></trkpt><trkpt lat="43.8227807" lon="11.5001012"><ele>188.0</ele><time>2026-04-11T13:00:30.152Z</time></trkpt><trkpt lat="43.8228112" lon="11.5002256"><ele>188.0</ele><time>2026-04-11T13:00:31.152Z</time></trkpt><trkpt lat="43.82283" lon="11.5003678"><ele>188.0</ele><time>2026-04-11T13:00:32.153Z</time></trkpt><trkpt lat="43.8228364" lon="11.5005398"><ele>188.0</ele><time>2026-04-11T13:00:33.152Z</time></trkpt><trkpt lat="43.8228416" lon="11.5007148"><ele>184.4</ele><time>2026-04-11T13:00:34.152Z</time></trkpt><trkpt lat="43.8228517" lon="11.5008771"><ele>180.8</ele><time>2026-04-11T13:00:35.152Z</time></trkpt><trkpt lat="43.8228651" lon="11.5010297"><ele>177.2</ele><time>2026-04-11T13:00:36.152Z</time></trkpt><trkpt lat="43.8228783" lon="11.5011768"><ele>173.6</ele><time>2026-04-11T13:00:37.152Z</time></trkpt><trkpt lat="43.8228954" lon="11.5013227"><ele>170.0</ele><time>2026-04-11T13:00:38.152Z</time></trkpt><trkpt lat="43.8229175" lon="11.5014864"><ele>167.75</ele><time>2026-04-11T13:00:39.152Z</time></trkpt><trkpt lat="43.8229558" lon="11.5016437"><ele>165.5</ele><time>2026-04-11T13:00:40.152Z</time></trkpt><trkpt lat="43.8230076" lon="11.5018018"><ele>163.25</ele><time>2026-04-11T13:00:41.152Z</time></trkpt><trkpt lat="43.8230713" lon="11.5019522"><ele>161.0</ele><time>2026-04-11T13:00:42.152Z</time></trkpt><trkpt lat="43.8231469" lon="11.5020947"><ele>159.75</ele><time>2026-04-11T13:00:43.152Z</time></trkpt><trkpt lat="43.8232347" lon="11.5022166"><ele>158.5</ele><time>2026-04-11T13:00:44.152Z</time></trkpt><trkpt lat="43.8233345" lon="11.5023054"><ele>157.25</ele><time>2026-04-11T13:00:45.152Z</time></trkpt><trkpt lat="43.8234442" lon="11.5023828"><ele>156.0</ele><time>2026-04-11T13:00:46.152Z</time></trkpt><trkpt lat="43.8235514" lon="11.5024578"><ele>158.4</ele><time>2026-04-11T13:00:47.152Z</time></trkpt><trkpt lat="43.8236504" lon="11.502529"><ele>160.8</ele><time>2026-04-11T13:00:48.152Z</time></trkpt><trkpt lat="43.8237445" lon="11.5026051"><ele>163.20000000000002</ele><time>2026-04-11T13:00:49.152Z</time></trkpt><trkpt lat="43.8238379" lon="11.5026777"><ele>165.6</ele><time>2026-04-11T13:00:50.152Z</time></trkpt><trkpt lat="43.8239362" lon="11.5027488"><ele>168.0</ele><time>2026-04-11T13:00:51.153Z</time></trkpt><trkpt lat="43.8240319" lon="11.5028206"><ele>168.0</ele><time>2026-04-11T13:00:52.152Z</time></trkpt><trkpt lat="43.8241309" lon="11.5028988"><ele>168.0</ele><time>2026-04-11T13:00:53.152Z</time></trkpt><trkpt lat="43.8242399" lon="11.5029845"><ele>168.0</ele><time>2026-04-11T13:00:54.153Z</time></trkpt><trkpt lat="43.8243633" lon="11.5030847"><ele>168.0</ele><time>2026-04-11T13:00:55.152Z</time></trkpt><trkpt lat="43.8244852" lon="11.5031985"><ele>169.0</ele><time>2026-04-11T13:00:56.153Z</time></trkpt><trkpt lat="43.8245945" lon="11.5033184"><ele>170.0</ele><time>2026-04-11T13:00:57.152Z</time></trkpt><trkpt lat="43.8246915" lon="11.503452"><ele>171.0</ele><time>2026-04-11T13:00:58.152Z</time></trkpt><trkpt lat="43.8247726" lon="11.503601"><ele>172.0</ele><time>2026-04-11T13:00:59.152Z</time></trkpt><trkpt lat="43.8248376" lon="11.503792"><ele>172.0</ele><time>2026-04-11T13:01:00.152Z</time></trkpt><trkpt lat="43.8248997" lon="11.5039959"><ele>172.0</ele><time>2026-04-11T13:01:01.153Z</time></trkpt><trkpt lat="43.8249619" lon="11.5041886"><ele>172.0</ele><time>2026-04-11T13:01:02.152Z</time></trkpt><trkpt lat="43.8250248" lon="11.5044098"><ele>169.66666666666669</ele><time>2026-04-11T13:01:03.152Z</time></trkpt><trkpt lat="43.825086" lon="11.5046404"><ele>167.33333333333334</ele><time>2026-04-11T13:01:04.152Z</time></trkpt><trkpt lat="43.8251419" lon="11.5048616"><ele>165.0</ele><time>2026-04-11T13:01:05.152Z</time></trkpt><trkpt lat="43.8251853" lon="11.5050664"><ele>168.5</ele><time>2026-04-11T13:01:06.152Z</time></trkpt><trkpt lat="43.8252172" lon="11.5052583"><ele>172.0</ele><time>2026-04-11T13:01:07.152Z</time></trkpt><trkpt lat="43.825227" lon="11.5054267"><ele>175.5</ele><time>2026-04-11T13:01:08.152Z</time></trkpt><trkpt lat="43.8252102" lon="11.505565"><ele>179.0</ele><time>2026-04-11T13:01:09.152Z</time></trkpt><trkpt lat="43.8251896" lon="11.5056887"><ele>179.0</ele><time>2026-04-11T13:01:10.152Z</time></trkpt><trkpt lat="43.825163" lon="11.5057871"><ele>179.0</ele><time>2026-04-11T13:01:11.153Z</time></trkpt><trkpt lat="43.8251479" lon="11.5058737"><ele>179.0</ele><time>2026-04-11T13:01:12.152Z</time></trkpt><trkpt lat="43.8251709" lon="11.5059882"><ele>179.0</ele><time>2026-04-11T13:01:15.152Z</time></trkpt><trkpt lat="43.8252578" lon="11.5060543"><ele>179.0</ele><time>2026-04-11T13:01:17.152Z</time></trkpt><trkpt lat="43.8253202" lon="11.5060825"><ele>179.0</ele><time>2026-04-11T13:01:18.152Z</time></trkpt><trkpt lat="43.8254362" lon="11.5061227"><ele>179.0</ele><time>2026-04-11T13:01:20.152Z</time></trkpt><trkpt lat="43.8255481" lon="11.5061378"><ele>179.0</ele><time>2026-04-11T13:01:22.152Z</time></trkpt><trkpt lat="43.8256502" lon="11.5061717"><ele>179.0</ele><time>2026-04-11T13:01:24.153Z</time></trkpt><trkpt lat="43.8257212" lon="11.5062326"><ele>179.0</ele><time>2026-04-11T13:01:26.153Z</time></trkpt><trkpt lat="43.8257538" lon="11.5063603"><ele>179.0</ele><time>2026-04-11T13:01:30.152Z</time></trkpt><trkpt lat="43.8257388" lon="11.506523"><ele>180.2857142857143</ele><time>2026-04-11T13:01:32.152Z</time></trkpt><trkpt lat="43.8257205" lon="11.5066141"><ele>181.57142857142858</ele><time>2026-04-11T13:01:33.152Z</time></trkpt><trkpt lat="43.8257029" lon="11.5067015"><ele>182.85714285714286</ele><time>2026-04-11T13:01:34.152Z</time></trkpt><trkpt lat="43.8256831" lon="11.5067855"><ele>184.14285714285717</ele><time>2026-04-11T13:01:35.152Z</time></trkpt><trkpt lat="43.8256424" lon="11.5068957"><ele>185.42857142857142</ele><time>2026-04-11T13:01:37.152Z</time></trkpt><trkpt lat="43.8256167" lon="11.5069783"><ele>186.71428571428572</ele><time>2026-04-11T13:01:40.152Z</time></trkpt><trkpt lat="43.825585" lon="11.5070617"><ele>188.0</ele><time>2026-04-11T13:01:51.152Z</time></trkpt><trkpt lat="43.8255683" lon="11.5071717"><ele>188.0</ele><time>2026-04-11T13:01:55.152Z</time></trkpt><trkpt lat="43.8256017" lon="11.5070783"><ele>188.0</ele><time>2026-04-11T13:02:14.152Z</time></trkpt><trkpt lat="43.82562" lon="11.5069867"><ele>188.0</ele><time>2026-04-11T13:02:20.153Z</time></trkpt><trkpt lat="43.8256483" lon="11.506895"><ele>188.0</ele><time>2026-04-11T13:02:22.152Z</time></trkpt><trkpt lat="43.8256783" lon="11.5067983"><ele>188.0</ele><time>2026-04-11T13:02:24.152Z</time></trkpt><trkpt lat="43.82571" lon="11.5067033"><ele>188.0</ele><time>2026-04-11T13:02:26.151Z</time></trkpt><trkpt lat="43.8257317" lon="11.506605"><ele>188.0</ele><time>2026-04-11T13:02:28.153Z</time></trkpt><trkpt lat="43.825755" lon="11.5065033"><ele>188.0</ele><time>2026-04-11T13:02:30.153Z</time></trkpt><trkpt lat="43.8257717" lon="11.5063833"><ele>188.0</ele><time>2026-04-11T13:02:33.152Z</time></trkpt><trkpt lat="43.8257533" lon="11.5062783"><ele>188.0</ele><time>2026-04-11T13:02:37.152Z</time></trkpt><trkpt lat="43.8257867" lon="11.5061633"><ele>188.0</ele><time>2026-04-11T13:03:14.152Z</time></trkpt><trkpt lat="43.825825" lon="11.50607"><ele>188.0</ele><time>2026-04-11T13:03:17.152Z</time></trkpt><trkpt lat="43.825855" lon="11.5059817"><ele>188.0</ele><time>2026-04-11T13:03:21.153Z</time></trkpt><trkpt lat="43.82589" lon="11.505885"><ele>186.5</ele><time>2026-04-11T13:03:24.152Z</time></trkpt><trkpt lat="43.8259267" lon="11.50578"><ele>185.0</ele><time>2026-04-11T13:03:26.152Z</time></trkpt><trkpt lat="43.8259817" lon="11.5056617"><ele>183.5</ele><time>2026-04-11T13:03:28.151Z</time></trkpt><trkpt lat="43.82601" lon="11.5055683"><ele>182.0</ele><time>2026-04-11T13:03:32.151Z</time></trkpt><trkpt lat="43.8260467" lon="11.505475"><ele>180.5</ele><time>2026-04-11T13:03:36.151Z</time></trkpt><trkpt lat="43.82609" lon="11.5054017"><ele>179.0</ele><time>2026-04-11T13:03:39.151Z</time></trkpt><trkpt lat="43.8261317" lon="11.505315"><ele>183.0</ele><time>2026-04-11T13:03:41.151Z</time></trkpt><trkpt lat="43.826175" lon="11.5052217"><ele>187.0</ele><time>2026-04-11T13:03:43.151Z</time></trkpt><trkpt lat="43.8262067" lon="11.505135"><ele>191.0</ele><time>2026-04-11T13:03:45.151Z</time></trkpt><trkpt lat="43.82623" lon="11.50502"><ele>195.0</ele><time>2026-04-11T13:03:48.151Z</time></trkpt><trkpt lat="43.82622" lon="11.5049167"><ele>199.00000000000003</ele><time>2026-04-11T13:03:55.151Z</time></trkpt><trkpt lat="43.8262333" lon="11.5048183"><ele>203.0</ele><time>2026-04-11T13:03:58.151Z</time></trkpt><trkpt lat="43.82625" lon="11.50472"><ele>203.00000000000003</ele><time>2026-04-11T13:04:01.151Z</time></trkpt><trkpt lat="43.826305" lon="11.5046283"><ele>203.0</ele><time>2026-04-11T13:04:05.151Z</time></trkpt><trkpt lat="43.8263467" lon="11.5045467"><ele>203.0</ele><time>2026-04-11T13:04:08.152Z</time></trkpt><trkpt lat="43.82644" lon="11.5045217"><ele>203.0</ele><time>2026-04-11T13:04:23.151Z</time></trkpt><trkpt lat="43.8265017" lon="11.50457"><ele>203.00000000000003</ele><time>2026-04-11T13:04:26.151Z</time></trkpt><trkpt lat="43.8265667" lon="11.50461"><ele>203.0</ele><time>2026-04-11T13:04:29.151Z</time></trkpt><trkpt lat="43.8266367" lon="11.5046517"><ele>203.00000000000003</ele><time>2026-04-11T13:04:32.151Z</time></trkpt><trkpt lat="43.8267067" lon="11.50469"><ele>203.0</ele><time>2026-04-11T13:04:35.151Z</time></trkpt><trkpt lat="43.8267983" lon="11.5047283"><ele>203.0</ele><time>2026-04-11T13:04:53.151Z</time></trkpt><trkpt lat="43.8268617" lon="11.5047533"><ele>203.0</ele><time>2026-04-11T13:04:56.151Z</time></trkpt><trkpt lat="43.8269367" lon="11.504765"><ele>203.00000000000003</ele><time>2026-04-11T13:05:00.151Z</time></trkpt><trkpt lat="43.8270043" lon="11.5047325"><ele>203.0</ele><time>2026-04-11T13:05:05.198Z</time></trkpt><trkpt lat="43.8270727" lon="11.5047518"><ele>239.0</ele><time>2026-04-11T13:05:12.221Z</time></trkpt><trkpt lat="43.8271378" lon="11.5047673"><ele>239.0</ele><time>2026-04-11T13:05:17.231Z</time></trkpt><trkpt lat="43.8272263" lon="11.5047812"><ele>239.0</ele><time>2026-04-11T13:05:32.237Z</time></trkpt><trkpt lat="43.8272944" lon="11.5048804"><ele>239.0</ele><time>2026-04-11T13:05:41.132Z</time></trkpt></trkseg><trkseg><trkpt lat="43.827815" lon="11.5055483"><ele>271.0</ele><time>2026-04-11T13:55:43.159Z</time></trkpt><trkpt lat="43.8278983" lon="11.5056017"><ele>271.0</ele><time>2026-04-11T13:59:25.159Z</time></trkpt><trkpt lat="43.82792" lon="11.50569"><ele>271.0</ele><time>2026-04-11T13:59:58.158Z</time></trkpt><trkpt lat="43.8279633" lon="11.5057733"><ele>271.0</ele><time>2026-04-11T14:00:03.158Z</time></trkpt><trkpt lat="43.8279717" lon="11.5059383"><ele>271.0</ele><time>2026-04-11T14:01:50.158Z</time></trkpt><trkpt lat="43.8279817" lon="11.5060633"><ele>271.0</ele><time>2026-04-11T14:02:06.158Z</time></trkpt><trkpt lat="43.828015" lon="11.50616"><ele>271.0</ele><time>2026-04-11T14:02:23.158Z</time></trkpt><trkpt lat="43.82805" lon="11.506235"><ele>271.0</ele><time>2026-04-11T14:02:30.158Z</time></trkpt><trkpt lat="43.8280517" lon="11.50634"><ele>271.0</ele><time>2026-04-11T14:03:19.158Z</time></trkpt><trkpt lat="43.82804" lon="11.506445"><ele>271.0</ele><time>2026-04-11T14:03:51.158Z</time></trkpt><trkpt lat="43.828095" lon="11.5064933"><ele>271.0</ele><time>2026-04-11T14:03:55.158Z</time></trkpt><trkpt lat="43.82812" lon="11.5064117"><ele>271.0</ele><time>2026-04-11T14:11:13.157Z</time></trkpt><trkpt lat="43.828165" lon="11.506335"><ele>271.0</ele><time>2026-04-11T14:11:18.157Z</time></trkpt><trkpt lat="43.82819" lon="11.5062517"><ele>271.0</ele><time>2026-04-11T14:11:22.157Z</time></trkpt><trkpt lat="43.8282217" lon="11.50615"><ele>271.0</ele><time>2026-04-11T14:11:25.158Z</time></trkpt><trkpt lat="43.82827" lon="11.5060567"><ele>271.0</ele><time>2026-04-11T14:11:30.158Z</time></trkpt><trkpt lat="43.82832" lon="11.5059733"><ele>271.0</ele><time>2026-04-11T14:11:33.158Z</time></trkpt><trkpt lat="43.8283667" lon="11.5058883"><ele>271.0</ele><time>2026-04-11T14:11:37.157Z</time></trkpt><trkpt lat="43.8283683" lon="11.5057867"><ele>271.0</ele><time>2026-04-11T14:11:42.157Z</time></trkpt><trkpt lat="43.8283867" lon="11.5057017"><ele>271.0</ele><time>2026-04-11T14:11:45.158Z</time></trkpt><trkpt lat="43.8283917" lon="11.5056083"><ele>271.0</ele><time>2026-04-11T14:11:53.158Z</time></trkpt><trkpt lat="43.8284167" lon="11.5055117"><ele>271.0</ele><time>2026-04-11T14:11:58.157Z</time></trkpt><trkpt lat="43.8284367" lon="11.5054183"><ele>271.0</ele><time>2026-04-11T14:12:03.157Z</time></trkpt><trkpt lat="43.8284417" lon="11.5053167"><ele>271.0</ele><time>2026-04-11T14:12:08.158Z</time></trkpt><trkpt lat="43.8284483" lon="11.5052083"><ele>271.0</ele><time>2026-04-11T14:12:11.157Z</time></trkpt><trkpt lat="43.82849" lon="11.50514"><ele>271.0</ele><time>2026-04-11T14:12:14.157Z</time></trkpt><trkpt lat="43.82855" lon="11.5052317"><ele>271.6</ele><time>2026-04-11T14:14:33.157Z</time></trkpt><trkpt lat="43.8285567" lon="11.50536"><ele>272.20000000000005</ele><time>2026-04-11T14:14:36.157Z</time></trkpt><trkpt lat="43.82857" lon="11.5054917"><ele>272.79999999999995</ele><time>2026-04-11T14:14:38.157Z</time></trkpt><trkpt lat="43.828595" lon="11.5056267"><ele>273.4</ele><time>2026-04-11T14:14:40.158Z</time></trkpt><trkpt lat="43.8286133" lon="11.50575"><ele>274.0</ele><time>2026-04-11T14:14:42.158Z</time></trkpt><trkpt lat="43.828625" lon="11.505865"><ele>275.2</ele><time>2026-04-11T14:14:44.157Z</time></trkpt><trkpt lat="43.828625" lon="11.50599"><ele>276.4</ele><time>2026-04-11T14:14:46.157Z</time></trkpt><trkpt lat="43.8286183" lon="11.5061183"><ele>277.6</ele><time>2026-04-11T14:14:48.158Z</time></trkpt><trkpt lat="43.8286483" lon="11.50623"><ele>278.8</ele><time>2026-04-11T14:14:50.157Z</time></trkpt><trkpt lat="43.8287117" lon="11.506295"><ele>280.0</ele><time>2026-04-11T14:14:52.157Z</time></trkpt><trkpt lat="43.828755" lon="11.5064233"><ele>281.5</ele><time>2026-04-11T14:15:10.158Z</time></trkpt><trkpt lat="43.8287467" lon="11.506515"><ele>283.0</ele><time>2026-04-11T14:15:18.157Z</time></trkpt><trkpt lat="43.8287533" lon="11.50662"><ele>284.5</ele><time>2026-04-11T14:15:23.157Z</time></trkpt><trkpt lat="43.828735" lon="11.5067233"><ele>286.0</ele><time>2026-04-11T14:15:27.157Z</time></trkpt><trkpt lat="43.8287333" lon="11.5068167"><ele>287.5</ele><time>2026-04-11T14:15:30.158Z</time></trkpt><trkpt lat="43.828755" lon="11.5069367"><ele>289.0</ele><time>2026-04-11T14:15:34.157Z</time></trkpt><trkpt lat="43.8287833" lon="11.5070417"><ele>290.5</ele><time>2026-04-11T14:15:38.157Z</time></trkpt><trkpt lat="43.8288067" lon="11.507145"><ele>292.0</ele><time>2026-04-11T14:15:43.157Z</time></trkpt><trkpt lat="43.8288083" lon="11.5072433"><ele>293.5</ele><time>2026-04-11T14:15:47.157Z</time></trkpt><trkpt lat="43.82881" lon="11.507345"><ele>295.0</ele><time>2026-04-11T14:15:58.157Z</time></trkpt><trkpt lat="43.82885" lon="11.5075267"><ele>296.5</ele><time>2026-04-11T14:16:25.157Z</time></trkpt><trkpt lat="43.8288517" lon="11.5076433"><ele>298.0</ele><time>2026-04-11T14:18:04.157Z</time></trkpt><trkpt lat="43.8288533" lon="11.5077333"><ele>298.0</ele><time>2026-04-11T14:18:09.157Z</time></trkpt><trkpt lat="43.8288283" lon="11.5078167"><ele>298.0</ele><time>2026-04-11T14:18:14.157Z</time></trkpt><trkpt lat="43.8288083" lon="11.50791"><ele>298.0</ele><time>2026-04-11T14:18:46.157Z</time></trkpt><trkpt lat="43.8287783" lon="11.5079883"><ele>298.0</ele><time>2026-04-11T14:18:48.157Z</time></trkpt><trkpt lat="43.8287683" lon="11.508085"><ele>298.0</ele><time>2026-04-11T14:18:51.157Z</time></trkpt><trkpt lat="43.828765" lon="11.50818"><ele>298.0</ele><time>2026-04-11T14:18:54.157Z</time></trkpt><trkpt lat="43.8287483" lon="11.5082883"><ele>298.0</ele><time>2026-04-11T14:18:57.157Z</time></trkpt><trkpt lat="43.828765" lon="11.508395"><ele>299.42857142857144</ele><time>2026-04-11T14:19:00.157Z</time></trkpt><trkpt lat="43.8287667" lon="11.5084917"><ele>300.85714285714283</ele><time>2026-04-11T14:19:03.157Z</time></trkpt><trkpt lat="43.8287426" lon="11.5085843"><ele>302.2857142857143</ele><time>2026-04-11T14:19:06.262Z</time></trkpt><trkpt lat="43.8287429" lon="11.5087047"><ele>303.7142857142857</ele><time>2026-04-11T14:19:09.268Z</time></trkpt><trkpt lat="43.8287705" lon="11.5087961"><ele>305.1428571428571</ele><time>2026-04-11T14:19:11.172Z</time></trkpt><trkpt lat="43.8288093" lon="11.5088836"><ele>306.57142857142856</ele><time>2026-04-11T14:19:13.276Z</time></trkpt><trkpt lat="43.8288472" lon="11.5089713"><ele>308.0</ele><time>2026-04-11T14:19:16.283Z</time></trkpt><trkpt lat="43.8289137" lon="11.5090141"><ele>310.33333333333337</ele><time>2026-04-11T14:19:52.165Z</time></trkpt><trkpt lat="43.8289553" lon="11.509107"><ele>312.6666666666667</ele><time>2026-04-11T14:19:54.183Z</time></trkpt><trkpt lat="43.8290089" lon="11.5092867"><ele>315.0</ele><time>2026-04-11T14:19:55.157Z</time></trkpt><trkpt lat="43.8290375" lon="11.5093774"><ele>317.3333333333333</ele><time>2026-04-11T14:19:56.157Z</time></trkpt><trkpt lat="43.8290723" lon="11.5094673"><ele>319.66666666666663</ele><time>2026-04-11T14:19:57.157Z</time></trkpt><trkpt lat="43.8291115" lon="11.5095421"><ele>322.0</ele><time>2026-04-11T14:19:58.157Z</time></trkpt><trkpt lat="43.8291706" lon="11.5096086"><ele>324.40000000000003</ele><time>2026-04-11T14:20:00.157Z</time></trkpt><trkpt lat="43.8292437" lon="11.5096507"><ele>326.8</ele><time>2026-04-11T14:20:02.157Z</time></trkpt><trkpt lat="43.8293395" lon="11.5096445"><ele>329.2</ele><time>2026-04-11T14:20:04.157Z</time></trkpt><trkpt lat="43.829442" lon="11.5096194"><ele>331.6</ele><time>2026-04-11T14:20:06.157Z</time></trkpt><trkpt lat="43.8295417" lon="11.509595"><ele>334.0</ele><time>2026-04-11T14:20:08.157Z</time></trkpt><trkpt lat="43.8296367" lon="11.5096117"><ele>334.0</ele><time>2026-04-11T14:20:10.157Z</time></trkpt><trkpt lat="43.8297167" lon="11.5096883"><ele>334.0</ele><time>2026-04-11T14:20:12.157Z</time></trkpt><trkpt lat="43.8297767" lon="11.509795"><ele>334.0</ele><time>2026-04-11T14:20:14.157Z</time></trkpt><trkpt lat="43.8298267" lon="11.509895"><ele>334.0</ele><time>2026-04-11T14:20:16.157Z</time></trkpt><trkpt lat="43.8299033" lon="11.5100067"><ele>334.0</ele><time>2026-04-11T14:20:18.157Z</time></trkpt><trkpt lat="43.8299617" lon="11.5100833"><ele>334.0</ele><time>2026-04-11T14:20:19.157Z</time></trkpt><trkpt lat="43.8300067" lon="11.51015"><ele>334.0</ele><time>2026-04-11T14:20:20.157Z</time></trkpt><trkpt lat="43.830065" lon="11.5103017"><ele>334.0</ele><time>2026-04-11T14:20:22.158Z</time></trkpt><trkpt lat="43.8301033" lon="11.5103817"><ele>334.0</ele><time>2026-04-11T14:20:23.157Z</time></trkpt><trkpt lat="43.8301833" lon="11.5104683"><ele>334.0</ele><time>2026-04-11T14:20:25.157Z</time></trkpt><trkpt lat="43.830285" lon="11.51047"><ele>335.5</ele><time>2026-04-11T14:20:27.157Z</time></trkpt><trkpt lat="43.8303467" lon="11.5103983"><ele>337.0</ele><time>2026-04-11T14:20:29.157Z</time></trkpt><trkpt lat="43.8304467" lon="11.5103233"><ele>338.5</ele><time>2026-04-11T14:20:31.157Z</time></trkpt><trkpt lat="43.8305533" lon="11.51031"><ele>340.0</ele><time>2026-04-11T14:20:33.157Z</time></trkpt><trkpt lat="43.8306167" lon="11.510335"><ele>341.5</ele><time>2026-04-11T14:20:34.158Z</time></trkpt><trkpt lat="43.830685" lon="11.510385"><ele>343.0</ele><time>2026-04-11T14:20:35.157Z</time></trkpt><trkpt lat="43.8307367" lon="11.510445"><ele>343.0</ele><time>2026-04-11T14:20:36.157Z</time></trkpt><trkpt lat="43.8308117" lon="11.5105717"><ele>343.0</ele><time>2026-04-11T14:20:38.157Z</time></trkpt><trkpt lat="43.8308483" lon="11.5106467"><ele>343.0</ele><time>2026-04-11T14:20:39.157Z</time></trkpt><trkpt lat="43.8308883" lon="11.510725"><ele>343.0</ele><time>2026-04-11T14:20:40.157Z</time></trkpt><trkpt lat="43.83094" lon="11.5107833"><ele>343.0</ele><time>2026-04-11T14:20:41.157Z</time></trkpt><trkpt lat="43.8310283" lon="11.5108783"><ele>343.0</ele><time>2026-04-11T14:20:43.157Z</time></trkpt><trkpt lat="43.8310817" lon="11.510935"><ele>343.79999999999995</ele><time>2026-04-11T14:20:44.158Z</time></trkpt><trkpt lat="43.831135" lon="11.511"><ele>344.6</ele><time>2026-04-11T14:20:45.158Z</time></trkpt><trkpt lat="43.8312033" lon="11.511125"><ele>345.4</ele><time>2026-04-11T14:20:47.158Z</time></trkpt><trkpt lat="43.8312817" lon="11.511235"><ele>346.20000000000005</ele><time>2026-04-11T14:20:49.157Z</time></trkpt><trkpt lat="43.8313933" lon="11.5112517"><ele>347.0</ele><time>2026-04-11T14:20:51.157Z</time></trkpt><trkpt lat="43.83146" lon="11.5111917"><ele>347.0</ele><time>2026-04-11T14:20:53.157Z</time></trkpt><trkpt lat="43.8315933" lon="11.511185"><ele>347.0</ele><time>2026-04-11T14:20:55.157Z</time></trkpt><trkpt lat="43.8316583" lon="11.5112"><ele>347.0</ele><time>2026-04-11T14:20:56.157Z</time></trkpt><trkpt lat="43.83172" lon="11.51124"><ele>347.0</ele><time>2026-04-11T14:20:57.158Z</time></trkpt><trkpt lat="43.831795" lon="11.5113417"><ele>347.0</ele><time>2026-04-11T14:20:59.158Z</time></trkpt><trkpt lat="43.8318217" lon="11.5114533"><ele>343.83333333333337</ele><time>2026-04-11T14:21:01.157Z</time></trkpt><trkpt lat="43.8318367" lon="11.5115717"><ele>340.6666666666667</ele><time>2026-04-11T14:21:03.158Z</time></trkpt><trkpt lat="43.8318633" lon="11.5117033"><ele>337.5</ele><time>2026-04-11T14:21:05.157Z</time></trkpt><trkpt lat="43.8318883" lon="11.511805"><ele>334.3333333333333</ele><time>2026-04-11T14:21:07.157Z</time></trkpt><trkpt lat="43.831985" lon="11.511815"><ele>331.16666666666663</ele><time>2026-04-11T14:21:10.157Z</time></trkpt><trkpt lat="43.8320583" lon="11.51175"><ele>328.0</ele><time>2026-04-11T14:21:12.158Z</time></trkpt><trkpt lat="43.8321333" lon="11.51168"><ele>328.0</ele><time>2026-04-11T14:21:14.157Z</time></trkpt><trkpt lat="43.8322467" lon="11.5116517"><ele>328.0</ele><time>2026-04-11T14:21:16.157Z</time></trkpt><trkpt lat="43.8323533" lon="11.511645"><ele>328.0</ele><time>2026-04-11T14:21:18.157Z</time></trkpt><trkpt lat="43.8324517" lon="11.5116717"><ele>328.0</ele><time>2026-04-11T14:21:20.157Z</time></trkpt><trkpt lat="43.8325517" lon="11.51173"><ele>328.0</ele><time>2026-04-11T14:21:22.156Z</time></trkpt><trkpt lat="43.8326467" lon="11.5117667"><ele>327.5</ele><time>2026-04-11T14:21:24.156Z</time></trkpt><trkpt lat="43.8327717" lon="11.5117767"><ele>327.0</ele><time>2026-04-11T14:21:26.156Z</time></trkpt><trkpt lat="43.832835" lon="11.5117617"><ele>326.5</ele><time>2026-04-11T14:21:27.156Z</time></trkpt><trkpt lat="43.8329" lon="11.5117417"><ele>326.0</ele><time>2026-04-11T14:21:28.156Z</time></trkpt><trkpt lat="43.8329917" lon="11.5117183"><ele>325.5</ele><time>2026-04-11T14:21:29.156Z</time></trkpt><trkpt lat="43.8330667" lon="11.5116983"><ele>325.0</ele><time>2026-04-11T14:21:30.156Z</time></trkpt><trkpt lat="43.833145" lon="11.51168"><ele>325.0</ele><time>2026-04-11T14:21:31.156Z</time></trkpt><trkpt lat="43.83323" lon="11.51166"><ele>325.0</ele><time>2026-04-11T14:21:32.156Z</time></trkpt><trkpt lat="43.8333217" lon="11.51163"><ele>325.0</ele><time>2026-04-11T14:21:33.156Z</time></trkpt><trkpt lat="43.833405" lon="11.5116033"><ele>325.0</ele><time>2026-04-11T14:21:34.156Z</time></trkpt><trkpt lat="43.8334917" lon="11.5115817"><ele>325.0</ele><time>2026-04-11T14:21:35.156Z</time></trkpt><trkpt lat="43.833575" lon="11.5115533"><ele>325.0</ele><time>2026-04-11T14:21:36.156Z</time></trkpt><trkpt lat="43.833645" lon="11.51152"><ele>325.0</ele><time>2026-04-11T14:21:37.156Z</time></trkpt><trkpt lat="43.8337083" lon="11.5115033"><ele>325.0</ele><time>2026-04-11T14:21:38.156Z</time></trkpt><trkpt lat="43.833795" lon="11.51152"><ele>325.0</ele><time>2026-04-11T14:21:40.156Z</time></trkpt><trkpt lat="43.8338467" lon="11.5116067"><ele>325.0</ele><time>2026-04-11T14:21:43.156Z</time></trkpt><trkpt lat="43.8338383" lon="11.511695"><ele>325.0</ele><time>2026-04-11T14:22:14.156Z</time></trkpt><trkpt lat="43.833815" lon="11.5118433"><ele>325.0</ele><time>2026-04-11T14:22:17.157Z</time></trkpt><trkpt lat="43.833805" lon="11.5119333"><ele>325.0</ele><time>2026-04-11T14:22:18.156Z</time></trkpt><trkpt lat="43.8338017" lon="11.5120233"><ele>325.0</ele><time>2026-04-11T14:22:19.156Z</time></trkpt><trkpt lat="43.8337967" lon="11.5121883"><ele>325.0</ele><time>2026-04-11T14:22:21.156Z</time></trkpt><trkpt lat="43.8337967" lon="11.5123517"><ele>325.0</ele><time>2026-04-11T14:22:23.156Z</time></trkpt><trkpt lat="43.8337917" lon="11.5124867"><ele>325.0</ele><time>2026-04-11T14:22:25.156Z</time></trkpt><trkpt lat="43.8337783" lon="11.51261"><ele>325.4</ele><time>2026-04-11T14:22:27.156Z</time></trkpt><trkpt lat="43.833765" lon="11.5127517"><ele>325.8</ele><time>2026-04-11T14:22:29.156Z</time></trkpt><trkpt lat="43.8337583" lon="11.5128433"><ele>326.20000000000005</ele><time>2026-04-11T14:22:30.156Z</time></trkpt><trkpt lat="43.8337217" lon="11.51301"><ele>326.6</ele><time>2026-04-11T14:22:32.157Z</time></trkpt><trkpt lat="43.8336633" lon="11.5131567"><ele>327.0</ele><time>2026-04-11T14:22:34.156Z</time></trkpt><trkpt lat="43.8336" lon="11.5132896"><ele>328.20000000000005</ele><time>2026-04-11T14:22:36.156Z</time></trkpt><trkpt lat="43.8335709" lon="11.5134465"><ele>329.4</ele><time>2026-04-11T14:22:38.156Z</time></trkpt><trkpt lat="43.8335808" lon="11.5136141"><ele>330.6</ele><time>2026-04-11T14:22:40.156Z</time></trkpt><trkpt lat="43.8335903" lon="11.5137023"><ele>331.79999999999995</ele><time>2026-04-11T14:22:41.157Z</time></trkpt><trkpt lat="43.8336125" lon="11.5138649"><ele>333.0</ele><time>2026-04-11T14:22:43.156Z</time></trkpt><trkpt lat="43.8336051" lon="11.513989"><ele>335.5</ele><time>2026-04-11T14:22:45.156Z</time></trkpt><trkpt lat="43.8335608" lon="11.5140664"><ele>338.0</ele><time>2026-04-11T14:22:48.156Z</time></trkpt><trkpt lat="43.8335556" lon="11.5141895"><ele>340.5</ele><time>2026-04-11T14:22:52.156Z</time></trkpt><trkpt lat="43.833535" lon="11.5142983"><ele>343.0</ele><time>2026-04-11T14:23:09.156Z</time></trkpt><trkpt lat="43.8335167" lon="11.51443"><ele>345.5</ele><time>2026-04-11T14:23:12.156Z</time></trkpt><trkpt lat="43.83352" lon="11.5145517"><ele>348.0</ele><time>2026-04-11T14:23:15.156Z</time></trkpt><trkpt lat="43.8335533" lon="11.5146833"><ele>351.3333333333333</ele><time>2026-04-11T14:23:18.156Z</time></trkpt><trkpt lat="43.8335891" lon="11.5147821"><ele>354.6666666666667</ele><time>2026-04-11T14:23:20.28Z</time></trkpt><trkpt lat="43.8336086" lon="11.5149172"><ele>358.0</ele><time>2026-04-11T14:23:22.184Z</time></trkpt><trkpt lat="43.8335908" lon="11.5150201"><ele>361.33333333333337</ele><time>2026-04-11T14:23:24.188Z</time></trkpt><trkpt lat="43.8335447" lon="11.5151258"><ele>364.6666666666667</ele><time>2026-04-11T14:23:26.244Z</time></trkpt><trkpt lat="43.8334948" lon="11.5152195"><ele>368.0</ele><time>2026-04-11T14:23:28.196Z</time></trkpt><trkpt lat="43.8334655" lon="11.5153111"><ele>374.0</ele><time>2026-04-11T14:23:31.201Z</time></trkpt><trkpt lat="43.8334668" lon="11.5154104"><ele>380.0</ele><time>2026-04-11T14:23:35.208Z</time></trkpt><trkpt lat="43.8336683" lon="11.515555"><ele>386.0</ele><time>2026-04-11T14:24:09.156Z</time></trkpt><trkpt lat="43.8337567" lon="11.5156033"><ele>392.0</ele><time>2026-04-11T14:24:11.156Z</time></trkpt><trkpt lat="43.83383" lon="11.5156517"><ele>391.99999999999994</ele><time>2026-04-11T14:24:13.156Z</time></trkpt><trkpt lat="43.8339067" lon="11.515695"><ele>392.0</ele><time>2026-04-11T14:24:15.156Z</time></trkpt><trkpt lat="43.8339683" lon="11.51572"><ele>392.0</ele><time>2026-04-11T14:24:17.156Z</time></trkpt><trkpt lat="43.8340533" lon="11.5157433"><ele>392.0</ele><time>2026-04-11T14:24:20.156Z</time></trkpt><trkpt lat="43.83414" lon="11.5157817"><ele>391.99999999999994</ele><time>2026-04-11T14:24:22.156Z</time></trkpt><trkpt lat="43.83426" lon="11.5158033"><ele>392.0</ele><time>2026-04-11T14:24:24.156Z</time></trkpt><trkpt lat="43.8343733" lon="11.515815"><ele>391.8</ele><time>2026-04-11T14:24:26.156Z</time></trkpt><trkpt lat="43.8344767" lon="11.5158217"><ele>391.6</ele><time>2026-04-11T14:24:28.157Z</time></trkpt><trkpt lat="43.8345533" lon="11.5158283"><ele>391.40000000000003</ele><time>2026-04-11T14:24:30.156Z</time></trkpt><trkpt lat="43.8346283" lon="11.515855"><ele>391.20000000000005</ele><time>2026-04-11T14:24:33.156Z</time></trkpt><trkpt lat="43.8347433" lon="11.5159133"><ele>391.0</ele><time>2026-04-11T14:24:42.156Z</time></trkpt><trkpt lat="43.8348133" lon="11.5159183"><ele>391.00000000000006</ele><time>2026-04-11T14:24:44.157Z</time></trkpt><trkpt lat="43.8348983" lon="11.515905"><ele>391.0</ele><time>2026-04-11T14:24:46.157Z</time></trkpt><trkpt lat="43.8349817" lon="11.515895"><ele>391.0</ele><time>2026-04-11T14:24:48.156Z</time></trkpt><trkpt lat="43.8350567" lon="11.5158817"><ele>391.0</ele><time>2026-04-11T14:24:50.156Z</time></trkpt><trkpt lat="43.8351467" lon="11.5158683"><ele>391.00000000000006</ele><time>2026-04-11T14:24:53.156Z</time></trkpt><trkpt lat="43.8352017" lon="11.51594"><ele>391.0</ele><time>2026-04-11T14:24:56.156Z</time></trkpt><trkpt lat="43.8352383" lon="11.5160217"><ele>389.83333333333337</ele><time>2026-04-11T14:24:58.156Z</time></trkpt><trkpt lat="43.8353373" lon="11.5160668"><ele>388.6666666666667</ele><time>2026-04-11T14:25:02.234Z</time></trkpt><trkpt lat="43.8354038" lon="11.516106"><ele>387.5</ele><time>2026-04-11T14:25:04.238Z</time></trkpt><trkpt lat="43.8354979" lon="11.5161424"><ele>386.33333333333337</ele><time>2026-04-11T14:25:06.241Z</time></trkpt><trkpt lat="43.8355561" lon="11.516205"><ele>385.1666666666667</ele><time>2026-04-11T14:25:09.248Z</time></trkpt><trkpt lat="43.835618" lon="11.5162509"><ele>384.0</ele><time>2026-04-11T14:25:19.266Z</time></trkpt><trkpt lat="43.8356717" lon="11.51632"><ele>386.6666666666667</ele><time>2026-04-11T14:25:37.157Z</time></trkpt><trkpt lat="43.835695" lon="11.5164167"><ele>389.33333333333337</ele><time>2026-04-11T14:25:40.156Z</time></trkpt><trkpt lat="43.8356167" lon="11.5164383"><ele>392.0</ele><time>2026-04-11T14:25:45.156Z</time></trkpt><trkpt lat="43.8355283" lon="11.5164017"><ele>394.6666666666667</ele><time>2026-04-11T14:25:48.156Z</time></trkpt><trkpt lat="43.8354317" lon="11.51637"><ele>397.33333333333337</ele><time>2026-04-11T14:25:50.156Z</time></trkpt><trkpt lat="43.8353583" lon="11.5163433"><ele>400.0</ele><time>2026-04-11T14:25:51.157Z</time></trkpt><trkpt lat="43.835275" lon="11.5163233"><ele>400.00000000000006</ele><time>2026-04-11T14:25:52.156Z</time></trkpt><trkpt lat="43.83519" lon="11.5163083"><ele>400.0</ele><time>2026-04-11T14:25:53.156Z</time></trkpt><trkpt lat="43.8350967" lon="11.5162983"><ele>400.0</ele><time>2026-04-11T14:25:54.156Z</time></trkpt><trkpt lat="43.8350133" lon="11.5162967"><ele>400.0</ele><time>2026-04-11T14:25:55.156Z</time></trkpt><trkpt lat="43.8349317" lon="11.516305"><ele>400.00000000000006</ele><time>2026-04-11T14:25:56.156Z</time></trkpt><trkpt lat="43.834855" lon="11.516325"><ele>400.0</ele><time>2026-04-11T14:25:57.156Z</time></trkpt><trkpt lat="43.8347867" lon="11.5163617"><ele>402.00000000000006</ele><time>2026-04-11T14:25:58.156Z</time></trkpt><trkpt lat="43.83471" lon="11.5163967"><ele>404.0</ele><time>2026-04-11T14:25:59.156Z</time></trkpt><trkpt lat="43.8346367" lon="11.5164167"><ele>406.0</ele><time>2026-04-11T14:26:00.157Z</time></trkpt><trkpt lat="43.834565" lon="11.5164167"><ele>408.0</ele><time>2026-04-11T14:26:01.156Z</time></trkpt><trkpt lat="43.8344867" lon="11.5163817"><ele>410.00000000000006</ele><time>2026-04-11T14:26:02.157Z</time></trkpt><trkpt lat="43.8344183" lon="11.5163317"><ele>412.0</ele><time>2026-04-11T14:26:03.156Z</time></trkpt><trkpt lat="43.8343483" lon="11.516295"><ele>412.6</ele><time>2026-04-11T14:26:04.156Z</time></trkpt><trkpt lat="43.834265" lon="11.5162867"><ele>413.20000000000005</ele><time>2026-04-11T14:26:05.156Z</time></trkpt><trkpt lat="43.83417" lon="11.5163117"><ele>413.8</ele><time>2026-04-11T14:26:06.156Z</time></trkpt><trkpt lat="43.8340817" lon="11.5163433"><ele>414.4</ele><time>2026-04-11T14:26:07.156Z</time></trkpt><trkpt lat="43.8339817" lon="11.516375"><ele>415.0</ele><time>2026-04-11T14:26:08.156Z</time></trkpt><trkpt lat="43.8338767" lon="11.516415"><ele>415.00000000000006</ele><time>2026-04-11T14:26:09.156Z</time></trkpt><trkpt lat="43.8337733" lon="11.5164567"><ele>415.0</ele><time>2026-04-11T14:26:10.157Z</time></trkpt><trkpt lat="43.8336867" lon="11.5164983"><ele>415.0</ele><time>2026-04-11T14:26:11.156Z</time></trkpt><trkpt lat="43.833615" lon="11.5165533"><ele>415.0</ele><time>2026-04-11T14:26:12.156Z</time></trkpt><trkpt lat="43.833555" lon="11.5166167"><ele>415.00000000000006</ele><time>2026-04-11T14:26:13.156Z</time></trkpt><trkpt lat="43.8334867" lon="11.516695"><ele>415.0</ele><time>2026-04-11T14:26:14.157Z</time></trkpt><trkpt lat="43.8334117" lon="11.5167783"><ele>415.33333333333337</ele><time>2026-04-11T14:26:15.156Z</time></trkpt><trkpt lat="43.8333367" lon="11.516845"><ele>415.6666666666667</ele><time>2026-04-11T14:26:16.156Z</time></trkpt><trkpt lat="43.8332683" lon="11.51688"><ele>416.0</ele><time>2026-04-11T14:26:17.156Z</time></trkpt><trkpt lat="43.8331917" lon="11.516865"><ele>416.33333333333337</ele><time>2026-04-11T14:26:18.156Z</time></trkpt><trkpt lat="43.83313" lon="11.5167983"><ele>416.6666666666667</ele><time>2026-04-11T14:26:19.156Z</time></trkpt><trkpt lat="43.8330783" lon="11.51669"><ele>417.0</ele><time>2026-04-11T14:26:20.156Z</time></trkpt><trkpt lat="43.8330483" lon="11.51656"><ele>417.0</ele><time>2026-04-11T14:26:21.156Z</time></trkpt><trkpt lat="43.83305" lon="11.516445"><ele>417.0</ele><time>2026-04-11T14:26:22.156Z</time></trkpt><trkpt lat="43.8330417" lon="11.51635"><ele>417.0</ele><time>2026-04-11T14:26:23.156Z</time></trkpt><trkpt lat="43.8329967" lon="11.5162433"><ele>417.0</ele><time>2026-04-11T14:26:24.156Z</time></trkpt><trkpt lat="43.832935" lon="11.516155"><ele>417.0</ele><time>2026-04-11T14:26:25.156Z</time></trkpt><trkpt lat="43.8328517" lon="11.516085"><ele>417.0</ele><time>2026-04-11T14:26:26.156Z</time></trkpt><trkpt lat="43.83275" lon="11.51602"><ele>415.75</ele><time>2026-04-11T14:26:27.156Z</time></trkpt><trkpt lat="43.8326283" lon="11.5159783"><ele>414.5</ele><time>2026-04-11T14:26:28.156Z</time></trkpt><trkpt lat="43.8324883" lon="11.51594"><ele>413.25</ele><time>2026-04-11T14:26:29.156Z</time></trkpt><trkpt lat="43.8323567" lon="11.5158983"><ele>412.0</ele><time>2026-04-11T14:26:30.156Z</time></trkpt><trkpt lat="43.832225" lon="11.5158483"><ele>412.0</ele><time>2026-04-11T14:26:31.156Z</time></trkpt><trkpt lat="43.8321" lon="11.51579"><ele>412.0</ele><time>2026-04-11T14:26:32.156Z</time></trkpt><trkpt lat="43.8319867" lon="11.5157217"><ele>412.0</ele><time>2026-04-11T14:26:33.156Z</time></trkpt><trkpt lat="43.8318833" lon="11.5156667"><ele>412.0</ele><time>2026-04-11T14:26:34.157Z</time></trkpt><trkpt lat="43.83179" lon="11.515635"><ele>413.6</ele><time>2026-04-11T14:26:35.156Z</time></trkpt><trkpt lat="43.8317017" lon="11.5156317"><ele>415.20000000000005</ele><time>2026-04-11T14:26:36.156Z</time></trkpt><trkpt lat="43.831615" lon="11.5156617"><ele>416.8</ele><time>2026-04-11T14:26:37.157Z</time></trkpt><trkpt lat="43.83152" lon="11.5157117"><ele>418.4</ele><time>2026-04-11T14:26:38.156Z</time></trkpt><trkpt lat="43.831415" lon="11.5157267"><ele>420.0</ele><time>2026-04-11T14:26:39.157Z</time></trkpt><trkpt lat="43.8313117" lon="11.515695"><ele>420.0</ele><time>2026-04-11T14:26:40.156Z</time></trkpt><trkpt lat="43.8312067" lon="11.5156317"><ele>420.0</ele><time>2026-04-11T14:26:41.156Z</time></trkpt><trkpt lat="43.8311" lon="11.5155567"><ele>420.0</ele><time>2026-04-11T14:26:42.156Z</time></trkpt><trkpt lat="43.8309917" lon="11.5154883"><ele>420.0</ele><time>2026-04-11T14:26:43.156Z</time></trkpt><trkpt lat="43.8308883" lon="11.5154233"><ele>420.4</ele><time>2026-04-11T14:26:44.156Z</time></trkpt><trkpt lat="43.8307967" lon="11.515365"><ele>420.8</ele><time>2026-04-11T14:26:45.156Z</time></trkpt><trkpt lat="43.83071" lon="11.5153067"><ele>421.20000000000005</ele><time>2026-04-11T14:26:46.156Z</time></trkpt><trkpt lat="43.8306167" lon="11.5152633"><ele>421.6</ele><time>2026-04-11T14:26:47.156Z</time></trkpt><trkpt lat="43.8305333" lon="11.5152467"><ele>422.0</ele><time>2026-04-11T14:26:48.157Z</time></trkpt><trkpt lat="43.83046" lon="11.515275"><ele>421.99999999999994</ele><time>2026-04-11T14:26:49.156Z</time></trkpt><trkpt lat="43.8303917" lon="11.5153383"><ele>422.0</ele><time>2026-04-11T14:26:50.156Z</time></trkpt><trkpt lat="43.83034" lon="11.51542"><ele>422.0</ele><time>2026-04-11T14:26:51.157Z</time></trkpt><trkpt lat="43.83031" lon="11.515525"><ele>422.0</ele><time>2026-04-11T14:26:52.156Z</time></trkpt><trkpt lat="43.8302767" lon="11.5156467"><ele>421.99999999999994</ele><time>2026-04-11T14:26:53.156Z</time></trkpt><trkpt lat="43.83024" lon="11.5157717"><ele>422.0</ele><time>2026-04-11T14:26:54.156Z</time></trkpt><trkpt lat="43.8301883" lon="11.5159033"><ele>424.40000000000003</ele><time>2026-04-11T14:26:55.156Z</time></trkpt><trkpt lat="43.8301333" lon="11.5160383"><ele>426.8</ele><time>2026-04-11T14:26:56.156Z</time></trkpt><trkpt lat="43.8300867" lon="11.51617"><ele>429.2</ele><time>2026-04-11T14:26:57.156Z</time></trkpt><trkpt lat="43.8300367" lon="11.516285"><ele>431.6</ele><time>2026-04-11T14:26:58.156Z</time></trkpt><trkpt lat="43.8299867" lon="11.5163883"><ele>434.0</ele><time>2026-04-11T14:26:59.156Z</time></trkpt><trkpt lat="43.8299267" lon="11.516475"><ele>436.79999999999995</ele><time>2026-04-11T14:27:00.156Z</time></trkpt><trkpt lat="43.829865" lon="11.5165467"><ele>439.59999999999997</ele><time>2026-04-11T14:27:01.156Z</time></trkpt><trkpt lat="43.82977" lon="11.5166433"><ele>442.4</ele><time>2026-04-11T14:27:03.156Z</time></trkpt><trkpt lat="43.82968" lon="11.51678"><ele>445.2</ele><time>2026-04-11T14:27:05.156Z</time></trkpt><trkpt lat="43.8296267" lon="11.51686"><ele>448.0</ele><time>2026-04-11T14:27:06.156Z</time></trkpt><trkpt lat="43.82957" lon="11.51695"><ele>448.0</ele><time>2026-04-11T14:27:07.156Z</time></trkpt><trkpt lat="43.82952" lon="11.5170267"><ele>448.0</ele><time>2026-04-11T14:27:08.156Z</time></trkpt><trkpt lat="43.8294817" lon="11.51711"><ele>448.0</ele><time>2026-04-11T14:27:09.156Z</time></trkpt><trkpt lat="43.8294517" lon="11.5171983"><ele>448.0</ele><time>2026-04-11T14:27:10.157Z</time></trkpt><trkpt lat="43.8294383" lon="11.5172883"><ele>448.0</ele><time>2026-04-11T14:27:11.156Z</time></trkpt><trkpt lat="43.8294383" lon="11.5173817"><ele>448.0</ele><time>2026-04-11T14:27:12.157Z</time></trkpt><trkpt lat="43.8294717" lon="11.5174667"><ele>448.0</ele><time>2026-04-11T14:27:13.156Z</time></trkpt><trkpt lat="43.8295367" lon="11.517565"><ele>450.0</ele><time>2026-04-11T14:27:14.156Z</time></trkpt><trkpt lat="43.829615" lon="11.5176517"><ele>451.99999999999994</ele><time>2026-04-11T14:27:15.156Z</time></trkpt><trkpt lat="43.8297033" lon="11.5177317"><ele>453.99999999999994</ele><time>2026-04-11T14:27:16.156Z</time></trkpt><trkpt lat="43.829785" lon="11.5178033"><ele>456.0</ele><time>2026-04-11T14:27:17.156Z</time></trkpt><trkpt lat="43.82986" lon="11.5178733"><ele>458.0</ele><time>2026-04-11T14:27:18.156Z</time></trkpt><trkpt lat="43.8299217" lon="11.5179467"><ele>458.2</ele><time>2026-04-11T14:27:19.156Z</time></trkpt><trkpt lat="43.8299667" lon="11.5180683"><ele>458.4</ele><time>2026-04-11T14:27:20.156Z</time></trkpt><trkpt lat="43.829995" lon="11.51818"><ele>458.59999999999997</ele><time>2026-04-11T14:27:21.156Z</time></trkpt><trkpt lat="43.8300133" lon="11.5183167"><ele>458.79999999999995</ele><time>2026-04-11T14:27:22.157Z</time></trkpt><trkpt lat="43.8300083" lon="11.518435"><ele>459.0</ele><time>2026-04-11T14:27:23.156Z</time></trkpt><trkpt lat="43.830005" lon="11.518565"><ele>459.0</ele><time>2026-04-11T14:27:24.156Z</time></trkpt><trkpt lat="43.82999" lon="11.5186883"><ele>459.0</ele><time>2026-04-11T14:27:25.156Z</time></trkpt><trkpt lat="43.8299733" lon="11.5188033"><ele>459.0</ele><time>2026-04-11T14:27:26.156Z</time></trkpt><trkpt lat="43.8299483" lon="11.5189017"><ele>459.0</ele><time>2026-04-11T14:27:27.156Z</time></trkpt><trkpt lat="43.829895" lon="11.5189783"><ele>459.0</ele><time>2026-04-11T14:27:28.156Z</time></trkpt><trkpt lat="43.829815" lon="11.519025"><ele>459.0</ele><time>2026-04-11T14:27:29.156Z</time></trkpt><trkpt lat="43.8297283" lon="11.5190767"><ele>459.79999999999995</ele><time>2026-04-11T14:27:30.156Z</time></trkpt><trkpt lat="43.8296533" lon="11.5191517"><ele>460.59999999999997</ele><time>2026-04-11T14:27:31.156Z</time></trkpt><trkpt lat="43.8295967" lon="11.5192483"><ele>461.4</ele><time>2026-04-11T14:27:32.156Z</time></trkpt><trkpt lat="43.8295533" lon="11.51936"><ele>462.2</ele><time>2026-04-11T14:27:33.156Z</time></trkpt><trkpt lat="43.82953" lon="11.51949"><ele>463.0</ele><time>2026-04-11T14:27:34.156Z</time></trkpt><trkpt lat="43.82952" lon="11.519615"><ele>464.6666666666667</ele><time>2026-04-11T14:27:35.157Z</time></trkpt><trkpt lat="43.8295183" lon="11.51974"><ele>466.33333333333337</ele><time>2026-04-11T14:27:36.156Z</time></trkpt><trkpt lat="43.829525" lon="11.519855"><ele>468.0</ele><time>2026-04-11T14:27:37.157Z</time></trkpt><trkpt lat="43.8295317" lon="11.51996"><ele>469.66666666666663</ele><time>2026-04-11T14:27:38.156Z</time></trkpt><trkpt lat="43.8295517" lon="11.5200583"><ele>471.3333333333333</ele><time>2026-04-11T14:27:39.156Z</time></trkpt><trkpt lat="43.8295767" lon="11.5201567"><ele>473.0</ele><time>2026-04-11T14:27:40.156Z</time></trkpt><trkpt lat="43.8296033" lon="11.5202567"><ele>472.99999999999994</ele><time>2026-04-11T14:27:41.156Z</time></trkpt><trkpt lat="43.8296367" lon="11.5203567"><ele>473.0</ele><time>2026-04-11T14:27:42.156Z</time></trkpt><trkpt lat="43.829665" lon="11.5204517"><ele>473.0</ele><time>2026-04-11T14:27:43.156Z</time></trkpt><trkpt lat="43.829695" lon="11.5205483"><ele>473.0</ele><time>2026-04-11T14:27:44.156Z</time></trkpt><trkpt lat="43.8297317" lon="11.5206483"><ele>472.99999999999994</ele><time>2026-04-11T14:27:45.156Z</time></trkpt><trkpt lat="43.829775" lon="11.5207483"><ele>473.0</ele><time>2026-04-11T14:27:46.156Z</time></trkpt><trkpt lat="43.8298283" lon="11.520855"><ele>472.3333333333333</ele><time>2026-04-11T14:27:47.156Z</time></trkpt><trkpt lat="43.829885" lon="11.5209617"><ele>471.66666666666663</ele><time>2026-04-11T14:27:48.156Z</time></trkpt><trkpt lat="43.8299267" lon="11.5210667"><ele>471.0</ele><time>2026-04-11T14:27:49.156Z</time></trkpt><trkpt lat="43.8299633" lon="11.521175"><ele>470.33333333333337</ele><time>2026-04-11T14:27:50.156Z</time></trkpt><trkpt lat="43.8299833" lon="11.5212933"><ele>469.6666666666667</ele><time>2026-04-11T14:27:51.157Z</time></trkpt><trkpt lat="43.8299733" lon="11.5214133"><ele>469.0</ele><time>2026-04-11T14:27:52.157Z</time></trkpt><trkpt lat="43.8299317" lon="11.5215283"><ele>468.0</ele><time>2026-04-11T14:27:53.156Z</time></trkpt><trkpt lat="43.8298867" lon="11.5216417"><ele>467.0</ele><time>2026-04-11T14:27:54.156Z</time></trkpt><trkpt lat="43.829865" lon="11.521755"><ele>466.0</ele><time>2026-04-11T14:27:55.156Z</time></trkpt><trkpt lat="43.8298833" lon="11.5218933"><ele>465.0</ele><time>2026-04-11T14:27:56.156Z</time></trkpt><trkpt lat="43.82993" lon="11.5220333"><ele>464.0</ele><time>2026-04-11T14:27:57.156Z</time></trkpt><trkpt lat="43.8300033" lon="11.5221883"><ele>462.5</ele><time>2026-04-11T14:27:58.157Z</time></trkpt><trkpt lat="43.8300817" lon="11.5223333"><ele>461.0</ele><time>2026-04-11T14:27:59.156Z</time></trkpt><trkpt lat="43.8301483" lon="11.5224633"><ele>459.5</ele><time>2026-04-11T14:28:00.156Z</time></trkpt><trkpt lat="43.83021" lon="11.5225783"><ele>458.0</ele><time>2026-04-11T14:28:01.156Z</time></trkpt><trkpt lat="43.8302817" lon="11.5226767"><ele>460.2</ele><time>2026-04-11T14:28:02.156Z</time></trkpt><trkpt lat="43.8303633" lon="11.522765"><ele>462.4</ele><time>2026-04-11T14:28:03.156Z</time></trkpt><trkpt lat="43.83046" lon="11.52284"><ele>464.59999999999997</ele><time>2026-04-11T14:28:04.157Z</time></trkpt><trkpt lat="43.8305617" lon="11.5229017"><ele>466.79999999999995</ele><time>2026-04-11T14:28:05.156Z</time></trkpt><trkpt lat="43.830665" lon="11.5229717"><ele>469.0</ele><time>2026-04-11T14:28:06.156Z</time></trkpt><trkpt lat="43.8307717" lon="11.52304"><ele>469.0</ele><time>2026-04-11T14:28:07.157Z</time></trkpt><trkpt lat="43.83087" lon="11.5231083"><ele>469.0</ele><time>2026-04-11T14:28:08.156Z</time></trkpt><trkpt lat="43.8309633" lon="11.5231883"><ele>469.0</ele><time>2026-04-11T14:28:09.156Z</time></trkpt><trkpt lat="43.8310333" lon="11.5232417"><ele>469.0</ele><time>2026-04-11T14:28:10.156Z</time></trkpt><trkpt lat="43.83111" lon="11.5233183"><ele>469.0</ele><time>2026-04-11T14:28:11.157Z</time></trkpt><trkpt lat="43.8311683" lon="11.5234183"><ele>469.4</ele><time>2026-04-11T14:28:12.156Z</time></trkpt><trkpt lat="43.8311967" lon="11.523535"><ele>469.79999999999995</ele><time>2026-04-11T14:28:13.156Z</time></trkpt><trkpt lat="43.8311767" lon="11.52367"><ele>470.20000000000005</ele><time>2026-04-11T14:28:14.156Z</time></trkpt><trkpt lat="43.8311067" lon="11.5238133"><ele>470.6</ele><time>2026-04-11T14:28:15.156Z</time></trkpt><trkpt lat="43.8310283" lon="11.5239633"><ele>471.0</ele><time>2026-04-11T14:28:16.156Z</time></trkpt><trkpt lat="43.8309483" lon="11.5241033"><ele>471.0</ele><time>2026-04-11T14:28:17.156Z</time></trkpt><trkpt lat="43.83087" lon="11.52425"><ele>471.0</ele><time>2026-04-11T14:28:18.157Z</time></trkpt><trkpt lat="43.830775" lon="11.5243883"><ele>471.0</ele><time>2026-04-11T14:28:19.157Z</time></trkpt><trkpt lat="43.830695" lon="11.52454"><ele>471.0</ele><time>2026-04-11T14:28:20.156Z</time></trkpt><trkpt lat="43.8306183" lon="11.5246767"><ele>474.5</ele><time>2026-04-11T14:28:21.156Z</time></trkpt><trkpt lat="43.830535" lon="11.5248083"><ele>478.0</ele><time>2026-04-11T14:28:22.156Z</time></trkpt><trkpt lat="43.8304533" lon="11.52494"><ele>481.5</ele><time>2026-04-11T14:28:23.156Z</time></trkpt><trkpt lat="43.8303783" lon="11.52507"><ele>485.0</ele><time>2026-04-11T14:28:24.156Z</time></trkpt><trkpt lat="43.8303017" lon="11.5251883"><ele>485.0</ele><time>2026-04-11T14:28:25.156Z</time></trkpt><trkpt lat="43.830235" lon="11.5253133"><ele>485.0</ele><time>2026-04-11T14:28:26.156Z</time></trkpt><trkpt lat="43.8301683" lon="11.5254417"><ele>485.0</ele><time>2026-04-11T14:28:27.156Z</time></trkpt><trkpt lat="43.8301117" lon="11.5255817"><ele>485.0</ele><time>2026-04-11T14:28:28.157Z</time></trkpt><trkpt lat="43.8300717" lon="11.5257217"><ele>482.8</ele><time>2026-04-11T14:28:29.156Z</time></trkpt><trkpt lat="43.830035" lon="11.5258783"><ele>480.6</ele><time>2026-04-11T14:28:30.157Z</time></trkpt><trkpt lat="43.8300117" lon="11.5260033"><ele>478.4</ele><time>2026-04-11T14:28:31.156Z</time></trkpt><trkpt lat="43.82999" lon="11.52613"><ele>476.2</ele><time>2026-04-11T14:28:32.156Z</time></trkpt><trkpt lat="43.8299733" lon="11.5262433"><ele>474.0</ele><time>2026-04-11T14:28:33.156Z</time></trkpt><trkpt lat="43.82999" lon="11.5264267"><ele>474.0</ele><time>2026-04-11T14:28:35.156Z</time></trkpt><trkpt lat="43.83005" lon="11.5265583"><ele>474.0</ele><time>2026-04-11T14:28:36.156Z</time></trkpt><trkpt lat="43.83012" lon="11.5267117"><ele>474.0</ele><time>2026-04-11T14:28:37.156Z</time></trkpt><trkpt lat="43.8301833" lon="11.5268783"><ele>474.0</ele><time>2026-04-11T14:28:38.156Z</time></trkpt><trkpt lat="43.8302383" lon="11.527075"><ele>480.0</ele><time>2026-04-11T14:28:39.156Z</time></trkpt><trkpt lat="43.83026" lon="11.52727"><ele>486.0</ele><time>2026-04-11T14:28:40.156Z</time></trkpt><trkpt lat="43.8302867" lon="11.52745"><ele>492.0</ele><time>2026-04-11T14:28:41.157Z</time></trkpt><trkpt lat="43.8303117" lon="11.527645"><ele>498.0</ele><time>2026-04-11T14:28:42.156Z</time></trkpt><trkpt lat="43.8303367" lon="11.5278567"><ele>497.0</ele><time>2026-04-11T14:28:43.156Z</time></trkpt><trkpt lat="43.8303517" lon="11.52807"><ele>496.0</ele><time>2026-04-11T14:28:44.156Z</time></trkpt><trkpt lat="43.8303517" lon="11.5282883"><ele>495.0</ele><time>2026-04-11T14:28:45.156Z</time></trkpt><trkpt lat="43.8303483" lon="11.5284967"><ele>495.0</ele><time>2026-04-11T14:28:46.156Z</time></trkpt><trkpt lat="43.8303433" lon="11.5286917"><ele>495.0</ele><time>2026-04-11T14:28:47.156Z</time></trkpt><trkpt lat="43.8303167" lon="11.528865"><ele>495.0</ele><time>2026-04-11T14:28:48.156Z</time></trkpt><trkpt lat="43.8302717" lon="11.529015"><ele>495.0</ele><time>2026-04-11T14:28:49.156Z</time></trkpt><trkpt lat="43.8301967" lon="11.52914"><ele>493.6</ele><time>2026-04-11T14:28:50.156Z</time></trkpt><trkpt lat="43.8301017" lon="11.5292367"><ele>492.2</ele><time>2026-04-11T14:28:51.156Z</time></trkpt><trkpt lat="43.8299917" lon="11.529295"><ele>490.79999999999995</ele><time>2026-04-11T14:28:52.156Z</time></trkpt><trkpt lat="43.829885" lon="11.529335"><ele>489.4</ele><time>2026-04-11T14:28:53.156Z</time></trkpt><trkpt lat="43.8297933" lon="11.529395"><ele>488.0</ele><time>2026-04-11T14:28:54.156Z</time></trkpt><trkpt lat="43.8297167" lon="11.5294733"><ele>489.4</ele><time>2026-04-11T14:28:55.156Z</time></trkpt><trkpt lat="43.829665" lon="11.5295783"><ele>490.79999999999995</ele><time>2026-04-11T14:28:56.157Z</time></trkpt><trkpt lat="43.8296167" lon="11.5297017"><ele>492.2</ele><time>2026-04-11T14:28:57.157Z</time></trkpt><trkpt lat="43.82957" lon="11.5298317"><ele>493.6</ele><time>2026-04-11T14:28:58.156Z</time></trkpt><trkpt lat="43.8295317" lon="11.5299533"><ele>495.0</ele><time>2026-04-11T14:28:59.157Z</time></trkpt><trkpt lat="43.8295" lon="11.5300667"><ele>495.0</ele><time>2026-04-11T14:29:00.156Z</time></trkpt><trkpt lat="43.8294683" lon="11.5301717"><ele>495.0</ele><time>2026-04-11T14:29:01.156Z</time></trkpt><trkpt lat="43.8294417" lon="11.5302633"><ele>495.0</ele><time>2026-04-11T14:29:02.156Z</time></trkpt><trkpt lat="43.829415" lon="11.5303533"><ele>495.0</ele><time>2026-04-11T14:29:03.156Z</time></trkpt><trkpt lat="43.8293933" lon="11.5304417"><ele>495.0</ele><time>2026-04-11T14:29:04.156Z</time></trkpt><trkpt lat="43.8293767" lon="11.53053"><ele>495.0</ele><time>2026-04-11T14:29:05.156Z</time></trkpt><trkpt lat="43.82937" lon="11.5307033"><ele>495.5</ele><time>2026-04-11T14:29:07.157Z</time></trkpt><trkpt lat="43.829375" lon="11.5308067"><ele>496.0</ele><time>2026-04-11T14:29:08.156Z</time></trkpt><trkpt lat="43.82939" lon="11.5309217"><ele>496.5</ele><time>2026-04-11T14:29:09.156Z</time></trkpt><trkpt lat="43.8293983" lon="11.531045"><ele>497.0</ele><time>2026-04-11T14:29:10.156Z</time></trkpt><trkpt lat="43.829405" lon="11.5311733"><ele>497.5</ele><time>2026-04-11T14:29:11.156Z</time></trkpt><trkpt lat="43.8294" lon="11.5313"><ele>498.0</ele><time>2026-04-11T14:29:12.156Z</time></trkpt><trkpt lat="43.8293783" lon="11.5314167"><ele>499.0</ele><time>2026-04-11T14:29:13.156Z</time></trkpt><trkpt lat="43.8293417" lon="11.531545"><ele>499.99999999999994</ele><time>2026-04-11T14:29:14.156Z</time></trkpt><trkpt lat="43.8292967" lon="11.5316717"><ele>500.99999999999994</ele><time>2026-04-11T14:29:15.156Z</time></trkpt><trkpt lat="43.8292467" lon="11.5317917"><ele>502.0</ele><time>2026-04-11T14:29:16.156Z</time></trkpt><trkpt lat="43.829205" lon="11.531895"><ele>503.0</ele><time>2026-04-11T14:29:17.156Z</time></trkpt><trkpt lat="43.82917" lon="11.531995"><ele>501.0</ele><time>2026-04-11T14:29:18.157Z</time></trkpt><trkpt lat="43.8291417" lon="11.5320783"><ele>498.99999999999994</ele><time>2026-04-11T14:29:19.156Z</time></trkpt><trkpt lat="43.8291067" lon="11.5321817"><ele>496.99999999999994</ele><time>2026-04-11T14:29:21.156Z</time></trkpt><trkpt lat="43.8291633" lon="11.532045"><ele>495.0</ele><time>2026-04-11T14:32:10.156Z</time></trkpt><trkpt lat="43.8292183" lon="11.531885"><ele>493.0</ele><time>2026-04-11T14:32:12.156Z</time></trkpt><trkpt lat="43.8292467" lon="11.5318033"><ele>492.42857142857144</ele><time>2026-04-11T14:32:13.157Z</time></trkpt><trkpt lat="43.8292783" lon="11.531715"><ele>491.8571428571429</ele><time>2026-04-11T14:32:14.157Z</time></trkpt><trkpt lat="43.82931" lon="11.5316367"><ele>491.28571428571433</ele><time>2026-04-11T14:32:15.156Z</time></trkpt><trkpt lat="43.82934" lon="11.531545"><ele>490.7142857142857</ele><time>2026-04-11T14:32:16.156Z</time></trkpt><trkpt lat="43.8293683" lon="11.53145"><ele>490.1428571428572</ele><time>2026-04-11T14:32:17.156Z</time></trkpt><trkpt lat="43.8293883" lon="11.5313517"><ele>489.5714285714286</ele><time>2026-04-11T14:32:18.156Z</time></trkpt><trkpt lat="43.8294033" lon="11.53126"><ele>489.0</ele><time>2026-04-11T14:32:19.156Z</time></trkpt><trkpt lat="43.829405" lon="11.5311517"><ele>490.28571428571433</ele><time>2026-04-11T14:32:20.156Z</time></trkpt><trkpt lat="43.8294017" lon="11.5310483"><ele>491.5714285714286</ele><time>2026-04-11T14:32:21.156Z</time></trkpt><trkpt lat="43.8293983" lon="11.53095"><ele>492.8571428571429</ele><time>2026-04-11T14:32:22.156Z</time></trkpt><trkpt lat="43.829395" lon="11.53085"><ele>494.1428571428571</ele><time>2026-04-11T14:32:23.156Z</time></trkpt><trkpt lat="43.8293933" lon="11.53076"><ele>495.4285714285714</ele><time>2026-04-11T14:32:24.157Z</time></trkpt><trkpt lat="43.82939" lon="11.53066"><ele>496.71428571428567</ele><time>2026-04-11T14:32:25.157Z</time></trkpt><trkpt lat="43.829395" lon="11.5305533"><ele>498.0</ele><time>2026-04-11T14:32:26.157Z</time></trkpt><trkpt lat="43.8294017" lon="11.5304483"><ele>497.5</ele><time>2026-04-11T14:32:27.156Z</time></trkpt><trkpt lat="43.8294183" lon="11.5303617"><ele>497.0</ele><time>2026-04-11T14:32:28.156Z</time></trkpt><trkpt lat="43.8294467" lon="11.5302817"><ele>496.5</ele><time>2026-04-11T14:32:29.156Z</time></trkpt><trkpt lat="43.8294983" lon="11.53011"><ele>496.0</ele><time>2026-04-11T14:32:31.157Z</time></trkpt><trkpt lat="43.82952" lon="11.5300117"><ele>495.5</ele><time>2026-04-11T14:32:32.157Z</time></trkpt><trkpt lat="43.829545" lon="11.529915"><ele>495.0</ele><time>2026-04-11T14:32:33.156Z</time></trkpt><trkpt lat="43.8295717" lon="11.5298133"><ele>495.0</ele><time>2026-04-11T14:32:34.156Z</time></trkpt><trkpt lat="43.8296033" lon="11.5297117"><ele>495.0</ele><time>2026-04-11T14:32:35.156Z</time></trkpt><trkpt lat="43.829635" lon="11.52961"><ele>495.0</ele><time>2026-04-11T14:32:36.157Z</time></trkpt><trkpt lat="43.8296783" lon="11.52953"><ele>495.0</ele><time>2026-04-11T14:32:37.156Z</time></trkpt><trkpt lat="43.8297567" lon="11.5294417"><ele>495.0</ele><time>2026-04-11T14:32:39.156Z</time></trkpt><trkpt lat="43.8298133" lon="11.529375"><ele>495.0</ele><time>2026-04-11T14:32:42.157Z</time></trkpt><trkpt lat="43.8298433" lon="11.52926"><ele>495.0</ele><time>2026-04-11T14:32:45.156Z</time></trkpt><trkpt lat="43.8297983" lon="11.52936"><ele>495.0</ele><time>2026-04-11T14:33:03.156Z</time></trkpt><trkpt lat="43.82976" lon="11.529445"><ele>495.0</ele><time>2026-04-11T14:33:06.156Z</time></trkpt><trkpt lat="43.8298183" lon="11.5295467"><ele>495.0</ele><time>2026-04-11T14:33:09.157Z</time></trkpt><trkpt lat="43.82993" lon="11.5295933"><ele>495.0</ele><time>2026-04-11T14:33:11.156Z</time></trkpt><trkpt lat="43.8300133" lon="11.5296383"><ele>495.0</ele><time>2026-04-11T14:33:13.156Z</time></trkpt><trkpt lat="43.8300633" lon="11.529725"><ele>495.0</ele><time>2026-04-11T14:33:16.156Z</time></trkpt><trkpt lat="43.830085" lon="11.5298733"><ele>495.0</ele><time>2026-04-11T14:33:18.156Z</time></trkpt><trkpt lat="43.8300583" lon="11.5300267"><ele>495.0</ele><time>2026-04-11T14:33:20.156Z</time></trkpt><trkpt lat="43.830015" lon="11.53017"><ele>495.0</ele><time>2026-04-11T14:33:22.156Z</time></trkpt><trkpt lat="43.8299967" lon="11.5303267"><ele>495.5</ele><time>2026-04-11T14:33:24.156Z</time></trkpt><trkpt lat="43.8300017" lon="11.530415"><ele>496.0</ele><time>2026-04-11T14:33:25.156Z</time></trkpt><trkpt lat="43.8300083" lon="11.5305117"><ele>496.5</ele><time>2026-04-11T14:33:26.156Z</time></trkpt><trkpt lat="43.8300133" lon="11.530615"><ele>497.0</ele><time>2026-04-11T14:33:27.157Z</time></trkpt><trkpt lat="43.8300233" lon="11.53071"><ele>497.5</ele><time>2026-04-11T14:33:28.156Z</time></trkpt><trkpt lat="43.830045" lon="11.5307933"><ele>498.0</ele><time>2026-04-11T14:33:29.157Z</time></trkpt><trkpt lat="43.8301317" lon="11.53095"><ele>500.3333333333333</ele><time>2026-04-11T14:33:31.157Z</time></trkpt><trkpt lat="43.83021" lon="11.5310267"><ele>502.66666666666663</ele><time>2026-04-11T14:33:32.156Z</time></trkpt><trkpt lat="43.8302717" lon="11.5311083"><ele>505.0</ele><time>2026-04-11T14:33:33.156Z</time></trkpt><trkpt lat="43.83033" lon="11.5311917"><ele>507.3333333333333</ele><time>2026-04-11T14:33:34.156Z</time></trkpt><trkpt lat="43.8303833" lon="11.5312767"><ele>509.66666666666663</ele><time>2026-04-11T14:33:35.156Z</time></trkpt><trkpt lat="43.8304167" lon="11.5313683"><ele>512.0</ele><time>2026-04-11T14:33:36.156Z</time></trkpt><trkpt lat="43.8304333" lon="11.5314733"><ele>513.0</ele><time>2026-04-11T14:33:37.156Z</time></trkpt><trkpt lat="43.8304333" lon="11.531585"><ele>514.0</ele><time>2026-04-11T14:33:38.157Z</time></trkpt><trkpt lat="43.830415" lon="11.5316867"><ele>515.0</ele><time>2026-04-11T14:33:39.156Z</time></trkpt><trkpt lat="43.8303833" lon="11.5317867"><ele>516.0</ele><time>2026-04-11T14:33:40.156Z</time></trkpt><trkpt lat="43.830325" lon="11.5318933"><ele>517.0</ele><time>2026-04-11T14:33:41.156Z</time></trkpt><trkpt lat="43.830255" lon="11.531985"><ele>518.0</ele><time>2026-04-11T14:33:42.156Z</time></trkpt><trkpt lat="43.8301767" lon="11.5320767"><ele>517.0</ele><time>2026-04-11T14:33:43.156Z</time></trkpt><trkpt lat="43.8301" lon="11.5321617"><ele>516.0</ele><time>2026-04-11T14:33:44.156Z</time></trkpt><trkpt lat="43.83003" lon="11.5322267"><ele>515.0</ele><time>2026-04-11T14:33:45.157Z</time></trkpt><trkpt lat="43.8299717" lon="11.5322933"><ele>514.0</ele><time>2026-04-11T14:33:46.156Z</time></trkpt><trkpt lat="43.8299267" lon="11.5323667"><ele>513.0</ele><time>2026-04-11T14:33:47.156Z</time></trkpt><trkpt lat="43.829895" lon="11.5325233"><ele>512.0</ele><time>2026-04-11T14:33:49.156Z</time></trkpt><trkpt lat="43.8299417" lon="11.53264"><ele>511.99999999999994</ele><time>2026-04-11T14:33:51.156Z</time></trkpt><trkpt lat="43.8300467" lon="11.53266"><ele>512.0</ele><time>2026-04-11T14:33:53.156Z</time></trkpt><trkpt lat="43.8301083" lon="11.5326233"><ele>512.0</ele><time>2026-04-11T14:33:54.156Z</time></trkpt><trkpt lat="43.8301617" lon="11.5325667"><ele>512.0</ele><time>2026-04-11T14:33:55.156Z</time></trkpt><trkpt lat="43.830225" lon="11.5325067"><ele>511.99999999999994</ele><time>2026-04-11T14:33:56.156Z</time></trkpt><trkpt lat="43.8302917" lon="11.53246"><ele>512.0</ele><time>2026-04-11T14:33:57.156Z</time></trkpt><trkpt lat="43.83037" lon="11.53246"><ele>515.6</ele><time>2026-04-11T14:33:58.156Z</time></trkpt><trkpt lat="43.8304617" lon="11.53247"><ele>519.2</ele><time>2026-04-11T14:33:59.156Z</time></trkpt><trkpt lat="43.8305583" lon="11.5324717"><ele>522.8</ele><time>2026-04-11T14:34:00.156Z</time></trkpt><trkpt lat="43.830665" lon="11.5324733"><ele>526.4</ele><time>2026-04-11T14:34:01.157Z</time></trkpt><trkpt lat="43.830765" lon="11.5324783"><ele>530.0</ele><time>2026-04-11T14:34:02.156Z</time></trkpt><trkpt lat="43.8308667" lon="11.5324833"><ele>530.0</ele><time>2026-04-11T14:34:03.156Z</time></trkpt><trkpt lat="43.83097" lon="11.532485"><ele>530.0</ele><time>2026-04-11T14:34:04.156Z</time></trkpt><trkpt lat="43.831075" lon="11.5324717"><ele>530.0</ele><time>2026-04-11T14:34:05.156Z</time></trkpt><trkpt lat="43.8311783" lon="11.5324283"><ele>530.0</ele><time>2026-04-11T14:34:06.156Z</time></trkpt><trkpt lat="43.8312733" lon="11.5323717"><ele>530.0</ele><time>2026-04-11T14:34:07.156Z</time></trkpt><trkpt lat="43.8313683" lon="11.5323017"><ele>531.25</ele><time>2026-04-11T14:34:08.156Z</time></trkpt><trkpt lat="43.8314633" lon="11.5322217"><ele>532.5</ele><time>2026-04-11T14:34:09.157Z</time></trkpt><trkpt lat="43.83157" lon="11.53215"><ele>533.75</ele><time>2026-04-11T14:34:10.156Z</time></trkpt><trkpt lat="43.8316767" lon="11.532075"><ele>535.0</ele><time>2026-04-11T14:34:11.156Z</time></trkpt><trkpt lat="43.8317733" lon="11.5319967"><ele>539.4</ele><time>2026-04-11T14:34:12.156Z</time></trkpt><trkpt lat="43.8318683" lon="11.5319167"><ele>543.8</ele><time>2026-04-11T14:34:13.156Z</time></trkpt><trkpt lat="43.8319383" lon="11.5318283"><ele>548.2</ele><time>2026-04-11T14:34:14.156Z</time></trkpt><trkpt lat="43.8319883" lon="11.5317233"><ele>552.6</ele><time>2026-04-11T14:34:15.156Z</time></trkpt><trkpt lat="43.8320083" lon="11.5316033"><ele>557.0</ele><time>2026-04-11T14:34:16.156Z</time></trkpt><trkpt lat="43.832015" lon="11.5315033"><ele>557.0</ele><time>2026-04-11T14:34:17.156Z</time></trkpt><trkpt lat="43.8320467" lon="11.5313817"><ele>557.0</ele><time>2026-04-11T14:34:19.157Z</time></trkpt><trkpt lat="43.8321217" lon="11.5313867"><ele>557.0</ele><time>2026-04-11T14:34:21.156Z</time></trkpt><trkpt lat="43.832155" lon="11.531505"><ele>557.0</ele><time>2026-04-11T14:34:23.157Z</time></trkpt><trkpt lat="43.8321417" lon="11.5315967"><ele>557.0</ele><time>2026-04-11T14:34:24.156Z</time></trkpt><trkpt lat="43.8321117" lon="11.5317167"><ele>557.0</ele><time>2026-04-11T14:34:25.156Z</time></trkpt><trkpt lat="43.83208" lon="11.531845"><ele>557.0</ele><time>2026-04-11T14:34:26.156Z</time></trkpt><trkpt lat="43.832045" lon="11.5319767"><ele>557.0</ele><time>2026-04-11T14:34:27.157Z</time></trkpt><trkpt lat="43.8320033" lon="11.532125"><ele>557.0</ele><time>2026-04-11T14:34:28.156Z</time></trkpt><trkpt lat="43.8319633" lon="11.5322617"><ele>557.0</ele><time>2026-04-11T14:34:29.156Z</time></trkpt><trkpt lat="43.8319267" lon="11.532405"><ele>557.0</ele><time>2026-04-11T14:34:30.156Z</time></trkpt><trkpt lat="43.8318883" lon="11.5325583"><ele>557.25</ele><time>2026-04-11T14:34:31.156Z</time></trkpt><trkpt lat="43.8318483" lon="11.5327067"><ele>557.5</ele><time>2026-04-11T14:34:32.156Z</time></trkpt><trkpt lat="43.8318067" lon="11.5328583"><ele>557.75</ele><time>2026-04-11T14:34:33.156Z</time></trkpt><trkpt lat="43.8317667" lon="11.53301"><ele>558.0</ele><time>2026-04-11T14:34:34.156Z</time></trkpt><trkpt lat="43.8317275" lon="11.5331433"><ele>558.0</ele><time>2026-04-11T14:34:35.156Z</time></trkpt><trkpt lat="43.8316902" lon="11.5332635"><ele>558.0</ele><time>2026-04-11T14:34:36.156Z</time></trkpt><trkpt lat="43.8316481" lon="11.5333752"><ele>558.0</ele><time>2026-04-11T14:34:37.156Z</time></trkpt><trkpt lat="43.8316138" lon="11.5334601"><ele>558.0</ele><time>2026-04-11T14:34:38.156Z</time></trkpt><trkpt lat="43.8316082" lon="11.5335965"><ele>558.0</ele><time>2026-04-11T14:34:40.157Z</time></trkpt><trkpt lat="43.8316886" lon="11.5336636"><ele>558.0</ele><time>2026-04-11T14:34:42.156Z</time></trkpt><trkpt lat="43.8317611" lon="11.5336525"><ele>562.0</ele><time>2026-04-11T14:34:43.156Z</time></trkpt><trkpt lat="43.8318328" lon="11.5336069"><ele>566.0</ele><time>2026-04-11T14:34:44.156Z</time></trkpt><trkpt lat="43.8318954" lon="11.5335443"><ele>570.0</ele><time>2026-04-11T14:34:45.156Z</time></trkpt><trkpt lat="43.8319495" lon="11.5334564"><ele>574.0</ele><time>2026-04-11T14:34:46.156Z</time></trkpt><trkpt lat="43.8320001" lon="11.5333371"><ele>578.0</ele><time>2026-04-11T14:34:47.156Z</time></trkpt><trkpt lat="43.8320486" lon="11.5332049"><ele>582.0</ele><time>2026-04-11T14:34:48.156Z</time></trkpt><trkpt lat="43.8321058" lon="11.5330868"><ele>582.0</ele><time>2026-04-11T14:34:49.157Z</time></trkpt><trkpt lat="43.8321701" lon="11.532981"><ele>582.0</ele><time>2026-04-11T14:34:50.156Z</time></trkpt><trkpt lat="43.8322343" lon="11.5328758"><ele>582.0</ele><time>2026-04-11T14:34:51.156Z</time></trkpt><trkpt lat="43.832307" lon="11.5327523"><ele>582.0</ele><time>2026-04-11T14:34:52.156Z</time></trkpt><trkpt lat="43.8323676" lon="11.5326227"><ele>582.0</ele><time>2026-04-11T14:34:53.156Z</time></trkpt><trkpt lat="43.8324165" lon="11.5325078"><ele>580.5</ele><time>2026-04-11T14:34:54.156Z</time></trkpt><trkpt lat="43.8324667" lon="11.5324099"><ele>579.0</ele><time>2026-04-11T14:34:55.156Z</time></trkpt><trkpt lat="43.8325194" lon="11.5323326"><ele>577.5</ele><time>2026-04-11T14:34:56.156Z</time></trkpt><trkpt lat="43.8325807" lon="11.5322714"><ele>576.0</ele><time>2026-04-11T14:34:57.156Z</time></trkpt><trkpt lat="43.8326535" lon="11.5322285"><ele>574.5</ele><time>2026-04-11T14:34:58.156Z</time></trkpt><trkpt lat="43.8327325" lon="11.5321996"><ele>573.0</ele><time>2026-04-11T14:34:59.156Z</time></trkpt><trkpt lat="43.8328265" lon="11.5321841"><ele>576.3333333333334</ele><time>2026-04-11T14:35:00.156Z</time></trkpt><trkpt lat="43.8329286" lon="11.5321819"><ele>579.6666666666666</ele><time>2026-04-11T14:35:01.156Z</time></trkpt><trkpt lat="43.8330261" lon="11.5321849"><ele>583.0</ele><time>2026-04-11T14:35:02.156Z</time></trkpt><trkpt lat="43.8331119" lon="11.5321834"><ele>586.3333333333333</ele><time>2026-04-11T14:35:03.157Z</time></trkpt><trkpt lat="43.8331832" lon="11.5321656"><ele>589.6666666666666</ele><time>2026-04-11T14:35:04.156Z</time></trkpt><trkpt lat="43.8332477" lon="11.5321229"><ele>593.0</ele><time>2026-04-11T14:35:05.156Z</time></trkpt><trkpt lat="43.8333096" lon="11.5320612"><ele>591.6666666666666</ele><time>2026-04-11T14:35:06.156Z</time></trkpt><trkpt lat="43.8333571" lon="11.5319646"><ele>590.3333333333333</ele><time>2026-04-11T14:35:07.156Z</time></trkpt><trkpt lat="43.8333852" lon="11.5318531"><ele>589.0</ele><time>2026-04-11T14:35:08.156Z</time></trkpt><trkpt lat="43.8333968" lon="11.5317368"><ele>587.6666666666666</ele><time>2026-04-11T14:35:09.156Z</time></trkpt><trkpt lat="43.8333902" lon="11.5316132"><ele>586.3333333333334</ele><time>2026-04-11T14:35:10.156Z</time></trkpt><trkpt lat="43.8333603" lon="11.5314882"><ele>585.0</ele><time>2026-04-11T14:35:11.156Z</time></trkpt><trkpt lat="43.8333317" lon="11.5313638"><ele>585.0</ele><time>2026-04-11T14:35:12.156Z</time></trkpt><trkpt lat="43.8333248" lon="11.5312689"><ele>585.0</ele><time>2026-04-11T14:35:13.156Z</time></trkpt><trkpt lat="43.8333323" lon="11.531175"><ele>585.0</ele><time>2026-04-11T14:35:14.156Z</time></trkpt><trkpt lat="43.8333537" lon="11.5310855"><ele>585.0</ele><time>2026-04-11T14:35:15.157Z</time></trkpt><trkpt lat="43.8333879" lon="11.5310022"><ele>585.0</ele><time>2026-04-11T14:35:16.156Z</time></trkpt><trkpt lat="43.8334416" lon="11.5309366"><ele>585.0</ele><time>2026-04-11T14:35:17.156Z</time></trkpt><trkpt lat="43.8335131" lon="11.5308886"><ele>585.0</ele><time>2026-04-11T14:35:18.156Z</time></trkpt><trkpt lat="43.8336076" lon="11.5308547"><ele>588.2</ele><time>2026-04-11T14:35:19.157Z</time></trkpt><trkpt lat="43.8337077" lon="11.5308189"><ele>591.4</ele><time>2026-04-11T14:35:20.156Z</time></trkpt><trkpt lat="43.8338043" lon="11.5307835"><ele>594.6</ele><time>2026-04-11T14:35:21.156Z</time></trkpt><trkpt lat="43.8339" lon="11.5307356"><ele>597.8</ele><time>2026-04-11T14:35:22.156Z</time></trkpt><trkpt lat="43.8339843" lon="11.5306644"><ele>601.0</ele><time>2026-04-11T14:35:23.156Z</time></trkpt><trkpt lat="43.8340559" lon="11.5305822"><ele>601.0</ele><time>2026-04-11T14:35:24.156Z</time></trkpt><trkpt lat="43.8341157" lon="11.5304819"><ele>601.0</ele><time>2026-04-11T14:35:25.156Z</time></trkpt><trkpt lat="43.8341565" lon="11.5303679"><ele>601.0</ele><time>2026-04-11T14:35:26.156Z</time></trkpt><trkpt lat="43.8341889" lon="11.5302368"><ele>601.0</ele><time>2026-04-11T14:35:27.156Z</time></trkpt><trkpt lat="43.8342142" lon="11.5301036"><ele>601.0</ele><time>2026-04-11T14:35:28.156Z</time></trkpt><trkpt lat="43.8342371" lon="11.5299755"><ele>600.3333333333334</ele><time>2026-04-11T14:35:29.156Z</time></trkpt><trkpt lat="43.8342779" lon="11.5298601"><ele>599.6666666666667</ele><time>2026-04-11T14:35:30.156Z</time></trkpt><trkpt lat="43.8343301" lon="11.5297689"><ele>599.0</ele><time>2026-04-11T14:35:31.156Z</time></trkpt><trkpt lat="43.8343969" lon="11.5296807"><ele>598.3333333333334</ele><time>2026-04-11T14:35:32.156Z</time></trkpt><trkpt lat="43.8344564" lon="11.5295826"><ele>597.6666666666666</ele><time>2026-04-11T14:35:33.156Z</time></trkpt><trkpt lat="43.8345057" lon="11.529494"><ele>597.0</ele><time>2026-04-11T14:35:34.156Z</time></trkpt><trkpt lat="43.8345493" lon="11.529422"><ele>597.0</ele><time>2026-04-11T14:35:35.156Z</time></trkpt><trkpt lat="43.8346268" lon="11.5293735"><ele>597.0</ele><time>2026-04-11T14:35:37.156Z</time></trkpt><trkpt lat="43.8346527" lon="11.5294698"><ele>597.0</ele><time>2026-04-11T14:35:39.156Z</time></trkpt><trkpt lat="43.8346324" lon="11.5295732"><ele>597.0</ele><time>2026-04-11T14:35:41.156Z</time></trkpt><trkpt lat="43.8345638" lon="11.529703"><ele>597.0</ele><time>2026-04-11T14:35:43.156Z</time></trkpt><trkpt lat="43.8345264" lon="11.5297827"><ele>597.0</ele><time>2026-04-11T14:35:44.156Z</time></trkpt><trkpt lat="43.8344965" lon="11.5298663"><ele>599.4</ele><time>2026-04-11T14:35:45.156Z</time></trkpt><trkpt lat="43.8344637" lon="11.5299938"><ele>601.8000000000001</ele><time>2026-04-11T14:35:47.156Z</time></trkpt><trkpt lat="43.8344583" lon="11.5301017"><ele>604.2</ele><time>2026-04-11T14:36:06.156Z</time></trkpt><trkpt lat="43.8344917" lon="11.530005"><ele>606.6</ele><time>2026-04-11T14:36:21.156Z</time></trkpt><trkpt lat="43.8345267" lon="11.5298683"><ele>609.0</ele><time>2026-04-11T14:36:23.156Z</time></trkpt><trkpt lat="43.83457" lon="11.5297283"><ele>609.0</ele><time>2026-04-11T14:36:25.157Z</time></trkpt><trkpt lat="43.8346183" lon="11.5296133"><ele>609.0</ele><time>2026-04-11T14:36:27.156Z</time></trkpt><trkpt lat="43.8346533" lon="11.529515"><ele>609.0</ele><time>2026-04-11T14:36:29.156Z</time></trkpt><trkpt lat="43.83468" lon="11.5294333"><ele>609.0</ele><time>2026-04-11T14:36:32.157Z</time></trkpt><trkpt lat="43.8346333" lon="11.5295267"><ele>609.0</ele><time>2026-04-11T14:37:36.156Z</time></trkpt><trkpt lat="43.834585" lon="11.5296717"><ele>609.0</ele><time>2026-04-11T14:37:38.156Z</time></trkpt><trkpt lat="43.834555" lon="11.5297633"><ele>609.0</ele><time>2026-04-11T14:37:39.156Z</time></trkpt><trkpt lat="43.83452" lon="11.5298567"><ele>609.0</ele><time>2026-04-11T14:37:40.157Z</time></trkpt><trkpt lat="43.8344983" lon="11.5299517"><ele>609.0</ele><time>2026-04-11T14:37:41.156Z</time></trkpt><trkpt lat="43.83448" lon="11.5300467"><ele>609.0</ele><time>2026-04-11T14:37:42.156Z</time></trkpt><trkpt lat="43.83449" lon="11.5301333"><ele>609.0</ele><time>2026-04-11T14:37:43.156Z</time></trkpt><trkpt lat="43.8345067" lon="11.5302383"><ele>609.0</ele><time>2026-04-11T14:37:44.156Z</time></trkpt><trkpt lat="43.8345317" lon="11.5303483"><ele>609.0</ele><time>2026-04-11T14:37:45.156Z</time></trkpt><trkpt lat="43.8345433" lon="11.5304667"><ele>611.0</ele><time>2026-04-11T14:37:46.157Z</time></trkpt><trkpt lat="43.834535" lon="11.5305833"><ele>613.0</ele><time>2026-04-11T14:37:47.157Z</time></trkpt><trkpt lat="43.8345133" lon="11.5307033"><ele>615.0</ele><time>2026-04-11T14:37:48.156Z</time></trkpt><trkpt lat="43.8344783" lon="11.5308283"><ele>617.0</ele><time>2026-04-11T14:37:49.156Z</time></trkpt><trkpt lat="43.8344217" lon="11.5309333"><ele>619.0</ele><time>2026-04-11T14:37:50.156Z</time></trkpt><trkpt lat="43.8343633" lon="11.5310383"><ele>619.0</ele><time>2026-04-11T14:37:51.156Z</time></trkpt><trkpt lat="43.834305" lon="11.531145"><ele>619.0</ele><time>2026-04-11T14:37:52.156Z</time></trkpt><trkpt lat="43.8342483" lon="11.5312617"><ele>619.0</ele><time>2026-04-11T14:37:53.156Z</time></trkpt><trkpt lat="43.834185" lon="11.5313733"><ele>619.0</ele><time>2026-04-11T14:37:54.156Z</time></trkpt><trkpt lat="43.8341133" lon="11.531475"><ele>619.0</ele><time>2026-04-11T14:37:55.156Z</time></trkpt><trkpt lat="43.83404" lon="11.5315433"><ele>618.2</ele><time>2026-04-11T14:37:56.156Z</time></trkpt><trkpt lat="43.833975" lon="11.531595"><ele>617.4</ele><time>2026-04-11T14:37:57.156Z</time></trkpt><trkpt lat="43.8339183" lon="11.5316383"><ele>616.6</ele><time>2026-04-11T14:37:58.156Z</time></trkpt><trkpt lat="43.833845" lon="11.5317433"><ele>615.8</ele><time>2026-04-11T14:38:00.156Z</time></trkpt><trkpt lat="43.8338267" lon="11.5319367"><ele>615.0</ele><time>2026-04-11T14:38:02.156Z</time></trkpt><trkpt lat="43.8338383" lon="11.53206"><ele>616.6</ele><time>2026-04-11T14:38:03.156Z</time></trkpt><trkpt lat="43.83385" lon="11.5321633"><ele>618.2</ele><time>2026-04-11T14:38:04.156Z</time></trkpt><trkpt lat="43.8339083" lon="11.53232"><ele>619.8</ele><time>2026-04-11T14:38:06.156Z</time></trkpt><trkpt lat="43.8339383" lon="11.5324033"><ele>621.4</ele><time>2026-04-11T14:38:07.156Z</time></trkpt><trkpt lat="43.8339617" lon="11.532485"><ele>623.0</ele><time>2026-04-11T14:38:08.156Z</time></trkpt><trkpt lat="43.8339667" lon="11.5326683"><ele>623.0</ele><time>2026-04-11T14:38:10.156Z</time></trkpt><trkpt lat="43.8339483" lon="11.5327717"><ele>623.0</ele><time>2026-04-11T14:38:11.156Z</time></trkpt><trkpt lat="43.8339333" lon="11.53288"><ele>623.0</ele><time>2026-04-11T14:38:12.156Z</time></trkpt><trkpt lat="43.833925" lon="11.5329867"><ele>623.0</ele><time>2026-04-11T14:38:13.156Z</time></trkpt><trkpt lat="43.8339183" lon="11.533085"><ele>623.0</ele><time>2026-04-11T14:38:14.157Z</time></trkpt><trkpt lat="43.8339233" lon="11.5331817"><ele>623.0</ele><time>2026-04-11T14:38:15.156Z</time></trkpt><trkpt lat="43.8339283" lon="11.5332783"><ele>623.0</ele><time>2026-04-11T14:38:16.156Z</time></trkpt><trkpt lat="43.8339267" lon="11.533375"><ele>624.4285714285714</ele><time>2026-04-11T14:38:17.156Z</time></trkpt><trkpt lat="43.8339085" lon="11.5334635"><ele>625.8571428571429</ele><time>2026-04-11T14:38:18.156Z</time></trkpt><trkpt lat="43.8338717" lon="11.5335476"><ele>627.2857142857142</ele><time>2026-04-11T14:38:19.156Z</time></trkpt><trkpt lat="43.8338161" lon="11.5336194"><ele>628.7142857142858</ele><time>2026-04-11T14:38:20.157Z</time></trkpt><trkpt lat="43.8337662" lon="11.5336994"><ele>630.1428571428571</ele><time>2026-04-11T14:38:21.156Z</time></trkpt><trkpt lat="43.8337314" lon="11.5337791"><ele>631.5714285714286</ele><time>2026-04-11T14:38:22.156Z</time></trkpt><trkpt lat="43.8337124" lon="11.5338676"><ele>633.0</ele><time>2026-04-11T14:38:23.156Z</time></trkpt><trkpt lat="43.8337107" lon="11.5339703"><ele>634.8</ele><time>2026-04-11T14:38:24.156Z</time></trkpt><trkpt lat="43.8337133" lon="11.5340967"><ele>636.5999999999999</ele><time>2026-04-11T14:38:25.156Z</time></trkpt><trkpt lat="43.8337047" lon="11.5342106"><ele>638.4000000000001</ele><time>2026-04-11T14:38:26.156Z</time></trkpt><trkpt lat="43.8336784" lon="11.534329"><ele>640.2</ele><time>2026-04-11T14:38:27.156Z</time></trkpt><trkpt lat="43.8336473" lon="11.5344554"><ele>642.0</ele><time>2026-04-11T14:38:28.156Z</time></trkpt><trkpt lat="43.8336156" lon="11.5345952"><ele>644.5</ele><time>2026-04-11T14:38:29.156Z</time></trkpt><trkpt lat="43.8335813" lon="11.5347456"><ele>647.0</ele><time>2026-04-11T14:38:30.156Z</time></trkpt><trkpt lat="43.8335456" lon="11.5349106"><ele>649.5</ele><time>2026-04-11T14:38:31.156Z</time></trkpt><trkpt lat="43.8335058" lon="11.5350923"><ele>652.0</ele><time>2026-04-11T14:38:32.156Z</time></trkpt><trkpt lat="43.8334605" lon="11.5352835"><ele>647.75</ele><time>2026-04-11T14:38:33.157Z</time></trkpt><trkpt lat="43.833409" lon="11.5354645"><ele>643.5</ele><time>2026-04-11T14:38:34.156Z</time></trkpt><trkpt lat="43.8333615" lon="11.5356217"><ele>639.25</ele><time>2026-04-11T14:38:35.156Z</time></trkpt><trkpt lat="43.8333212" lon="11.5357656"><ele>635.0</ele><time>2026-04-11T14:38:36.156Z</time></trkpt><trkpt lat="43.8332877" lon="11.5359006"><ele>635.0</ele><time>2026-04-11T14:38:37.157Z</time></trkpt><trkpt lat="43.8332508" lon="11.5360179"><ele>635.0</ele><time>2026-04-11T14:38:38.156Z</time></trkpt><trkpt lat="43.8331945" lon="11.5361178"><ele>635.0</ele><time>2026-04-11T14:38:39.156Z</time></trkpt><trkpt lat="43.8331254" lon="11.5362031"><ele>635.0</ele><time>2026-04-11T14:38:40.156Z</time></trkpt><trkpt lat="43.8330392" lon="11.5362906"><ele>635.0</ele><time>2026-04-11T14:38:41.156Z</time></trkpt><trkpt lat="43.8329468" lon="11.5363776"><ele>635.0</ele><time>2026-04-11T14:38:42.156Z</time></trkpt><trkpt lat="43.8328538" lon="11.5364524"><ele>635.0</ele><time>2026-04-11T14:38:43.156Z</time></trkpt><trkpt lat="43.8327551" lon="11.5365198"><ele>635.0</ele><time>2026-04-11T14:38:44.156Z</time></trkpt><trkpt lat="43.8326654" lon="11.5365885"><ele>635.0</ele><time>2026-04-11T14:38:45.156Z</time></trkpt><trkpt lat="43.8325797" lon="11.5366667"><ele>635.0</ele><time>2026-04-11T14:38:46.156Z</time></trkpt><trkpt lat="43.8325001" lon="11.5367616"><ele>635.0</ele><time>2026-04-11T14:38:47.157Z</time></trkpt><trkpt lat="43.8324244" lon="11.536868"><ele>635.0</ele><time>2026-04-11T14:38:48.156Z</time></trkpt><trkpt lat="43.8323517" lon="11.5369778"><ele>635.0</ele><time>2026-04-11T14:38:49.156Z</time></trkpt><trkpt lat="43.8322889" lon="11.5370913"><ele>635.0</ele><time>2026-04-11T14:38:50.156Z</time></trkpt><trkpt lat="43.832241" lon="11.5372116"><ele>635.0</ele><time>2026-04-11T14:38:51.156Z</time></trkpt><trkpt lat="43.8322202" lon="11.5373393"><ele>638.0</ele><time>2026-04-11T14:38:52.156Z</time></trkpt><trkpt lat="43.8322008" lon="11.5374663"><ele>641.0</ele><time>2026-04-11T14:38:53.156Z</time></trkpt><trkpt lat="43.8322006" lon="11.5376054"><ele>644.0</ele><time>2026-04-11T14:38:54.156Z</time></trkpt><trkpt lat="43.8322021" lon="11.5377559"><ele>647.0</ele><time>2026-04-11T14:38:55.156Z</time></trkpt><trkpt lat="43.8321776" lon="11.5378907"><ele>650.0</ele><time>2026-04-11T14:38:56.156Z</time></trkpt><trkpt lat="43.8321388" lon="11.5380144"><ele>651.6666666666666</ele><time>2026-04-11T14:38:57.156Z</time></trkpt><trkpt lat="43.8320972" lon="11.5381305"><ele>653.3333333333333</ele><time>2026-04-11T14:38:58.156Z</time></trkpt><trkpt lat="43.8320675" lon="11.5382447"><ele>655.0</ele><time>2026-04-11T14:38:59.157Z</time></trkpt><trkpt lat="43.8320635" lon="11.5383645"><ele>656.6666666666666</ele><time>2026-04-11T14:39:00.156Z</time></trkpt><trkpt lat="43.8320603" lon="11.5384851"><ele>658.3333333333334</ele><time>2026-04-11T14:39:01.156Z</time></trkpt><trkpt lat="43.8320733" lon="11.5386039"><ele>660.0</ele><time>2026-04-11T14:39:02.156Z</time></trkpt><trkpt lat="43.8320894" lon="11.5387148"><ele>662.4</ele><time>2026-04-11T14:39:03.156Z</time></trkpt><trkpt lat="43.8320989" lon="11.5388107"><ele>664.8</ele><time>2026-04-11T14:39:04.156Z</time></trkpt><trkpt lat="43.8320713" lon="11.5389525"><ele>667.2</ele><time>2026-04-11T14:39:06.156Z</time></trkpt><trkpt lat="43.8319723" lon="11.5390429"><ele>669.6</ele><time>2026-04-11T14:39:08.156Z</time></trkpt><trkpt lat="43.8319005" lon="11.5390842"><ele>672.0</ele><time>2026-04-11T14:39:09.157Z</time></trkpt><trkpt lat="43.831822" lon="11.5391382"><ele>669.0</ele><time>2026-04-11T14:39:10.156Z</time></trkpt><trkpt lat="43.8317435" lon="11.539206"><ele>666.0</ele><time>2026-04-11T14:39:11.156Z</time></trkpt><trkpt lat="43.8316675" lon="11.5392786"><ele>663.0</ele><time>2026-04-11T14:39:12.156Z</time></trkpt><trkpt lat="43.8315918" lon="11.5393415"><ele>660.0</ele><time>2026-04-11T14:39:13.156Z</time></trkpt><trkpt lat="43.8315172" lon="11.5393862"><ele>657.0</ele><time>2026-04-11T14:39:14.156Z</time></trkpt><trkpt lat="43.8314521" lon="11.5394141"><ele>654.0</ele><time>2026-04-11T14:39:15.156Z</time></trkpt><trkpt lat="43.8313653" lon="11.5394674"><ele>657.2</ele><time>2026-04-11T14:39:17.156Z</time></trkpt><trkpt lat="43.8313378" lon="11.5395721"><ele>660.4000000000001</ele><time>2026-04-11T14:39:20.156Z</time></trkpt><trkpt lat="43.83139" lon="11.5397483"><ele>663.6</ele><time>2026-04-11T14:40:20.156Z</time></trkpt><trkpt lat="43.831475" lon="11.5397167"><ele>666.8</ele><time>2026-04-11T14:40:21.157Z</time></trkpt><trkpt lat="43.83157" lon="11.539665"><ele>670.0</ele><time>2026-04-11T14:40:23.157Z</time></trkpt><trkpt lat="43.83162" lon="11.5396083"><ele>670.3333333333334</ele><time>2026-04-11T14:40:24.156Z</time></trkpt><trkpt lat="43.83167" lon="11.53954"><ele>670.6666666666667</ele><time>2026-04-11T14:40:25.156Z</time></trkpt><trkpt lat="43.83173" lon="11.5394783"><ele>671.0</ele><time>2026-04-11T14:40:26.156Z</time></trkpt><trkpt lat="43.8317967" lon="11.5394233"><ele>671.3333333333334</ele><time>2026-04-11T14:40:27.156Z</time></trkpt><trkpt lat="43.8318717" lon="11.5393783"><ele>671.6666666666666</ele><time>2026-04-11T14:40:28.156Z</time></trkpt><trkpt lat="43.8319517" lon="11.5393417"><ele>672.0</ele><time>2026-04-11T14:40:29.156Z</time></trkpt><trkpt lat="43.8320283" lon="11.5393117"><ele>672.0</ele><time>2026-04-11T14:40:30.156Z</time></trkpt><trkpt lat="43.8321133" lon="11.539295"><ele>672.0</ele><time>2026-04-11T14:40:31.156Z</time></trkpt><trkpt lat="43.8321883" lon="11.5392917"><ele>672.0</ele><time>2026-04-11T14:40:32.156Z</time></trkpt><trkpt lat="43.8322617" lon="11.53927"><ele>672.0</ele><time>2026-04-11T14:40:33.156Z</time></trkpt><trkpt lat="43.8323233" lon="11.5392383"><ele>672.0</ele><time>2026-04-11T14:40:34.156Z</time></trkpt><trkpt lat="43.8323917" lon="11.5391233"><ele>672.0</ele><time>2026-04-11T14:40:36.156Z</time></trkpt><trkpt lat="43.8323917" lon="11.5390067"><ele>672.0</ele><time>2026-04-11T14:40:37.156Z</time></trkpt><trkpt lat="43.8323917" lon="11.5388817"><ele>672.0</ele><time>2026-04-11T14:40:38.156Z</time></trkpt><trkpt lat="43.8324" lon="11.53876"><ele>672.0</ele><time>2026-04-11T14:40:39.156Z</time></trkpt><trkpt lat="43.8324383" lon="11.5386633"><ele>672.0</ele><time>2026-04-11T14:40:40.156Z</time></trkpt><trkpt lat="43.832485" lon="11.53858"><ele>672.0</ele><time>2026-04-11T14:40:41.156Z</time></trkpt><trkpt lat="43.8325533" lon="11.5385033"><ele>672.0</ele><time>2026-04-11T14:40:42.157Z</time></trkpt><trkpt lat="43.83262" lon="11.5384417"><ele>673.6666666666666</ele><time>2026-04-11T14:40:43.156Z</time></trkpt><trkpt lat="43.8326983" lon="11.5383933"><ele>675.3333333333334</ele><time>2026-04-11T14:40:44.156Z</time></trkpt><trkpt lat="43.8327783" lon="11.53835"><ele>677.0</ele><time>2026-04-11T14:40:45.156Z</time></trkpt><trkpt lat="43.83285" lon="11.53829"><ele>678.6666666666667</ele><time>2026-04-11T14:40:46.156Z</time></trkpt><trkpt lat="43.832905" lon="11.5382033"><ele>680.3333333333334</ele><time>2026-04-11T14:40:47.157Z</time></trkpt><trkpt lat="43.832945" lon="11.538105"><ele>682.0</ele><time>2026-04-11T14:40:48.156Z</time></trkpt><trkpt lat="43.8329933" lon="11.53801"><ele>682.0</ele><time>2026-04-11T14:40:49.156Z</time></trkpt><trkpt lat="43.8330517" lon="11.5379267"><ele>682.0</ele><time>2026-04-11T14:40:50.156Z</time></trkpt><trkpt lat="43.8331217" lon="11.5378583"><ele>682.0</ele><time>2026-04-11T14:40:51.156Z</time></trkpt><trkpt lat="43.833205" lon="11.5377967"><ele>682.0</ele><time>2026-04-11T14:40:52.156Z</time></trkpt><trkpt lat="43.8333017" lon="11.5377533"><ele>682.0</ele><time>2026-04-11T14:40:53.157Z</time></trkpt><trkpt lat="43.8334083" lon="11.5377133"><ele>682.5</ele><time>2026-04-11T14:40:54.156Z</time></trkpt><trkpt lat="43.833525" lon="11.5376733"><ele>683.0</ele><time>2026-04-11T14:40:55.157Z</time></trkpt><trkpt lat="43.833635" lon="11.5376267"><ele>683.5</ele><time>2026-04-11T14:40:56.156Z</time></trkpt><trkpt lat="43.8337567" lon="11.5375733"><ele>684.0</ele><time>2026-04-11T14:40:57.156Z</time></trkpt><trkpt lat="43.833875" lon="11.5375267"><ele>684.0</ele><time>2026-04-11T14:40:58.156Z</time></trkpt><trkpt lat="43.8339983" lon="11.5374867"><ele>684.0</ele><time>2026-04-11T14:40:59.156Z</time></trkpt><trkpt lat="43.8341117" lon="11.537455"><ele>684.0</ele><time>2026-04-11T14:41:00.156Z</time></trkpt><trkpt lat="43.8342083" lon="11.53741"><ele>684.0</ele><time>2026-04-11T14:41:01.157Z</time></trkpt><trkpt lat="43.8343067" lon="11.5373683"><ele>684.0</ele><time>2026-04-11T14:41:02.156Z</time></trkpt><trkpt lat="43.8343867" lon="11.5373067"><ele>685.4000000000001</ele><time>2026-04-11T14:41:03.156Z</time></trkpt><trkpt lat="43.83447" lon="11.53722"><ele>686.8</ele><time>2026-04-11T14:41:04.156Z</time></trkpt><trkpt lat="43.83454" lon="11.53713"><ele>688.2</ele><time>2026-04-11T14:41:05.156Z</time></trkpt><trkpt lat="43.8346183" lon="11.53706"><ele>689.5999999999999</ele><time>2026-04-11T14:41:06.156Z</time></trkpt><trkpt lat="43.8347033" lon="11.536995"><ele>691.0</ele><time>2026-04-11T14:41:07.156Z</time></trkpt><trkpt lat="43.8347967" lon="11.5369433"><ele>691.0</ele><time>2026-04-11T14:41:08.156Z</time></trkpt><trkpt lat="43.8349" lon="11.5368817"><ele>691.0</ele><time>2026-04-11T14:41:09.156Z</time></trkpt><trkpt lat="43.835005" lon="11.5368083"><ele>691.0</ele><time>2026-04-11T14:41:10.156Z</time></trkpt><trkpt lat="43.8351117" lon="11.5367367"><ele>691.0</ele><time>2026-04-11T14:41:11.157Z</time></trkpt><trkpt lat="43.8352233" lon="11.5366517"><ele>692.0</ele><time>2026-04-11T14:41:12.156Z</time></trkpt><trkpt lat="43.8353283" lon="11.5365733"><ele>693.0</ele><time>2026-04-11T14:41:13.156Z</time></trkpt><trkpt lat="43.8354317" lon="11.5364883"><ele>694.0</ele><time>2026-04-11T14:41:14.157Z</time></trkpt><trkpt lat="43.8355233" lon="11.5364217"><ele>695.0</ele><time>2026-04-11T14:41:15.156Z</time></trkpt><trkpt lat="43.8356033" lon="11.5363583"><ele>696.0</ele><time>2026-04-11T14:41:16.156Z</time></trkpt><trkpt lat="43.8356767" lon="11.536315"><ele>696.0</ele><time>2026-04-11T14:41:17.156Z</time></trkpt><trkpt lat="43.8357483" lon="11.5363083"><ele>696.0</ele><time>2026-04-11T14:41:18.156Z</time></trkpt><trkpt lat="43.8358117" lon="11.5363233"><ele>696.0</ele><time>2026-04-11T14:41:19.156Z</time></trkpt><trkpt lat="43.83587" lon="11.53636"><ele>696.0</ele><time>2026-04-11T14:41:20.156Z</time></trkpt><trkpt lat="43.8359217" lon="11.536415"><ele>696.0</ele><time>2026-04-11T14:41:21.156Z</time></trkpt><trkpt lat="43.8359783" lon="11.5365533"><ele>696.0</ele><time>2026-04-11T14:41:23.156Z</time></trkpt><trkpt lat="43.8359933" lon="11.5366383"><ele>696.0</ele><time>2026-04-11T14:41:24.156Z</time></trkpt><trkpt lat="43.8360033" lon="11.5367283"><ele>691.6666666666666</ele><time>2026-04-11T14:41:25.156Z</time></trkpt><trkpt lat="43.8360117" lon="11.5368317"><ele>687.3333333333334</ele><time>2026-04-11T14:41:26.156Z</time></trkpt><trkpt lat="43.83602" lon="11.5369317"><ele>683.0</ele><time>2026-04-11T14:41:27.157Z</time></trkpt><trkpt lat="43.8360267" lon="11.537045"><ele>678.6666666666667</ele><time>2026-04-11T14:41:28.156Z</time></trkpt><trkpt lat="43.8360383" lon="11.5371633"><ele>674.3333333333334</ele><time>2026-04-11T14:41:29.156Z</time></trkpt><trkpt lat="43.8360383" lon="11.5372783"><ele>670.0</ele><time>2026-04-11T14:41:30.156Z</time></trkpt><trkpt lat="43.8360283" lon="11.53739"><ele>668.1666666666667</ele><time>2026-04-11T14:41:31.156Z</time></trkpt><trkpt lat="43.8360233" lon="11.537495"><ele>666.3333333333334</ele><time>2026-04-11T14:41:32.156Z</time></trkpt><trkpt lat="43.8360133" lon="11.5375967"><ele>664.5</ele><time>2026-04-11T14:41:33.156Z</time></trkpt><trkpt lat="43.8359983" lon="11.537685"><ele>662.6666666666666</ele><time>2026-04-11T14:41:34.156Z</time></trkpt><trkpt lat="43.835965" lon="11.537775"><ele>660.8333333333333</ele><time>2026-04-11T14:41:35.156Z</time></trkpt><trkpt lat="43.8359283" lon="11.5378717"><ele>659.0</ele><time>2026-04-11T14:41:36.156Z</time></trkpt><trkpt lat="43.8358883" lon="11.5379933"><ele>667.75</ele><time>2026-04-11T14:41:37.156Z</time></trkpt><trkpt lat="43.8358483" lon="11.53812"><ele>676.5</ele><time>2026-04-11T14:41:38.156Z</time></trkpt><trkpt lat="43.835805" lon="11.538275"><ele>685.25</ele><time>2026-04-11T14:41:39.156Z</time></trkpt><trkpt lat="43.83575" lon="11.5384183"><ele>694.0</ele><time>2026-04-11T14:41:40.156Z</time></trkpt><trkpt lat="43.835705" lon="11.538565"><ele>694.0</ele><time>2026-04-11T14:41:41.157Z</time></trkpt><trkpt lat="43.8356533" lon="11.538705"><ele>694.0</ele><time>2026-04-11T14:41:42.156Z</time></trkpt><trkpt lat="43.8355983" lon="11.53884"><ele>694.0</ele><time>2026-04-11T14:41:43.156Z</time></trkpt><trkpt lat="43.8355433" lon="11.53897"><ele>694.0</ele><time>2026-04-11T14:41:44.156Z</time></trkpt><trkpt lat="43.8354917" lon="11.5391"><ele>694.0</ele><time>2026-04-11T14:41:45.157Z</time></trkpt><trkpt lat="43.8354317" lon="11.5392267"><ele>693.0</ele><time>2026-04-11T14:41:46.157Z</time></trkpt><trkpt lat="43.8353767" lon="11.53935"><ele>692.0</ele><time>2026-04-11T14:41:47.156Z</time></trkpt><trkpt lat="43.8353233" lon="11.5394533"><ele>691.0</ele><time>2026-04-11T14:41:48.156Z</time></trkpt><trkpt lat="43.8352733" lon="11.53955"><ele>690.0</ele><time>2026-04-11T14:41:49.156Z</time></trkpt><trkpt lat="43.8352333" lon="11.5396333"><ele>689.0</ele><time>2026-04-11T14:41:50.156Z</time></trkpt><trkpt lat="43.835215" lon="11.5397217"><ele>688.0</ele><time>2026-04-11T14:41:51.156Z</time></trkpt><trkpt lat="43.8352183" lon="11.5398183"><ele>687.2</ele><time>2026-04-11T14:41:52.156Z</time></trkpt><trkpt lat="43.8352317" lon="11.5399233"><ele>686.4</ele><time>2026-04-11T14:41:53.156Z</time></trkpt><trkpt lat="43.8352483" lon="11.540035"><ele>685.6</ele><time>2026-04-11T14:41:54.156Z</time></trkpt><trkpt lat="43.8352683" lon="11.5401567"><ele>684.8000000000001</ele><time>2026-04-11T14:41:55.156Z</time></trkpt><trkpt lat="43.8352783" lon="11.5402967"><ele>684.0</ele><time>2026-04-11T14:41:56.156Z</time></trkpt><trkpt lat="43.835285" lon="11.5404367"><ele>683.4000000000001</ele><time>2026-04-11T14:41:57.156Z</time></trkpt><trkpt lat="43.8352767" lon="11.54057"><ele>682.8</ele><time>2026-04-11T14:41:58.156Z</time></trkpt><trkpt lat="43.8352717" lon="11.5407117"><ele>682.2</ele><time>2026-04-11T14:41:59.156Z</time></trkpt><trkpt lat="43.8352567" lon="11.5408617"><ele>681.5999999999999</ele><time>2026-04-11T14:42:00.157Z</time></trkpt><trkpt lat="43.8352383" lon="11.54103"><ele>681.0</ele><time>2026-04-11T14:42:01.157Z</time></trkpt><trkpt lat="43.83522" lon="11.5411883"><ele>682.1999999999999</ele><time>2026-04-11T14:42:02.156Z</time></trkpt><trkpt lat="43.8352" lon="11.5413333"><ele>683.4</ele><time>2026-04-11T14:42:03.156Z</time></trkpt><trkpt lat="43.8352017" lon="11.5414783"><ele>684.6</ele><time>2026-04-11T14:42:04.157Z</time></trkpt><trkpt lat="43.835215" lon="11.5416317"><ele>685.8</ele><time>2026-04-11T14:42:05.156Z</time></trkpt><trkpt lat="43.8352381" lon="11.541784"><ele>687.0</ele><time>2026-04-11T14:42:06.156Z</time></trkpt><trkpt lat="43.8352725" lon="11.5419396"><ele>688.2</ele><time>2026-04-11T14:42:07.156Z</time></trkpt><trkpt lat="43.8353201" lon="11.5420897"><ele>689.4000000000001</ele><time>2026-04-11T14:42:08.156Z</time></trkpt><trkpt lat="43.8353659" lon="11.5422261"><ele>690.5999999999999</ele><time>2026-04-11T14:42:09.156Z</time></trkpt><trkpt lat="43.8354049" lon="11.5423554"><ele>691.8</ele><time>2026-04-11T14:42:10.156Z</time></trkpt><trkpt lat="43.8354311" lon="11.5424919"><ele>693.0</ele><time>2026-04-11T14:42:11.156Z</time></trkpt><trkpt lat="43.835453" lon="11.5426415"><ele>693.0</ele><time>2026-04-11T14:42:12.156Z</time></trkpt><trkpt lat="43.8354691" lon="11.5427836"><ele>693.0</ele><time>2026-04-11T14:42:13.156Z</time></trkpt><trkpt lat="43.8354778" lon="11.5429089"><ele>693.0</ele><time>2026-04-11T14:42:14.156Z</time></trkpt><trkpt lat="43.8354664" lon="11.5430237"><ele>693.0</ele><time>2026-04-11T14:42:15.156Z</time></trkpt><trkpt lat="43.8354491" lon="11.5431444"><ele>693.0</ele><time>2026-04-11T14:42:16.156Z</time></trkpt><trkpt lat="43.8354155" lon="11.5432649"><ele>692.2</ele><time>2026-04-11T14:42:17.156Z</time></trkpt><trkpt lat="43.8353804" lon="11.5433902"><ele>691.4</ele><time>2026-04-11T14:42:18.156Z</time></trkpt><trkpt lat="43.8353656" lon="11.5435313"><ele>690.6</ele><time>2026-04-11T14:42:19.156Z</time></trkpt><trkpt lat="43.8353732" lon="11.5436705"><ele>689.8000000000001</ele><time>2026-04-11T14:42:20.156Z</time></trkpt><trkpt lat="43.8353934" lon="11.5438142"><ele>689.0</ele><time>2026-04-11T14:42:21.156Z</time></trkpt><trkpt lat="43.8354242" lon="11.5439565"><ele>688.4000000000001</ele><time>2026-04-11T14:42:22.156Z</time></trkpt><trkpt lat="43.8354521" lon="11.5440951"><ele>687.8</ele><time>2026-04-11T14:42:23.156Z</time></trkpt><trkpt lat="43.8354715" lon="11.5442191"><ele>687.2</ele><time>2026-04-11T14:42:24.156Z</time></trkpt><trkpt lat="43.8354739" lon="11.5443379"><ele>686.5999999999999</ele><time>2026-04-11T14:42:25.157Z</time></trkpt><trkpt lat="43.8354587" lon="11.5444613"><ele>686.0</ele><time>2026-04-11T14:42:26.156Z</time></trkpt><trkpt lat="43.8354346" lon="11.5445889"><ele>686.0</ele><time>2026-04-11T14:42:27.156Z</time></trkpt><trkpt lat="43.8354103" lon="11.5447239"><ele>686.0</ele><time>2026-04-11T14:42:28.157Z</time></trkpt><trkpt lat="43.8353862" lon="11.5448656"><ele>686.0</ele><time>2026-04-11T14:42:29.157Z</time></trkpt><trkpt lat="43.8353634" lon="11.5450022"><ele>686.0</ele><time>2026-04-11T14:42:30.156Z</time></trkpt><trkpt lat="43.835338" lon="11.5451239"><ele>686.0</ele><time>2026-04-11T14:42:31.156Z</time></trkpt><trkpt lat="43.8353082" lon="11.5452365"><ele>686.0</ele><time>2026-04-11T14:42:32.156Z</time></trkpt><trkpt lat="43.8352575" lon="11.5453381"><ele>686.0</ele><time>2026-04-11T14:42:33.156Z</time></trkpt><trkpt lat="43.8352037" lon="11.5454315"><ele>686.0</ele><time>2026-04-11T14:42:34.156Z</time></trkpt><trkpt lat="43.8351313" lon="11.5455"><ele>686.0</ele><time>2026-04-11T14:42:35.156Z</time></trkpt><trkpt lat="43.8350456" lon="11.5455447"><ele>686.0</ele><time>2026-04-11T14:42:36.156Z</time></trkpt><trkpt lat="43.8349515" lon="11.5455676"><ele>690.1999999999999</ele><time>2026-04-11T14:42:37.156Z</time></trkpt><trkpt lat="43.834853" lon="11.5455707"><ele>694.4</ele><time>2026-04-11T14:42:38.156Z</time></trkpt><trkpt lat="43.8347517" lon="11.5455283"><ele>698.6</ele><time>2026-04-11T14:42:39.156Z</time></trkpt><trkpt lat="43.83468" lon="11.54553"><ele>702.8</ele><time>2026-04-11T14:42:40.156Z</time></trkpt><trkpt lat="43.8345867" lon="11.5456"><ele>707.0</ele><time>2026-04-11T14:42:42.156Z</time></trkpt><trkpt lat="43.8345567" lon="11.5457267"><ele>707.0</ele><time>2026-04-11T14:42:44.156Z</time></trkpt><trkpt lat="43.8345633" lon="11.5458183"><ele>707.0</ele><time>2026-04-11T14:42:45.156Z</time></trkpt><trkpt lat="43.83458" lon="11.5459333"><ele>707.0</ele><time>2026-04-11T14:42:46.156Z</time></trkpt><trkpt lat="43.834595" lon="11.5460567"><ele>707.0</ele><time>2026-04-11T14:42:47.156Z</time></trkpt><trkpt lat="43.8346117" lon="11.5462033"><ele>707.0</ele><time>2026-04-11T14:42:48.156Z</time></trkpt><trkpt lat="43.834635" lon="11.5463717"><ele>705.2</ele><time>2026-04-11T14:42:49.156Z</time></trkpt><trkpt lat="43.8346583" lon="11.5465267"><ele>703.4000000000001</ele><time>2026-04-11T14:42:50.156Z</time></trkpt><trkpt lat="43.8346667" lon="11.54666"><ele>701.5999999999999</ele><time>2026-04-11T14:42:51.156Z</time></trkpt><trkpt lat="43.834675" lon="11.5467817"><ele>699.8</ele><time>2026-04-11T14:42:52.156Z</time></trkpt><trkpt lat="43.83466" lon="11.5469017"><ele>698.0</ele><time>2026-04-11T14:42:53.156Z</time></trkpt><trkpt lat="43.83465" lon="11.547025"><ele>700.0</ele><time>2026-04-11T14:42:54.156Z</time></trkpt><trkpt lat="43.83461" lon="11.5471317"><ele>702.0</ele><time>2026-04-11T14:42:55.156Z</time></trkpt><trkpt lat="43.83457" lon="11.5472283"><ele>704.0</ele><time>2026-04-11T14:42:56.157Z</time></trkpt><trkpt lat="43.8345383" lon="11.547315"><ele>706.0</ele><time>2026-04-11T14:42:57.157Z</time></trkpt><trkpt lat="43.834545" lon="11.5474617"><ele>708.0</ele><time>2026-04-11T14:42:59.156Z</time></trkpt><trkpt lat="43.83464" lon="11.54755"><ele>708.0</ele><time>2026-04-11T14:43:01.156Z</time></trkpt><trkpt lat="43.8347117" lon="11.547585"><ele>708.0</ele><time>2026-04-11T14:43:02.157Z</time></trkpt><trkpt lat="43.8347933" lon="11.547625"><ele>708.0</ele><time>2026-04-11T14:43:03.156Z</time></trkpt><trkpt lat="43.8348617" lon="11.5476917"><ele>708.0</ele><time>2026-04-11T14:43:04.156Z</time></trkpt><trkpt lat="43.834925" lon="11.5477767"><ele>708.0</ele><time>2026-04-11T14:43:05.156Z</time></trkpt><trkpt lat="43.8349833" lon="11.5478883"><ele>708.0</ele><time>2026-04-11T14:43:06.157Z</time></trkpt><trkpt lat="43.8350367" lon="11.5479967"><ele>710.6666666666666</ele><time>2026-04-11T14:43:07.156Z</time></trkpt><trkpt lat="43.8350783" lon="11.5481"><ele>713.3333333333334</ele><time>2026-04-11T14:43:08.157Z</time></trkpt><trkpt lat="43.83511" lon="11.5481867"><ele>716.0</ele><time>2026-04-11T14:43:09.156Z</time></trkpt><trkpt lat="43.83513" lon="11.5483517"><ele>718.6666666666667</ele><time>2026-04-11T14:43:11.156Z</time></trkpt><trkpt lat="43.8351317" lon="11.5484417"><ele>721.3333333333334</ele><time>2026-04-11T14:43:12.156Z</time></trkpt><trkpt lat="43.8351267" lon="11.5485333"><ele>724.0</ele><time>2026-04-11T14:43:13.156Z</time></trkpt><trkpt lat="43.83512" lon="11.5486317"><ele>724.1428571428571</ele><time>2026-04-11T14:43:14.156Z</time></trkpt><trkpt lat="43.835105" lon="11.5487233"><ele>724.2857142857142</ele><time>2026-04-11T14:43:15.156Z</time></trkpt><trkpt lat="43.8350933" lon="11.54882"><ele>724.4285714285714</ele><time>2026-04-11T14:43:16.156Z</time></trkpt><trkpt lat="43.8350817" lon="11.5489267"><ele>724.5714285714286</ele><time>2026-04-11T14:43:17.156Z</time></trkpt><trkpt lat="43.835065" lon="11.5490367"><ele>724.7142857142858</ele><time>2026-04-11T14:43:18.156Z</time></trkpt><trkpt lat="43.8350383" lon="11.5491383"><ele>724.8571428571429</ele><time>2026-04-11T14:43:19.156Z</time></trkpt><trkpt lat="43.83501" lon="11.5492317"><ele>725.0</ele><time>2026-04-11T14:43:20.156Z</time></trkpt><trkpt lat="43.8349683" lon="11.5493017"><ele>725.0</ele><time>2026-04-11T14:43:21.156Z</time></trkpt><trkpt lat="43.8349233" lon="11.5493817"><ele>725.0</ele><time>2026-04-11T14:43:22.157Z</time></trkpt><trkpt lat="43.8348717" lon="11.5494567"><ele>725.0</ele><time>2026-04-11T14:43:23.156Z</time></trkpt><trkpt lat="43.8348233" lon="11.54953"><ele>725.0</ele><time>2026-04-11T14:43:24.156Z</time></trkpt><trkpt lat="43.8347417" lon="11.54965"><ele>725.0</ele><time>2026-04-11T14:43:26.156Z</time></trkpt><trkpt lat="43.834685" lon="11.5497367"><ele>725.0</ele><time>2026-04-11T14:43:28.156Z</time></trkpt><trkpt lat="43.8346533" lon="11.5498517"><ele>725.0</ele><time>2026-04-11T14:43:31.156Z</time></trkpt><trkpt lat="43.83467" lon="11.54997"><ele>725.0</ele><time>2026-04-11T14:43:33.156Z</time></trkpt><trkpt lat="43.834695" lon="11.55007"><ele>725.0</ele><time>2026-04-11T14:43:34.156Z</time></trkpt><trkpt lat="43.834725" lon="11.5501783"><ele>725.0</ele><time>2026-04-11T14:43:35.156Z</time></trkpt><trkpt lat="43.83475" lon="11.5502733"><ele>725.0</ele><time>2026-04-11T14:43:36.157Z</time></trkpt><trkpt lat="43.834775" lon="11.5503733"><ele>725.0</ele><time>2026-04-11T14:43:37.156Z</time></trkpt><trkpt lat="43.8347983" lon="11.55047"><ele>726.2857142857143</ele><time>2026-04-11T14:43:38.156Z</time></trkpt><trkpt lat="43.8348167" lon="11.5505667"><ele>727.5714285714287</ele><time>2026-04-11T14:43:39.156Z</time></trkpt><trkpt lat="43.83483" lon="11.55066"><ele>728.8571428571429</ele><time>2026-04-11T14:43:40.156Z</time></trkpt><trkpt lat="43.83485" lon="11.5507583"><ele>730.1428571428571</ele><time>2026-04-11T14:43:41.156Z</time></trkpt><trkpt lat="43.8348783" lon="11.5508567"><ele>731.4285714285714</ele><time>2026-04-11T14:43:42.156Z</time></trkpt><trkpt lat="43.8349183" lon="11.5509383"><ele>732.7142857142857</ele><time>2026-04-11T14:43:43.156Z</time></trkpt><trkpt lat="43.8349717" lon="11.5510117"><ele>734.0</ele><time>2026-04-11T14:43:44.157Z</time></trkpt><trkpt lat="43.8350317" lon="11.551095"><ele>734.0</ele><time>2026-04-11T14:43:45.156Z</time></trkpt><trkpt lat="43.8350817" lon="11.551175"><ele>734.0</ele><time>2026-04-11T14:43:46.157Z</time></trkpt><trkpt lat="43.8351233" lon="11.5512583"><ele>734.0</ele><time>2026-04-11T14:43:47.156Z</time></trkpt><trkpt lat="43.8351617" lon="11.5513417"><ele>734.0</ele><time>2026-04-11T14:43:48.156Z</time></trkpt><trkpt lat="43.8352083" lon="11.55142"><ele>734.0</ele><time>2026-04-11T14:43:49.157Z</time></trkpt><trkpt lat="43.8352633" lon="11.5514833"><ele>734.0</ele><time>2026-04-11T14:43:50.157Z</time></trkpt><trkpt lat="43.835325" lon="11.551535"><ele>734.0</ele><time>2026-04-11T14:43:51.156Z</time></trkpt><trkpt lat="43.8353867" lon="11.551585"><ele>734.0</ele><time>2026-04-11T14:43:52.156Z</time></trkpt><trkpt lat="43.83545" lon="11.5516433"><ele>734.0</ele><time>2026-04-11T14:43:53.156Z</time></trkpt><trkpt lat="43.8355083" lon="11.5517067"><ele>734.0</ele><time>2026-04-11T14:43:54.156Z</time></trkpt><trkpt lat="43.8355467" lon="11.5517767"><ele>734.0</ele><time>2026-04-11T14:43:55.156Z</time></trkpt><trkpt lat="43.83557" lon="11.5518617"><ele>734.0</ele><time>2026-04-11T14:43:56.156Z</time></trkpt><trkpt lat="43.8355817" lon="11.5519533"><ele>734.0</ele><time>2026-04-11T14:43:57.156Z</time></trkpt><trkpt lat="43.8355783" lon="11.55206"><ele>734.0</ele><time>2026-04-11T14:43:58.156Z</time></trkpt><trkpt lat="43.8355667" lon="11.55218"><ele>734.0</ele><time>2026-04-11T14:43:59.156Z</time></trkpt><trkpt lat="43.8355567" lon="11.5523017"><ele>734.0</ele><time>2026-04-11T14:44:00.156Z</time></trkpt><trkpt lat="43.8355517" lon="11.5524133"><ele>734.0</ele><time>2026-04-11T14:44:01.156Z</time></trkpt><trkpt lat="43.835545" lon="11.5525017"><ele>734.0</ele><time>2026-04-11T14:44:02.156Z</time></trkpt><trkpt lat="43.8355483" lon="11.5526133"><ele>734.0</ele><time>2026-04-11T14:44:04.156Z</time></trkpt><trkpt lat="43.8356" lon="11.5527817"><ele>734.0</ele><time>2026-04-11T14:44:28.157Z</time></trkpt><trkpt lat="43.8357017" lon="11.5527817"><ele>734.0</ele><time>2026-04-11T14:44:33.157Z</time></trkpt><trkpt lat="43.8358017" lon="11.5527817"><ele>734.0</ele><time>2026-04-11T14:44:35.156Z</time></trkpt><trkpt lat="43.835889" lon="11.5527964"><ele>734.0</ele><time>2026-04-11T14:44:37.156Z</time></trkpt><trkpt lat="43.8359538" lon="11.5528079"><ele>734.0</ele><time>2026-04-11T14:44:39.156Z</time></trkpt><trkpt lat="43.8360291" lon="11.5528025"><ele>734.0</ele><time>2026-04-11T14:44:41.156Z</time></trkpt><trkpt lat="43.8361131" lon="11.5528147"><ele>734.0</ele><time>2026-04-11T14:44:43.156Z</time></trkpt><trkpt lat="43.8361874" lon="11.5528281"><ele>734.0</ele><time>2026-04-11T14:44:45.156Z</time></trkpt><trkpt lat="43.8362508" lon="11.5528402"><ele>734.0</ele><time>2026-04-11T14:44:47.156Z</time></trkpt><trkpt lat="43.8363336" lon="11.5528653"><ele>734.0</ele><time>2026-04-11T14:44:50.156Z</time></trkpt><trkpt lat="43.83643" lon="11.5529044"><ele>734.0</ele><time>2026-04-11T14:44:53.157Z</time></trkpt><trkpt lat="43.8365105" lon="11.5529387"><ele>734.0</ele><time>2026-04-11T14:44:55.156Z</time></trkpt><trkpt lat="43.8365866" lon="11.5529789"><ele>734.0</ele><time>2026-04-11T14:44:57.156Z</time></trkpt><trkpt lat="43.8366438" lon="11.55303"><ele>734.0</ele><time>2026-04-11T14:44:59.156Z</time></trkpt><trkpt lat="43.8367266" lon="11.5530948"><ele>734.0</ele><time>2026-04-11T14:45:01.156Z</time></trkpt><trkpt lat="43.8368222" lon="11.5531555"><ele>734.0</ele><time>2026-04-11T14:45:03.156Z</time></trkpt><trkpt lat="43.8369043" lon="11.5531933"><ele>734.0</ele><time>2026-04-11T14:45:05.156Z</time></trkpt><trkpt lat="43.8370045" lon="11.5532189"><ele>734.0</ele><time>2026-04-11T14:45:07.156Z</time></trkpt><trkpt lat="43.8371107" lon="11.5532425"><ele>734.0</ele><time>2026-04-11T14:45:09.156Z</time></trkpt><trkpt lat="43.8371751" lon="11.5532726"><ele>734.0</ele><time>2026-04-11T14:45:11.157Z</time></trkpt><trkpt lat="43.837115" lon="11.5532367"><ele>734.0</ele><time>2026-04-11T14:45:39.156Z</time></trkpt><trkpt lat="43.8370517" lon="11.5532267"><ele>734.0</ele><time>2026-04-11T14:45:41.156Z</time></trkpt><trkpt lat="43.8369717" lon="11.55321"><ele>734.0</ele><time>2026-04-11T14:45:43.156Z</time></trkpt><trkpt lat="43.83689" lon="11.5531817"><ele>734.0</ele><time>2026-04-11T14:45:45.156Z</time></trkpt><trkpt lat="43.836825" lon="11.55315"><ele>734.0</ele><time>2026-04-11T14:45:47.156Z</time></trkpt><trkpt lat="43.8367633" lon="11.5531067"><ele>734.0</ele><time>2026-04-11T14:45:51.156Z</time></trkpt><trkpt lat="43.83671" lon="11.5530467"><ele>734.0</ele><time>2026-04-11T14:45:54.156Z</time></trkpt><trkpt lat="43.8366333" lon="11.552985"><ele>734.0</ele><time>2026-04-11T14:45:57.156Z</time></trkpt><trkpt lat="43.83655" lon="11.55294"><ele>734.0</ele><time>2026-04-11T14:45:59.156Z</time></trkpt><trkpt lat="43.836435" lon="11.55289"><ele>734.0</ele><time>2026-04-11T14:46:01.157Z</time></trkpt><trkpt lat="43.8363133" lon="11.5528567"><ele>734.0</ele><time>2026-04-11T14:46:03.156Z</time></trkpt><trkpt lat="43.8361817" lon="11.5528283"><ele>734.0</ele><time>2026-04-11T14:46:05.156Z</time></trkpt><trkpt lat="43.8360983" lon="11.5528133"><ele>734.0</ele><time>2026-04-11T14:46:06.156Z</time></trkpt><trkpt lat="43.8360183" lon="11.552805"><ele>734.0</ele><time>2026-04-11T14:46:07.156Z</time></trkpt><trkpt lat="43.8359483" lon="11.5527967"><ele>734.0</ele><time>2026-04-11T14:46:08.156Z</time></trkpt><trkpt lat="43.835885" lon="11.5527867"><ele>734.0</ele><time>2026-04-11T14:46:09.156Z</time></trkpt><trkpt lat="43.8358217" lon="11.5527767"><ele>734.0</ele><time>2026-04-11T14:46:10.156Z</time></trkpt><trkpt lat="43.8357217" lon="11.5527717"><ele>734.0</ele><time>2026-04-11T14:46:12.157Z</time></trkpt><trkpt lat="43.8356583" lon="11.552795"><ele>734.0</ele><time>2026-04-11T14:46:14.156Z</time></trkpt><trkpt lat="43.8356067" lon="11.5528467"><ele>734.0</ele><time>2026-04-11T14:46:17.156Z</time></trkpt><trkpt lat="43.835585" lon="11.5529417"><ele>734.0</ele><time>2026-04-11T14:46:19.157Z</time></trkpt><trkpt lat="43.835555" lon="11.5530917"><ele>734.0</ele><time>2026-04-11T14:46:21.156Z</time></trkpt><trkpt lat="43.83552" lon="11.5531717"><ele>733.1666666666666</ele><time>2026-04-11T14:46:22.156Z</time></trkpt><trkpt lat="43.835475" lon="11.55325"><ele>732.3333333333333</ele><time>2026-04-11T14:46:23.156Z</time></trkpt><trkpt lat="43.83542" lon="11.5533417"><ele>731.5</ele><time>2026-04-11T14:46:24.157Z</time></trkpt><trkpt lat="43.8353683" lon="11.5534433"><ele>730.6666666666666</ele><time>2026-04-11T14:46:25.156Z</time></trkpt><trkpt lat="43.8353233" lon="11.55356"><ele>729.8333333333334</ele><time>2026-04-11T14:46:26.157Z</time></trkpt><trkpt lat="43.8352917" lon="11.553665"><ele>729.0</ele><time>2026-04-11T14:46:27.156Z</time></trkpt><trkpt lat="43.8352667" lon="11.55378"><ele>726.0</ele><time>2026-04-11T14:46:28.156Z</time></trkpt><trkpt lat="43.8352483" lon="11.553915"><ele>723.0</ele><time>2026-04-11T14:46:29.156Z</time></trkpt><trkpt lat="43.835245" lon="11.5540467"><ele>720.0</ele><time>2026-04-11T14:46:30.156Z</time></trkpt><trkpt lat="43.8352333" lon="11.5541767"><ele>717.0</ele><time>2026-04-11T14:46:31.156Z</time></trkpt><trkpt lat="43.8352133" lon="11.5543067"><ele>714.0</ele><time>2026-04-11T14:46:32.157Z</time></trkpt><trkpt lat="43.835195" lon="11.554445"><ele>712.5</ele><time>2026-04-11T14:46:33.156Z</time></trkpt><trkpt lat="43.8351767" lon="11.5545717"><ele>711.0</ele><time>2026-04-11T14:46:34.156Z</time></trkpt><trkpt lat="43.8351633" lon="11.5546983"><ele>709.5</ele><time>2026-04-11T14:46:35.156Z</time></trkpt><trkpt lat="43.8351517" lon="11.5548217"><ele>708.0</ele><time>2026-04-11T14:46:36.156Z</time></trkpt><trkpt lat="43.835145" lon="11.55493"><ele>706.5</ele><time>2026-04-11T14:46:37.156Z</time></trkpt><trkpt lat="43.835145" lon="11.5550217"><ele>705.0</ele><time>2026-04-11T14:46:38.156Z</time></trkpt><trkpt lat="43.8351617" lon="11.5551333"><ele>705.0</ele><time>2026-04-11T14:46:39.157Z</time></trkpt><trkpt lat="43.835195" lon="11.555245"><ele>705.0</ele><time>2026-04-11T14:46:40.156Z</time></trkpt><trkpt lat="43.835235" lon="11.5553167"><ele>705.0</ele><time>2026-04-11T14:46:41.156Z</time></trkpt><trkpt lat="43.8353167" lon="11.5553333"><ele>705.0</ele><time>2026-04-11T14:46:43.156Z</time></trkpt><trkpt lat="43.835365" lon="11.5552417"><ele>705.0</ele><time>2026-04-11T14:46:45.156Z</time></trkpt><trkpt lat="43.8353833" lon="11.5550633"><ele>705.0</ele><time>2026-04-11T14:46:47.156Z</time></trkpt><trkpt lat="43.8354033" lon="11.55496"><ele>705.0</ele><time>2026-04-11T14:46:48.157Z</time></trkpt><trkpt lat="43.8354333" lon="11.554845"><ele>705.0</ele><time>2026-04-11T14:46:49.156Z</time></trkpt><trkpt lat="43.8354733" lon="11.5547317"><ele>705.0</ele><time>2026-04-11T14:46:50.156Z</time></trkpt><trkpt lat="43.8355083" lon="11.554635"><ele>705.0</ele><time>2026-04-11T14:46:51.156Z</time></trkpt><trkpt lat="43.83554" lon="11.5545533"><ele>705.0</ele><time>2026-04-11T14:46:52.156Z</time></trkpt><trkpt lat="43.8355933" lon="11.55445"><ele>705.0</ele><time>2026-04-11T14:46:54.156Z</time></trkpt><trkpt lat="43.8356517" lon="11.5543933"><ele>705.0</ele><time>2026-04-11T14:46:56.157Z</time></trkpt><trkpt lat="43.8357483" lon="11.5544267"><ele>705.0</ele><time>2026-04-11T14:46:59.156Z</time></trkpt><trkpt lat="43.8357967" lon="11.5545467"><ele>705.0</ele><time>2026-04-11T14:47:01.156Z</time></trkpt><trkpt lat="43.8358133" lon="11.5546317"><ele>705.0</ele><time>2026-04-11T14:47:02.156Z</time></trkpt><trkpt lat="43.8358233" lon="11.5547317"><ele>705.0</ele><time>2026-04-11T14:47:03.156Z</time></trkpt><trkpt lat="43.8358383" lon="11.5548483"><ele>705.0</ele><time>2026-04-11T14:47:04.156Z</time></trkpt><trkpt lat="43.8358433" lon="11.5549667"><ele>705.0</ele><time>2026-04-11T14:47:05.156Z</time></trkpt><trkpt lat="43.835835" lon="11.5550933"><ele>705.0</ele><time>2026-04-11T14:47:06.156Z</time></trkpt><trkpt lat="43.835815" lon="11.5552017"><ele>705.0</ele><time>2026-04-11T14:47:07.157Z</time></trkpt><trkpt lat="43.8357817" lon="11.5552967"><ele>705.0</ele><time>2026-04-11T14:47:08.157Z</time></trkpt><trkpt lat="43.83574" lon="11.55539"><ele>705.0</ele><time>2026-04-11T14:47:09.156Z</time></trkpt><trkpt lat="43.8356883" lon="11.5554783"><ele>705.0</ele><time>2026-04-11T14:47:10.156Z</time></trkpt><trkpt lat="43.8356483" lon="11.5555667"><ele>702.5</ele><time>2026-04-11T14:47:11.157Z</time></trkpt><trkpt lat="43.8356117" lon="11.5556567"><ele>700.0</ele><time>2026-04-11T14:47:12.157Z</time></trkpt><trkpt lat="43.835595" lon="11.5557467"><ele>697.5</ele><time>2026-04-11T14:47:13.156Z</time></trkpt><trkpt lat="43.8355867" lon="11.55585"><ele>695.0</ele><time>2026-04-11T14:47:14.156Z</time></trkpt><trkpt lat="43.8355817" lon="11.5559683"><ele>692.5</ele><time>2026-04-11T14:47:15.156Z</time></trkpt><trkpt lat="43.83557" lon="11.5560883"><ele>690.0</ele><time>2026-04-11T14:47:16.157Z</time></trkpt><trkpt lat="43.8355617" lon="11.556205"><ele>687.0</ele><time>2026-04-11T14:47:17.156Z</time></trkpt><trkpt lat="43.8355467" lon="11.5563083"><ele>684.0</ele><time>2026-04-11T14:47:18.156Z</time></trkpt><trkpt lat="43.8355233" lon="11.5563983"><ele>681.0</ele><time>2026-04-11T14:47:19.156Z</time></trkpt><trkpt lat="43.8354433" lon="11.5565017"><ele>678.0</ele><time>2026-04-11T14:47:21.156Z</time></trkpt><trkpt lat="43.835345" lon="11.5564783"><ele>675.0</ele><time>2026-04-11T14:47:23.156Z</time></trkpt><trkpt lat="43.835265" lon="11.5563967"><ele>675.0</ele><time>2026-04-11T14:47:25.156Z</time></trkpt><trkpt lat="43.8351833" lon="11.5563017"><ele>675.0</ele><time>2026-04-11T14:47:27.157Z</time></trkpt><trkpt lat="43.8351133" lon="11.5562067"><ele>675.0</ele><time>2026-04-11T14:47:29.156Z</time></trkpt><trkpt lat="43.8349083" lon="11.5563267"><ele>675.0</ele><time>2026-04-11T14:47:30.156Z</time></trkpt><trkpt lat="43.8348" lon="11.5563467"><ele>677.0</ele><time>2026-04-11T14:47:32.156Z</time></trkpt><trkpt lat="43.8346333" lon="11.556275"><ele>679.0</ele><time>2026-04-11T14:47:33.157Z</time></trkpt><trkpt lat="43.8346983" lon="11.55637"><ele>681.0</ele><time>2026-04-11T14:47:34.156Z</time></trkpt><trkpt lat="43.834725" lon="11.5564567"><ele>683.0</ele><time>2026-04-11T14:47:36.156Z</time></trkpt><trkpt lat="43.83492" lon="11.55655"><ele>683.0</ele><time>2026-04-11T14:47:38.156Z</time></trkpt><trkpt lat="43.834855" lon="11.5565333"><ele>683.0</ele><time>2026-04-11T14:47:40.156Z</time></trkpt><trkpt lat="43.8347917" lon="11.556545"><ele>683.0</ele><time>2026-04-11T14:47:41.156Z</time></trkpt><trkpt lat="43.8346217" lon="11.5564017"><ele>683.0</ele><time>2026-04-11T14:47:42.156Z</time></trkpt><trkpt lat="43.8345067" lon="11.5563867"><ele>683.0</ele><time>2026-04-11T14:47:44.156Z</time></trkpt><trkpt lat="43.83444" lon="11.556385"><ele>683.0</ele><time>2026-04-11T14:47:45.156Z</time></trkpt><trkpt lat="43.8343417" lon="11.5564133"><ele>683.0</ele><time>2026-04-11T14:47:47.156Z</time></trkpt><trkpt lat="43.8342917" lon="11.5564667"><ele>683.0</ele><time>2026-04-11T14:47:48.156Z</time></trkpt><trkpt lat="43.83421" lon="11.5565933"><ele>683.0</ele><time>2026-04-11T14:47:50.156Z</time></trkpt><trkpt lat="43.834145" lon="11.5567283"><ele>683.0</ele><time>2026-04-11T14:47:52.156Z</time></trkpt><trkpt lat="43.83408" lon="11.55688"><ele>683.4</ele><time>2026-04-11T14:47:54.157Z</time></trkpt><trkpt lat="43.8340033" lon="11.557025"><ele>683.8</ele><time>2026-04-11T14:47:56.156Z</time></trkpt><trkpt lat="43.833965" lon="11.557095"><ele>684.2</ele><time>2026-04-11T14:47:57.156Z</time></trkpt><trkpt lat="43.8338717" lon="11.5572083"><ele>684.6</ele><time>2026-04-11T14:47:59.157Z</time></trkpt><trkpt lat="43.8338167" lon="11.5572567"><ele>685.0</ele><time>2026-04-11T14:48:00.157Z</time></trkpt><trkpt lat="43.83375" lon="11.5572983"><ele>685.7142857142857</ele><time>2026-04-11T14:48:01.156Z</time></trkpt><trkpt lat="43.833675" lon="11.5573317"><ele>686.4285714285714</ele><time>2026-04-11T14:48:02.157Z</time></trkpt><trkpt lat="43.8336017" lon="11.5573667"><ele>687.1428571428571</ele><time>2026-04-11T14:48:03.156Z</time></trkpt><trkpt lat="43.8335333" lon="11.55742"><ele>687.8571428571429</ele><time>2026-04-11T14:48:04.157Z</time></trkpt><trkpt lat="43.83348" lon="11.5574783"><ele>688.5714285714286</ele><time>2026-04-11T14:48:05.156Z</time></trkpt><trkpt lat="43.83344" lon="11.5575567"><ele>689.2857142857143</ele><time>2026-04-11T14:48:06.156Z</time></trkpt><trkpt lat="43.8334067" lon="11.55764"><ele>690.0</ele><time>2026-04-11T14:48:07.156Z</time></trkpt><trkpt lat="43.8333967" lon="11.5577467"><ele>690.0</ele><time>2026-04-11T14:48:08.155Z</time></trkpt><trkpt lat="43.8333967" lon="11.5578567"><ele>690.0</ele><time>2026-04-11T14:48:09.156Z</time></trkpt><trkpt lat="43.833405" lon="11.5579683"><ele>690.0</ele><time>2026-04-11T14:48:10.156Z</time></trkpt><trkpt lat="43.8334267" lon="11.55806"><ele>690.0</ele><time>2026-04-11T14:48:11.156Z</time></trkpt><trkpt lat="43.833495" lon="11.5581783"><ele>690.0</ele><time>2026-04-11T14:48:13.157Z</time></trkpt><trkpt lat="43.8336" lon="11.5582667"><ele>684.2</ele><time>2026-04-11T14:48:15.156Z</time></trkpt><trkpt lat="43.83369" lon="11.5583817"><ele>678.4</ele><time>2026-04-11T14:48:17.156Z</time></trkpt><trkpt lat="43.8337483" lon="11.5585017"><ele>672.5999999999999</ele><time>2026-04-11T14:48:19.157Z</time></trkpt><trkpt lat="43.8337317" lon="11.5586183"><ele>666.8</ele><time>2026-04-11T14:48:21.156Z</time></trkpt><trkpt lat="43.8336467" lon="11.5586967"><ele>661.0</ele><time>2026-04-11T14:48:23.156Z</time></trkpt><trkpt lat="43.8335817" lon="11.5587333"><ele>660.8333333333334</ele><time>2026-04-11T14:48:24.156Z</time></trkpt><trkpt lat="43.8335067" lon="11.558755"><ele>660.6666666666667</ele><time>2026-04-11T14:48:25.157Z</time></trkpt><trkpt lat="43.8334317" lon="11.5587783"><ele>660.5</ele><time>2026-04-11T14:48:26.156Z</time></trkpt><trkpt lat="43.833365" lon="11.5587967"><ele>660.3333333333334</ele><time>2026-04-11T14:48:27.156Z</time></trkpt><trkpt lat="43.833295" lon="11.5588433"><ele>660.1666666666666</ele><time>2026-04-11T14:48:28.156Z</time></trkpt><trkpt lat="43.83323" lon="11.558915"><ele>660.0</ele><time>2026-04-11T14:48:29.156Z</time></trkpt><trkpt lat="43.8331667" lon="11.5589983"><ele>660.0</ele><time>2026-04-11T14:48:30.156Z</time></trkpt><trkpt lat="43.8331017" lon="11.55908"><ele>660.0</ele><time>2026-04-11T14:48:31.156Z</time></trkpt><trkpt lat="43.8330333" lon="11.5591583"><ele>660.0</ele><time>2026-04-11T14:48:32.157Z</time></trkpt><trkpt lat="43.8329733" lon="11.55924"><ele>660.0</ele><time>2026-04-11T14:48:33.156Z</time></trkpt><trkpt lat="43.83291" lon="11.55933"><ele>660.0</ele><time>2026-04-11T14:48:34.156Z</time></trkpt><trkpt lat="43.83284" lon="11.55943"><ele>658.5</ele><time>2026-04-11T14:48:35.156Z</time></trkpt><trkpt lat="43.8327583" lon="11.5595417"><ele>657.0</ele><time>2026-04-11T14:48:36.156Z</time></trkpt><trkpt lat="43.83267" lon="11.5596633"><ele>655.5</ele><time>2026-04-11T14:48:37.156Z</time></trkpt><trkpt lat="43.8325817" lon="11.5597733"><ele>654.0</ele><time>2026-04-11T14:48:38.157Z</time></trkpt><trkpt lat="43.8324967" lon="11.559885"><ele>654.0</ele><time>2026-04-11T14:48:39.156Z</time></trkpt><trkpt lat="43.8324267" lon="11.5599633"><ele>654.0</ele><time>2026-04-11T14:48:40.156Z</time></trkpt><trkpt lat="43.8323617" lon="11.5600433"><ele>654.0</ele><time>2026-04-11T14:48:41.156Z</time></trkpt><trkpt lat="43.832305" lon="11.560115"><ele>654.0</ele><time>2026-04-11T14:48:42.156Z</time></trkpt><trkpt lat="43.832205" lon="11.5601817"><ele>654.0</ele><time>2026-04-11T14:48:44.156Z</time></trkpt><trkpt lat="43.832105" lon="11.5601467"><ele>654.0</ele><time>2026-04-11T14:48:46.156Z</time></trkpt><trkpt lat="43.8319867" lon="11.56005"><ele>654.0</ele><time>2026-04-11T14:48:48.156Z</time></trkpt><trkpt lat="43.8319183" lon="11.5600117"><ele>654.0</ele><time>2026-04-11T14:48:49.156Z</time></trkpt><trkpt lat="43.8318517" lon="11.5599667"><ele>654.0</ele><time>2026-04-11T14:48:50.156Z</time></trkpt><trkpt lat="43.8317733" lon="11.5599317"><ele>654.0</ele><time>2026-04-11T14:48:51.156Z</time></trkpt><trkpt lat="43.8316983" lon="11.5599167"><ele>654.0</ele><time>2026-04-11T14:48:52.157Z</time></trkpt><trkpt lat="43.831635" lon="11.5599183"><ele>655.8333333333334</ele><time>2026-04-11T14:48:53.156Z</time></trkpt><trkpt lat="43.8315683" lon="11.5599467"><ele>657.6666666666666</ele><time>2026-04-11T14:48:54.157Z</time></trkpt><trkpt lat="43.8315067" lon="11.55999"><ele>659.5</ele><time>2026-04-11T14:48:55.156Z</time></trkpt><trkpt lat="43.8314483" lon="11.5600567"><ele>661.3333333333333</ele><time>2026-04-11T14:48:56.156Z</time></trkpt><trkpt lat="43.8313967" lon="11.5601433"><ele>663.1666666666666</ele><time>2026-04-11T14:48:57.156Z</time></trkpt><trkpt lat="43.8313317" lon="11.5602533"><ele>665.0</ele><time>2026-04-11T14:48:58.156Z</time></trkpt><trkpt lat="43.8312683" lon="11.5603417"><ele>668.2</ele><time>2026-04-11T14:48:59.156Z</time></trkpt><trkpt lat="43.8311883" lon="11.5604317"><ele>671.4</ele><time>2026-04-11T14:49:00.156Z</time></trkpt><trkpt lat="43.8311183" lon="11.5605183"><ele>674.5999999999999</ele><time>2026-04-11T14:49:01.156Z</time></trkpt><trkpt lat="43.8310567" lon="11.560615"><ele>677.8</ele><time>2026-04-11T14:49:02.156Z</time></trkpt><trkpt lat="43.8310017" lon="11.560725"><ele>681.0</ele><time>2026-04-11T14:49:03.156Z</time></trkpt><trkpt lat="43.8309617" lon="11.560845"><ele>681.0</ele><time>2026-04-11T14:49:04.156Z</time></trkpt><trkpt lat="43.83094" lon="11.5609767"><ele>681.0</ele><time>2026-04-11T14:49:05.157Z</time></trkpt><trkpt lat="43.83094" lon="11.5611017"><ele>681.0</ele><time>2026-04-11T14:49:06.156Z</time></trkpt><trkpt lat="43.8309433" lon="11.56122"><ele>681.0</ele><time>2026-04-11T14:49:07.156Z</time></trkpt><trkpt lat="43.8309417" lon="11.5613333"><ele>681.0</ele><time>2026-04-11T14:49:08.157Z</time></trkpt><trkpt lat="43.83096" lon="11.5614783"><ele>678.5</ele><time>2026-04-11T14:49:09.156Z</time></trkpt><trkpt lat="43.830955" lon="11.5615867"><ele>676.0</ele><time>2026-04-11T14:49:10.156Z</time></trkpt><trkpt lat="43.8309417" lon="11.5616783"><ele>673.5</ele><time>2026-04-11T14:49:11.156Z</time></trkpt><trkpt lat="43.830925" lon="11.561765"><ele>671.0</ele><time>2026-04-11T14:49:12.156Z</time></trkpt><trkpt lat="43.83091" lon="11.5618583"><ele>668.5</ele><time>2026-04-11T14:49:13.156Z</time></trkpt><trkpt lat="43.83089" lon="11.5619517"><ele>666.0</ele><time>2026-04-11T14:49:14.156Z</time></trkpt><trkpt lat="43.830865" lon="11.5621333"><ele>663.5</ele><time>2026-04-11T14:49:16.156Z</time></trkpt><trkpt lat="43.8308567" lon="11.5622267"><ele>661.0</ele><time>2026-04-11T14:49:17.156Z</time></trkpt><trkpt lat="43.8308017" lon="11.5623783"><ele>658.5</ele><time>2026-04-11T14:49:19.156Z</time></trkpt><trkpt lat="43.8307567" lon="11.56244"><ele>656.0</ele><time>2026-04-11T14:49:20.156Z</time></trkpt><trkpt lat="43.8306983" lon="11.562505"><ele>653.5</ele><time>2026-04-11T14:49:21.156Z</time></trkpt><trkpt lat="43.8306267" lon="11.5625667"><ele>651.0</ele><time>2026-04-11T14:49:22.156Z</time></trkpt><trkpt lat="43.8305383" lon="11.5626217"><ele>651.0</ele><time>2026-04-11T14:49:23.156Z</time></trkpt><trkpt lat="43.8304117" lon="11.5626967"><ele>651.0</ele><time>2026-04-11T14:49:24.156Z</time></trkpt><trkpt lat="43.830285" lon="11.56278"><ele>651.0</ele><time>2026-04-11T14:49:25.156Z</time></trkpt><trkpt lat="43.8301633" lon="11.5628733"><ele>651.0</ele><time>2026-04-11T14:49:26.156Z</time></trkpt><trkpt lat="43.830055" lon="11.5629617"><ele>651.4</ele><time>2026-04-11T14:49:27.156Z</time></trkpt><trkpt lat="43.82996" lon="11.5630567"><ele>651.8</ele><time>2026-04-11T14:49:28.157Z</time></trkpt><trkpt lat="43.8298833" lon="11.5631483"><ele>652.1999999999999</ele><time>2026-04-11T14:49:29.156Z</time></trkpt><trkpt lat="43.82982" lon="11.563235"><ele>652.5999999999999</ele><time>2026-04-11T14:49:30.156Z</time></trkpt><trkpt lat="43.8297667" lon="11.5633167"><ele>653.0</ele><time>2026-04-11T14:49:31.156Z</time></trkpt><trkpt lat="43.8297033" lon="11.5634117"><ele>653.0</ele><time>2026-04-11T14:49:32.156Z</time></trkpt><trkpt lat="43.8296383" lon="11.5635183"><ele>653.0</ele><time>2026-04-11T14:49:33.156Z</time></trkpt><trkpt lat="43.82958" lon="11.5636317"><ele>653.0</ele><time>2026-04-11T14:49:34.157Z</time></trkpt><trkpt lat="43.8295217" lon="11.5637433"><ele>653.0</ele><time>2026-04-11T14:49:35.156Z</time></trkpt><trkpt lat="43.82947" lon="11.5638533"><ele>653.0</ele><time>2026-04-11T14:49:36.156Z</time></trkpt><trkpt lat="43.8294233" lon="11.563965"><ele>651.5</ele><time>2026-04-11T14:49:37.156Z</time></trkpt><trkpt lat="43.8293783" lon="11.5640783"><ele>650.0</ele><time>2026-04-11T14:49:38.156Z</time></trkpt><trkpt lat="43.8293483" lon="11.5641867"><ele>648.5</ele><time>2026-04-11T14:49:39.156Z</time></trkpt><trkpt lat="43.8293333" lon="11.56428"><ele>647.0</ele><time>2026-04-11T14:49:40.156Z</time></trkpt><trkpt lat="43.8293217" lon="11.5643717"><ele>645.5</ele><time>2026-04-11T14:49:41.156Z</time></trkpt><trkpt lat="43.82931" lon="11.5644767"><ele>644.0</ele><time>2026-04-11T14:49:42.156Z</time></trkpt><trkpt lat="43.8292933" lon="11.5645783"><ele>644.0</ele><time>2026-04-11T14:49:43.156Z</time></trkpt><trkpt lat="43.8292383" lon="11.5646983"><ele>644.0</ele><time>2026-04-11T14:49:45.156Z</time></trkpt><trkpt lat="43.8291267" lon="11.56472"><ele>644.0</ele><time>2026-04-11T14:49:47.156Z</time></trkpt><trkpt lat="43.8290167" lon="11.5646433"><ele>644.0</ele><time>2026-04-11T14:49:49.156Z</time></trkpt><trkpt lat="43.828955" lon="11.56458"><ele>644.0</ele><time>2026-04-11T14:49:50.156Z</time></trkpt><trkpt lat="43.8288883" lon="11.5644917"><ele>647.6</ele><time>2026-04-11T14:49:51.156Z</time></trkpt><trkpt lat="43.8288083" lon="11.5643833"><ele>651.2</ele><time>2026-04-11T14:49:52.156Z</time></trkpt><trkpt lat="43.8287333" lon="11.56426"><ele>654.8000000000001</ele><time>2026-04-11T14:49:53.156Z</time></trkpt><trkpt lat="43.8286633" lon="11.5641417"><ele>658.4000000000001</ele><time>2026-04-11T14:49:54.156Z</time></trkpt><trkpt lat="43.828605" lon="11.564025"><ele>662.0</ele><time>2026-04-11T14:49:55.157Z</time></trkpt><trkpt lat="43.8285483" lon="11.563915"><ele>662.0</ele><time>2026-04-11T14:49:56.156Z</time></trkpt><trkpt lat="43.8285083" lon="11.5638317"><ele>662.0</ele><time>2026-04-11T14:49:57.156Z</time></trkpt><trkpt lat="43.82846" lon="11.56376"><ele>662.0</ele><time>2026-04-11T14:49:58.157Z</time></trkpt><trkpt lat="43.8284017" lon="11.5636917"><ele>662.0</ele><time>2026-04-11T14:49:59.156Z</time></trkpt><trkpt lat="43.8283367" lon="11.5636167"><ele>662.0</ele><time>2026-04-11T14:50:00.156Z</time></trkpt><trkpt lat="43.8282783" lon="11.5635483"><ele>662.0</ele><time>2026-04-11T14:50:01.156Z</time></trkpt><trkpt lat="43.828225" lon="11.5634967"><ele>662.0</ele><time>2026-04-11T14:50:02.156Z</time></trkpt><trkpt lat="43.82811" lon="11.5635033"><ele>661.0</ele><time>2026-04-11T14:50:04.156Z</time></trkpt><trkpt lat="43.8280133" lon="11.5636217"><ele>660.0</ele><time>2026-04-11T14:50:06.156Z</time></trkpt><trkpt lat="43.82797" lon="11.5637217"><ele>659.0</ele><time>2026-04-11T14:50:07.156Z</time></trkpt><trkpt lat="43.8279267" lon="11.56386"><ele>658.0</ele><time>2026-04-11T14:50:08.156Z</time></trkpt><trkpt lat="43.8278983" lon="11.5640033"><ele>657.0</ele><time>2026-04-11T14:50:09.156Z</time></trkpt><trkpt lat="43.827885" lon="11.564135"><ele>657.0</ele><time>2026-04-11T14:50:10.156Z</time></trkpt><trkpt lat="43.8278717" lon="11.5642683"><ele>657.0</ele><time>2026-04-11T14:50:11.156Z</time></trkpt><trkpt lat="43.8278633" lon="11.5643983"><ele>657.0</ele><time>2026-04-11T14:50:12.156Z</time></trkpt><trkpt lat="43.8278633" lon="11.5645183"><ele>657.0</ele><time>2026-04-11T14:50:13.156Z</time></trkpt><trkpt lat="43.8278517" lon="11.5646083"><ele>657.0</ele><time>2026-04-11T14:50:14.156Z</time></trkpt><trkpt lat="43.8277833" lon="11.56474"><ele>657.0</ele><time>2026-04-11T14:50:16.156Z</time></trkpt><trkpt lat="43.8277167" lon="11.5647983"><ele>657.0</ele><time>2026-04-11T14:50:17.156Z</time></trkpt><trkpt lat="43.8276317" lon="11.564855"><ele>657.0</ele><time>2026-04-11T14:50:18.156Z</time></trkpt><trkpt lat="43.8275483" lon="11.5649117"><ele>657.0</ele><time>2026-04-11T14:50:19.156Z</time></trkpt><trkpt lat="43.8274733" lon="11.5649633"><ele>657.0</ele><time>2026-04-11T14:50:20.156Z</time></trkpt><trkpt lat="43.82741" lon="11.5650217"><ele>657.0</ele><time>2026-04-11T14:50:21.156Z</time></trkpt><trkpt lat="43.8273533" lon="11.565065"><ele>657.0</ele><time>2026-04-11T14:50:22.156Z</time></trkpt><trkpt lat="43.8272883" lon="11.56508"><ele>657.0</ele><time>2026-04-11T14:50:23.156Z</time></trkpt><trkpt lat="43.8272233" lon="11.5650767"><ele>657.0</ele><time>2026-04-11T14:50:24.156Z</time></trkpt><trkpt lat="43.8271583" lon="11.56507"><ele>657.0</ele><time>2026-04-11T14:50:25.156Z</time></trkpt><trkpt lat="43.8270367" lon="11.5650533"><ele>657.0</ele><time>2026-04-11T14:50:27.156Z</time></trkpt><trkpt lat="43.8269267" lon="11.5650917"><ele>657.0</ele><time>2026-04-11T14:50:29.156Z</time></trkpt><trkpt lat="43.8268683" lon="11.5652133"><ele>657.0</ele><time>2026-04-11T14:50:31.156Z</time></trkpt><trkpt lat="43.82686" lon="11.5653033"><ele>657.0</ele><time>2026-04-11T14:50:32.156Z</time></trkpt><trkpt lat="43.8268517" lon="11.5654733"><ele>657.0</ele><time>2026-04-11T14:50:34.156Z</time></trkpt><trkpt lat="43.826815" lon="11.56564"><ele>657.0</ele><time>2026-04-11T14:50:36.157Z</time></trkpt><trkpt lat="43.8267617" lon="11.56573"><ele>657.0</ele><time>2026-04-11T14:50:37.156Z</time></trkpt><trkpt lat="43.8267017" lon="11.5658383"><ele>656.8333333333334</ele><time>2026-04-11T14:50:38.156Z</time></trkpt><trkpt lat="43.8266483" lon="11.5659383"><ele>656.6666666666666</ele><time>2026-04-11T14:50:39.156Z</time></trkpt><trkpt lat="43.8266017" lon="11.5660483"><ele>656.5</ele><time>2026-04-11T14:50:40.156Z</time></trkpt><trkpt lat="43.8265567" lon="11.566155"><ele>656.3333333333333</ele><time>2026-04-11T14:50:41.156Z</time></trkpt><trkpt lat="43.8265217" lon="11.5662467"><ele>656.1666666666666</ele><time>2026-04-11T14:50:42.156Z</time></trkpt><trkpt lat="43.8264767" lon="11.5663217"><ele>656.0</ele><time>2026-04-11T14:50:43.157Z</time></trkpt><trkpt lat="43.8264233" lon="11.5663967"><ele>652.6666666666666</ele><time>2026-04-11T14:50:44.156Z</time></trkpt><trkpt lat="43.82637" lon="11.5664717"><ele>649.3333333333333</ele><time>2026-04-11T14:50:45.156Z</time></trkpt><trkpt lat="43.8263167" lon="11.5665533"><ele>646.0</ele><time>2026-04-11T14:50:46.156Z</time></trkpt><trkpt lat="43.826255" lon="11.5666217"><ele>642.6666666666666</ele><time>2026-04-11T14:50:47.156Z</time></trkpt><trkpt lat="43.8262" lon="11.5666917"><ele>639.3333333333334</ele><time>2026-04-11T14:50:48.156Z</time></trkpt><trkpt lat="43.826145" lon="11.5667583"><ele>636.0</ele><time>2026-04-11T14:50:49.156Z</time></trkpt><trkpt lat="43.8260867" lon="11.5668117"><ele>636.0</ele><time>2026-04-11T14:50:50.156Z</time></trkpt><trkpt lat="43.8259817" lon="11.5669067"><ele>636.0</ele><time>2026-04-11T14:50:52.156Z</time></trkpt><trkpt lat="43.8259217" lon="11.5669983"><ele>636.0</ele><time>2026-04-11T14:50:54.156Z</time></trkpt><trkpt lat="43.8259117" lon="11.5670917"><ele>636.0</ele><time>2026-04-11T14:50:56.156Z</time></trkpt><trkpt lat="43.8259517" lon="11.5671883"><ele>636.0</ele><time>2026-04-11T14:50:58.156Z</time></trkpt><trkpt lat="43.8260483" lon="11.5671817"><ele>636.0</ele><time>2026-04-11T14:51:01.156Z</time></trkpt><trkpt lat="43.8261467" lon="11.5671267"><ele>636.0</ele><time>2026-04-11T14:51:03.156Z</time></trkpt><trkpt lat="43.826205" lon="11.56708"><ele>636.0</ele><time>2026-04-11T14:51:04.156Z</time></trkpt><trkpt lat="43.8262667" lon="11.56703"><ele>636.0</ele><time>2026-04-11T14:51:05.156Z</time></trkpt><trkpt lat="43.8263283" lon="11.5669767"><ele>636.0</ele><time>2026-04-11T14:51:06.156Z</time></trkpt><trkpt lat="43.82639" lon="11.5669167"><ele>636.0</ele><time>2026-04-11T14:51:07.157Z</time></trkpt><trkpt lat="43.8264533" lon="11.56686"><ele>636.0</ele><time>2026-04-11T14:51:08.156Z</time></trkpt><trkpt lat="43.8265117" lon="11.5668083"><ele>636.0</ele><time>2026-04-11T14:51:09.156Z</time></trkpt><trkpt lat="43.8265667" lon="11.5667517"><ele>636.0</ele><time>2026-04-11T14:51:10.156Z</time></trkpt><trkpt lat="43.826625" lon="11.5667033"><ele>636.0</ele><time>2026-04-11T14:51:11.156Z</time></trkpt><trkpt lat="43.8267133" lon="11.5666033"><ele>636.0</ele><time>2026-04-11T14:51:13.156Z</time></trkpt><trkpt lat="43.8268033" lon="11.56648"><ele>636.0</ele><time>2026-04-11T14:51:15.156Z</time></trkpt><trkpt lat="43.8268467" lon="11.5664083"><ele>635.0</ele><time>2026-04-11T14:51:16.156Z</time></trkpt><trkpt lat="43.8268833" lon="11.56633"><ele>634.0</ele><time>2026-04-11T14:51:17.157Z</time></trkpt><trkpt lat="43.82692" lon="11.5662467"><ele>633.0</ele><time>2026-04-11T14:51:18.156Z</time></trkpt><trkpt lat="43.8269617" lon="11.566165"><ele>632.0</ele><time>2026-04-11T14:51:19.156Z</time></trkpt><trkpt lat="43.827" lon="11.566085"><ele>631.0</ele><time>2026-04-11T14:51:20.156Z</time></trkpt><trkpt lat="43.827075" lon="11.56598"><ele>630.0</ele><time>2026-04-11T14:51:22.156Z</time></trkpt><trkpt lat="43.827155" lon="11.5659883"><ele>630.0</ele><time>2026-04-11T14:51:24.156Z</time></trkpt><trkpt lat="43.8271783" lon="11.5660767"><ele>630.0</ele><time>2026-04-11T14:51:26.157Z</time></trkpt><trkpt lat="43.827165" lon="11.56619"><ele>630.0</ele><time>2026-04-11T14:51:28.157Z</time></trkpt><trkpt lat="43.8271417" lon="11.5663367"><ele>630.0</ele><time>2026-04-11T14:51:30.156Z</time></trkpt><trkpt lat="43.82711" lon="11.5664267"><ele>630.0</ele><time>2026-04-11T14:51:31.156Z</time></trkpt><trkpt lat="43.8270733" lon="11.5665333"><ele>630.0</ele><time>2026-04-11T14:51:32.156Z</time></trkpt><trkpt lat="43.8270383" lon="11.5666433"><ele>626.8333333333334</ele><time>2026-04-11T14:51:33.156Z</time></trkpt><trkpt lat="43.82701" lon="11.56675"><ele>623.6666666666666</ele><time>2026-04-11T14:51:34.156Z</time></trkpt><trkpt lat="43.8269867" lon="11.5668567"><ele>620.5</ele><time>2026-04-11T14:51:35.156Z</time></trkpt><trkpt lat="43.8269583" lon="11.5669617"><ele>617.3333333333333</ele><time>2026-04-11T14:51:36.157Z</time></trkpt><trkpt lat="43.82693" lon="11.5670733"><ele>614.1666666666666</ele><time>2026-04-11T14:51:37.156Z</time></trkpt><trkpt lat="43.8269067" lon="11.5671783"><ele>611.0</ele><time>2026-04-11T14:51:38.156Z</time></trkpt><trkpt lat="43.8269033" lon="11.5672833"><ele>608.7142857142858</ele><time>2026-04-11T14:51:39.156Z</time></trkpt><trkpt lat="43.8269" lon="11.5674017"><ele>606.4285714285714</ele><time>2026-04-11T14:51:40.157Z</time></trkpt><trkpt lat="43.8269" lon="11.567495"><ele>604.1428571428571</ele><time>2026-04-11T14:51:41.156Z</time></trkpt><trkpt lat="43.82689" lon="11.5675983"><ele>601.8571428571429</ele><time>2026-04-11T14:51:42.156Z</time></trkpt><trkpt lat="43.8268817" lon="11.5676983"><ele>599.5714285714286</ele><time>2026-04-11T14:51:43.156Z</time></trkpt><trkpt lat="43.826865" lon="11.5678"><ele>597.2857142857143</ele><time>2026-04-11T14:51:44.156Z</time></trkpt><trkpt lat="43.82685" lon="11.5678933"><ele>595.0</ele><time>2026-04-11T14:51:45.156Z</time></trkpt><trkpt lat="43.8268117" lon="11.5679883"><ele>596.8333333333334</ele><time>2026-04-11T14:51:46.156Z</time></trkpt><trkpt lat="43.8267717" lon="11.568075"><ele>598.6666666666667</ele><time>2026-04-11T14:51:47.156Z</time></trkpt><trkpt lat="43.826725" lon="11.5681633"><ele>600.5</ele><time>2026-04-11T14:51:48.156Z</time></trkpt><trkpt lat="43.82667" lon="11.5682317"><ele>602.3333333333334</ele><time>2026-04-11T14:51:49.157Z</time></trkpt><trkpt lat="43.8266017" lon="11.5682917"><ele>604.1666666666666</ele><time>2026-04-11T14:51:50.156Z</time></trkpt><trkpt lat="43.8265317" lon="11.56835"><ele>606.0</ele><time>2026-04-11T14:51:51.156Z</time></trkpt><trkpt lat="43.8264683" lon="11.5684133"><ele>606.0</ele><time>2026-04-11T14:51:52.156Z</time></trkpt><trkpt lat="43.826405" lon="11.5684717"><ele>606.0</ele><time>2026-04-11T14:51:53.156Z</time></trkpt><trkpt lat="43.826295" lon="11.5685483"><ele>606.0</ele><time>2026-04-11T14:51:55.156Z</time></trkpt><trkpt lat="43.826175" lon="11.5686"><ele>606.0</ele><time>2026-04-11T14:51:57.156Z</time></trkpt><trkpt lat="43.8261083" lon="11.5686233"><ele>606.0</ele><time>2026-04-11T14:51:58.156Z</time></trkpt><trkpt lat="43.8260283" lon="11.5686667"><ele>602.6</ele><time>2026-04-11T14:51:59.156Z</time></trkpt><trkpt lat="43.82596" lon="11.5687017"><ele>599.2</ele><time>2026-04-11T14:52:00.157Z</time></trkpt><trkpt lat="43.8258967" lon="11.5687383"><ele>595.8</ele><time>2026-04-11T14:52:01.156Z</time></trkpt><trkpt lat="43.8257817" lon="11.5687983"><ele>592.4</ele><time>2026-04-11T14:52:03.156Z</time></trkpt><trkpt lat="43.82568" lon="11.56885"><ele>589.0</ele><time>2026-04-11T14:52:05.156Z</time></trkpt><trkpt lat="43.8255633" lon="11.5689033"><ele>589.0</ele><time>2026-04-11T14:52:07.156Z</time></trkpt><trkpt lat="43.8254567" lon="11.5688983"><ele>589.0</ele><time>2026-04-11T14:52:09.156Z</time></trkpt><trkpt lat="43.8253533" lon="11.5688317"><ele>589.0</ele><time>2026-04-11T14:52:11.156Z</time></trkpt><trkpt lat="43.825285" lon="11.5687567"><ele>589.0</ele><time>2026-04-11T14:52:13.156Z</time></trkpt><trkpt lat="43.825225" lon="11.568685"><ele>589.0</ele><time>2026-04-11T14:52:15.156Z</time></trkpt><trkpt lat="43.8251767" lon="11.5686267"><ele>589.8333333333334</ele><time>2026-04-11T14:52:17.156Z</time></trkpt><trkpt lat="43.8251233" lon="11.56856"><ele>590.6666666666667</ele><time>2026-04-11T14:52:20.156Z</time></trkpt><trkpt lat="43.8250433" lon="11.5684533"><ele>591.5</ele><time>2026-04-11T14:52:42.157Z</time></trkpt><trkpt lat="43.824985" lon="11.5684067"><ele>592.3333333333334</ele><time>2026-04-11T14:52:46.156Z</time></trkpt><trkpt lat="43.8249283" lon="11.5683667"><ele>593.1666666666666</ele><time>2026-04-11T14:52:48.156Z</time></trkpt><trkpt lat="43.824865" lon="11.5683333"><ele>594.0</ele><time>2026-04-11T14:52:50.156Z</time></trkpt><trkpt lat="43.82478" lon="11.5682717"><ele>594.0</ele><time>2026-04-11T14:52:53.156Z</time></trkpt><trkpt lat="43.8247183" lon="11.5682483"><ele>594.0</ele><time>2026-04-11T14:52:55.156Z</time></trkpt><trkpt lat="43.8246367" lon="11.568225"><ele>594.0</ele><time>2026-04-11T14:52:58.156Z</time></trkpt><trkpt lat="43.824565" lon="11.5682117"><ele>594.0</ele><time>2026-04-11T14:53:01.157Z</time></trkpt><trkpt lat="43.8245067" lon="11.5681583"><ele>594.0</ele><time>2026-04-11T14:53:05.156Z</time></trkpt><trkpt lat="43.824435" lon="11.5680717"><ele>594.0</ele><time>2026-04-11T14:53:08.156Z</time></trkpt><trkpt lat="43.8243733" lon="11.5679933"><ele>592.0</ele><time>2026-04-11T14:53:11.156Z</time></trkpt><trkpt lat="43.824295" lon="11.5680117"><ele>590.0</ele><time>2026-04-11T14:53:15.156Z</time></trkpt><trkpt lat="43.824225" lon="11.568075"><ele>588.0</ele><time>2026-04-11T14:53:18.156Z</time></trkpt><trkpt lat="43.8241567" lon="11.56813"><ele>586.0</ele><time>2026-04-11T14:53:21.156Z</time></trkpt><trkpt lat="43.8241017" lon="11.5682067"><ele>584.0</ele><time>2026-04-11T14:53:24.156Z</time></trkpt><trkpt lat="43.824045" lon="11.5682683"><ele>582.0</ele><time>2026-04-11T14:53:28.156Z</time></trkpt><trkpt lat="43.823985" lon="11.5683483"><ele>582.0</ele><time>2026-04-11T14:53:39.157Z</time></trkpt><trkpt lat="43.8239233" lon="11.5683867"><ele>582.0</ele><time>2026-04-11T14:53:44.156Z</time></trkpt><trkpt lat="43.823865" lon="11.56843"><ele>582.0</ele><time>2026-04-11T14:53:47.156Z</time></trkpt><trkpt lat="43.8238033" lon="11.5685183"><ele>582.0</ele><time>2026-04-11T14:53:50.156Z</time></trkpt><trkpt lat="43.8237433" lon="11.56857"><ele>582.0</ele><time>2026-04-11T14:53:54.156Z</time></trkpt><trkpt lat="43.8236933" lon="11.5686267"><ele>582.0</ele><time>2026-04-11T14:53:57.156Z</time></trkpt><trkpt lat="43.82361" lon="11.5687183"><ele>581.2</ele><time>2026-04-11T14:53:59.156Z</time></trkpt><trkpt lat="43.823535" lon="11.568805"><ele>580.4000000000001</ele><time>2026-04-11T14:54:01.156Z</time></trkpt><trkpt lat="43.8234317" lon="11.5688833"><ele>579.5999999999999</ele><time>2026-04-11T14:54:03.156Z</time></trkpt><trkpt lat="43.8233367" lon="11.5689483"><ele>578.8</ele><time>2026-04-11T14:54:05.156Z</time></trkpt><trkpt lat="43.8232667" lon="11.56901"><ele>578.0</ele><time>2026-04-11T14:54:07.156Z</time></trkpt><trkpt lat="43.8232" lon="11.5690533"><ele>578.0</ele><time>2026-04-11T14:54:09.156Z</time></trkpt><trkpt lat="43.8231217" lon="11.5691017"><ele>578.0</ele><time>2026-04-11T14:54:11.156Z</time></trkpt><trkpt lat="43.8230326" lon="11.5691553"><ele>578.0</ele><time>2026-04-11T14:54:14.198Z</time></trkpt><trkpt lat="43.8229711" lon="11.5691866"><ele>578.0</ele><time>2026-04-11T14:54:16.201Z</time></trkpt><trkpt lat="43.8228512" lon="11.5692655"><ele>578.0</ele><time>2026-04-11T14:54:18.205Z</time></trkpt><trkpt lat="43.822788" lon="11.5693035"><ele>578.0</ele><time>2026-04-11T14:54:19.211Z</time></trkpt><trkpt lat="43.8227306" lon="11.5693504"><ele>578.0</ele><time>2026-04-11T14:54:20.208Z</time></trkpt><trkpt lat="43.8226727" lon="11.5693862"><ele>578.0</ele><time>2026-04-11T14:54:21.211Z</time></trkpt><trkpt lat="43.8225996" lon="11.5694391"><ele>578.0</ele><time>2026-04-11T14:54:23.213Z</time></trkpt><trkpt lat="43.8225392" lon="11.5694808"><ele>578.0</ele><time>2026-04-11T14:54:25.217Z</time></trkpt><trkpt lat="43.822457" lon="11.569517"><ele>578.0</ele><time>2026-04-11T14:54:27.22Z</time></trkpt><trkpt lat="43.8223737" lon="11.5695486"><ele>576.8333333333333</ele><time>2026-04-11T14:54:29.224Z</time></trkpt><trkpt lat="43.8223024" lon="11.5695764"><ele>575.6666666666666</ele><time>2026-04-11T14:54:31.227Z</time></trkpt><trkpt lat="43.8222663" lon="11.569664"><ele>574.5</ele><time>2026-04-11T14:54:37.237Z</time></trkpt><trkpt lat="43.8222495" lon="11.5697586"><ele>573.3333333333334</ele><time>2026-04-11T14:54:42.156Z</time></trkpt><trkpt lat="43.8222867" lon="11.5696817"><ele>572.1666666666667</ele><time>2026-04-11T14:54:53.156Z</time></trkpt><trkpt lat="43.8223933" lon="11.569625"><ele>571.0</ele><time>2026-04-11T14:54:56.156Z</time></trkpt><trkpt lat="43.82246" lon="11.5695717"><ele>571.0</ele><time>2026-04-11T14:54:59.156Z</time></trkpt><trkpt lat="43.8223917" lon="11.5696883"><ele>571.0</ele><time>2026-04-11T14:55:12.156Z</time></trkpt><trkpt lat="43.822305" lon="11.56973"><ele>571.0</ele><time>2026-04-11T14:55:14.156Z</time></trkpt><trkpt lat="43.8222183" lon="11.5697633"><ele>571.0</ele><time>2026-04-11T14:55:20.156Z</time></trkpt><trkpt lat="43.8221367" lon="11.5697967"><ele>571.0</ele><time>2026-04-11T14:55:22.156Z</time></trkpt><trkpt lat="43.82206" lon="11.56981"><ele>571.0</ele><time>2026-04-11T14:55:24.156Z</time></trkpt><trkpt lat="43.8219817" lon="11.5698383"><ele>571.0</ele><time>2026-04-11T14:55:26.156Z</time></trkpt><trkpt lat="43.8219183" lon="11.5698583"><ele>571.0</ele><time>2026-04-11T14:55:28.156Z</time></trkpt><trkpt lat="43.8218533" lon="11.5698767"><ele>571.0</ele><time>2026-04-11T14:55:31.156Z</time></trkpt><trkpt lat="43.821785" lon="11.5698767"><ele>571.0</ele><time>2026-04-11T14:55:33.156Z</time></trkpt><trkpt lat="43.82169" lon="11.5698717"><ele>571.0</ele><time>2026-04-11T14:55:35.156Z</time></trkpt><trkpt lat="43.8216017" lon="11.5698767"><ele>574.3333333333334</ele><time>2026-04-11T14:55:37.156Z</time></trkpt><trkpt lat="43.8215283" lon="11.56989"><ele>577.6666666666667</ele><time>2026-04-11T14:55:39.156Z</time></trkpt><trkpt lat="43.821435" lon="11.5698967"><ele>581.0</ele><time>2026-04-11T14:55:42.156Z</time></trkpt><trkpt lat="43.8213417" lon="11.5699067"><ele>584.3333333333334</ele><time>2026-04-11T14:55:45.156Z</time></trkpt><trkpt lat="43.821255" lon="11.5699233"><ele>587.6666666666666</ele><time>2026-04-11T14:55:47.156Z</time></trkpt><trkpt lat="43.82116" lon="11.5699467"><ele>591.0</ele><time>2026-04-11T14:55:49.156Z</time></trkpt><trkpt lat="43.8210883" lon="11.569975"><ele>591.0</ele><time>2026-04-11T14:55:51.156Z</time></trkpt><trkpt lat="43.821025" lon="11.5699933"><ele>591.0</ele><time>2026-04-11T14:55:53.156Z</time></trkpt><trkpt lat="43.8209283" lon="11.5700083"><ele>591.0</ele><time>2026-04-11T14:55:56.156Z</time></trkpt><trkpt lat="43.820855" lon="11.5700217"><ele>591.0</ele><time>2026-04-11T14:55:58.156Z</time></trkpt><trkpt lat="43.820785" lon="11.570025"><ele>591.0</ele><time>2026-04-11T14:56:00.156Z</time></trkpt><trkpt lat="43.8207133" lon="11.5699983"><ele>591.0</ele><time>2026-04-11T14:56:02.156Z</time></trkpt><trkpt lat="43.8206433" lon="11.569965"><ele>591.0</ele><time>2026-04-11T14:56:04.157Z</time></trkpt><trkpt lat="43.8205733" lon="11.5699367"><ele>591.0</ele><time>2026-04-11T14:56:06.156Z</time></trkpt><trkpt lat="43.8206817" lon="11.5699817"><ele>591.0</ele><time>2026-04-11T15:05:23.157Z</time></trkpt><trkpt lat="43.820755" lon="11.5699983"><ele>591.0</ele><time>2026-04-11T15:05:25.156Z</time></trkpt><trkpt lat="43.820835" lon="11.5700017"><ele>591.0</ele><time>2026-04-11T15:05:27.156Z</time></trkpt><trkpt lat="43.8209083" lon="11.5699967"><ele>591.0</ele><time>2026-04-11T15:05:29.156Z</time></trkpt><trkpt lat="43.8210767" lon="11.570025"><ele>591.0</ele><time>2026-04-11T15:05:46.156Z</time></trkpt><trkpt lat="43.8211417" lon="11.5699833"><ele>591.0</ele><time>2026-04-11T15:06:07.156Z</time></trkpt><trkpt lat="43.8212267" lon="11.5699367"><ele>591.0</ele><time>2026-04-11T15:06:09.156Z</time></trkpt><trkpt lat="43.8213117" lon="11.569905"><ele>591.0</ele><time>2026-04-11T15:06:11.157Z</time></trkpt><trkpt lat="43.8213933" lon="11.5698917"><ele>591.0</ele><time>2026-04-11T15:06:13.156Z</time></trkpt><trkpt lat="43.8214667" lon="11.5698917"><ele>591.0</ele><time>2026-04-11T15:06:15.156Z</time></trkpt><trkpt lat="43.8216483" lon="11.5698983"><ele>591.0</ele><time>2026-04-11T15:06:27.156Z</time></trkpt><trkpt lat="43.8217383" lon="11.5699033"><ele>591.0</ele><time>2026-04-11T15:06:29.156Z</time></trkpt><trkpt lat="43.8218167" lon="11.5698917"><ele>591.0</ele><time>2026-04-11T15:06:31.156Z</time></trkpt><trkpt lat="43.821895" lon="11.5698467"><ele>591.0</ele><time>2026-04-11T15:06:34.156Z</time></trkpt><trkpt lat="43.8219567" lon="11.5697917"><ele>591.0</ele><time>2026-04-11T15:06:37.156Z</time></trkpt><trkpt lat="43.8220167" lon="11.5697533"><ele>591.0</ele><time>2026-04-11T15:06:39.156Z</time></trkpt><trkpt lat="43.8220883" lon="11.56972"><ele>593.5</ele><time>2026-04-11T15:06:41.156Z</time></trkpt><trkpt lat="43.8221533" lon="11.5696883"><ele>596.0</ele><time>2026-04-11T15:06:43.156Z</time></trkpt><trkpt lat="43.8222183" lon="11.5696583"><ele>598.5</ele><time>2026-04-11T15:06:45.156Z</time></trkpt><trkpt lat="43.8223017" lon="11.569645"><ele>601.0</ele><time>2026-04-11T15:06:47.156Z</time></trkpt><trkpt lat="43.8223717" lon="11.5696133"><ele>603.5</ele><time>2026-04-11T15:06:49.156Z</time></trkpt><trkpt lat="43.8224383" lon="11.5695617"><ele>606.0</ele><time>2026-04-11T15:06:51.156Z</time></trkpt><trkpt lat="43.8225033" lon="11.5694967"><ele>606.0</ele><time>2026-04-11T15:06:53.156Z</time></trkpt><trkpt lat="43.8225733" lon="11.5694367"><ele>606.0</ele><time>2026-04-11T15:06:55.156Z</time></trkpt><trkpt lat="43.822665" lon="11.56936"><ele>606.0</ele><time>2026-04-11T15:06:57.156Z</time></trkpt><trkpt lat="43.8227367" lon="11.5692917"><ele>606.0</ele><time>2026-04-11T15:06:59.156Z</time></trkpt><trkpt lat="43.82279" lon="11.5692267"><ele>606.0</ele><time>2026-04-11T15:07:01.157Z</time></trkpt><trkpt lat="43.8228483" lon="11.5691767"><ele>606.0</ele><time>2026-04-11T15:07:03.157Z</time></trkpt><trkpt lat="43.8229117" lon="11.5691483"><ele>600.4</ele><time>2026-04-11T15:07:05.156Z</time></trkpt><trkpt lat="43.822987" lon="11.5691097"><ele>594.8</ele><time>2026-04-11T15:07:08.234Z</time></trkpt><trkpt lat="43.8230624" lon="11.5690561"><ele>589.1999999999999</ele><time>2026-04-11T15:07:10.156Z</time></trkpt><trkpt lat="43.82315" lon="11.5689784"><ele>583.6</ele><time>2026-04-11T15:07:12.156Z</time></trkpt><trkpt lat="43.823263" lon="11.5688999"><ele>578.0</ele><time>2026-04-11T15:07:14.156Z</time></trkpt><trkpt lat="43.8233219" lon="11.568855"><ele>578.0</ele><time>2026-04-11T15:07:15.156Z</time></trkpt><trkpt lat="43.8234072" lon="11.5687569"><ele>578.0</ele><time>2026-04-11T15:07:17.156Z</time></trkpt><trkpt lat="43.8234618" lon="11.5686595"><ele>578.0</ele><time>2026-04-11T15:07:19.156Z</time></trkpt><trkpt lat="43.8235012" lon="11.5685703"><ele>578.0</ele><time>2026-04-11T15:07:21.156Z</time></trkpt><trkpt lat="43.8235559" lon="11.5685123"><ele>578.0</ele><time>2026-04-11T15:07:23.156Z</time></trkpt><trkpt lat="43.8236121" lon="11.5684441"><ele>578.0</ele><time>2026-04-11T15:07:25.156Z</time></trkpt><trkpt lat="43.8237009" lon="11.5683771"><ele>578.6666666666666</ele><time>2026-04-11T15:07:27.156Z</time></trkpt><trkpt lat="43.8237598" lon="11.5683295"><ele>579.3333333333333</ele><time>2026-04-11T15:07:29.156Z</time></trkpt><trkpt lat="43.8238181" lon="11.5682956"><ele>580.0</ele><time>2026-04-11T15:07:32.156Z</time></trkpt><trkpt lat="43.8238783" lon="11.568251"><ele>580.6666666666666</ele><time>2026-04-11T15:07:35.156Z</time></trkpt><trkpt lat="43.823945" lon="11.5682217"><ele>581.3333333333334</ele><time>2026-04-11T15:07:37.156Z</time></trkpt><trkpt lat="43.824025" lon="11.56817"><ele>582.0</ele><time>2026-04-11T15:07:39.156Z</time></trkpt><trkpt lat="43.8241055" lon="11.568104"><ele>582.0</ele><time>2026-04-11T15:07:42.174Z</time></trkpt><trkpt lat="43.8241851" lon="11.5680656"><ele>582.0</ele><time>2026-04-11T15:07:44.176Z</time></trkpt><trkpt lat="43.8243101" lon="11.5680528"><ele>582.0</ele><time>2026-04-11T15:07:48.183Z</time></trkpt><trkpt lat="43.8243751" lon="11.568079"><ele>582.0</ele><time>2026-04-11T15:07:50.155Z</time></trkpt><trkpt lat="43.8244438" lon="11.5681368"><ele>582.0</ele><time>2026-04-11T15:07:52.191Z</time></trkpt><trkpt lat="43.8245279" lon="11.5681694"><ele>582.0</ele><time>2026-04-11T15:07:54.193Z</time></trkpt><trkpt lat="43.8246044" lon="11.5681833"><ele>584.0</ele><time>2026-04-11T15:07:56.197Z</time></trkpt><trkpt lat="43.8246743" lon="11.5682167"><ele>586.0</ele><time>2026-04-11T15:07:58.117Z</time></trkpt><trkpt lat="43.8247426" lon="11.5682765"><ele>588.0</ele><time>2026-04-11T15:08:00.205Z</time></trkpt><trkpt lat="43.8248202" lon="11.5683381"><ele>590.0</ele><time>2026-04-11T15:08:02.207Z</time></trkpt><trkpt lat="43.8248865" lon="11.5683805"><ele>592.0</ele><time>2026-04-11T15:08:03.156Z</time></trkpt><trkpt lat="43.8249469" lon="11.5684198"><ele>594.0</ele><time>2026-04-11T15:08:04.156Z</time></trkpt><trkpt lat="43.8250206" lon="11.5684823"><ele>594.0</ele><time>2026-04-11T15:08:06.156Z</time></trkpt><trkpt lat="43.8250747" lon="11.5685442"><ele>594.0</ele><time>2026-04-11T15:08:08.157Z</time></trkpt><trkpt lat="43.8251202" lon="11.568608"><ele>594.0</ele><time>2026-04-11T15:08:10.156Z</time></trkpt><trkpt lat="43.8252167" lon="11.5686983"><ele>594.0</ele><time>2026-04-11T15:08:42.156Z</time></trkpt><trkpt lat="43.8252883" lon="11.5687933"><ele>594.0</ele><time>2026-04-11T15:08:44.156Z</time></trkpt><trkpt lat="43.8253533" lon="11.5688633"><ele>594.0</ele><time>2026-04-11T15:08:45.156Z</time></trkpt><trkpt lat="43.8254267" lon="11.5689183"><ele>593.1666666666666</ele><time>2026-04-11T15:08:46.156Z</time></trkpt><trkpt lat="43.8254917" lon="11.5689433"><ele>592.3333333333334</ele><time>2026-04-11T15:08:47.156Z</time></trkpt><trkpt lat="43.825575" lon="11.5689367"><ele>591.5</ele><time>2026-04-11T15:08:49.156Z</time></trkpt><trkpt lat="43.82564" lon="11.5688917"><ele>590.6666666666667</ele><time>2026-04-11T15:08:51.156Z</time></trkpt><trkpt lat="43.8257233" lon="11.5688517"><ele>589.8333333333334</ele><time>2026-04-11T15:08:53.156Z</time></trkpt><trkpt lat="43.82584" lon="11.5688167"><ele>589.0</ele><time>2026-04-11T15:08:55.156Z</time></trkpt><trkpt lat="43.825925" lon="11.568785"><ele>588.5</ele><time>2026-04-11T15:08:56.156Z</time></trkpt><trkpt lat="43.8260217" lon="11.5687267"><ele>588.0</ele><time>2026-04-11T15:08:57.156Z</time></trkpt><trkpt lat="43.82611" lon="11.5686767"><ele>587.5</ele><time>2026-04-11T15:08:58.156Z</time></trkpt><trkpt lat="43.8261933" lon="11.5685983"><ele>587.0</ele><time>2026-04-11T15:08:59.156Z</time></trkpt><trkpt lat="43.8262556" lon="11.5685389"><ele>586.5</ele><time>2026-04-11T15:09:00.156Z</time></trkpt><trkpt lat="43.8263156" lon="11.568483"><ele>586.0</ele><time>2026-04-11T15:09:01.156Z</time></trkpt><trkpt lat="43.8263753" lon="11.5684233"><ele>588.8571428571428</ele><time>2026-04-11T15:09:02.156Z</time></trkpt><trkpt lat="43.8264345" lon="11.5683712"><ele>591.7142857142857</ele><time>2026-04-11T15:09:03.156Z</time></trkpt><trkpt lat="43.8264961" lon="11.5683259"><ele>594.5714285714286</ele><time>2026-04-11T15:09:04.156Z</time></trkpt><trkpt lat="43.8265569" lon="11.5682798"><ele>597.4285714285713</ele><time>2026-04-11T15:09:05.156Z</time></trkpt><trkpt lat="43.8266097" lon="11.56823"><ele>600.2857142857142</ele><time>2026-04-11T15:09:06.156Z</time></trkpt><trkpt lat="43.8266606" lon="11.5681715"><ele>603.1428571428571</ele><time>2026-04-11T15:09:07.156Z</time></trkpt><trkpt lat="43.8267034" lon="11.5681059"><ele>606.0</ele><time>2026-04-11T15:09:08.156Z</time></trkpt><trkpt lat="43.8267464" lon="11.568034"><ele>606.0</ele><time>2026-04-11T15:09:09.156Z</time></trkpt><trkpt lat="43.8267885" lon="11.5679532"><ele>606.0</ele><time>2026-04-11T15:09:10.156Z</time></trkpt><trkpt lat="43.8268217" lon="11.5678623"><ele>606.0</ele><time>2026-04-11T15:09:11.157Z</time></trkpt><trkpt lat="43.826845" lon="11.5677747"><ele>606.0</ele><time>2026-04-11T15:09:12.156Z</time></trkpt><trkpt lat="43.8268554" lon="11.5676712"><ele>606.0</ele><time>2026-04-11T15:09:13.156Z</time></trkpt><trkpt lat="43.8268603" lon="11.5675588"><ele>606.0</ele><time>2026-04-11T15:09:14.156Z</time></trkpt><trkpt lat="43.8268645" lon="11.5674447"><ele>606.8333333333334</ele><time>2026-04-11T15:09:15.156Z</time></trkpt><trkpt lat="43.8268731" lon="11.5673368"><ele>607.6666666666666</ele><time>2026-04-11T15:09:16.156Z</time></trkpt><trkpt lat="43.8268858" lon="11.56723"><ele>608.5</ele><time>2026-04-11T15:09:17.156Z</time></trkpt><trkpt lat="43.8269073" lon="11.5671199"><ele>609.3333333333333</ele><time>2026-04-11T15:09:18.156Z</time></trkpt><trkpt lat="43.8269307" lon="11.5670128"><ele>610.1666666666666</ele><time>2026-04-11T15:09:19.156Z</time></trkpt><trkpt lat="43.8269547" lon="11.5669118"><ele>611.0</ele><time>2026-04-11T15:09:20.156Z</time></trkpt><trkpt lat="43.826986" lon="11.5668085"><ele>611.0</ele><time>2026-04-11T15:09:21.156Z</time></trkpt><trkpt lat="43.8270236" lon="11.5666931"><ele>611.0</ele><time>2026-04-11T15:09:22.156Z</time></trkpt><trkpt lat="43.8270619" lon="11.5665703"><ele>611.0</ele><time>2026-04-11T15:09:23.156Z</time></trkpt><trkpt lat="43.8271003" lon="11.5664428"><ele>611.0</ele><time>2026-04-11T15:09:24.156Z</time></trkpt><trkpt lat="43.8271392" lon="11.5663198"><ele>611.0</ele><time>2026-04-11T15:09:25.156Z</time></trkpt><trkpt lat="43.8271774" lon="11.5662145"><ele>614.1666666666666</ele><time>2026-04-11T15:09:26.156Z</time></trkpt><trkpt lat="43.8272083" lon="11.5661258"><ele>617.3333333333333</ele><time>2026-04-11T15:09:27.156Z</time></trkpt><trkpt lat="43.827218" lon="11.5659741"><ele>620.5</ele><time>2026-04-11T15:09:29.156Z</time></trkpt><trkpt lat="43.8271774" lon="11.5659005"><ele>623.6666666666666</ele><time>2026-04-11T15:09:31.156Z</time></trkpt><trkpt lat="43.8271083" lon="11.5659409"><ele>626.8333333333334</ele><time>2026-04-11T15:09:33.157Z</time></trkpt><trkpt lat="43.8270444" lon="11.5660623"><ele>630.0</ele><time>2026-04-11T15:09:35.156Z</time></trkpt><trkpt lat="43.8269951" lon="11.56616"><ele>631.5</ele><time>2026-04-11T15:09:36.156Z</time></trkpt><trkpt lat="43.8269298" lon="11.5662798"><ele>633.0</ele><time>2026-04-11T15:09:37.156Z</time></trkpt><trkpt lat="43.8268536" lon="11.5663933"><ele>634.5</ele><time>2026-04-11T15:09:38.156Z</time></trkpt><trkpt lat="43.8267703" lon="11.5665016"><ele>636.0</ele><time>2026-04-11T15:09:39.156Z</time></trkpt><trkpt lat="43.8266772" lon="11.5666073"><ele>636.0</ele><time>2026-04-11T15:09:40.157Z</time></trkpt><trkpt lat="43.8265826" lon="11.5667143"><ele>636.0</ele><time>2026-04-11T15:09:41.157Z</time></trkpt><trkpt lat="43.8264862" lon="11.5668136"><ele>636.0</ele><time>2026-04-11T15:09:42.156Z</time></trkpt><trkpt lat="43.8263978" lon="11.5669059"><ele>636.0</ele><time>2026-04-11T15:09:43.156Z</time></trkpt><trkpt lat="43.8263206" lon="11.5669876"><ele>634.6666666666666</ele><time>2026-04-11T15:09:44.156Z</time></trkpt><trkpt lat="43.8262479" lon="11.5670594"><ele>633.3333333333334</ele><time>2026-04-11T15:09:45.156Z</time></trkpt><trkpt lat="43.8261763" lon="11.5671257"><ele>632.0</ele><time>2026-04-11T15:09:46.157Z</time></trkpt><trkpt lat="43.8261079" lon="11.5671886"><ele>630.6666666666667</ele><time>2026-04-11T15:09:47.157Z</time></trkpt><trkpt lat="43.8260455" lon="11.5672385"><ele>629.3333333333334</ele><time>2026-04-11T15:09:48.156Z</time></trkpt><trkpt lat="43.8259376" lon="11.5672864"><ele>628.0</ele><time>2026-04-11T15:09:50.157Z</time></trkpt><trkpt lat="43.8258668" lon="11.5672649"><ele>628.0</ele><time>2026-04-11T15:09:52.156Z</time></trkpt><trkpt lat="43.8258916" lon="11.5671445"><ele>628.0</ele><time>2026-04-11T15:09:56.156Z</time></trkpt><trkpt lat="43.8259784" lon="11.5670425"><ele>628.0</ele><time>2026-04-11T15:09:58.156Z</time></trkpt><trkpt lat="43.8260415" lon="11.5669704"><ele>628.0</ele><time>2026-04-11T15:09:59.156Z</time></trkpt><trkpt lat="43.8261085" lon="11.5668889"><ele>628.0</ele><time>2026-04-11T15:10:00.157Z</time></trkpt><trkpt lat="43.8261777" lon="11.5667903"><ele>629.3333333333334</ele><time>2026-04-11T15:10:01.156Z</time></trkpt><trkpt lat="43.8262513" lon="11.5666934"><ele>630.6666666666667</ele><time>2026-04-11T15:10:02.157Z</time></trkpt><trkpt lat="43.8263191" lon="11.566599"><ele>632.0</ele><time>2026-04-11T15:10:03.157Z</time></trkpt><trkpt lat="43.8263781" lon="11.5665098"><ele>633.3333333333334</ele><time>2026-04-11T15:10:04.156Z</time></trkpt><trkpt lat="43.8264281" lon="11.5664409"><ele>634.6666666666666</ele><time>2026-04-11T15:10:05.156Z</time></trkpt><trkpt lat="43.8264814" lon="11.5663469"><ele>636.0</ele><time>2026-04-11T15:10:07.157Z</time></trkpt><trkpt lat="43.8265071" lon="11.5662659"><ele>636.0</ele><time>2026-04-11T15:10:10.157Z</time></trkpt><trkpt lat="43.8264542" lon="11.5663158"><ele>636.0</ele><time>2026-04-11T15:10:21.156Z</time></trkpt><trkpt lat="43.8263894" lon="11.5663926"><ele>636.0</ele><time>2026-04-11T15:10:23.156Z</time></trkpt><trkpt lat="43.8262994" lon="11.5664621"><ele>636.0</ele><time>2026-04-11T15:10:25.157Z</time></trkpt><trkpt lat="43.8261973" lon="11.5665012"><ele>636.0</ele><time>2026-04-11T15:10:27.157Z</time></trkpt><trkpt lat="43.8260654" lon="11.5665204"><ele>636.0</ele><time>2026-04-11T15:10:29.157Z</time></trkpt><trkpt lat="43.8259861" lon="11.5665279"><ele>636.0</ele><time>2026-04-11T15:10:30.157Z</time></trkpt><trkpt lat="43.8259015" lon="11.5665431"><ele>636.0</ele><time>2026-04-11T15:10:31.158Z</time></trkpt><trkpt lat="43.8258252" lon="11.5665564"><ele>636.0</ele><time>2026-04-11T15:10:32.157Z</time></trkpt><trkpt lat="43.8257289" lon="11.5665592"><ele>636.0</ele><time>2026-04-11T15:10:34.157Z</time></trkpt><trkpt lat="43.8257133" lon="11.5664666"><ele>636.0</ele><time>2026-04-11T15:10:37.157Z</time></trkpt><trkpt lat="43.8257341" lon="11.5663814"><ele>638.1666666666666</ele><time>2026-04-11T15:10:40.157Z</time></trkpt><trkpt lat="43.8257058" lon="11.5664842"><ele>640.3333333333334</ele><time>2026-04-11T15:11:18.157Z</time></trkpt><trkpt lat="43.8256515" lon="11.5665522"><ele>642.5</ele><time>2026-04-11T15:11:22.157Z</time></trkpt><trkpt lat="43.8255845" lon="11.5665205"><ele>644.6666666666667</ele><time>2026-04-11T15:11:26.158Z</time></trkpt><trkpt lat="43.8255413" lon="11.5664496"><ele>646.8333333333334</ele><time>2026-04-11T15:11:29.158Z</time></trkpt><trkpt lat="43.8255233" lon="11.5665683"><ele>649.0</ele><time>2026-04-11T15:12:42.157Z</time></trkpt><trkpt lat="43.82556" lon="11.56675"><ele>649.0</ele><time>2026-04-11T15:12:54.157Z</time></trkpt><trkpt lat="43.8256267" lon="11.5666367"><ele>649.0</ele><time>2026-04-11T15:13:24.157Z</time></trkpt><trkpt lat="43.8255533" lon="11.5665783"><ele>649.0</ele><time>2026-04-11T15:13:51.157Z</time></trkpt><trkpt lat="43.82567" lon="11.5666283"><ele>649.0</ele><time>2026-04-11T15:14:49.156Z</time></trkpt><trkpt lat="43.8257667" lon="11.5666433"><ele>649.0</ele><time>2026-04-11T15:14:52.156Z</time></trkpt><trkpt lat="43.825855" lon="11.5666367"><ele>649.0</ele><time>2026-04-11T15:14:54.156Z</time></trkpt><trkpt lat="43.8259383" lon="11.566645"><ele>649.0</ele><time>2026-04-11T15:14:56.156Z</time></trkpt><trkpt lat="43.8260167" lon="11.56663"><ele>649.0</ele><time>2026-04-11T15:14:58.156Z</time></trkpt><trkpt lat="43.82609" lon="11.5665883"><ele>649.0</ele><time>2026-04-11T15:15:00.156Z</time></trkpt><trkpt lat="43.8261683" lon="11.566545"><ele>649.0</ele><time>2026-04-11T15:15:02.156Z</time></trkpt><trkpt lat="43.8262617" lon="11.5665033"><ele>649.0</ele><time>2026-04-11T15:15:04.156Z</time></trkpt><trkpt lat="43.826325" lon="11.56643"><ele>650.4000000000001</ele><time>2026-04-11T15:15:06.156Z</time></trkpt><trkpt lat="43.8263733" lon="11.56633"><ele>651.8</ele><time>2026-04-11T15:15:08.156Z</time></trkpt><trkpt lat="43.8264267" lon="11.5661867"><ele>653.2</ele><time>2026-04-11T15:15:10.156Z</time></trkpt><trkpt lat="43.826475" lon="11.5660567"><ele>654.5999999999999</ele><time>2026-04-11T15:15:12.157Z</time></trkpt><trkpt lat="43.8265267" lon="11.5659367"><ele>656.0</ele><time>2026-04-11T15:15:14.156Z</time></trkpt><trkpt lat="43.8265802" lon="11.5658317"><ele>656.0</ele><time>2026-04-11T15:15:16.156Z</time></trkpt><trkpt lat="43.82663" lon="11.5657531"><ele>656.0</ele><time>2026-04-11T15:15:19.156Z</time></trkpt><trkpt lat="43.8267182" lon="11.565648"><ele>656.0</ele><time>2026-04-11T15:15:26.172Z</time></trkpt><trkpt lat="43.8267685" lon="11.5654385"><ele>656.0</ele><time>2026-04-11T15:15:29.178Z</time></trkpt><trkpt lat="43.826885" lon="11.5652762"><ele>656.25</ele><time>2026-04-11T15:15:32.17Z</time></trkpt><trkpt lat="43.8270248" lon="11.5652205"><ele>656.5</ele><time>2026-04-11T15:15:34.086Z</time></trkpt><trkpt lat="43.8272014" lon="11.5651273"><ele>656.75</ele><time>2026-04-11T15:15:35.156Z</time></trkpt><trkpt lat="43.8272965" lon="11.565052"><ele>657.0</ele><time>2026-04-11T15:15:36.156Z</time></trkpt><trkpt lat="43.8273803" lon="11.5649823"><ele>657.0</ele><time>2026-04-11T15:15:37.157Z</time></trkpt><trkpt lat="43.8274655" lon="11.5649258"><ele>657.0</ele><time>2026-04-11T15:15:38.156Z</time></trkpt><trkpt lat="43.8275506" lon="11.5648743"><ele>657.0</ele><time>2026-04-11T15:15:39.156Z</time></trkpt><trkpt lat="43.8276267" lon="11.5648237"><ele>657.0</ele><time>2026-04-11T15:15:40.156Z</time></trkpt><trkpt lat="43.8276901" lon="11.5647699"><ele>657.0</ele><time>2026-04-11T15:15:41.156Z</time></trkpt><trkpt lat="43.827736" lon="11.5647097"><ele>657.0</ele><time>2026-04-11T15:15:42.156Z</time></trkpt><trkpt lat="43.8277651" lon="11.5646319"><ele>657.0</ele><time>2026-04-11T15:15:43.156Z</time></trkpt><trkpt lat="43.8277805" lon="11.5645458"><ele>657.0</ele><time>2026-04-11T15:15:44.156Z</time></trkpt><trkpt lat="43.8277873" lon="11.5644535"><ele>657.0</ele><time>2026-04-11T15:15:45.156Z</time></trkpt><trkpt lat="43.8277967" lon="11.5643527"><ele>657.0</ele><time>2026-04-11T15:15:46.156Z</time></trkpt><trkpt lat="43.8278062" lon="11.5642484"><ele>657.0</ele><time>2026-04-11T15:15:47.156Z</time></trkpt><trkpt lat="43.8278251" lon="11.5641401"><ele>657.0</ele><time>2026-04-11T15:15:48.156Z</time></trkpt><trkpt lat="43.8278462" lon="11.5640377"><ele>657.0</ele><time>2026-04-11T15:15:49.156Z</time></trkpt><trkpt lat="43.827863" lon="11.5639401"><ele>657.0</ele><time>2026-04-11T15:15:50.157Z</time></trkpt><trkpt lat="43.827903" lon="11.5637752"><ele>657.0</ele><time>2026-04-11T15:15:52.156Z</time></trkpt><trkpt lat="43.8279305" lon="11.5636928"><ele>657.0</ele><time>2026-04-11T15:15:53.156Z</time></trkpt><trkpt lat="43.8279895" lon="11.5635591"><ele>657.0</ele><time>2026-04-11T15:15:55.156Z</time></trkpt><trkpt lat="43.8280388" lon="11.5634914"><ele>657.0</ele><time>2026-04-11T15:15:57.156Z</time></trkpt><trkpt lat="43.8281318" lon="11.5635416"><ele>657.0</ele><time>2026-04-11T15:16:00.157Z</time></trkpt><trkpt lat="43.8281814" lon="11.5636039"><ele>657.0</ele><time>2026-04-11T15:16:01.156Z</time></trkpt><trkpt lat="43.8282498" lon="11.5636887"><ele>657.0</ele><time>2026-04-11T15:16:02.157Z</time></trkpt><trkpt lat="43.8283312" lon="11.5637948"><ele>657.0</ele><time>2026-04-11T15:16:03.156Z</time></trkpt><trkpt lat="43.8284157" lon="11.5639119"><ele>657.0</ele><time>2026-04-11T15:16:04.156Z</time></trkpt><trkpt lat="43.8285027" lon="11.5640472"><ele>658.0</ele><time>2026-04-11T15:16:05.156Z</time></trkpt><trkpt lat="43.8285878" lon="11.5641823"><ele>659.0</ele><time>2026-04-11T15:16:06.156Z</time></trkpt><trkpt lat="43.8286654" lon="11.5642969"><ele>660.0</ele><time>2026-04-11T15:16:07.156Z</time></trkpt><trkpt lat="43.8287383" lon="11.5643907"><ele>661.0</ele><time>2026-04-11T15:16:08.156Z</time></trkpt><trkpt lat="43.8288029" lon="11.5644626"><ele>662.0</ele><time>2026-04-11T15:16:09.157Z</time></trkpt><trkpt lat="43.8288652" lon="11.5645441"><ele>659.0</ele><time>2026-04-11T15:16:10.157Z</time></trkpt><trkpt lat="43.8289233" lon="11.5646217"><ele>656.0</ele><time>2026-04-11T15:16:11.156Z</time></trkpt><trkpt lat="43.8289837" lon="11.5646987"><ele>653.0</ele><time>2026-04-11T15:16:12.156Z</time></trkpt><trkpt lat="43.8290382" lon="11.5647623"><ele>650.0</ele><time>2026-04-11T15:16:13.156Z</time></trkpt><trkpt lat="43.8291267" lon="11.5648106"><ele>647.0</ele><time>2026-04-11T15:16:15.156Z</time></trkpt><trkpt lat="43.829196" lon="11.5647558"><ele>644.0</ele><time>2026-04-11T15:16:17.156Z</time></trkpt><trkpt lat="43.8292675" lon="11.5646204"><ele>643.0</ele><time>2026-04-11T15:16:19.156Z</time></trkpt><trkpt lat="43.8292921" lon="11.5645259"><ele>642.0</ele><time>2026-04-11T15:16:20.156Z</time></trkpt><trkpt lat="43.8293203" lon="11.5644226"><ele>641.0</ele><time>2026-04-11T15:16:21.156Z</time></trkpt><trkpt lat="43.8293449" lon="11.5643105"><ele>640.0</ele><time>2026-04-11T15:16:22.156Z</time></trkpt><trkpt lat="43.8293748" lon="11.5642048"><ele>639.0</ele><time>2026-04-11T15:16:23.156Z</time></trkpt><trkpt lat="43.8294026" lon="11.5640908"><ele>638.0</ele><time>2026-04-11T15:16:24.157Z</time></trkpt><trkpt lat="43.8294338" lon="11.5639725"><ele>638.0</ele><time>2026-04-11T15:16:25.156Z</time></trkpt><trkpt lat="43.8294727" lon="11.5638475"><ele>638.0</ele><time>2026-04-11T15:16:26.156Z</time></trkpt><trkpt lat="43.8295237" lon="11.5637262"><ele>638.0</ele><time>2026-04-11T15:16:27.157Z</time></trkpt><trkpt lat="43.8295865" lon="11.5636055"><ele>638.0</ele><time>2026-04-11T15:16:28.156Z</time></trkpt><trkpt lat="43.829656" lon="11.5634866"><ele>638.0</ele><time>2026-04-11T15:16:29.157Z</time></trkpt><trkpt lat="43.8297292" lon="11.5633579"><ele>641.75</ele><time>2026-04-11T15:16:30.156Z</time></trkpt><trkpt lat="43.8298087" lon="11.5632383"><ele>645.5</ele><time>2026-04-11T15:16:31.156Z</time></trkpt><trkpt lat="43.8298987" lon="11.5631237"><ele>649.25</ele><time>2026-04-11T15:16:32.156Z</time></trkpt><trkpt lat="43.8299917" lon="11.5630254"><ele>653.0</ele><time>2026-04-11T15:16:33.157Z</time></trkpt><trkpt lat="43.8300868" lon="11.5629404"><ele>652.5999999999999</ele><time>2026-04-11T15:16:34.156Z</time></trkpt><trkpt lat="43.8301864" lon="11.5628622"><ele>652.1999999999999</ele><time>2026-04-11T15:16:35.156Z</time></trkpt><trkpt lat="43.8302866" lon="11.5627936"><ele>651.8</ele><time>2026-04-11T15:16:36.156Z</time></trkpt><trkpt lat="43.8303818" lon="11.5627331"><ele>651.4</ele><time>2026-04-11T15:16:37.156Z</time></trkpt><trkpt lat="43.8304634" lon="11.5626848"><ele>651.0</ele><time>2026-04-11T15:16:38.156Z</time></trkpt><trkpt lat="43.8305362" lon="11.5626382"><ele>651.0</ele><time>2026-04-11T15:16:39.156Z</time></trkpt><trkpt lat="43.8306034" lon="11.5625882"><ele>651.0</ele><time>2026-04-11T15:16:40.156Z</time></trkpt><trkpt lat="43.8306617" lon="11.5625408"><ele>651.0</ele><time>2026-04-11T15:16:41.156Z</time></trkpt><trkpt lat="43.830714" lon="11.5624802"><ele>651.0</ele><time>2026-04-11T15:16:42.156Z</time></trkpt><trkpt lat="43.8307585" lon="11.5624106"><ele>651.0</ele><time>2026-04-11T15:16:43.156Z</time></trkpt><trkpt lat="43.830794" lon="11.5623362"><ele>651.0</ele><time>2026-04-11T15:16:44.156Z</time></trkpt><trkpt lat="43.8308403" lon="11.5621927"><ele>651.0</ele><time>2026-04-11T15:16:46.156Z</time></trkpt><trkpt lat="43.8308613" lon="11.5620327"><ele>651.0</ele><time>2026-04-11T15:16:48.156Z</time></trkpt><trkpt lat="43.830873" lon="11.5619209"><ele>651.0</ele><time>2026-04-11T15:16:49.156Z</time></trkpt><trkpt lat="43.8308954" lon="11.5618027"><ele>651.0</ele><time>2026-04-11T15:16:50.156Z</time></trkpt><trkpt lat="43.8309161" lon="11.5616875"><ele>651.0</ele><time>2026-04-11T15:16:51.156Z</time></trkpt><trkpt lat="43.8309345" lon="11.5615769"><ele>649.8571428571429</ele><time>2026-04-11T15:16:52.156Z</time></trkpt><trkpt lat="43.8309476" lon="11.5614803"><ele>648.7142857142858</ele><time>2026-04-11T15:16:53.156Z</time></trkpt><trkpt lat="43.8309555" lon="11.5613877"><ele>647.5714285714286</ele><time>2026-04-11T15:16:54.156Z</time></trkpt><trkpt lat="43.8309566" lon="11.5612921"><ele>646.4285714285714</ele><time>2026-04-11T15:16:55.156Z</time></trkpt><trkpt lat="43.830956" lon="11.5611968"><ele>645.2857142857143</ele><time>2026-04-11T15:16:56.156Z</time></trkpt><trkpt lat="43.8309593" lon="11.5610954"><ele>644.1428571428571</ele><time>2026-04-11T15:16:57.156Z</time></trkpt><trkpt lat="43.8309681" lon="11.5609951"><ele>643.0</ele><time>2026-04-11T15:16:58.156Z</time></trkpt><trkpt lat="43.8309834" lon="11.5609003"><ele>643.0</ele><time>2026-04-11T15:16:59.156Z</time></trkpt><trkpt lat="43.8310092" lon="11.560791"><ele>643.0</ele><time>2026-04-11T15:17:00.156Z</time></trkpt><trkpt lat="43.8310381" lon="11.5606882"><ele>643.0</ele><time>2026-04-11T15:17:01.156Z</time></trkpt><trkpt lat="43.8310801" lon="11.5605845"><ele>643.0</ele><time>2026-04-11T15:17:02.157Z</time></trkpt><trkpt lat="43.8311283" lon="11.5604847"><ele>643.0</ele><time>2026-04-11T15:17:03.156Z</time></trkpt><trkpt lat="43.8311792" lon="11.5603928"><ele>643.0</ele><time>2026-04-11T15:17:04.156Z</time></trkpt><trkpt lat="43.8312276" lon="11.5603041"><ele>646.6666666666667</ele><time>2026-04-11T15:17:05.156Z</time></trkpt><trkpt lat="43.8312719" lon="11.5602138"><ele>650.3333333333334</ele><time>2026-04-11T15:17:06.156Z</time></trkpt><trkpt lat="43.8313191" lon="11.5601218"><ele>654.0</ele><time>2026-04-11T15:17:07.156Z</time></trkpt><trkpt lat="43.8313675" lon="11.5600401"><ele>657.6666666666666</ele><time>2026-04-11T15:17:08.157Z</time></trkpt><trkpt lat="43.8314098" lon="11.5599735"><ele>661.3333333333333</ele><time>2026-04-11T15:17:09.156Z</time></trkpt><trkpt lat="43.8315207" lon="11.5599253"><ele>665.0</ele><time>2026-04-11T15:17:11.156Z</time></trkpt><trkpt lat="43.8315898" lon="11.5599539"><ele>665.0</ele><time>2026-04-11T15:17:12.157Z</time></trkpt><trkpt lat="43.8316651" lon="11.5599932"><ele>665.0</ele><time>2026-04-11T15:17:13.156Z</time></trkpt><trkpt lat="43.8317424" lon="11.5600385"><ele>665.0</ele><time>2026-04-11T15:17:14.156Z</time></trkpt><trkpt lat="43.8318129" lon="11.5600822"><ele>665.0</ele><time>2026-04-11T15:17:15.156Z</time></trkpt><trkpt lat="43.831889" lon="11.5601208"><ele>665.0</ele><time>2026-04-11T15:17:16.156Z</time></trkpt><trkpt lat="43.8319621" lon="11.5601617"><ele>665.0</ele><time>2026-04-11T15:17:17.157Z</time></trkpt><trkpt lat="43.8320251" lon="11.560194"><ele>662.8</ele><time>2026-04-11T15:17:18.157Z</time></trkpt><trkpt lat="43.8321362" lon="11.5601897"><ele>660.6</ele><time>2026-04-11T15:17:20.156Z</time></trkpt><trkpt lat="43.8322489" lon="11.5600925"><ele>658.4000000000001</ele><time>2026-04-11T15:17:22.156Z</time></trkpt><trkpt lat="43.8323155" lon="11.5600129"><ele>656.2</ele><time>2026-04-11T15:17:23.156Z</time></trkpt><trkpt lat="43.832378" lon="11.5599293"><ele>654.0</ele><time>2026-04-11T15:17:24.156Z</time></trkpt><trkpt lat="43.8324414" lon="11.5598417"><ele>654.0</ele><time>2026-04-11T15:17:25.156Z</time></trkpt><trkpt lat="43.8325023" lon="11.5597516"><ele>654.0</ele><time>2026-04-11T15:17:26.156Z</time></trkpt><trkpt lat="43.832565" lon="11.5596599"><ele>654.0</ele><time>2026-04-11T15:17:27.156Z</time></trkpt><trkpt lat="43.8326245" lon="11.5595717"><ele>654.0</ele><time>2026-04-11T15:17:28.156Z</time></trkpt><trkpt lat="43.8326842" lon="11.5594832"><ele>654.0</ele><time>2026-04-11T15:17:29.156Z</time></trkpt><trkpt lat="43.8327404" lon="11.5593974"><ele>654.0</ele><time>2026-04-11T15:17:30.156Z</time></trkpt><trkpt lat="43.8327942" lon="11.5593159"><ele>654.8571428571429</ele><time>2026-04-11T15:17:31.156Z</time></trkpt><trkpt lat="43.8328424" lon="11.5592396"><ele>655.7142857142858</ele><time>2026-04-11T15:17:32.156Z</time></trkpt><trkpt lat="43.8328925" lon="11.5591615"><ele>656.5714285714287</ele><time>2026-04-11T15:17:33.156Z</time></trkpt><trkpt lat="43.8329413" lon="11.5590849"><ele>657.4285714285714</ele><time>2026-04-11T15:17:34.156Z</time></trkpt><trkpt lat="43.8329896" lon="11.559009"><ele>658.2857142857143</ele><time>2026-04-11T15:17:35.156Z</time></trkpt><trkpt lat="43.8330393" lon="11.5589291"><ele>659.1428571428572</ele><time>2026-04-11T15:17:36.156Z</time></trkpt><trkpt lat="43.83309" lon="11.5588564"><ele>660.0</ele><time>2026-04-11T15:17:37.156Z</time></trkpt><trkpt lat="43.8331432" lon="11.558798"><ele>660.0</ele><time>2026-04-11T15:17:38.157Z</time></trkpt><trkpt lat="43.8332034" lon="11.55875"><ele>660.0</ele><time>2026-04-11T15:17:39.156Z</time></trkpt><trkpt lat="43.8332674" lon="11.5587078"><ele>660.0</ele><time>2026-04-11T15:17:40.156Z</time></trkpt><trkpt lat="43.833346" lon="11.5586671"><ele>660.0</ele><time>2026-04-11T15:17:41.156Z</time></trkpt><trkpt lat="43.8334288" lon="11.5586345"><ele>660.0</ele><time>2026-04-11T15:17:42.156Z</time></trkpt><trkpt lat="43.833507" lon="11.5586083"><ele>660.0</ele><time>2026-04-11T15:17:43.156Z</time></trkpt><trkpt lat="43.8335808" lon="11.5585731"><ele>660.2</ele><time>2026-04-11T15:17:44.156Z</time></trkpt><trkpt lat="43.8336424" lon="11.5585306"><ele>660.4</ele><time>2026-04-11T15:17:45.156Z</time></trkpt><trkpt lat="43.8336981" lon="11.5584391"><ele>660.5999999999999</ele><time>2026-04-11T15:17:47.156Z</time></trkpt><trkpt lat="43.8335585" lon="11.5584306"><ele>660.8</ele><time>2026-04-11T15:17:49.156Z</time></trkpt><trkpt lat="43.8335007" lon="11.5583905"><ele>661.0</ele><time>2026-04-11T15:17:50.156Z</time></trkpt><trkpt lat="43.8334485" lon="11.5582758"><ele>663.8333333333334</ele><time>2026-04-11T15:17:52.156Z</time></trkpt><trkpt lat="43.8334071" lon="11.5581677"><ele>666.6666666666667</ele><time>2026-04-11T15:17:54.156Z</time></trkpt><trkpt lat="43.8333852" lon="11.5580141"><ele>669.5</ele><time>2026-04-11T15:17:56.156Z</time></trkpt><trkpt lat="43.8333829" lon="11.5579194"><ele>672.3333333333334</ele><time>2026-04-11T15:17:57.156Z</time></trkpt><trkpt lat="43.833384" lon="11.5578245"><ele>675.1666666666666</ele><time>2026-04-11T15:17:58.156Z</time></trkpt><trkpt lat="43.8333893" lon="11.5577285"><ele>678.0</ele><time>2026-04-11T15:17:59.156Z</time></trkpt><trkpt lat="43.8334124" lon="11.5576409"><ele>676.5999999999999</ele><time>2026-04-11T15:18:00.157Z</time></trkpt><trkpt lat="43.8334539" lon="11.5575722"><ele>675.1999999999999</ele><time>2026-04-11T15:18:01.156Z</time></trkpt><trkpt lat="43.8335125" lon="11.5575048"><ele>673.8</ele><time>2026-04-11T15:18:02.156Z</time></trkpt><trkpt lat="43.8335977" lon="11.5574273"><ele>672.4</ele><time>2026-04-11T15:18:03.156Z</time></trkpt><trkpt lat="43.8336946" lon="11.5573499"><ele>671.0</ele><time>2026-04-11T15:18:04.156Z</time></trkpt><trkpt lat="43.8337946" lon="11.5572406"><ele>671.0</ele><time>2026-04-11T15:18:05.156Z</time></trkpt><trkpt lat="43.8338932" lon="11.5571021"><ele>671.0</ele><time>2026-04-11T15:18:06.156Z</time></trkpt><trkpt lat="43.8339879" lon="11.5569382"><ele>671.0</ele><time>2026-04-11T15:18:07.156Z</time></trkpt><trkpt lat="43.834077" lon="11.5567762"><ele>671.0</ele><time>2026-04-11T15:18:08.156Z</time></trkpt><trkpt lat="43.8341539" lon="11.5566319"><ele>673.4</ele><time>2026-04-11T15:18:09.156Z</time></trkpt><trkpt lat="43.8342256" lon="11.5565047"><ele>675.8</ele><time>2026-04-11T15:18:10.156Z</time></trkpt><trkpt lat="43.8342979" lon="11.5564012"><ele>678.1999999999999</ele><time>2026-04-11T15:18:11.156Z</time></trkpt><trkpt lat="43.8343779" lon="11.5563113"><ele>680.5999999999999</ele><time>2026-04-11T15:18:12.156Z</time></trkpt><trkpt lat="43.8344634" lon="11.5562326"><ele>683.0</ele><time>2026-04-11T15:18:13.156Z</time></trkpt><trkpt lat="43.8345521" lon="11.5561519"><ele>685.6666666666666</ele><time>2026-04-11T15:18:14.156Z</time></trkpt><trkpt lat="43.8346349" lon="11.5560777"><ele>688.3333333333333</ele><time>2026-04-11T15:18:15.156Z</time></trkpt><trkpt lat="43.8347084" lon="11.5560131"><ele>691.0</ele><time>2026-04-11T15:18:16.157Z</time></trkpt><trkpt lat="43.8347714" lon="11.5559691"><ele>693.6666666666666</ele><time>2026-04-11T15:18:17.156Z</time></trkpt><trkpt lat="43.8348873" lon="11.555957"><ele>696.3333333333334</ele><time>2026-04-11T15:18:19.156Z</time></trkpt><trkpt lat="43.8349524" lon="11.5559999"><ele>699.0</ele><time>2026-04-11T15:18:20.156Z</time></trkpt><trkpt lat="43.835021" lon="11.556054"><ele>699.0</ele><time>2026-04-11T15:18:21.156Z</time></trkpt><trkpt lat="43.8350983" lon="11.5561263"><ele>699.0</ele><time>2026-04-11T15:18:22.156Z</time></trkpt><trkpt lat="43.8351746" lon="11.5562262"><ele>699.0</ele><time>2026-04-11T15:18:23.156Z</time></trkpt><trkpt lat="43.8352418" lon="11.5563406"><ele>699.0</ele><time>2026-04-11T15:18:24.156Z</time></trkpt><trkpt lat="43.8352983" lon="11.556444"><ele>699.0</ele><time>2026-04-11T15:18:25.156Z</time></trkpt><trkpt lat="43.8353451" lon="11.5565253"><ele>697.2</ele><time>2026-04-11T15:18:26.156Z</time></trkpt><trkpt lat="43.8354491" lon="11.556552"><ele>695.4000000000001</ele><time>2026-04-11T15:18:28.157Z</time></trkpt><trkpt lat="43.8355212" lon="11.5564361"><ele>693.6</ele><time>2026-04-11T15:18:30.156Z</time></trkpt><trkpt lat="43.8355419" lon="11.5563306"><ele>691.8</ele><time>2026-04-11T15:18:31.156Z</time></trkpt><trkpt lat="43.8355477" lon="11.556193"><ele>690.0</ele><time>2026-04-11T15:18:32.156Z</time></trkpt><trkpt lat="43.8355507" lon="11.5560519"><ele>690.0</ele><time>2026-04-11T15:18:33.156Z</time></trkpt><trkpt lat="43.8355604" lon="11.5559054"><ele>690.0</ele><time>2026-04-11T15:18:34.156Z</time></trkpt><trkpt lat="43.8355835" lon="11.5557671"><ele>690.0</ele><time>2026-04-11T15:18:35.156Z</time></trkpt><trkpt lat="43.8356228" lon="11.5556371"><ele>690.0</ele><time>2026-04-11T15:18:36.156Z</time></trkpt><trkpt lat="43.8356733" lon="11.5555236"><ele>690.0</ele><time>2026-04-11T15:18:37.156Z</time></trkpt><trkpt lat="43.8357282" lon="11.5554198"><ele>693.0</ele><time>2026-04-11T15:18:38.156Z</time></trkpt><trkpt lat="43.8357713" lon="11.5553025"><ele>696.0</ele><time>2026-04-11T15:18:39.157Z</time></trkpt><trkpt lat="43.8358032" lon="11.5551691"><ele>699.0</ele><time>2026-04-11T15:18:40.156Z</time></trkpt><trkpt lat="43.8358268" lon="11.5550233"><ele>702.0</ele><time>2026-04-11T15:18:41.156Z</time></trkpt><trkpt lat="43.8358392" lon="11.5548816"><ele>705.0</ele><time>2026-04-11T15:18:42.156Z</time></trkpt><trkpt lat="43.8358552" lon="11.5547456"><ele>705.0</ele><time>2026-04-11T15:18:43.156Z</time></trkpt><trkpt lat="43.8358615" lon="11.554626"><ele>705.0</ele><time>2026-04-11T15:18:44.156Z</time></trkpt><trkpt lat="43.835867" lon="11.5545243"><ele>705.0</ele><time>2026-04-11T15:18:45.156Z</time></trkpt><trkpt lat="43.8358309" lon="11.5543872"><ele>705.0</ele><time>2026-04-11T15:18:47.156Z</time></trkpt><trkpt lat="43.8357544" lon="11.5543467"><ele>705.0</ele><time>2026-04-11T15:18:49.156Z</time></trkpt><trkpt lat="43.8356723" lon="11.554375"><ele>705.0</ele><time>2026-04-11T15:18:51.156Z</time></trkpt><trkpt lat="43.8356157" lon="11.5544696"><ele>705.0</ele><time>2026-04-11T15:18:53.156Z</time></trkpt><trkpt lat="43.8355511" lon="11.5546422"><ele>705.0</ele><time>2026-04-11T15:18:55.156Z</time></trkpt><trkpt lat="43.8355114" lon="11.5547609"><ele>705.0</ele><time>2026-04-11T15:18:56.156Z</time></trkpt><trkpt lat="43.8354797" lon="11.5548628"><ele>705.0</ele><time>2026-04-11T15:18:57.156Z</time></trkpt><trkpt lat="43.8354523" lon="11.5549782"><ele>705.0</ele><time>2026-04-11T15:18:58.156Z</time></trkpt><trkpt lat="43.8354257" lon="11.5550883"><ele>705.0</ele><time>2026-04-11T15:18:59.156Z</time></trkpt><trkpt lat="43.835385" lon="11.5551811"><ele>705.0</ele><time>2026-04-11T15:19:00.156Z</time></trkpt><trkpt lat="43.83533" lon="11.5552412"><ele>705.0</ele><time>2026-04-11T15:19:01.156Z</time></trkpt><trkpt lat="43.8352096" lon="11.5552497"><ele>705.0</ele><time>2026-04-11T15:19:03.156Z</time></trkpt><trkpt lat="43.8351334" lon="11.55512"><ele>705.0</ele><time>2026-04-11T15:19:05.156Z</time></trkpt><trkpt lat="43.8351238" lon="11.5549459"><ele>705.0</ele><time>2026-04-11T15:19:07.156Z</time></trkpt><trkpt lat="43.8351314" lon="11.5548441"><ele>705.0</ele><time>2026-04-11T15:19:08.156Z</time></trkpt><trkpt lat="43.8351425" lon="11.5547257"><ele>705.0</ele><time>2026-04-11T15:19:09.156Z</time></trkpt><trkpt lat="43.835158" lon="11.5545855"><ele>705.0</ele><time>2026-04-11T15:19:10.156Z</time></trkpt><trkpt lat="43.8351759" lon="11.5544333"><ele>705.0</ele><time>2026-04-11T15:19:11.156Z</time></trkpt><trkpt lat="43.835187" lon="11.5542911"><ele>706.8</ele><time>2026-04-11T15:19:12.156Z</time></trkpt><trkpt lat="43.8351947" lon="11.5541406"><ele>708.6</ele><time>2026-04-11T15:19:13.156Z</time></trkpt><trkpt lat="43.8352027" lon="11.5540031"><ele>710.4000000000001</ele><time>2026-04-11T15:19:14.156Z</time></trkpt><trkpt lat="43.8352111" lon="11.5538757"><ele>712.2</ele><time>2026-04-11T15:19:15.156Z</time></trkpt><trkpt lat="43.8352299" lon="11.553749"><ele>714.0</ele><time>2026-04-11T15:19:16.156Z</time></trkpt><trkpt lat="43.8352682" lon="11.5536331"><ele>717.0</ele><time>2026-04-11T15:19:17.156Z</time></trkpt><trkpt lat="43.8353175" lon="11.5535198"><ele>720.0</ele><time>2026-04-11T15:19:18.156Z</time></trkpt><trkpt lat="43.8353732" lon="11.5534071"><ele>723.0</ele><time>2026-04-11T15:19:19.156Z</time></trkpt><trkpt lat="43.8354283" lon="11.5533003"><ele>726.0</ele><time>2026-04-11T15:19:20.157Z</time></trkpt><trkpt lat="43.8354812" lon="11.5531902"><ele>729.0</ele><time>2026-04-11T15:19:21.156Z</time></trkpt><trkpt lat="43.8355217" lon="11.5530775"><ele>729.0</ele><time>2026-04-11T15:19:22.156Z</time></trkpt><trkpt lat="43.8355556" lon="11.5529495"><ele>729.0</ele><time>2026-04-11T15:19:23.156Z</time></trkpt><trkpt lat="43.8355671" lon="11.5528436"><ele>729.0</ele><time>2026-04-11T15:19:24.156Z</time></trkpt><trkpt lat="43.8355665" lon="11.5527547"><ele>729.0</ele><time>2026-04-11T15:19:25.157Z</time></trkpt><trkpt lat="43.835575" lon="11.5526545"><ele>729.0</ele><time>2026-04-11T15:19:26.156Z</time></trkpt><trkpt lat="43.835583" lon="11.5525535"><ele>729.0</ele><time>2026-04-11T15:19:27.156Z</time></trkpt><trkpt lat="43.8355944" lon="11.5524456"><ele>729.0</ele><time>2026-04-11T15:19:28.156Z</time></trkpt><trkpt lat="43.8356032" lon="11.5523295"><ele>729.0</ele><time>2026-04-11T15:19:29.156Z</time></trkpt><trkpt lat="43.8356139" lon="11.5522101"><ele>729.0</ele><time>2026-04-11T15:19:30.157Z</time></trkpt><trkpt lat="43.8356174" lon="11.5521031"><ele>729.0</ele><time>2026-04-11T15:19:31.156Z</time></trkpt><trkpt lat="43.8356163" lon="11.5519973"><ele>729.0</ele><time>2026-04-11T15:19:32.156Z</time></trkpt><trkpt lat="43.8356091" lon="11.5518688"><ele>729.0</ele><time>2026-04-11T15:19:34.157Z</time></trkpt><trkpt lat="43.83556" lon="11.5517943"><ele>729.0</ele><time>2026-04-11T15:19:35.156Z</time></trkpt><trkpt lat="43.8354675" lon="11.5516966"><ele>729.0</ele><time>2026-04-11T15:19:37.156Z</time></trkpt><trkpt lat="43.8353534" lon="11.5516213"><ele>729.0</ele><time>2026-04-11T15:19:39.156Z</time></trkpt><trkpt lat="43.8352974" lon="11.5515741"><ele>729.0</ele><time>2026-04-11T15:19:40.156Z</time></trkpt><trkpt lat="43.8352456" lon="11.5515143"><ele>729.0</ele><time>2026-04-11T15:19:41.156Z</time></trkpt><trkpt lat="43.8352049" lon="11.5514455"><ele>729.0</ele><time>2026-04-11T15:19:42.156Z</time></trkpt><trkpt lat="43.8351654" lon="11.5513731"><ele>729.8333333333334</ele><time>2026-04-11T15:19:43.156Z</time></trkpt><trkpt lat="43.835117" lon="11.5512996"><ele>730.6666666666666</ele><time>2026-04-11T15:19:44.156Z</time></trkpt><trkpt lat="43.8350561" lon="11.5512254"><ele>731.5</ele><time>2026-04-11T15:19:45.157Z</time></trkpt><trkpt lat="43.8350084" lon="11.5511602"><ele>732.3333333333333</ele><time>2026-04-11T15:19:46.156Z</time></trkpt><trkpt lat="43.8349641" lon="11.5510808"><ele>733.1666666666666</ele><time>2026-04-11T15:19:47.156Z</time></trkpt><trkpt lat="43.8349193" lon="11.5509815"><ele>734.0</ele><time>2026-04-11T15:19:48.156Z</time></trkpt><trkpt lat="43.8348838" lon="11.5508794"><ele>734.0</ele><time>2026-04-11T15:19:49.156Z</time></trkpt><trkpt lat="43.8348516" lon="11.5507655"><ele>734.0</ele><time>2026-04-11T15:19:50.156Z</time></trkpt><trkpt lat="43.8348146" lon="11.5506413"><ele>734.0</ele><time>2026-04-11T15:19:51.157Z</time></trkpt><trkpt lat="43.8347785" lon="11.5505184"><ele>734.0</ele><time>2026-04-11T15:19:52.156Z</time></trkpt><trkpt lat="43.8347442" lon="11.5504048"><ele>734.0</ele><time>2026-04-11T15:19:53.156Z</time></trkpt><trkpt lat="43.8347084" lon="11.5502953"><ele>732.2</ele><time>2026-04-11T15:19:54.156Z</time></trkpt><trkpt lat="43.8346852" lon="11.5502046"><ele>730.4000000000001</ele><time>2026-04-11T15:19:55.156Z</time></trkpt><trkpt lat="43.8346685" lon="11.5500599"><ele>728.6</ele><time>2026-04-11T15:19:57.156Z</time></trkpt><trkpt lat="43.8346773" lon="11.5498939"><ele>726.8</ele><time>2026-04-11T15:19:59.156Z</time></trkpt><trkpt lat="43.834702" lon="11.5497876"><ele>725.0</ele><time>2026-04-11T15:20:00.158Z</time></trkpt><trkpt lat="43.8347497" lon="11.5496727"><ele>725.0</ele><time>2026-04-11T15:20:01.157Z</time></trkpt><trkpt lat="43.8348155" lon="11.5495628"><ele>725.0</ele><time>2026-04-11T15:20:02.157Z</time></trkpt><trkpt lat="43.8348829" lon="11.549467"><ele>725.0</ele><time>2026-04-11T15:20:03.157Z</time></trkpt><trkpt lat="43.8349429" lon="11.5493734"><ele>725.0</ele><time>2026-04-11T15:20:04.157Z</time></trkpt><trkpt lat="43.8349936" lon="11.5492651"><ele>725.0</ele><time>2026-04-11T15:20:05.157Z</time></trkpt><trkpt lat="43.8350359" lon="11.549152"><ele>725.0</ele><time>2026-04-11T15:20:06.157Z</time></trkpt><trkpt lat="43.8350706" lon="11.5490371"><ele>725.0</ele><time>2026-04-11T15:20:07.157Z</time></trkpt><trkpt lat="43.835096" lon="11.5489191"><ele>725.0</ele><time>2026-04-11T15:20:08.157Z</time></trkpt><trkpt lat="43.8351204" lon="11.5487979"><ele>725.0</ele><time>2026-04-11T15:20:09.157Z</time></trkpt><trkpt lat="43.8351367" lon="11.5486768"><ele>725.0</ele><time>2026-04-11T15:20:10.157Z</time></trkpt><trkpt lat="43.8351455" lon="11.5485585"><ele>725.0</ele><time>2026-04-11T15:20:11.157Z</time></trkpt><trkpt lat="43.8351434" lon="11.5484403"><ele>724.8333333333333</ele><time>2026-04-11T15:20:12.157Z</time></trkpt><trkpt lat="43.8351252" lon="11.5483244"><ele>724.6666666666666</ele><time>2026-04-11T15:20:13.157Z</time></trkpt><trkpt lat="43.8350938" lon="11.5482131"><ele>724.5</ele><time>2026-04-11T15:20:14.157Z</time></trkpt><trkpt lat="43.8350528" lon="11.5481092"><ele>724.3333333333334</ele><time>2026-04-11T15:20:15.157Z</time></trkpt><trkpt lat="43.8350013" lon="11.5480056"><ele>724.1666666666667</ele><time>2026-04-11T15:20:16.157Z</time></trkpt><trkpt lat="43.8349441" lon="11.5479103"><ele>724.0</ele><time>2026-04-11T15:20:17.157Z</time></trkpt><trkpt lat="43.8348908" lon="11.5478337"><ele>721.3333333333334</ele><time>2026-04-11T15:20:18.158Z</time></trkpt><trkpt lat="43.8348325" lon="11.5477657"><ele>718.6666666666667</ele><time>2026-04-11T15:20:19.157Z</time></trkpt><trkpt lat="43.8347639" lon="11.5477115"><ele>716.0</ele><time>2026-04-11T15:20:20.157Z</time></trkpt><trkpt lat="43.8346857" lon="11.5476635"><ele>713.3333333333334</ele><time>2026-04-11T15:20:21.158Z</time></trkpt><trkpt lat="43.8346099" lon="11.5476197"><ele>710.6666666666666</ele><time>2026-04-11T15:20:22.157Z</time></trkpt><trkpt lat="43.8345542" lon="11.5475765"><ele>708.0</ele><time>2026-04-11T15:20:23.157Z</time></trkpt><trkpt lat="43.8344906" lon="11.5474644"><ele>708.0</ele><time>2026-04-11T15:20:25.157Z</time></trkpt><trkpt lat="43.8345219" lon="11.5472999"><ele>708.0</ele><time>2026-04-11T15:20:27.158Z</time></trkpt><trkpt lat="43.8345533" lon="11.5472031"><ele>708.0</ele><time>2026-04-11T15:20:28.157Z</time></trkpt><trkpt lat="43.8346082" lon="11.547075"><ele>708.0</ele><time>2026-04-11T15:20:29.157Z</time></trkpt><trkpt lat="43.8346508" lon="11.5469614"><ele>708.0</ele><time>2026-04-11T15:20:30.157Z</time></trkpt><trkpt lat="43.8346741" lon="11.546863"><ele>707.8</ele><time>2026-04-11T15:20:31.158Z</time></trkpt><trkpt lat="43.8346919" lon="11.5467438"><ele>707.5999999999999</ele><time>2026-04-11T15:20:32.157Z</time></trkpt><trkpt lat="43.834693" lon="11.5466109"><ele>707.4000000000001</ele><time>2026-04-11T15:20:33.157Z</time></trkpt><trkpt lat="43.8346825" lon="11.5464608"><ele>707.2</ele><time>2026-04-11T15:20:34.157Z</time></trkpt><trkpt lat="43.8346724" lon="11.5463139"><ele>707.0</ele><time>2026-04-11T15:20:35.157Z</time></trkpt><trkpt lat="43.8346551" lon="11.5461683"><ele>707.0</ele><time>2026-04-11T15:20:36.157Z</time></trkpt><trkpt lat="43.8346361" lon="11.546037"><ele>707.0</ele><time>2026-04-11T15:20:37.157Z</time></trkpt><trkpt lat="43.8346221" lon="11.5459175"><ele>707.0</ele><time>2026-04-11T15:20:38.157Z</time></trkpt><trkpt lat="43.8346174" lon="11.5458088"><ele>707.0</ele><time>2026-04-11T15:20:39.157Z</time></trkpt><trkpt lat="43.8346536" lon="11.5456663"><ele>707.0</ele><time>2026-04-11T15:20:41.157Z</time></trkpt><trkpt lat="43.8347867" lon="11.5456113"><ele>707.0</ele><time>2026-04-11T15:20:43.157Z</time></trkpt><trkpt lat="43.8348661" lon="11.5455854"><ele>707.0</ele><time>2026-04-11T15:20:44.157Z</time></trkpt><trkpt lat="43.8349526" lon="11.5455544"><ele>707.0</ele><time>2026-04-11T15:20:45.157Z</time></trkpt><trkpt lat="43.8350254" lon="11.545521"><ele>707.0</ele><time>2026-04-11T15:20:46.158Z</time></trkpt><trkpt lat="43.8350886" lon="11.5454825"><ele>707.0</ele><time>2026-04-11T15:20:47.158Z</time></trkpt><trkpt lat="43.835151" lon="11.5454197"><ele>707.0</ele><time>2026-04-11T15:20:48.157Z</time></trkpt><trkpt lat="43.8352008" lon="11.5453463"><ele>703.5</ele><time>2026-04-11T15:20:49.157Z</time></trkpt><trkpt lat="43.8352414" lon="11.5452591"><ele>700.0</ele><time>2026-04-11T15:20:50.158Z</time></trkpt><trkpt lat="43.835277" lon="11.545164"><ele>696.5</ele><time>2026-04-11T15:20:51.157Z</time></trkpt><trkpt lat="43.8353044" lon="11.5450622"><ele>693.0</ele><time>2026-04-11T15:20:52.157Z</time></trkpt><trkpt lat="43.8353292" lon="11.544959"><ele>689.5</ele><time>2026-04-11T15:20:53.157Z</time></trkpt><trkpt lat="43.8353523" lon="11.5448583"><ele>686.0</ele><time>2026-04-11T15:20:54.157Z</time></trkpt><trkpt lat="43.8353738" lon="11.5447538"><ele>686.0</ele><time>2026-04-11T15:20:55.157Z</time></trkpt><trkpt lat="43.8353936" lon="11.5446528"><ele>686.0</ele><time>2026-04-11T15:20:56.157Z</time></trkpt><trkpt lat="43.8354117" lon="11.5445586"><ele>686.0</ele><time>2026-04-11T15:20:57.158Z</time></trkpt><trkpt lat="43.8354551" lon="11.5444024"><ele>686.0</ele><time>2026-04-11T15:20:59.158Z</time></trkpt><trkpt lat="43.835471" lon="11.5442343"><ele>686.0</ele><time>2026-04-11T15:21:01.158Z</time></trkpt><trkpt lat="43.8354614" lon="11.5441374"><ele>685.8333333333333</ele><time>2026-04-11T15:21:02.157Z</time></trkpt><trkpt lat="43.8354453" lon="11.5440274"><ele>685.6666666666666</ele><time>2026-04-11T15:21:03.157Z</time></trkpt><trkpt lat="43.8354214" lon="11.5439116"><ele>685.5</ele><time>2026-04-11T15:21:04.157Z</time></trkpt><trkpt lat="43.8354019" lon="11.5437926"><ele>685.3333333333334</ele><time>2026-04-11T15:21:05.157Z</time></trkpt><trkpt lat="43.8353895" lon="11.5436727"><ele>685.1666666666667</ele><time>2026-04-11T15:21:06.157Z</time></trkpt><trkpt lat="43.8353908" lon="11.5435528"><ele>685.0</ele><time>2026-04-11T15:21:07.158Z</time></trkpt><trkpt lat="43.8354043" lon="11.5434433"><ele>685.6666666666667</ele><time>2026-04-11T15:21:08.157Z</time></trkpt><trkpt lat="43.8354256" lon="11.5433253"><ele>686.3333333333334</ele><time>2026-04-11T15:21:09.157Z</time></trkpt><trkpt lat="43.8354495" lon="11.5432116"><ele>687.0</ele><time>2026-04-11T15:21:10.157Z</time></trkpt><trkpt lat="43.8354663" lon="11.5430999"><ele>687.6666666666666</ele><time>2026-04-11T15:21:11.157Z</time></trkpt><trkpt lat="43.8354757" lon="11.5429843"><ele>688.3333333333333</ele><time>2026-04-11T15:21:12.157Z</time></trkpt><trkpt lat="43.835475" lon="11.5428587"><ele>689.0</ele><time>2026-04-11T15:21:13.157Z</time></trkpt><trkpt lat="43.835463" lon="11.5427215"><ele>689.8000000000001</ele><time>2026-04-11T15:21:14.157Z</time></trkpt><trkpt lat="43.8354394" lon="11.5425836"><ele>690.6</ele><time>2026-04-11T15:21:15.157Z</time></trkpt><trkpt lat="43.8354078" lon="11.5424488"><ele>691.4</ele><time>2026-04-11T15:21:16.157Z</time></trkpt><trkpt lat="43.8353711" lon="11.5423266"><ele>692.2</ele><time>2026-04-11T15:21:17.157Z</time></trkpt><trkpt lat="43.8353305" lon="11.5422191"><ele>693.0</ele><time>2026-04-11T15:21:18.157Z</time></trkpt><trkpt lat="43.835295" lon="11.5421068"><ele>692.0</ele><time>2026-04-11T15:21:19.157Z</time></trkpt><trkpt lat="43.8352595" lon="11.5419892"><ele>691.0</ele><time>2026-04-11T15:21:20.157Z</time></trkpt><trkpt lat="43.8352318" lon="11.5418732"><ele>690.0</ele><time>2026-04-11T15:21:21.157Z</time></trkpt><trkpt lat="43.8352105" lon="11.5417513"><ele>689.0</ele><time>2026-04-11T15:21:22.157Z</time></trkpt><trkpt lat="43.8351909" lon="11.5416367"><ele>688.0</ele><time>2026-04-11T15:21:23.157Z</time></trkpt><trkpt lat="43.835177" lon="11.5415234"><ele>687.0</ele><time>2026-04-11T15:21:24.157Z</time></trkpt><trkpt lat="43.8351699" lon="11.5414052"><ele>687.0</ele><time>2026-04-11T15:21:25.157Z</time></trkpt><trkpt lat="43.8351735" lon="11.5412892"><ele>687.0</ele><time>2026-04-11T15:21:26.158Z</time></trkpt><trkpt lat="43.8351892" lon="11.5411606"><ele>687.0</ele><time>2026-04-11T15:21:27.157Z</time></trkpt><trkpt lat="43.835213" lon="11.5410126"><ele>687.0</ele><time>2026-04-11T15:21:28.157Z</time></trkpt><trkpt lat="43.8352393" lon="11.5408579"><ele>687.0</ele><time>2026-04-11T15:21:29.157Z</time></trkpt><trkpt lat="43.8352589" lon="11.5407156"><ele>686.4000000000001</ele><time>2026-04-11T15:21:30.158Z</time></trkpt><trkpt lat="43.8352723" lon="11.5405899"><ele>685.8000000000001</ele><time>2026-04-11T15:21:31.157Z</time></trkpt><trkpt lat="43.8352782" lon="11.5404657"><ele>685.2</ele><time>2026-04-11T15:21:32.157Z</time></trkpt><trkpt lat="43.8352725" lon="11.540331"><ele>684.6</ele><time>2026-04-11T15:21:33.157Z</time></trkpt><trkpt lat="43.8352566" lon="11.5401948"><ele>684.0</ele><time>2026-04-11T15:21:34.157Z</time></trkpt><trkpt lat="43.8352427" lon="11.5400688"><ele>684.0</ele><time>2026-04-11T15:21:35.157Z</time></trkpt><trkpt lat="43.8352317" lon="11.5399549"><ele>684.0</ele><time>2026-04-11T15:21:36.157Z</time></trkpt><trkpt lat="43.8352259" lon="11.5398484"><ele>684.0</ele><time>2026-04-11T15:21:37.157Z</time></trkpt><trkpt lat="43.835232" lon="11.5397522"><ele>684.0</ele><time>2026-04-11T15:21:38.157Z</time></trkpt><trkpt lat="43.8352507" lon="11.5396548"><ele>684.0</ele><time>2026-04-11T15:21:39.157Z</time></trkpt><trkpt lat="43.8352865" lon="11.5395431"><ele>684.0</ele><time>2026-04-11T15:21:40.157Z</time></trkpt><trkpt lat="43.8353371" lon="11.5394293"><ele>685.0</ele><time>2026-04-11T15:21:41.158Z</time></trkpt><trkpt lat="43.8354027" lon="11.5392952"><ele>686.0</ele><time>2026-04-11T15:21:42.157Z</time></trkpt><trkpt lat="43.8354705" lon="11.5391558"><ele>687.0</ele><time>2026-04-11T15:21:43.157Z</time></trkpt><trkpt lat="43.8355413" lon="11.5390086"><ele>688.0</ele><time>2026-04-11T15:21:44.157Z</time></trkpt><trkpt lat="43.8356017" lon="11.5388633"><ele>688.0</ele><time>2026-04-11T15:21:45.157Z</time></trkpt><trkpt lat="43.835655" lon="11.5387259"><ele>688.0</ele><time>2026-04-11T15:21:46.158Z</time></trkpt><trkpt lat="43.8357071" lon="11.5385975"><ele>688.0</ele><time>2026-04-11T15:21:47.157Z</time></trkpt><trkpt lat="43.8357545" lon="11.5384725"><ele>688.0</ele><time>2026-04-11T15:21:48.157Z</time></trkpt><trkpt lat="43.8357942" lon="11.5383506"><ele>688.0</ele><time>2026-04-11T15:21:49.157Z</time></trkpt><trkpt lat="43.835831" lon="11.538229"><ele>689.2</ele><time>2026-04-11T15:21:50.157Z</time></trkpt><trkpt lat="43.8358721" lon="11.5381023"><ele>690.4</ele><time>2026-04-11T15:21:51.157Z</time></trkpt><trkpt lat="43.8359129" lon="11.5379674"><ele>691.6</ele><time>2026-04-11T15:21:52.157Z</time></trkpt><trkpt lat="43.8359488" lon="11.5378392"><ele>692.8000000000001</ele><time>2026-04-11T15:21:53.157Z</time></trkpt><trkpt lat="43.8359798" lon="11.5377238"><ele>694.0</ele><time>2026-04-11T15:21:54.157Z</time></trkpt><trkpt lat="43.8360088" lon="11.5376134"><ele>690.0</ele><time>2026-04-11T15:21:55.157Z</time></trkpt><trkpt lat="43.8360353" lon="11.5375017"><ele>686.0</ele><time>2026-04-11T15:21:56.157Z</time></trkpt><trkpt lat="43.8360544" lon="11.5373942"><ele>682.0</ele><time>2026-04-11T15:21:57.157Z</time></trkpt><trkpt lat="43.8360638" lon="11.5372867"><ele>678.0</ele><time>2026-04-11T15:21:58.157Z</time></trkpt><trkpt lat="43.8360632" lon="11.5371767"><ele>674.0</ele><time>2026-04-11T15:21:59.157Z</time></trkpt><trkpt lat="43.8360604" lon="11.5370623"><ele>670.0</ele><time>2026-04-11T15:22:00.157Z</time></trkpt><trkpt lat="43.8360487" lon="11.5369442"><ele>670.0</ele><time>2026-04-11T15:22:01.157Z</time></trkpt><trkpt lat="43.8360309" lon="11.5368094"><ele>670.0</ele><time>2026-04-11T15:22:02.157Z</time></trkpt><trkpt lat="43.8360066" lon="11.536677"><ele>670.0</ele><time>2026-04-11T15:22:03.157Z</time></trkpt><trkpt lat="43.8359791" lon="11.536566"><ele>670.0</ele><time>2026-04-11T15:22:04.157Z</time></trkpt><trkpt lat="43.8359409" lon="11.5364774"><ele>670.0</ele><time>2026-04-11T15:22:05.157Z</time></trkpt><trkpt lat="43.8358952" lon="11.5364087"><ele>670.0</ele><time>2026-04-11T15:22:06.157Z</time></trkpt><trkpt lat="43.8357819" lon="11.5363389"><ele>674.3333333333334</ele><time>2026-04-11T15:22:08.157Z</time></trkpt><trkpt lat="43.8357157" lon="11.5363261"><ele>678.6666666666667</ele><time>2026-04-11T15:22:09.157Z</time></trkpt><trkpt lat="43.8356404" lon="11.5363454"><ele>683.0</ele><time>2026-04-11T15:22:10.158Z</time></trkpt><trkpt lat="43.8355676" lon="11.5363916"><ele>687.3333333333334</ele><time>2026-04-11T15:22:11.157Z</time></trkpt><trkpt lat="43.8354933" lon="11.5364465"><ele>691.6666666666666</ele><time>2026-04-11T15:22:12.157Z</time></trkpt><trkpt lat="43.8354229" lon="11.5365094"><ele>696.0</ele><time>2026-04-11T15:22:13.157Z</time></trkpt><trkpt lat="43.8353527" lon="11.5365736"><ele>696.0</ele><time>2026-04-11T15:22:14.157Z</time></trkpt><trkpt lat="43.835286" lon="11.5366295"><ele>696.0</ele><time>2026-04-11T15:22:15.158Z</time></trkpt><trkpt lat="43.8352139" lon="11.5366797"><ele>696.0</ele><time>2026-04-11T15:22:16.157Z</time></trkpt><trkpt lat="43.8351406" lon="11.5367309"><ele>696.0</ele><time>2026-04-11T15:22:17.157Z</time></trkpt><trkpt lat="43.8350662" lon="11.5367772"><ele>696.0</ele><time>2026-04-11T15:22:18.158Z</time></trkpt><trkpt lat="43.8349939" lon="11.5368211"><ele>696.0</ele><time>2026-04-11T15:22:19.157Z</time></trkpt><trkpt lat="43.8349195" lon="11.5368664"><ele>696.6666666666666</ele><time>2026-04-11T15:22:20.157Z</time></trkpt><trkpt lat="43.8348454" lon="11.5369045"><ele>697.3333333333334</ele><time>2026-04-11T15:22:21.157Z</time></trkpt><trkpt lat="43.8347665" lon="11.5369416"><ele>698.0</ele><time>2026-04-11T15:22:22.157Z</time></trkpt><trkpt lat="43.8346918" lon="11.5369804"><ele>698.6666666666667</ele><time>2026-04-11T15:22:23.157Z</time></trkpt><trkpt lat="43.8346262" lon="11.5370269"><ele>699.3333333333334</ele><time>2026-04-11T15:22:24.157Z</time></trkpt><trkpt lat="43.834565" lon="11.5370824"><ele>700.0</ele><time>2026-04-11T15:22:25.157Z</time></trkpt><trkpt lat="43.8345096" lon="11.5371466"><ele>700.0</ele><time>2026-04-11T15:22:26.157Z</time></trkpt><trkpt lat="43.8344522" lon="11.5372267"><ele>700.0</ele><time>2026-04-11T15:22:27.157Z</time></trkpt><trkpt lat="43.8343834" lon="11.5373003"><ele>700.0</ele><time>2026-04-11T15:22:28.158Z</time></trkpt><trkpt lat="43.8342963" lon="11.5373683"><ele>700.0</ele><time>2026-04-11T15:22:29.157Z</time></trkpt><trkpt lat="43.8341989" lon="11.5374196"><ele>700.0</ele><time>2026-04-11T15:22:30.157Z</time></trkpt><trkpt lat="43.8340963" lon="11.5374558"><ele>696.0</ele><time>2026-04-11T15:22:31.157Z</time></trkpt><trkpt lat="43.8339878" lon="11.5374925"><ele>692.0</ele><time>2026-04-11T15:22:32.157Z</time></trkpt><trkpt lat="43.8338778" lon="11.5375253"><ele>688.0</ele><time>2026-04-11T15:22:33.157Z</time></trkpt><trkpt lat="43.8337642" lon="11.5375617"><ele>684.0</ele><time>2026-04-11T15:22:34.157Z</time></trkpt><trkpt lat="43.8336561" lon="11.5376016"><ele>684.0</ele><time>2026-04-11T15:22:35.157Z</time></trkpt><trkpt lat="43.8335506" lon="11.5376419"><ele>684.0</ele><time>2026-04-11T15:22:36.157Z</time></trkpt><trkpt lat="43.8334512" lon="11.5376856"><ele>684.0</ele><time>2026-04-11T15:22:37.157Z</time></trkpt><trkpt lat="43.8333536" lon="11.5377223"><ele>684.0</ele><time>2026-04-11T15:22:38.157Z</time></trkpt><trkpt lat="43.8332631" lon="11.5377601"><ele>684.0</ele><time>2026-04-11T15:22:39.158Z</time></trkpt><trkpt lat="43.8331806" lon="11.5378129"><ele>683.6</ele><time>2026-04-11T15:22:40.157Z</time></trkpt><trkpt lat="43.8331001" lon="11.5378776"><ele>683.2</ele><time>2026-04-11T15:22:41.157Z</time></trkpt><trkpt lat="43.8330277" lon="11.5379648"><ele>682.8000000000001</ele><time>2026-04-11T15:22:42.157Z</time></trkpt><trkpt lat="43.8329718" lon="11.5380727"><ele>682.4000000000001</ele><time>2026-04-11T15:22:43.157Z</time></trkpt><trkpt lat="43.8329204" lon="11.538179"><ele>682.0</ele><time>2026-04-11T15:22:44.158Z</time></trkpt><trkpt lat="43.8328709" lon="11.5382699"><ele>682.0</ele><time>2026-04-11T15:22:45.157Z</time></trkpt><trkpt lat="43.8328093" lon="11.5383453"><ele>682.0</ele><time>2026-04-11T15:22:46.157Z</time></trkpt><trkpt lat="43.8327372" lon="11.5383984"><ele>682.0</ele><time>2026-04-11T15:22:47.157Z</time></trkpt><trkpt lat="43.8326602" lon="11.5384435"><ele>682.0</ele><time>2026-04-11T15:22:48.157Z</time></trkpt><trkpt lat="43.8325818" lon="11.5384964"><ele>682.0</ele><time>2026-04-11T15:22:49.157Z</time></trkpt><trkpt lat="43.832514" lon="11.538566"><ele>682.0</ele><time>2026-04-11T15:22:50.157Z</time></trkpt><trkpt lat="43.8324563" lon="11.5386508"><ele>680.3333333333334</ele><time>2026-04-11T15:22:51.157Z</time></trkpt><trkpt lat="43.832418" lon="11.5387438"><ele>678.6666666666667</ele><time>2026-04-11T15:22:52.157Z</time></trkpt><trkpt lat="43.8323883" lon="11.538841"><ele>677.0</ele><time>2026-04-11T15:22:53.157Z</time></trkpt><trkpt lat="43.8323785" lon="11.5389443"><ele>675.3333333333334</ele><time>2026-04-11T15:22:54.157Z</time></trkpt><trkpt lat="43.8323749" lon="11.5390484"><ele>673.6666666666666</ele><time>2026-04-11T15:22:55.157Z</time></trkpt><trkpt lat="43.8323559" lon="11.5392057"><ele>672.0</ele><time>2026-04-11T15:22:57.157Z</time></trkpt><trkpt lat="43.8322614" lon="11.5393001"><ele>672.0</ele><time>2026-04-11T15:22:59.158Z</time></trkpt><trkpt lat="43.8321846" lon="11.5393199"><ele>672.0</ele><time>2026-04-11T15:23:00.157Z</time></trkpt><trkpt lat="43.8320856" lon="11.5393333"><ele>672.0</ele><time>2026-04-11T15:23:01.157Z</time></trkpt><trkpt lat="43.8319899" lon="11.5393526"><ele>672.0</ele><time>2026-04-11T15:23:02.158Z</time></trkpt><trkpt lat="43.8319014" lon="11.5393842"><ele>672.0</ele><time>2026-04-11T15:23:03.157Z</time></trkpt><trkpt lat="43.8318132" lon="11.5394419"><ele>671.6666666666666</ele><time>2026-04-11T15:23:04.157Z</time></trkpt><trkpt lat="43.8317277" lon="11.5395291"><ele>671.3333333333334</ele><time>2026-04-11T15:23:05.158Z</time></trkpt><trkpt lat="43.8316532" lon="11.5396215"><ele>671.0</ele><time>2026-04-11T15:23:06.157Z</time></trkpt><trkpt lat="43.8315847" lon="11.5397044"><ele>670.6666666666667</ele><time>2026-04-11T15:23:07.157Z</time></trkpt><trkpt lat="43.8315247" lon="11.5397697"><ele>670.3333333333334</ele><time>2026-04-11T15:23:08.157Z</time></trkpt><trkpt lat="43.831464" lon="11.5398084"><ele>670.0</ele><time>2026-04-11T15:23:09.157Z</time></trkpt><trkpt lat="43.8313898" lon="11.5397482"><ele>670.0</ele><time>2026-04-11T15:23:11.157Z</time></trkpt><trkpt lat="43.8313563" lon="11.5396248"><ele>670.0</ele><time>2026-04-11T15:23:13.157Z</time></trkpt><trkpt lat="43.8313767" lon="11.5395317"><ele>670.0</ele><time>2026-04-11T15:23:14.157Z</time></trkpt><trkpt lat="43.8314267" lon="11.5394667"><ele>670.0</ele><time>2026-04-11T15:23:15.157Z</time></trkpt><trkpt lat="43.8314967" lon="11.5394167"><ele>670.0</ele><time>2026-04-11T15:23:16.158Z</time></trkpt><trkpt lat="43.8315867" lon="11.53936"><ele>670.0</ele><time>2026-04-11T15:23:17.157Z</time></trkpt><trkpt lat="43.8316783" lon="11.5392767"><ele>670.3333333333334</ele><time>2026-04-11T15:23:18.157Z</time></trkpt><trkpt lat="43.8317633" lon="11.53919"><ele>670.6666666666667</ele><time>2026-04-11T15:23:19.157Z</time></trkpt><trkpt lat="43.8318483" lon="11.5391217"><ele>671.0</ele><time>2026-04-11T15:23:20.158Z</time></trkpt><trkpt lat="43.831925" lon="11.5390733"><ele>671.3333333333334</ele><time>2026-04-11T15:23:21.158Z</time></trkpt><trkpt lat="43.8319967" lon="11.5390233"><ele>671.6666666666666</ele><time>2026-04-11T15:23:22.157Z</time></trkpt><trkpt lat="43.8320567" lon="11.5389667"><ele>672.0</ele><time>2026-04-11T15:23:23.158Z</time></trkpt><trkpt lat="43.8320933" lon="11.538815"><ele>670.0</ele><time>2026-04-11T15:23:25.157Z</time></trkpt><trkpt lat="43.8320817" lon="11.5387117"><ele>668.0</ele><time>2026-04-11T15:23:26.157Z</time></trkpt><trkpt lat="43.8320617" lon="11.5385933"><ele>666.0</ele><time>2026-04-11T15:23:27.157Z</time></trkpt><trkpt lat="43.8320517" lon="11.53847"><ele>664.0</ele><time>2026-04-11T15:23:28.157Z</time></trkpt><trkpt lat="43.8320517" lon="11.5383567"><ele>662.0</ele><time>2026-04-11T15:23:29.157Z</time></trkpt><trkpt lat="43.8320733" lon="11.5382433"><ele>660.0</ele><time>2026-04-11T15:23:30.157Z</time></trkpt><trkpt lat="43.8321117" lon="11.53811"><ele>660.0</ele><time>2026-04-11T15:23:31.157Z</time></trkpt><trkpt lat="43.8321617" lon="11.5379833"><ele>660.0</ele><time>2026-04-11T15:23:32.157Z</time></trkpt><trkpt lat="43.83219" lon="11.5378617"><ele>660.0</ele><time>2026-04-11T15:23:33.158Z</time></trkpt><trkpt lat="43.832205" lon="11.5377367"><ele>660.0</ele><time>2026-04-11T15:23:34.157Z</time></trkpt><trkpt lat="43.8322133" lon="11.5376133"><ele>660.0</ele><time>2026-04-11T15:23:35.157Z</time></trkpt><trkpt lat="43.8322167" lon="11.5375"><ele>658.0</ele><time>2026-04-11T15:23:36.157Z</time></trkpt><trkpt lat="43.8322267" lon="11.5373933"><ele>656.0</ele><time>2026-04-11T15:23:37.157Z</time></trkpt><trkpt lat="43.83224" lon="11.5372817"><ele>654.0</ele><time>2026-04-11T15:23:38.157Z</time></trkpt><trkpt lat="43.8322767" lon="11.53716"><ele>652.0</ele><time>2026-04-11T15:23:39.157Z</time></trkpt><trkpt lat="43.8323367" lon="11.537045"><ele>650.0</ele><time>2026-04-11T15:23:40.157Z</time></trkpt><trkpt lat="43.832405" lon="11.5369317"><ele>650.0</ele><time>2026-04-11T15:23:41.157Z</time></trkpt><trkpt lat="43.8324767" lon="11.5368133"><ele>650.0</ele><time>2026-04-11T15:23:42.157Z</time></trkpt><trkpt lat="43.8325467" lon="11.5367117"><ele>650.0</ele><time>2026-04-11T15:23:43.158Z</time></trkpt><trkpt lat="43.8326217" lon="11.5366183"><ele>650.0</ele><time>2026-04-11T15:23:44.157Z</time></trkpt><trkpt lat="43.83271" lon="11.5365417"><ele>650.0</ele><time>2026-04-11T15:23:45.157Z</time></trkpt><trkpt lat="43.8328033" lon="11.5364733"><ele>650.0</ele><time>2026-04-11T15:23:46.157Z</time></trkpt><trkpt lat="43.8328967" lon="11.53641"><ele>650.0</ele><time>2026-04-11T15:23:47.157Z</time></trkpt><trkpt lat="43.8329733" lon="11.5363433"><ele>650.0</ele><time>2026-04-11T15:23:48.157Z</time></trkpt><trkpt lat="43.8330533" lon="11.5362717"><ele>650.0</ele><time>2026-04-11T15:23:49.157Z</time></trkpt><trkpt lat="43.833125" lon="11.536195"><ele>650.0</ele><time>2026-04-11T15:23:50.157Z</time></trkpt><trkpt lat="43.8331867" lon="11.536115"><ele>647.0</ele><time>2026-04-11T15:23:51.158Z</time></trkpt><trkpt lat="43.833245" lon="11.5360267"><ele>644.0</ele><time>2026-04-11T15:23:52.157Z</time></trkpt><trkpt lat="43.8332867" lon="11.5359083"><ele>641.0</ele><time>2026-04-11T15:23:53.157Z</time></trkpt><trkpt lat="43.8333317" lon="11.5357733"><ele>638.0</ele><time>2026-04-11T15:23:54.157Z</time></trkpt><trkpt lat="43.8333717" lon="11.5356367"><ele>635.0</ele><time>2026-04-11T15:23:55.157Z</time></trkpt><trkpt lat="43.8334117" lon="11.5354883"><ele>632.75</ele><time>2026-04-11T15:23:56.157Z</time></trkpt><trkpt lat="43.833455" lon="11.535335"><ele>630.5</ele><time>2026-04-11T15:23:57.157Z</time></trkpt><trkpt lat="43.8334983" lon="11.5351733"><ele>628.25</ele><time>2026-04-11T15:23:58.157Z</time></trkpt><trkpt lat="43.833535" lon="11.535005"><ele>626.0</ele><time>2026-04-11T15:23:59.157Z</time></trkpt><trkpt lat="43.8335667" lon="11.5348283"><ele>630.0</ele><time>2026-04-11T15:24:00.157Z</time></trkpt><trkpt lat="43.8336017" lon="11.5346617"><ele>634.0</ele><time>2026-04-11T15:24:01.157Z</time></trkpt><trkpt lat="43.8336417" lon="11.5344917"><ele>638.0</ele><time>2026-04-11T15:24:02.157Z</time></trkpt><trkpt lat="43.8336767" lon="11.5343333"><ele>642.0</ele><time>2026-04-11T15:24:03.158Z</time></trkpt><trkpt lat="43.8336983" lon="11.5342017"><ele>642.0</ele><time>2026-04-11T15:24:04.157Z</time></trkpt><trkpt lat="43.8337083" lon="11.5340783"><ele>642.0</ele><time>2026-04-11T15:24:05.157Z</time></trkpt><trkpt lat="43.83371" lon="11.533965"><ele>642.0</ele><time>2026-04-11T15:24:06.158Z</time></trkpt><trkpt lat="43.833715" lon="11.5338633"><ele>642.0</ele><time>2026-04-11T15:24:07.157Z</time></trkpt><trkpt lat="43.833735" lon="11.5337667"><ele>642.0</ele><time>2026-04-11T15:24:08.157Z</time></trkpt><trkpt lat="43.8337833" lon="11.5336717"><ele>642.0</ele><time>2026-04-11T15:24:09.157Z</time></trkpt><trkpt lat="43.8338417" lon="11.53358"><ele>640.5</ele><time>2026-04-11T15:24:10.157Z</time></trkpt><trkpt lat="43.8338867" lon="11.5335"><ele>639.0</ele><time>2026-04-11T15:24:11.157Z</time></trkpt><trkpt lat="43.8339217" lon="11.533405"><ele>637.5</ele><time>2026-04-11T15:24:12.157Z</time></trkpt><trkpt lat="43.8339317" lon="11.5332967"><ele>636.0</ele><time>2026-04-11T15:24:13.157Z</time></trkpt><trkpt lat="43.833935" lon="11.5331767"><ele>634.5</ele><time>2026-04-11T15:24:14.157Z</time></trkpt><trkpt lat="43.833935" lon="11.53306"><ele>633.0</ele><time>2026-04-11T15:24:15.157Z</time></trkpt><trkpt lat="43.8339517" lon="11.5329417"><ele>631.3333333333334</ele><time>2026-04-11T15:24:16.157Z</time></trkpt><trkpt lat="43.833965" lon="11.5328217"><ele>629.6666666666666</ele><time>2026-04-11T15:24:17.157Z</time></trkpt><trkpt lat="43.8339783" lon="11.5326883"><ele>628.0</ele><time>2026-04-11T15:24:18.157Z</time></trkpt><trkpt lat="43.8339733" lon="11.5325683"><ele>626.3333333333333</ele><time>2026-04-11T15:24:19.157Z</time></trkpt><trkpt lat="43.8339483" lon="11.5324717"><ele>624.6666666666666</ele><time>2026-04-11T15:24:20.157Z</time></trkpt><trkpt lat="43.8339133" lon="11.53237"><ele>623.0</ele><time>2026-04-11T15:24:21.158Z</time></trkpt><trkpt lat="43.833875" lon="11.5322617"><ele>623.0</ele><time>2026-04-11T15:24:22.157Z</time></trkpt><trkpt lat="43.8338567" lon="11.5321633"><ele>623.0</ele><time>2026-04-11T15:24:23.157Z</time></trkpt><trkpt lat="43.8338483" lon="11.5320517"><ele>623.0</ele><time>2026-04-11T15:24:24.158Z</time></trkpt><trkpt lat="43.8338433" lon="11.5319417"><ele>623.0</ele><time>2026-04-11T15:24:25.158Z</time></trkpt><trkpt lat="43.8338483" lon="11.5318417"><ele>623.0</ele><time>2026-04-11T15:24:26.157Z</time></trkpt><trkpt lat="43.8339083" lon="11.5317083"><ele>623.0</ele><time>2026-04-11T15:24:28.158Z</time></trkpt><trkpt lat="43.8340167" lon="11.53159"><ele>622.1999999999999</ele><time>2026-04-11T15:24:30.157Z</time></trkpt><trkpt lat="43.8340833" lon="11.531495"><ele>621.4</ele><time>2026-04-11T15:24:31.157Z</time></trkpt><trkpt lat="43.8341517" lon="11.5313717"><ele>620.5999999999999</ele><time>2026-04-11T15:24:32.157Z</time></trkpt><trkpt lat="43.83422" lon="11.5312383"><ele>619.8</ele><time>2026-04-11T15:24:33.157Z</time></trkpt><trkpt lat="43.8342917" lon="11.5311083"><ele>619.0</ele><time>2026-04-11T15:24:34.158Z</time></trkpt><trkpt lat="43.83437" lon="11.530995"><ele>619.0</ele><time>2026-04-11T15:24:35.157Z</time></trkpt><trkpt lat="43.8344367" lon="11.5308917"><ele>619.0</ele><time>2026-04-11T15:24:36.157Z</time></trkpt><trkpt lat="43.834495" lon="11.530775"><ele>619.0</ele><time>2026-04-11T15:24:37.158Z</time></trkpt><trkpt lat="43.834515" lon="11.530645"><ele>619.0</ele><time>2026-04-11T15:24:38.157Z</time></trkpt><trkpt lat="43.834515" lon="11.53052"><ele>619.0</ele><time>2026-04-11T15:24:39.157Z</time></trkpt><trkpt lat="43.8345" lon="11.5304"><ele>617.0</ele><time>2026-04-11T15:24:40.157Z</time></trkpt><trkpt lat="43.834485" lon="11.530295"><ele>615.0</ele><time>2026-04-11T15:24:41.157Z</time></trkpt><trkpt lat="43.834475" lon="11.5302"><ele>613.0</ele><time>2026-04-11T15:24:42.157Z</time></trkpt><trkpt lat="43.834485" lon="11.5300383"><ele>611.0</ele><time>2026-04-11T15:24:44.157Z</time></trkpt><trkpt lat="43.8345283" lon="11.5298867"><ele>609.0</ele><time>2026-04-11T15:24:46.157Z</time></trkpt><trkpt lat="43.8345783" lon="11.5297467"><ele>609.0</ele><time>2026-04-11T15:24:48.158Z</time></trkpt><trkpt lat="43.8346317" lon="11.5296033"><ele>609.0</ele><time>2026-04-11T15:24:50.157Z</time></trkpt><trkpt lat="43.8346783" lon="11.529495"><ele>609.0</ele><time>2026-04-11T15:24:52.157Z</time></trkpt><trkpt lat="43.83467" lon="11.5293817"><ele>609.0</ele><time>2026-04-11T15:24:55.157Z</time></trkpt><trkpt lat="43.8346083" lon="11.529345"><ele>609.0</ele><time>2026-04-11T15:24:58.157Z</time></trkpt><trkpt lat="43.8345467" lon="11.5293783"><ele>609.0</ele><time>2026-04-11T15:25:01.157Z</time></trkpt><trkpt lat="43.8344833" lon="11.5294817"><ele>609.0</ele><time>2026-04-11T15:25:03.157Z</time></trkpt><trkpt lat="43.8344417" lon="11.5295617"><ele>609.0</ele><time>2026-04-11T15:25:04.157Z</time></trkpt><trkpt lat="43.8343883" lon="11.529645"><ele>609.0</ele><time>2026-04-11T15:25:05.157Z</time></trkpt><trkpt lat="43.8343367" lon="11.5297167"><ele>609.0</ele><time>2026-04-11T15:25:06.157Z</time></trkpt><trkpt lat="43.8342617" lon="11.52984"><ele>609.0</ele><time>2026-04-11T15:25:08.157Z</time></trkpt><trkpt lat="43.8342267" lon="11.5299667"><ele>609.0</ele><time>2026-04-11T15:25:10.157Z</time></trkpt><trkpt lat="43.8341867" lon="11.5301233"><ele>607.4</ele><time>2026-04-11T15:25:12.157Z</time></trkpt><trkpt lat="43.834135" lon="11.5303117"><ele>605.8</ele><time>2026-04-11T15:25:14.157Z</time></trkpt><trkpt lat="43.8340883" lon="11.53041"><ele>604.2</ele><time>2026-04-11T15:25:15.157Z</time></trkpt><trkpt lat="43.8340333" lon="11.5304883"><ele>602.6</ele><time>2026-04-11T15:25:16.157Z</time></trkpt><trkpt lat="43.8339733" lon="11.530555"><ele>601.0</ele><time>2026-04-11T15:25:17.157Z</time></trkpt><trkpt lat="43.83391" lon="11.5306133"><ele>601.0</ele><time>2026-04-11T15:25:18.158Z</time></trkpt><trkpt lat="43.8338417" lon="11.530655"><ele>601.0</ele><time>2026-04-11T15:25:19.157Z</time></trkpt><trkpt lat="43.833766" lon="11.5306839"><ele>601.0</ele><time>2026-04-11T15:25:20.157Z</time></trkpt><trkpt lat="43.833683" lon="11.5307195"><ele>601.0</ele><time>2026-04-11T15:25:21.157Z</time></trkpt><trkpt lat="43.8335988" lon="11.5307646"><ele>601.0</ele><time>2026-04-11T15:25:22.157Z</time></trkpt><trkpt lat="43.8335183" lon="11.5308239"><ele>601.0</ele><time>2026-04-11T15:25:23.157Z</time></trkpt><trkpt lat="43.8334521" lon="11.5308904"><ele>598.7142857142857</ele><time>2026-04-11T15:25:24.157Z</time></trkpt><trkpt lat="43.8333952" lon="11.5309685"><ele>596.4285714285714</ele><time>2026-04-11T15:25:25.158Z</time></trkpt><trkpt lat="43.833355" lon="11.5310441"><ele>594.1428571428571</ele><time>2026-04-11T15:25:26.157Z</time></trkpt><trkpt lat="43.8333217" lon="11.5311362"><ele>591.8571428571429</ele><time>2026-04-11T15:25:27.157Z</time></trkpt><trkpt lat="43.8333038" lon="11.5312283"><ele>589.5714285714286</ele><time>2026-04-11T15:25:28.158Z</time></trkpt><trkpt lat="43.8333001" lon="11.5313209"><ele>587.2857142857143</ele><time>2026-04-11T15:25:29.157Z</time></trkpt><trkpt lat="43.8333166" lon="11.5314113"><ele>585.0</ele><time>2026-04-11T15:25:30.157Z</time></trkpt><trkpt lat="43.8333391" lon="11.5315057"><ele>585.0</ele><time>2026-04-11T15:25:31.157Z</time></trkpt><trkpt lat="43.8333605" lon="11.5316047"><ele>585.0</ele><time>2026-04-11T15:25:32.157Z</time></trkpt><trkpt lat="43.8333638" lon="11.5316983"><ele>585.0</ele><time>2026-04-11T15:25:33.157Z</time></trkpt><trkpt lat="43.8333507" lon="11.5317923"><ele>585.0</ele><time>2026-04-11T15:25:34.157Z</time></trkpt><trkpt lat="43.8333195" lon="11.5318943"><ele>585.0</ele><time>2026-04-11T15:25:35.157Z</time></trkpt><trkpt lat="43.8332686" lon="11.5319924"><ele>585.0</ele><time>2026-04-11T15:25:36.157Z</time></trkpt><trkpt lat="43.8332096" lon="11.5320532"><ele>586.6</ele><time>2026-04-11T15:25:37.157Z</time></trkpt><trkpt lat="43.8331337" lon="11.5321075"><ele>588.2</ele><time>2026-04-11T15:25:38.157Z</time></trkpt><trkpt lat="43.833047" lon="11.5321337"><ele>589.8</ele><time>2026-04-11T15:25:39.158Z</time></trkpt><trkpt lat="43.8329481" lon="11.5321401"><ele>591.4</ele><time>2026-04-11T15:25:40.158Z</time></trkpt><trkpt lat="43.8328464" lon="11.5321471"><ele>593.0</ele><time>2026-04-11T15:25:41.157Z</time></trkpt><trkpt lat="43.832751" lon="11.5321528"><ele>593.0</ele><time>2026-04-11T15:25:42.157Z</time></trkpt><trkpt lat="43.832668" lon="11.532168"><ele>593.0</ele><time>2026-04-11T15:25:43.157Z</time></trkpt><trkpt lat="43.8325931" lon="11.5321992"><ele>593.0</ele><time>2026-04-11T15:25:44.157Z</time></trkpt><trkpt lat="43.8325231" lon="11.5322386"><ele>593.0</ele><time>2026-04-11T15:25:45.158Z</time></trkpt><trkpt lat="43.8324642" lon="11.5322871"><ele>593.0</ele><time>2026-04-11T15:25:46.157Z</time></trkpt><trkpt lat="43.8324153" lon="11.532357"><ele>593.0</ele><time>2026-04-11T15:25:47.157Z</time></trkpt><trkpt lat="43.8323756" lon="11.5324538"><ele>591.1666666666666</ele><time>2026-04-11T15:25:48.157Z</time></trkpt><trkpt lat="43.83234" lon="11.5325612"><ele>589.3333333333333</ele><time>2026-04-11T15:25:49.157Z</time></trkpt><trkpt lat="43.8322982" lon="11.5326797"><ele>587.5</ele><time>2026-04-11T15:25:50.157Z</time></trkpt><trkpt lat="43.8322531" lon="11.5327814"><ele>585.6666666666666</ele><time>2026-04-11T15:25:51.157Z</time></trkpt><trkpt lat="43.8321971" lon="11.532869"><ele>583.8333333333334</ele><time>2026-04-11T15:25:52.158Z</time></trkpt><trkpt lat="43.8321391" lon="11.5329566"><ele>582.0</ele><time>2026-04-11T15:25:53.157Z</time></trkpt><trkpt lat="43.8320859" lon="11.5330423"><ele>582.0</ele><time>2026-04-11T15:25:54.157Z</time></trkpt><trkpt lat="43.8320319" lon="11.5331462"><ele>582.0</ele><time>2026-04-11T15:25:55.157Z</time></trkpt><trkpt lat="43.8319853" lon="11.5332533"><ele>582.0</ele><time>2026-04-11T15:25:56.157Z</time></trkpt><trkpt lat="43.8319454" lon="11.533347"><ele>582.0</ele><time>2026-04-11T15:25:57.158Z</time></trkpt><trkpt lat="43.8319008" lon="11.5334413"><ele>582.0</ele><time>2026-04-11T15:25:58.157Z</time></trkpt><trkpt lat="43.8318616" lon="11.5335224"><ele>582.0</ele><time>2026-04-11T15:25:59.157Z</time></trkpt><trkpt lat="43.8318127" lon="11.5335851"><ele>578.0</ele><time>2026-04-11T15:26:00.157Z</time></trkpt><trkpt lat="43.831756" lon="11.5336251"><ele>574.0</ele><time>2026-04-11T15:26:01.158Z</time></trkpt><trkpt lat="43.8316928" lon="11.5336362"><ele>570.0</ele><time>2026-04-11T15:26:02.157Z</time></trkpt><trkpt lat="43.8316052" lon="11.5335732"><ele>566.0</ele><time>2026-04-11T15:26:04.157Z</time></trkpt><trkpt lat="43.8316253" lon="11.5334097"><ele>562.0</ele><time>2026-04-11T15:26:06.157Z</time></trkpt><trkpt lat="43.8316618" lon="11.5333017"><ele>558.0</ele><time>2026-04-11T15:26:07.157Z</time></trkpt><trkpt lat="43.8317013" lon="11.5331825"><ele>558.0</ele><time>2026-04-11T15:26:08.157Z</time></trkpt><trkpt lat="43.8317444" lon="11.5330557"><ele>558.0</ele><time>2026-04-11T15:26:09.157Z</time></trkpt><trkpt lat="43.8317869" lon="11.532904"><ele>558.0</ele><time>2026-04-11T15:26:10.158Z</time></trkpt><trkpt lat="43.8318312" lon="11.5327444"><ele>558.0</ele><time>2026-04-11T15:26:11.158Z</time></trkpt><trkpt lat="43.8318766" lon="11.5325838"><ele>557.75</ele><time>2026-04-11T15:26:12.157Z</time></trkpt><trkpt lat="43.8319256" lon="11.5324246"><ele>557.5</ele><time>2026-04-11T15:26:13.157Z</time></trkpt><trkpt lat="43.8319678" lon="11.5322804"><ele>557.25</ele><time>2026-04-11T15:26:14.157Z</time></trkpt><trkpt lat="43.8320031" lon="11.5321377"><ele>557.0</ele><time>2026-04-11T15:26:15.157Z</time></trkpt><trkpt lat="43.8320379" lon="11.5319907"><ele>557.0</ele><time>2026-04-11T15:26:16.158Z</time></trkpt><trkpt lat="43.8320727" lon="11.5318547"><ele>557.0</ele><time>2026-04-11T15:26:17.157Z</time></trkpt><trkpt lat="43.8321071" lon="11.5317281"><ele>557.0</ele><time>2026-04-11T15:26:18.157Z</time></trkpt><trkpt lat="43.8321337" lon="11.5316147"><ele>557.0</ele><time>2026-04-11T15:26:19.157Z</time></trkpt><trkpt lat="43.8321538" lon="11.5315216"><ele>557.0</ele><time>2026-04-11T15:26:20.157Z</time></trkpt><trkpt lat="43.8321443" lon="11.5313855"><ele>557.0</ele><time>2026-04-11T15:26:22.158Z</time></trkpt><trkpt lat="43.8320609" lon="11.5313588"><ele>557.0</ele><time>2026-04-11T15:26:24.158Z</time></trkpt><trkpt lat="43.8320071" lon="11.5314588"><ele>557.0</ele><time>2026-04-11T15:26:26.157Z</time></trkpt><trkpt lat="43.8319969" lon="11.5315598"><ele>557.0</ele><time>2026-04-11T15:26:27.157Z</time></trkpt><trkpt lat="43.8319859" lon="11.5316704"><ele>557.0</ele><time>2026-04-11T15:26:28.157Z</time></trkpt><trkpt lat="43.8319621" lon="11.5317689"><ele>557.0</ele><time>2026-04-11T15:26:29.157Z</time></trkpt><trkpt lat="43.8319197" lon="11.5318535"><ele>557.0</ele><time>2026-04-11T15:26:30.157Z</time></trkpt><trkpt lat="43.8318623" lon="11.5319243"><ele>557.0</ele><time>2026-04-11T15:26:31.157Z</time></trkpt><trkpt lat="43.83179" lon="11.5319883"><ele>557.0</ele><time>2026-04-11T15:26:32.157Z</time></trkpt><trkpt lat="43.8317167" lon="11.5320483"><ele>557.0</ele><time>2026-04-11T15:26:33.157Z</time></trkpt><trkpt lat="43.8316367" lon="11.5321067"><ele>557.0</ele><time>2026-04-11T15:26:34.157Z</time></trkpt><trkpt lat="43.8315583" lon="11.532165"><ele>557.0</ele><time>2026-04-11T15:26:35.157Z</time></trkpt><trkpt lat="43.8314783" lon="11.532225"><ele>555.5</ele><time>2026-04-11T15:26:36.158Z</time></trkpt><trkpt lat="43.8314" lon="11.5322833"><ele>554.0</ele><time>2026-04-11T15:26:37.157Z</time></trkpt><trkpt lat="43.8313283" lon="11.5323383"><ele>552.5</ele><time>2026-04-11T15:26:38.157Z</time></trkpt><trkpt lat="43.8312567" lon="11.5323983"><ele>551.0</ele><time>2026-04-11T15:26:39.157Z</time></trkpt><trkpt lat="43.8311883" lon="11.5324483"><ele>549.5</ele><time>2026-04-11T15:26:40.157Z</time></trkpt><trkpt lat="43.8311183" lon="11.5324867"><ele>548.0</ele><time>2026-04-11T15:26:41.157Z</time></trkpt><trkpt lat="43.8310467" lon="11.5325017"><ele>545.4285714285714</ele><time>2026-04-11T15:26:42.157Z</time></trkpt><trkpt lat="43.8309733" lon="11.5325017"><ele>542.8571428571429</ele><time>2026-04-11T15:26:43.157Z</time></trkpt><trkpt lat="43.8308983" lon="11.5324933"><ele>540.2857142857142</ele><time>2026-04-11T15:26:44.157Z</time></trkpt><trkpt lat="43.830825" lon="11.53249"><ele>537.7142857142858</ele><time>2026-04-11T15:26:45.157Z</time></trkpt><trkpt lat="43.8307533" lon="11.5324883"><ele>535.1428571428571</ele><time>2026-04-11T15:26:46.157Z</time></trkpt><trkpt lat="43.8306833" lon="11.5324867"><ele>532.5714285714286</ele><time>2026-04-11T15:26:47.157Z</time></trkpt><trkpt lat="43.83061" lon="11.5324917"><ele>530.0</ele><time>2026-04-11T15:26:48.157Z</time></trkpt><trkpt lat="43.8305367" lon="11.5324933"><ele>530.0</ele><time>2026-04-11T15:26:49.158Z</time></trkpt><trkpt lat="43.8304633" lon="11.5324883"><ele>530.0</ele><time>2026-04-11T15:26:50.157Z</time></trkpt><trkpt lat="43.8303933" lon="11.5324767"><ele>530.0</ele><time>2026-04-11T15:26:51.157Z</time></trkpt><trkpt lat="43.8303283" lon="11.5324567"><ele>530.0</ele><time>2026-04-11T15:26:52.157Z</time></trkpt><trkpt lat="43.8302633" lon="11.5324567"><ele>530.0</ele><time>2026-04-11T15:26:53.157Z</time></trkpt><trkpt lat="43.8302" lon="11.5324867"><ele>530.0</ele><time>2026-04-11T15:26:54.157Z</time></trkpt><trkpt lat="43.8301083" lon="11.5325817"><ele>526.4</ele><time>2026-04-11T15:26:56.157Z</time></trkpt><trkpt lat="43.8300217" lon="11.5326683"><ele>522.8</ele><time>2026-04-11T15:26:58.157Z</time></trkpt><trkpt lat="43.82993" lon="11.5326533"><ele>519.2</ele><time>2026-04-11T15:27:00.157Z</time></trkpt><trkpt lat="43.8298817" lon="11.5325583"><ele>515.6</ele><time>2026-04-11T15:27:02.157Z</time></trkpt><trkpt lat="43.8299083" lon="11.53241"><ele>512.0</ele><time>2026-04-11T15:27:04.158Z</time></trkpt><trkpt lat="43.8299533" lon="11.5323333"><ele>511.99999999999994</ele><time>2026-04-11T15:27:05.157Z</time></trkpt><trkpt lat="43.8300133" lon="11.5322667"><ele>512.0</ele><time>2026-04-11T15:27:06.157Z</time></trkpt><trkpt lat="43.8300783" lon="11.5321967"><ele>512.0</ele><time>2026-04-11T15:27:07.157Z</time></trkpt><trkpt lat="43.8301433" lon="11.532125"><ele>512.0</ele><time>2026-04-11T15:27:08.158Z</time></trkpt><trkpt lat="43.8302117" lon="11.53205"><ele>511.99999999999994</ele><time>2026-04-11T15:27:09.157Z</time></trkpt><trkpt lat="43.83028" lon="11.5319583"><ele>512.0</ele><time>2026-04-11T15:27:10.157Z</time></trkpt><trkpt lat="43.830335" lon="11.5318633"><ele>511.99999999999994</ele><time>2026-04-11T15:27:11.157Z</time></trkpt><trkpt lat="43.830385" lon="11.5317583"><ele>512.0</ele><time>2026-04-11T15:27:12.157Z</time></trkpt><trkpt lat="43.8304183" lon="11.5316467"><ele>512.0</ele><time>2026-04-11T15:27:13.157Z</time></trkpt><trkpt lat="43.8304233" lon="11.5315283"><ele>512.0</ele><time>2026-04-11T15:27:14.157Z</time></trkpt><trkpt lat="43.8304167" lon="11.5314133"><ele>511.99999999999994</ele><time>2026-04-11T15:27:15.157Z</time></trkpt><trkpt lat="43.830385" lon="11.5313067"><ele>512.0</ele><time>2026-04-11T15:27:16.157Z</time></trkpt><trkpt lat="43.83034" lon="11.5312167"><ele>511.99999999999994</ele><time>2026-04-11T15:27:17.157Z</time></trkpt><trkpt lat="43.8302883" lon="11.531135"><ele>512.0</ele><time>2026-04-11T15:27:18.158Z</time></trkpt><trkpt lat="43.830225" lon="11.5310567"><ele>512.0</ele><time>2026-04-11T15:27:19.158Z</time></trkpt><trkpt lat="43.8301667" lon="11.5309833"><ele>512.0</ele><time>2026-04-11T15:27:20.157Z</time></trkpt><trkpt lat="43.83011" lon="11.530915"><ele>511.99999999999994</ele><time>2026-04-11T15:27:21.157Z</time></trkpt><trkpt lat="43.83006" lon="11.530855"><ele>512.0</ele><time>2026-04-11T15:27:22.157Z</time></trkpt><trkpt lat="43.830005" lon="11.53072"><ele>509.20000000000005</ele><time>2026-04-11T15:27:24.157Z</time></trkpt><trkpt lat="43.8299867" lon="11.530545"><ele>506.40000000000003</ele><time>2026-04-11T15:27:26.157Z</time></trkpt><trkpt lat="43.8299883" lon="11.53044"><ele>503.59999999999997</ele><time>2026-04-11T15:27:27.158Z</time></trkpt><trkpt lat="43.8299967" lon="11.530325"><ele>500.79999999999995</ele><time>2026-04-11T15:27:28.157Z</time></trkpt><trkpt lat="43.8300133" lon="11.5302117"><ele>498.0</ele><time>2026-04-11T15:27:29.157Z</time></trkpt><trkpt lat="43.83004" lon="11.5300967"><ele>497.5</ele><time>2026-04-11T15:27:30.158Z</time></trkpt><trkpt lat="43.830065" lon="11.5299833"><ele>497.0</ele><time>2026-04-11T15:27:31.158Z</time></trkpt><trkpt lat="43.8300717" lon="11.5298717"><ele>496.5</ele><time>2026-04-11T15:27:32.157Z</time></trkpt><trkpt lat="43.8300633" lon="11.5297683"><ele>496.0</ele><time>2026-04-11T15:27:33.157Z</time></trkpt><trkpt lat="43.83003" lon="11.5296917"><ele>495.5</ele><time>2026-04-11T15:27:34.158Z</time></trkpt><trkpt lat="43.8299817" lon="11.529635"><ele>495.0</ele><time>2026-04-11T15:27:35.157Z</time></trkpt><trkpt lat="43.8298667" lon="11.529565"><ele>493.6</ele><time>2026-04-11T15:27:37.157Z</time></trkpt><trkpt lat="43.8297717" lon="11.529535"><ele>492.2</ele><time>2026-04-11T15:27:39.157Z</time></trkpt><trkpt lat="43.8297683" lon="11.529435"><ele>490.79999999999995</ele><time>2026-04-11T15:27:44.157Z</time></trkpt><trkpt lat="43.829885" lon="11.5293683"><ele>489.4</ele><time>2026-04-11T15:27:46.157Z</time></trkpt><trkpt lat="43.8299667" lon="11.5293283"><ele>488.0</ele><time>2026-04-11T15:27:47.157Z</time></trkpt><trkpt lat="43.8300517" lon="11.5292733"><ele>487.99999999999994</ele><time>2026-04-11T15:27:48.157Z</time></trkpt><trkpt lat="43.8301283" lon="11.5292067"><ele>488.0</ele><time>2026-04-11T15:27:49.158Z</time></trkpt><trkpt lat="43.8301967" lon="11.5291217"><ele>488.0</ele><time>2026-04-11T15:27:50.157Z</time></trkpt><trkpt lat="43.8302567" lon="11.5290233"><ele>488.0</ele><time>2026-04-11T15:27:51.157Z</time></trkpt><trkpt lat="43.8302917" lon="11.5289267"><ele>487.99999999999994</ele><time>2026-04-11T15:27:52.157Z</time></trkpt><trkpt lat="43.8303067" lon="11.528805"><ele>488.0</ele><time>2026-04-11T15:27:53.157Z</time></trkpt><trkpt lat="43.8303183" lon="11.52869"><ele>489.4</ele><time>2026-04-11T15:27:54.158Z</time></trkpt><trkpt lat="43.8303267" lon="11.5285683"><ele>490.79999999999995</ele><time>2026-04-11T15:27:55.157Z</time></trkpt><trkpt lat="43.8303283" lon="11.5284367"><ele>492.2</ele><time>2026-04-11T15:27:56.157Z</time></trkpt><trkpt lat="43.830335" lon="11.5283"><ele>493.6</ele><time>2026-04-11T15:27:57.158Z</time></trkpt><trkpt lat="43.830335" lon="11.5281567"><ele>495.0</ele><time>2026-04-11T15:27:58.157Z</time></trkpt><trkpt lat="43.830335" lon="11.52802"><ele>495.6</ele><time>2026-04-11T15:27:59.157Z</time></trkpt><trkpt lat="43.8303283" lon="11.5278783"><ele>496.2</ele><time>2026-04-11T15:28:00.157Z</time></trkpt><trkpt lat="43.830315" lon="11.5277483"><ele>496.79999999999995</ele><time>2026-04-11T15:28:01.157Z</time></trkpt><trkpt lat="43.8303" lon="11.52762"><ele>497.4</ele><time>2026-04-11T15:28:02.157Z</time></trkpt><trkpt lat="43.8302783" lon="11.5274767"><ele>498.0</ele><time>2026-04-11T15:28:03.157Z</time></trkpt><trkpt lat="43.8302633" lon="11.5273367"><ele>498.0</ele><time>2026-04-11T15:28:04.157Z</time></trkpt><trkpt lat="43.8302517" lon="11.5271917"><ele>497.99999999999994</ele><time>2026-04-11T15:28:05.157Z</time></trkpt><trkpt lat="43.8302433" lon="11.527055"><ele>497.99999999999994</ele><time>2026-04-11T15:28:06.157Z</time></trkpt><trkpt lat="43.830225" lon="11.5269283"><ele>498.0</ele><time>2026-04-11T15:28:07.157Z</time></trkpt><trkpt lat="43.8301917" lon="11.5268133"><ele>498.0</ele><time>2026-04-11T15:28:08.158Z</time></trkpt><trkpt lat="43.8301517" lon="11.5266933"><ele>494.0</ele><time>2026-04-11T15:28:09.158Z</time></trkpt><trkpt lat="43.8300983" lon="11.52658"><ele>490.0</ele><time>2026-04-11T15:28:10.157Z</time></trkpt><trkpt lat="43.8300633" lon="11.526475"><ele>486.0</ele><time>2026-04-11T15:28:11.157Z</time></trkpt><trkpt lat="43.83005" lon="11.5263617"><ele>482.0</ele><time>2026-04-11T15:28:12.157Z</time></trkpt><trkpt lat="43.83006" lon="11.52626"><ele>478.0</ele><time>2026-04-11T15:28:13.157Z</time></trkpt><trkpt lat="43.8300817" lon="11.5261467"><ele>474.0</ele><time>2026-04-11T15:28:14.158Z</time></trkpt><trkpt lat="43.8301133" lon="11.5260067"><ele>476.75</ele><time>2026-04-11T15:28:15.157Z</time></trkpt><trkpt lat="43.8301583" lon="11.5258583"><ele>479.5</ele><time>2026-04-11T15:28:16.157Z</time></trkpt><trkpt lat="43.8302017" lon="11.5257033"><ele>482.25</ele><time>2026-04-11T15:28:17.157Z</time></trkpt><trkpt lat="43.830265" lon="11.5255417"><ele>485.0</ele><time>2026-04-11T15:28:18.157Z</time></trkpt><trkpt lat="43.83034" lon="11.5253617"><ele>485.0</ele><time>2026-04-11T15:28:19.157Z</time></trkpt><trkpt lat="43.8304217" lon="11.52519"><ele>485.0</ele><time>2026-04-11T15:28:20.157Z</time></trkpt><trkpt lat="43.8305133" lon="11.52502"><ele>485.0</ele><time>2026-04-11T15:28:21.157Z</time></trkpt><trkpt lat="43.83062" lon="11.5248217"><ele>485.0</ele><time>2026-04-11T15:28:22.157Z</time></trkpt><trkpt lat="43.8307217" lon="11.524625"><ele>485.0</ele><time>2026-04-11T15:28:23.158Z</time></trkpt><trkpt lat="43.8308167" lon="11.5244317"><ele>485.0</ele><time>2026-04-11T15:28:24.157Z</time></trkpt><trkpt lat="43.8309033" lon="11.5242533"><ele>487.25</ele><time>2026-04-11T15:28:25.158Z</time></trkpt><trkpt lat="43.8309917" lon="11.5241017"><ele>489.5</ele><time>2026-04-11T15:28:26.158Z</time></trkpt><trkpt lat="43.8310683" lon="11.523975"><ele>491.75</ele><time>2026-04-11T15:28:27.157Z</time></trkpt><trkpt lat="43.83113" lon="11.5238467"><ele>494.0</ele><time>2026-04-11T15:28:28.157Z</time></trkpt><trkpt lat="43.831175" lon="11.5237183"><ele>495.0</ele><time>2026-04-11T15:28:29.157Z</time></trkpt><trkpt lat="43.8311867" lon="11.5235983"><ele>496.0</ele><time>2026-04-11T15:28:30.157Z</time></trkpt><trkpt lat="43.83117" lon="11.5234733"><ele>497.0</ele><time>2026-04-11T15:28:31.157Z</time></trkpt><trkpt lat="43.8311267" lon="11.5233533"><ele>498.0</ele><time>2026-04-11T15:28:32.157Z</time></trkpt><trkpt lat="43.831055" lon="11.5232417"><ele>499.0</ele><time>2026-04-11T15:28:33.157Z</time></trkpt><trkpt lat="43.8309433" lon="11.5231517"><ele>493.33333333333337</ele><time>2026-04-11T15:28:34.157Z</time></trkpt><trkpt lat="43.8308" lon="11.52306"><ele>487.66666666666663</ele><time>2026-04-11T15:28:35.157Z</time></trkpt><trkpt lat="43.830655" lon="11.5229683"><ele>482.0</ele><time>2026-04-11T15:28:36.157Z</time></trkpt><trkpt lat="43.8305267" lon="11.5228867"><ele>482.0</ele><time>2026-04-11T15:28:37.157Z</time></trkpt><trkpt lat="43.8304183" lon="11.5228017"><ele>482.0</ele><time>2026-04-11T15:28:38.157Z</time></trkpt><trkpt lat="43.830325" lon="11.5227183"><ele>482.0</ele><time>2026-04-11T15:28:39.157Z</time></trkpt><trkpt lat="43.8302333" lon="11.52262"><ele>482.0</ele><time>2026-04-11T15:28:40.157Z</time></trkpt><trkpt lat="43.8301583" lon="11.5224917"><ele>477.5</ele><time>2026-04-11T15:28:41.157Z</time></trkpt><trkpt lat="43.8300967" lon="11.5223383"><ele>473.0</ele><time>2026-04-11T15:28:42.157Z</time></trkpt><trkpt lat="43.830025" lon="11.5221933"><ele>468.5</ele><time>2026-04-11T15:28:43.157Z</time></trkpt><trkpt lat="43.8299633" lon="11.5220583"><ele>464.0</ele><time>2026-04-11T15:28:44.158Z</time></trkpt><trkpt lat="43.8299233" lon="11.5219267"><ele>464.0</ele><time>2026-04-11T15:28:45.157Z</time></trkpt><trkpt lat="43.8299117" lon="11.521795"><ele>464.0</ele><time>2026-04-11T15:28:46.157Z</time></trkpt><trkpt lat="43.8299317" lon="11.5216633"><ele>464.0</ele><time>2026-04-11T15:28:47.157Z</time></trkpt><trkpt lat="43.829975" lon="11.5215433"><ele>464.0</ele><time>2026-04-11T15:28:48.157Z</time></trkpt><trkpt lat="43.8300133" lon="11.5214167"><ele>464.0</ele><time>2026-04-11T15:28:49.157Z</time></trkpt><trkpt lat="43.83002" lon="11.52131"><ele>465.25</ele><time>2026-04-11T15:28:50.157Z</time></trkpt><trkpt lat="43.8299933" lon="11.5211783"><ele>466.5</ele><time>2026-04-11T15:28:51.157Z</time></trkpt><trkpt lat="43.82993" lon="11.5210417"><ele>467.75</ele><time>2026-04-11T15:28:52.157Z</time></trkpt><trkpt lat="43.8298483" lon="11.520895"><ele>469.0</ele><time>2026-04-11T15:28:53.157Z</time></trkpt><trkpt lat="43.8297717" lon="11.5207217"><ele>469.0</ele><time>2026-04-11T15:28:54.157Z</time></trkpt><trkpt lat="43.8297067" lon="11.5205417"><ele>469.0</ele><time>2026-04-11T15:28:55.157Z</time></trkpt><trkpt lat="43.8296433" lon="11.5203533"><ele>469.0</ele><time>2026-04-11T15:28:56.158Z</time></trkpt><trkpt lat="43.8296117" lon="11.5201867"><ele>469.0</ele><time>2026-04-11T15:28:57.157Z</time></trkpt><trkpt lat="43.8295733" lon="11.519995"><ele>470.0</ele><time>2026-04-11T15:28:58.157Z</time></trkpt><trkpt lat="43.82956" lon="11.51981"><ele>471.0</ele><time>2026-04-11T15:28:59.157Z</time></trkpt><trkpt lat="43.8295417" lon="11.5196117"><ele>472.0</ele><time>2026-04-11T15:29:00.157Z</time></trkpt><trkpt lat="43.8295517" lon="11.5194367"><ele>473.0</ele><time>2026-04-11T15:29:01.157Z</time></trkpt><trkpt lat="43.82958" lon="11.5193167"><ele>471.0</ele><time>2026-04-11T15:29:02.157Z</time></trkpt><trkpt lat="43.829645" lon="11.519215"><ele>468.99999999999994</ele><time>2026-04-11T15:29:03.157Z</time></trkpt><trkpt lat="43.829735" lon="11.5191483"><ele>466.99999999999994</ele><time>2026-04-11T15:29:04.157Z</time></trkpt><trkpt lat="43.829825" lon="11.5190833"><ele>465.0</ele><time>2026-04-11T15:29:05.157Z</time></trkpt><trkpt lat="43.8298983" lon="11.51902"><ele>463.0</ele><time>2026-04-11T15:29:06.157Z</time></trkpt><trkpt lat="43.8299433" lon="11.5188983"><ele>463.0</ele><time>2026-04-11T15:29:07.157Z</time></trkpt><trkpt lat="43.829955" lon="11.5187417"><ele>463.0</ele><time>2026-04-11T15:29:08.157Z</time></trkpt><trkpt lat="43.82996" lon="11.5185767"><ele>463.0</ele><time>2026-04-11T15:29:09.157Z</time></trkpt><trkpt lat="43.82997" lon="11.5184217"><ele>463.0</ele><time>2026-04-11T15:29:10.157Z</time></trkpt><trkpt lat="43.8299783" lon="11.5182667"><ele>462.2</ele><time>2026-04-11T15:29:11.157Z</time></trkpt><trkpt lat="43.8299567" lon="11.5181383"><ele>461.4</ele><time>2026-04-11T15:29:12.158Z</time></trkpt><trkpt lat="43.82991" lon="11.518025"><ele>460.59999999999997</ele><time>2026-04-11T15:29:13.157Z</time></trkpt><trkpt lat="43.8298433" lon="11.5179417"><ele>459.79999999999995</ele><time>2026-04-11T15:29:14.157Z</time></trkpt><trkpt lat="43.82976" lon="11.5178583"><ele>459.0</ele><time>2026-04-11T15:29:15.157Z</time></trkpt><trkpt lat="43.8296783" lon="11.5177883"><ele>458.79999999999995</ele><time>2026-04-11T15:29:16.157Z</time></trkpt><trkpt lat="43.8296" lon="11.51773"><ele>458.59999999999997</ele><time>2026-04-11T15:29:17.157Z</time></trkpt><trkpt lat="43.8295383" lon="11.517665"><ele>458.4</ele><time>2026-04-11T15:29:18.158Z</time></trkpt><trkpt lat="43.8294917" lon="11.5176017"><ele>458.2</ele><time>2026-04-11T15:29:19.157Z</time></trkpt><trkpt lat="43.8294417" lon="11.5174617"><ele>458.0</ele><time>2026-04-11T15:29:21.157Z</time></trkpt><trkpt lat="43.8294583" lon="11.5172867"><ele>458.0</ele><time>2026-04-11T15:29:23.157Z</time></trkpt><trkpt lat="43.8294933" lon="11.5171833"><ele>457.99999999999994</ele><time>2026-04-11T15:29:24.158Z</time></trkpt><trkpt lat="43.82954" lon="11.51708"><ele>457.99999999999994</ele><time>2026-04-11T15:29:25.157Z</time></trkpt><trkpt lat="43.829595" lon="11.5169783"><ele>458.0</ele><time>2026-04-11T15:29:26.158Z</time></trkpt><trkpt lat="43.82967" lon="11.5168717"><ele>458.0</ele><time>2026-04-11T15:29:27.158Z</time></trkpt><trkpt lat="43.8297583" lon="11.5167567"><ele>455.5</ele><time>2026-04-11T15:29:28.157Z</time></trkpt><trkpt lat="43.8298433" lon="11.5166617"><ele>453.0</ele><time>2026-04-11T15:29:29.157Z</time></trkpt><trkpt lat="43.829915" lon="11.51655"><ele>450.5</ele><time>2026-04-11T15:29:30.157Z</time></trkpt><trkpt lat="43.8299817" lon="11.5164133"><ele>448.0</ele><time>2026-04-11T15:29:31.157Z</time></trkpt><trkpt lat="43.8300483" lon="11.5162617"><ele>444.5</ele><time>2026-04-11T15:29:32.157Z</time></trkpt><trkpt lat="43.8301117" lon="11.5160917"><ele>441.0</ele><time>2026-04-11T15:29:33.157Z</time></trkpt><trkpt lat="43.830175" lon="11.51591"><ele>437.5</ele><time>2026-04-11T15:29:34.157Z</time></trkpt><trkpt lat="43.83023" lon="11.5157417"><ele>434.0</ele><time>2026-04-11T15:29:35.157Z</time></trkpt><trkpt lat="43.83028" lon="11.51559"><ele>432.8333333333333</ele><time>2026-04-11T15:29:36.157Z</time></trkpt><trkpt lat="43.8303317" lon="11.5154683"><ele>431.66666666666663</ele><time>2026-04-11T15:29:37.157Z</time></trkpt><trkpt lat="43.83038" lon="11.51537"><ele>430.5</ele><time>2026-04-11T15:29:38.157Z</time></trkpt><trkpt lat="43.8304483" lon="11.515305"><ele>429.33333333333337</ele><time>2026-04-11T15:29:39.157Z</time></trkpt><trkpt lat="43.8305233" lon="11.515265"><ele>428.1666666666667</ele><time>2026-04-11T15:29:40.157Z</time></trkpt><trkpt lat="43.8306167" lon="11.515285"><ele>427.0</ele><time>2026-04-11T15:29:41.157Z</time></trkpt><trkpt lat="43.83072" lon="11.5153517"><ele>427.0</ele><time>2026-04-11T15:29:42.157Z</time></trkpt><trkpt lat="43.83083" lon="11.5154233"><ele>427.0</ele><time>2026-04-11T15:29:43.157Z</time></trkpt><trkpt lat="43.8309267" lon="11.5154917"><ele>427.0</ele><time>2026-04-11T15:29:44.158Z</time></trkpt><trkpt lat="43.831035" lon="11.5155617"><ele>427.0</ele><time>2026-04-11T15:29:45.157Z</time></trkpt><trkpt lat="43.83114" lon="11.5156267"><ele>425.6</ele><time>2026-04-11T15:29:46.157Z</time></trkpt><trkpt lat="43.8312433" lon="11.5156917"><ele>424.20000000000005</ele><time>2026-04-11T15:29:47.157Z</time></trkpt><trkpt lat="43.8313517" lon="11.5157367"><ele>422.8</ele><time>2026-04-11T15:29:48.158Z</time></trkpt><trkpt lat="43.8314583" lon="11.515735"><ele>421.4</ele><time>2026-04-11T15:29:49.157Z</time></trkpt><trkpt lat="43.8315633" lon="11.5157017"><ele>420.0</ele><time>2026-04-11T15:29:50.157Z</time></trkpt><trkpt lat="43.8316683" lon="11.5156583"><ele>420.0</ele><time>2026-04-11T15:29:51.158Z</time></trkpt><trkpt lat="43.8317783" lon="11.5156583"><ele>420.0</ele><time>2026-04-11T15:29:52.157Z</time></trkpt><trkpt lat="43.8318933" lon="11.515705"><ele>420.0</ele><time>2026-04-11T15:29:53.157Z</time></trkpt><trkpt lat="43.832015" lon="11.5157683"><ele>420.0</ele><time>2026-04-11T15:29:54.158Z</time></trkpt><trkpt lat="43.832155" lon="11.51584"><ele>418.0</ele><time>2026-04-11T15:29:55.157Z</time></trkpt><trkpt lat="43.8322883" lon="11.51589"><ele>416.0</ele><time>2026-04-11T15:29:56.158Z</time></trkpt><trkpt lat="43.8324217" lon="11.515935"><ele>414.0</ele><time>2026-04-11T15:29:57.157Z</time></trkpt><trkpt lat="43.8325467" lon="11.515965"><ele>412.0</ele><time>2026-04-11T15:29:58.157Z</time></trkpt><trkpt lat="43.8326667" lon="11.515985"><ele>413.0</ele><time>2026-04-11T15:29:59.157Z</time></trkpt><trkpt lat="43.8327683" lon="11.516015"><ele>414.0</ele><time>2026-04-11T15:30:00.157Z</time></trkpt><trkpt lat="43.83286" lon="11.5160567"><ele>415.0</ele><time>2026-04-11T15:30:01.158Z</time></trkpt><trkpt lat="43.8329383" lon="11.5161167"><ele>416.0</ele><time>2026-04-11T15:30:02.157Z</time></trkpt><trkpt lat="43.8329983" lon="11.5162217"><ele>417.0</ele><time>2026-04-11T15:30:03.157Z</time></trkpt><trkpt lat="43.83302" lon="11.5163267"><ele>417.0</ele><time>2026-04-11T15:30:04.157Z</time></trkpt><trkpt lat="43.8330317" lon="11.5164417"><ele>417.0</ele><time>2026-04-11T15:30:05.157Z</time></trkpt><trkpt lat="43.83304" lon="11.51658"><ele>417.0</ele><time>2026-04-11T15:30:06.157Z</time></trkpt><trkpt lat="43.8330617" lon="11.5167033"><ele>417.0</ele><time>2026-04-11T15:30:07.157Z</time></trkpt><trkpt lat="43.8331167" lon="11.516785"><ele>417.0</ele><time>2026-04-11T15:30:08.158Z</time></trkpt><trkpt lat="43.83321" lon="11.516815"><ele>417.0</ele><time>2026-04-11T15:30:09.157Z</time></trkpt><trkpt lat="43.8333067" lon="11.516785"><ele>417.0</ele><time>2026-04-11T15:30:10.157Z</time></trkpt><trkpt lat="43.83341" lon="11.516715"><ele>417.0</ele><time>2026-04-11T15:30:11.157Z</time></trkpt><trkpt lat="43.8335033" lon="11.5166333"><ele>417.0</ele><time>2026-04-11T15:30:12.157Z</time></trkpt><trkpt lat="43.8336217" lon="11.5165483"><ele>416.5</ele><time>2026-04-11T15:30:13.157Z</time></trkpt><trkpt lat="43.8337467" lon="11.516465"><ele>416.0</ele><time>2026-04-11T15:30:14.157Z</time></trkpt><trkpt lat="43.83388" lon="11.516405"><ele>415.5</ele><time>2026-04-11T15:30:15.157Z</time></trkpt><trkpt lat="43.8340167" lon="11.5163517"><ele>415.0</ele><time>2026-04-11T15:30:16.157Z</time></trkpt><trkpt lat="43.8341467" lon="11.51632"><ele>415.0</ele><time>2026-04-11T15:30:17.157Z</time></trkpt><trkpt lat="43.8342517" lon="11.5163117"><ele>415.0</ele><time>2026-04-11T15:30:18.158Z</time></trkpt><trkpt lat="43.8343417" lon="11.5163317"><ele>415.0</ele><time>2026-04-11T15:30:19.157Z</time></trkpt><trkpt lat="43.8344217" lon="11.51639"><ele>415.0</ele><time>2026-04-11T15:30:20.157Z</time></trkpt><trkpt lat="43.8345" lon="11.5164383"><ele>415.0</ele><time>2026-04-11T15:30:21.157Z</time></trkpt><trkpt lat="43.8345867" lon="11.5164583"><ele>414.4</ele><time>2026-04-11T15:30:22.158Z</time></trkpt><trkpt lat="43.83468" lon="11.5164417"><ele>413.8</ele><time>2026-04-11T15:30:23.157Z</time></trkpt><trkpt lat="43.83478" lon="11.5163983"><ele>413.20000000000005</ele><time>2026-04-11T15:30:24.157Z</time></trkpt><trkpt lat="43.8348833" lon="11.51636"><ele>412.6</ele><time>2026-04-11T15:30:25.157Z</time></trkpt><trkpt lat="43.835005" lon="11.516325"><ele>412.0</ele><time>2026-04-11T15:30:26.157Z</time></trkpt><trkpt lat="43.8351317" lon="11.51631"><ele>409.0</ele><time>2026-04-11T15:30:27.157Z</time></trkpt><trkpt lat="43.83527" lon="11.516335"><ele>406.0</ele><time>2026-04-11T15:30:28.158Z</time></trkpt><trkpt lat="43.835395" lon="11.5163667"><ele>403.0</ele><time>2026-04-11T15:30:29.157Z</time></trkpt><trkpt lat="43.8355083" lon="11.516405"><ele>400.0</ele><time>2026-04-11T15:30:30.157Z</time></trkpt><trkpt lat="43.8356117" lon="11.516445"><ele>400.0</ele><time>2026-04-11T15:30:31.157Z</time></trkpt><trkpt lat="43.8357067" lon="11.5165"><ele>400.0</ele><time>2026-04-11T15:30:32.157Z</time></trkpt><trkpt lat="43.8358067" lon="11.5165683"><ele>400.0</ele><time>2026-04-11T15:30:33.157Z</time></trkpt><trkpt lat="43.8358983" lon="11.5166383"><ele>400.0</ele><time>2026-04-11T15:30:34.157Z</time></trkpt><trkpt lat="43.836005" lon="11.5167233"><ele>400.0</ele><time>2026-04-11T15:30:35.157Z</time></trkpt><trkpt lat="43.83609" lon="11.5167767"><ele>397.75</ele><time>2026-04-11T15:30:36.157Z</time></trkpt><trkpt lat="43.8361917" lon="11.516825"><ele>395.5</ele><time>2026-04-11T15:30:37.158Z</time></trkpt><trkpt lat="43.8363233" lon="11.516835"><ele>393.25</ele><time>2026-04-11T15:30:38.157Z</time></trkpt><trkpt lat="43.8364567" lon="11.5168183"><ele>391.0</ele><time>2026-04-11T15:30:39.157Z</time></trkpt><trkpt lat="43.836595" lon="11.5167783"><ele>391.0</ele><time>2026-04-11T15:30:40.157Z</time></trkpt><trkpt lat="43.836725" lon="11.5167417"><ele>391.0</ele><time>2026-04-11T15:30:41.157Z</time></trkpt><trkpt lat="43.8368533" lon="11.5167067"><ele>391.0</ele><time>2026-04-11T15:30:42.157Z</time></trkpt><trkpt lat="43.836965" lon="11.51667"><ele>391.0</ele><time>2026-04-11T15:30:43.158Z</time></trkpt><trkpt lat="43.83707" lon="11.5166083"><ele>391.0</ele><time>2026-04-11T15:30:44.158Z</time></trkpt><trkpt lat="43.8371767" lon="11.516505"><ele>391.0</ele><time>2026-04-11T15:30:45.158Z</time></trkpt><trkpt lat="43.8372933" lon="11.5163883"><ele>391.0</ele><time>2026-04-11T15:30:46.157Z</time></trkpt><trkpt lat="43.8374067" lon="11.5162933"><ele>391.0</ele><time>2026-04-11T15:30:47.158Z</time></trkpt><trkpt lat="43.8375083" lon="11.5162183"><ele>388.20000000000005</ele><time>2026-04-11T15:30:48.157Z</time></trkpt><trkpt lat="43.8376217" lon="11.51616"><ele>385.40000000000003</ele><time>2026-04-11T15:30:49.157Z</time></trkpt><trkpt lat="43.8377283" lon="11.51612"><ele>382.6</ele><time>2026-04-11T15:30:50.157Z</time></trkpt><trkpt lat="43.837835" lon="11.5160983"><ele>379.8</ele><time>2026-04-11T15:30:51.157Z</time></trkpt><trkpt lat="43.8379417" lon="11.5160867"><ele>377.0</ele><time>2026-04-11T15:30:52.157Z</time></trkpt><trkpt lat="43.838045" lon="11.5161017"><ele>376.40000000000003</ele><time>2026-04-11T15:30:53.158Z</time></trkpt><trkpt lat="43.8381267" lon="11.5161483"><ele>375.8</ele><time>2026-04-11T15:30:54.157Z</time></trkpt><trkpt lat="43.8381917" lon="11.51622"><ele>375.2</ele><time>2026-04-11T15:30:55.157Z</time></trkpt><trkpt lat="43.8382367" lon="11.5163333"><ele>374.6</ele><time>2026-04-11T15:30:56.157Z</time></trkpt><trkpt lat="43.838265" lon="11.516475"><ele>374.0</ele><time>2026-04-11T15:30:57.157Z</time></trkpt><trkpt lat="43.8382933" lon="11.5166533"><ele>375.5</ele><time>2026-04-11T15:30:58.158Z</time></trkpt><trkpt lat="43.8383183" lon="11.5168383"><ele>377.0</ele><time>2026-04-11T15:30:59.157Z</time></trkpt><trkpt lat="43.838335" lon="11.5170067"><ele>378.5</ele><time>2026-04-11T15:31:00.157Z</time></trkpt><trkpt lat="43.83836" lon="11.5171633"><ele>380.0</ele><time>2026-04-11T15:31:01.157Z</time></trkpt><trkpt lat="43.8383817" lon="11.517315"><ele>380.4</ele><time>2026-04-11T15:31:02.157Z</time></trkpt><trkpt lat="43.838405" lon="11.51745"><ele>380.8</ele><time>2026-04-11T15:31:03.157Z</time></trkpt><trkpt lat="43.8384383" lon="11.51758"><ele>381.20000000000005</ele><time>2026-04-11T15:31:04.157Z</time></trkpt><trkpt lat="43.8384717" lon="11.5176983"><ele>381.6</ele><time>2026-04-11T15:31:05.158Z</time></trkpt><trkpt lat="43.8385117" lon="11.5178017"><ele>382.0</ele><time>2026-04-11T15:31:06.157Z</time></trkpt><trkpt lat="43.83856" lon="11.5178833"><ele>379.66666666666663</ele><time>2026-04-11T15:31:07.157Z</time></trkpt><trkpt lat="43.8386217" lon="11.5179367"><ele>377.3333333333333</ele><time>2026-04-11T15:31:08.157Z</time></trkpt><trkpt lat="43.83869" lon="11.517955"><ele>375.0</ele><time>2026-04-11T15:31:09.157Z</time></trkpt><trkpt lat="43.8387567" lon="11.5179333"><ele>372.6666666666667</ele><time>2026-04-11T15:31:10.157Z</time></trkpt><trkpt lat="43.8388233" lon="11.517875"><ele>370.33333333333337</ele><time>2026-04-11T15:31:11.157Z</time></trkpt><trkpt lat="43.8388967" lon="11.5177867"><ele>368.0</ele><time>2026-04-11T15:31:12.157Z</time></trkpt><trkpt lat="43.8389733" lon="11.5176917"><ele>365.75</ele><time>2026-04-11T15:31:13.158Z</time></trkpt><trkpt lat="43.8390517" lon="11.5176083"><ele>363.5</ele><time>2026-04-11T15:31:14.157Z</time></trkpt><trkpt lat="43.8391467" lon="11.51753"><ele>361.25</ele><time>2026-04-11T15:31:15.157Z</time></trkpt><trkpt lat="43.8392633" lon="11.5174717"><ele>359.0</ele><time>2026-04-11T15:31:16.158Z</time></trkpt><trkpt lat="43.83938" lon="11.5174433"><ele>358.0</ele><time>2026-04-11T15:31:17.157Z</time></trkpt><trkpt lat="43.8395033" lon="11.5174333"><ele>357.0</ele><time>2026-04-11T15:31:18.157Z</time></trkpt><trkpt lat="43.8396283" lon="11.5174383"><ele>356.0</ele><time>2026-04-11T15:31:19.157Z</time></trkpt><trkpt lat="43.83976" lon="11.5174533"><ele>355.0</ele><time>2026-04-11T15:31:20.157Z</time></trkpt><trkpt lat="43.83989" lon="11.51746"><ele>355.0</ele><time>2026-04-11T15:31:21.157Z</time></trkpt><trkpt lat="43.840015" lon="11.5174783"><ele>355.0</ele><time>2026-04-11T15:31:22.157Z</time></trkpt><trkpt lat="43.8401333" lon="11.5174783"><ele>355.0</ele><time>2026-04-11T15:31:23.157Z</time></trkpt><trkpt lat="43.8402383" lon="11.5174733"><ele>355.0</ele><time>2026-04-11T15:31:24.157Z</time></trkpt><trkpt lat="43.8403167" lon="11.5174483"><ele>355.0</ele><time>2026-04-11T15:31:25.157Z</time></trkpt><trkpt lat="43.8404" lon="11.5173433"><ele>353.8</ele><time>2026-04-11T15:31:27.157Z</time></trkpt><trkpt lat="43.8403983" lon="11.5171567"><ele>352.6</ele><time>2026-04-11T15:31:29.158Z</time></trkpt><trkpt lat="43.8403667" lon="11.51706"><ele>351.4</ele><time>2026-04-11T15:31:30.157Z</time></trkpt><trkpt lat="43.840305" lon="11.5169633"><ele>350.2</ele><time>2026-04-11T15:31:31.157Z</time></trkpt><trkpt lat="43.840235" lon="11.5168733"><ele>349.0</ele><time>2026-04-11T15:31:32.157Z</time></trkpt><trkpt lat="43.8401617" lon="11.5167817"><ele>347.25</ele><time>2026-04-11T15:31:33.157Z</time></trkpt><trkpt lat="43.8400867" lon="11.516665"><ele>345.5</ele><time>2026-04-11T15:31:34.157Z</time></trkpt><trkpt lat="43.8400283" lon="11.516525"><ele>343.75</ele><time>2026-04-11T15:31:35.157Z</time></trkpt><trkpt lat="43.8399833" lon="11.5163483"><ele>342.0</ele><time>2026-04-11T15:31:36.157Z</time></trkpt><trkpt lat="43.8399467" lon="11.5161733"><ele>340.5</ele><time>2026-04-11T15:31:37.157Z</time></trkpt><trkpt lat="43.8399117" lon="11.5160183"><ele>339.0</ele><time>2026-04-11T15:31:38.157Z</time></trkpt><trkpt lat="43.8398767" lon="11.515895"><ele>337.5</ele><time>2026-04-11T15:31:39.157Z</time></trkpt><trkpt lat="43.8398583" lon="11.5157933"><ele>336.0</ele><time>2026-04-11T15:31:40.157Z</time></trkpt><trkpt lat="43.8398417" lon="11.5156867"><ele>334.5</ele><time>2026-04-11T15:31:41.157Z</time></trkpt><trkpt lat="43.839865" lon="11.5155867"><ele>333.0</ele><time>2026-04-11T15:31:42.157Z</time></trkpt><trkpt lat="43.839905" lon="11.5155"><ele>333.0</ele><time>2026-04-11T15:31:43.157Z</time></trkpt><trkpt lat="43.839955" lon="11.5154167"><ele>333.0</ele><time>2026-04-11T15:31:44.157Z</time></trkpt><trkpt lat="43.840015" lon="11.5153133"><ele>333.0</ele><time>2026-04-11T15:31:45.157Z</time></trkpt><trkpt lat="43.8400783" lon="11.515195"><ele>333.0</ele><time>2026-04-11T15:31:46.157Z</time></trkpt><trkpt lat="43.840145" lon="11.51507"><ele>333.0</ele><time>2026-04-11T15:31:47.158Z</time></trkpt><trkpt lat="43.8402083" lon="11.5149417"><ele>330.59999999999997</ele><time>2026-04-11T15:31:48.157Z</time></trkpt><trkpt lat="43.84027" lon="11.5148367"><ele>328.2</ele><time>2026-04-11T15:31:49.157Z</time></trkpt><trkpt lat="43.84034" lon="11.5147467"><ele>325.8</ele><time>2026-04-11T15:31:50.158Z</time></trkpt><trkpt lat="43.8404183" lon="11.5146667"><ele>323.4</ele><time>2026-04-11T15:31:51.157Z</time></trkpt><trkpt lat="43.8404983" lon="11.5145883"><ele>321.0</ele><time>2026-04-11T15:31:52.157Z</time></trkpt><trkpt lat="43.8405783" lon="11.5144983"><ele>321.0</ele><time>2026-04-11T15:31:53.157Z</time></trkpt><trkpt lat="43.8406417" lon="11.514385"><ele>321.0</ele><time>2026-04-11T15:31:54.158Z</time></trkpt><trkpt lat="43.840695" lon="11.51425"><ele>321.0</ele><time>2026-04-11T15:31:55.157Z</time></trkpt><trkpt lat="43.8407267" lon="11.5140983"><ele>321.0</ele><time>2026-04-11T15:31:56.157Z</time></trkpt><trkpt lat="43.840765" lon="11.513935"><ele>321.0</ele><time>2026-04-11T15:31:57.158Z</time></trkpt><trkpt lat="43.8408083" lon="11.5137867"><ele>321.0</ele><time>2026-04-11T15:31:58.158Z</time></trkpt><trkpt lat="43.8408717" lon="11.5136383"><ele>321.0</ele><time>2026-04-11T15:31:59.157Z</time></trkpt><trkpt lat="43.8409467" lon="11.5135"><ele>321.0</ele><time>2026-04-11T15:32:00.157Z</time></trkpt><trkpt lat="43.8410217" lon="11.5133617"><ele>319.2</ele><time>2026-04-11T15:32:01.157Z</time></trkpt><trkpt lat="43.841085" lon="11.513255"><ele>317.40000000000003</ele><time>2026-04-11T15:32:02.157Z</time></trkpt><trkpt lat="43.8411583" lon="11.5131767"><ele>315.6</ele><time>2026-04-11T15:32:03.158Z</time></trkpt><trkpt lat="43.8412283" lon="11.5131283"><ele>313.8</ele><time>2026-04-11T15:32:04.157Z</time></trkpt><trkpt lat="43.8413133" lon="11.5131317"><ele>312.0</ele><time>2026-04-11T15:32:05.157Z</time></trkpt><trkpt lat="43.841405" lon="11.5131717"><ele>312.0</ele><time>2026-04-11T15:32:06.157Z</time></trkpt><trkpt lat="43.8414933" lon="11.5132333"><ele>312.0</ele><time>2026-04-11T15:32:07.157Z</time></trkpt><trkpt lat="43.8415883" lon="11.5132767"><ele>312.0</ele><time>2026-04-11T15:32:08.157Z</time></trkpt><trkpt lat="43.841695" lon="11.5132767"><ele>312.0</ele><time>2026-04-11T15:32:09.157Z</time></trkpt><trkpt lat="43.8417983" lon="11.5132"><ele>312.0</ele><time>2026-04-11T15:32:10.157Z</time></trkpt><trkpt lat="43.8419017" lon="11.51308"><ele>309.2</ele><time>2026-04-11T15:32:11.158Z</time></trkpt><trkpt lat="43.8419983" lon="11.51297"><ele>306.4</ele><time>2026-04-11T15:32:12.157Z</time></trkpt><trkpt lat="43.842095" lon="11.512865"><ele>303.6</ele><time>2026-04-11T15:32:13.157Z</time></trkpt><trkpt lat="43.842155" lon="11.51275"><ele>300.8</ele><time>2026-04-11T15:32:14.157Z</time></trkpt><trkpt lat="43.842165" lon="11.51263"><ele>298.0</ele><time>2026-04-11T15:32:15.157Z</time></trkpt><trkpt lat="43.842135" lon="11.5125183"><ele>297.75</ele><time>2026-04-11T15:32:16.157Z</time></trkpt><trkpt lat="43.8420867" lon="11.5124017"><ele>297.5</ele><time>2026-04-11T15:32:17.157Z</time></trkpt><trkpt lat="43.8420067" lon="11.51228"><ele>297.25</ele><time>2026-04-11T15:32:18.157Z</time></trkpt><trkpt lat="43.8419017" lon="11.512195"><ele>297.0</ele><time>2026-04-11T15:32:19.157Z</time></trkpt><trkpt lat="43.8417933" lon="11.51215"><ele>297.8</ele><time>2026-04-11T15:32:20.157Z</time></trkpt><trkpt lat="43.8416883" lon="11.5121583"><ele>298.6</ele><time>2026-04-11T15:32:21.158Z</time></trkpt><trkpt lat="43.8415883" lon="11.5122133"><ele>299.40000000000003</ele><time>2026-04-11T15:32:22.157Z</time></trkpt><trkpt lat="43.8415033" lon="11.5122883"><ele>300.2</ele><time>2026-04-11T15:32:23.157Z</time></trkpt><trkpt lat="43.8414367" lon="11.512345"><ele>301.0</ele><time>2026-04-11T15:32:24.157Z</time></trkpt><trkpt lat="43.8413367" lon="11.5123467"><ele>301.0</ele><time>2026-04-11T15:32:26.157Z</time></trkpt><trkpt lat="43.841345" lon="11.5121983"><ele>301.0</ele><time>2026-04-11T15:32:28.158Z</time></trkpt><trkpt lat="43.8413967" lon="11.512095"><ele>301.0</ele><time>2026-04-11T15:32:29.157Z</time></trkpt><trkpt lat="43.8415" lon="11.5119433"><ele>301.0</ele><time>2026-04-11T15:32:30.157Z</time></trkpt><trkpt lat="43.8416017" lon="11.5117917"><ele>298.75</ele><time>2026-04-11T15:32:31.157Z</time></trkpt><trkpt lat="43.8416833" lon="11.511625"><ele>296.5</ele><time>2026-04-11T15:32:32.157Z</time></trkpt><trkpt lat="43.8417483" lon="11.5114467"><ele>294.25</ele><time>2026-04-11T15:32:33.157Z</time></trkpt><trkpt lat="43.8418033" lon="11.5112567"><ele>292.0</ele><time>2026-04-11T15:32:34.157Z</time></trkpt><trkpt lat="43.8418533" lon="11.5110733"><ele>290.2</ele><time>2026-04-11T15:32:35.157Z</time></trkpt><trkpt lat="43.8419033" lon="11.5109183"><ele>288.4</ele><time>2026-04-11T15:32:36.157Z</time></trkpt><trkpt lat="43.84194" lon="11.5107817"><ele>286.6</ele><time>2026-04-11T15:32:37.157Z</time></trkpt><trkpt lat="43.8419967" lon="11.51068"><ele>284.8</ele><time>2026-04-11T15:32:38.157Z</time></trkpt><trkpt lat="43.8420867" lon="11.5105767"><ele>283.0</ele><time>2026-04-11T15:32:39.157Z</time></trkpt><trkpt lat="43.842195" lon="11.5104733"><ele>280.0</ele><time>2026-04-11T15:32:40.157Z</time></trkpt><trkpt lat="43.8423067" lon="11.5103817"><ele>277.0</ele><time>2026-04-11T15:32:41.158Z</time></trkpt><trkpt lat="43.8424083" lon="11.510265"><ele>274.0</ele><time>2026-04-11T15:32:42.157Z</time></trkpt><trkpt lat="43.842515" lon="11.510125"><ele>271.0</ele><time>2026-04-11T15:32:43.157Z</time></trkpt><trkpt lat="43.8426167" lon="11.5099517"><ele>269.3333333333333</ele><time>2026-04-11T15:32:44.157Z</time></trkpt><trkpt lat="43.8427083" lon="11.509765"><ele>267.6666666666667</ele><time>2026-04-11T15:32:45.157Z</time></trkpt><trkpt lat="43.8427983" lon="11.5095833"><ele>266.0</ele><time>2026-04-11T15:32:46.158Z</time></trkpt><trkpt lat="43.8428867" lon="11.5094067"><ele>264.75</ele><time>2026-04-11T15:32:47.157Z</time></trkpt><trkpt lat="43.8429633" lon="11.5092283"><ele>263.5</ele><time>2026-04-11T15:32:48.157Z</time></trkpt><trkpt lat="43.8430333" lon="11.509065"><ele>262.25</ele><time>2026-04-11T15:32:49.157Z</time></trkpt><trkpt lat="43.8431067" lon="11.5088967"><ele>261.0</ele><time>2026-04-11T15:32:50.158Z</time></trkpt><trkpt lat="43.8431567" lon="11.5087417"><ele>260.0</ele><time>2026-04-11T15:32:51.158Z</time></trkpt><trkpt lat="43.843185" lon="11.5086117"><ele>259.0</ele><time>2026-04-11T15:32:52.157Z</time></trkpt><trkpt lat="43.843175" lon="11.5085"><ele>258.0</ele><time>2026-04-11T15:32:53.157Z</time></trkpt><trkpt lat="43.84314" lon="11.50839"><ele>257.0</ele><time>2026-04-11T15:32:54.158Z</time></trkpt><trkpt lat="43.8430733" lon="11.5082683"><ele>256.0</ele><time>2026-04-11T15:32:55.157Z</time></trkpt><trkpt lat="43.8429967" lon="11.50814"><ele>255.99999999999997</ele><time>2026-04-11T15:32:56.157Z</time></trkpt><trkpt lat="43.8429167" lon="11.50802"><ele>256.0</ele><time>2026-04-11T15:32:57.157Z</time></trkpt><trkpt lat="43.8428417" lon="11.5079333"><ele>256.0</ele><time>2026-04-11T15:32:58.157Z</time></trkpt><trkpt lat="43.8427683" lon="11.5078833"><ele>256.0</ele><time>2026-04-11T15:32:59.158Z</time></trkpt><trkpt lat="43.8426983" lon="11.507875"><ele>255.99999999999997</ele><time>2026-04-11T15:33:00.157Z</time></trkpt><trkpt lat="43.8426283" lon="11.507905"><ele>256.0</ele><time>2026-04-11T15:33:01.157Z</time></trkpt><trkpt lat="43.8425683" lon="11.5079767"><ele>254.75</ele><time>2026-04-11T15:33:02.157Z</time></trkpt><trkpt lat="43.8424833" lon="11.50811"><ele>253.5</ele><time>2026-04-11T15:33:03.157Z</time></trkpt><trkpt lat="43.8423917" lon="11.5082583"><ele>252.25</ele><time>2026-04-11T15:33:04.157Z</time></trkpt><trkpt lat="43.8422917" lon="11.50843"><ele>251.0</ele><time>2026-04-11T15:33:05.157Z</time></trkpt><trkpt lat="43.8422033" lon="11.5085883"><ele>251.0</ele><time>2026-04-11T15:33:06.157Z</time></trkpt><trkpt lat="43.84212" lon="11.50873"><ele>251.0</ele><time>2026-04-11T15:33:07.157Z</time></trkpt><trkpt lat="43.842035" lon="11.50886"><ele>251.0</ele><time>2026-04-11T15:33:08.157Z</time></trkpt><trkpt lat="43.8419467" lon="11.5089817"><ele>251.0</ele><time>2026-04-11T15:33:09.157Z</time></trkpt><trkpt lat="43.84187" lon="11.5090967"><ele>248.0</ele><time>2026-04-11T15:33:10.157Z</time></trkpt><trkpt lat="43.8417883" lon="11.5092117"><ele>245.0</ele><time>2026-04-11T15:33:11.157Z</time></trkpt><trkpt lat="43.8416967" lon="11.50931"><ele>242.0</ele><time>2026-04-11T15:33:12.157Z</time></trkpt><trkpt lat="43.8416017" lon="11.50939"><ele>239.0</ele><time>2026-04-11T15:33:13.157Z</time></trkpt><trkpt lat="43.841495" lon="11.5094583"><ele>239.0</ele><time>2026-04-11T15:33:14.157Z</time></trkpt><trkpt lat="43.8413867" lon="11.5095217"><ele>238.99999999999997</ele><time>2026-04-11T15:33:15.157Z</time></trkpt><trkpt lat="43.84128" lon="11.5095717"><ele>238.99999999999997</ele><time>2026-04-11T15:33:16.157Z</time></trkpt><trkpt lat="43.8411783" lon="11.5096067"><ele>239.0</ele><time>2026-04-11T15:33:17.157Z</time></trkpt><trkpt lat="43.8410783" lon="11.50963"><ele>239.0</ele><time>2026-04-11T15:33:18.157Z</time></trkpt><trkpt lat="43.8409833" lon="11.509635"><ele>237.6</ele><time>2026-04-11T15:33:19.157Z</time></trkpt><trkpt lat="43.8408917" lon="11.50962"><ele>236.2</ele><time>2026-04-11T15:33:20.158Z</time></trkpt><trkpt lat="43.8408" lon="11.5095683"><ele>234.79999999999998</ele><time>2026-04-11T15:33:21.157Z</time></trkpt><trkpt lat="43.84072" lon="11.5094783"><ele>233.39999999999998</ele><time>2026-04-11T15:33:22.157Z</time></trkpt><trkpt lat="43.8406383" lon="11.5093667"><ele>232.0</ele><time>2026-04-11T15:33:23.157Z</time></trkpt><trkpt lat="43.8405867" lon="11.509255"><ele>232.0</ele><time>2026-04-11T15:33:24.157Z</time></trkpt><trkpt lat="43.8405467" lon="11.509135"><ele>232.0</ele><time>2026-04-11T15:33:25.157Z</time></trkpt><trkpt lat="43.8405417" lon="11.5089933"><ele>232.0</ele><time>2026-04-11T15:33:26.157Z</time></trkpt><trkpt lat="43.840555" lon="11.5088467"><ele>232.0</ele><time>2026-04-11T15:33:27.157Z</time></trkpt><trkpt lat="43.8405717" lon="11.508685"><ele>232.0</ele><time>2026-04-11T15:33:28.157Z</time></trkpt><trkpt lat="43.840595" lon="11.5085233"><ele>230.25</ele><time>2026-04-11T15:33:29.158Z</time></trkpt><trkpt lat="43.8406167" lon="11.5083617"><ele>228.5</ele><time>2026-04-11T15:33:30.157Z</time></trkpt><trkpt lat="43.8406433" lon="11.5082133"><ele>226.75</ele><time>2026-04-11T15:33:31.157Z</time></trkpt><trkpt lat="43.84067" lon="11.5080633"><ele>225.0</ele><time>2026-04-11T15:33:32.157Z</time></trkpt><trkpt lat="43.8406933" lon="11.5079083"><ele>223.0</ele><time>2026-04-11T15:33:33.157Z</time></trkpt><trkpt lat="43.8407183" lon="11.50776"><ele>221.0</ele><time>2026-04-11T15:33:34.157Z</time></trkpt><trkpt lat="43.84074" lon="11.5076067"><ele>219.0</ele><time>2026-04-11T15:33:35.157Z</time></trkpt><trkpt lat="43.8407317" lon="11.50745"><ele>217.0</ele><time>2026-04-11T15:33:36.157Z</time></trkpt><trkpt lat="43.8406967" lon="11.5072783"><ele>217.0</ele><time>2026-04-11T15:33:37.157Z</time></trkpt><trkpt lat="43.8406417" lon="11.5071"><ele>217.0</ele><time>2026-04-11T15:33:38.157Z</time></trkpt><trkpt lat="43.8405867" lon="11.5069217"><ele>217.0</ele><time>2026-04-11T15:33:39.157Z</time></trkpt><trkpt lat="43.8405333" lon="11.5067567"><ele>217.0</ele><time>2026-04-11T15:33:40.157Z</time></trkpt><trkpt lat="43.8404867" lon="11.5065883"><ele>214.25</ele><time>2026-04-11T15:33:41.157Z</time></trkpt><trkpt lat="43.8404517" lon="11.5064217"><ele>211.5</ele><time>2026-04-11T15:33:42.157Z</time></trkpt><trkpt lat="43.8404483" lon="11.5062583"><ele>208.75</ele><time>2026-04-11T15:33:43.157Z</time></trkpt><trkpt lat="43.84047" lon="11.50609"><ele>206.0</ele><time>2026-04-11T15:33:44.157Z</time></trkpt><trkpt lat="43.8405033" lon="11.5059083"><ele>204.25</ele><time>2026-04-11T15:33:45.157Z</time></trkpt><trkpt lat="43.8405483" lon="11.5057333"><ele>202.5</ele><time>2026-04-11T15:33:46.157Z</time></trkpt><trkpt lat="43.8406067" lon="11.50557"><ele>200.75</ele><time>2026-04-11T15:33:47.157Z</time></trkpt><trkpt lat="43.8406633" lon="11.5054133"><ele>199.0</ele><time>2026-04-11T15:33:48.157Z</time></trkpt><trkpt lat="43.8407033" lon="11.5052533"><ele>198.5</ele><time>2026-04-11T15:33:49.157Z</time></trkpt><trkpt lat="43.8407233" lon="11.5050783"><ele>198.0</ele><time>2026-04-11T15:33:50.157Z</time></trkpt><trkpt lat="43.8407267" lon="11.504895"><ele>197.5</ele><time>2026-04-11T15:33:51.157Z</time></trkpt><trkpt lat="43.84072" lon="11.5047083"><ele>197.0</ele><time>2026-04-11T15:33:52.157Z</time></trkpt><trkpt lat="43.84071" lon="11.5045317"><ele>195.83333333333334</ele><time>2026-04-11T15:33:53.157Z</time></trkpt><trkpt lat="43.8407" lon="11.5043667"><ele>194.66666666666669</ele><time>2026-04-11T15:33:54.157Z</time></trkpt><trkpt lat="43.84068" lon="11.50423"><ele>193.5</ele><time>2026-04-11T15:33:55.157Z</time></trkpt><trkpt lat="43.8406467" lon="11.5041233"><ele>192.33333333333334</ele><time>2026-04-11T15:33:56.157Z</time></trkpt><trkpt lat="43.8406" lon="11.5040367"><ele>191.16666666666669</ele><time>2026-04-11T15:33:57.157Z</time></trkpt><trkpt lat="43.84054" lon="11.504"><ele>190.0</ele><time>2026-04-11T15:33:58.157Z</time></trkpt><trkpt lat="43.84047" lon="11.50402"><ele>190.0</ele><time>2026-04-11T15:33:59.157Z</time></trkpt><trkpt lat="43.84039" lon="11.50409"><ele>190.0</ele><time>2026-04-11T15:34:00.157Z</time></trkpt><trkpt lat="43.840315" lon="11.504195"><ele>190.0</ele><time>2026-04-11T15:34:01.157Z</time></trkpt><trkpt lat="43.8402483" lon="11.5042867"><ele>190.0</ele><time>2026-04-11T15:34:02.157Z</time></trkpt><trkpt lat="43.8402017" lon="11.5043667"><ele>190.0</ele><time>2026-04-11T15:34:03.158Z</time></trkpt><trkpt lat="43.8401267" lon="11.5043617"><ele>190.0</ele><time>2026-04-11T15:34:05.158Z</time></trkpt><trkpt lat="43.8401133" lon="11.5042417"><ele>190.0</ele><time>2026-04-11T15:34:07.157Z</time></trkpt><trkpt lat="43.840145" lon="11.5041417"><ele>190.0</ele><time>2026-04-11T15:34:08.157Z</time></trkpt><trkpt lat="43.8401967" lon="11.5040283"><ele>190.0</ele><time>2026-04-11T15:34:09.157Z</time></trkpt><trkpt lat="43.8402717" lon="11.5038933"><ele>190.0</ele><time>2026-04-11T15:34:10.157Z</time></trkpt><trkpt lat="43.8403433" lon="11.5037967"><ele>190.0</ele><time>2026-04-11T15:34:11.157Z</time></trkpt><trkpt lat="43.8403983" lon="11.5037083"><ele>186.6</ele><time>2026-04-11T15:34:12.157Z</time></trkpt><trkpt lat="43.8404317" lon="11.5036333"><ele>183.2</ele><time>2026-04-11T15:34:13.157Z</time></trkpt><trkpt lat="43.8404033" lon="11.503495"><ele>179.8</ele><time>2026-04-11T15:34:15.157Z</time></trkpt><trkpt lat="43.840295" lon="11.5035183"><ele>176.4</ele><time>2026-04-11T15:34:17.157Z</time></trkpt><trkpt lat="43.8401917" lon="11.5036217"><ele>173.0</ele><time>2026-04-11T15:34:19.157Z</time></trkpt><trkpt lat="43.8401267" lon="11.503705"><ele>174.33333333333331</ele><time>2026-04-11T15:34:20.157Z</time></trkpt><trkpt lat="43.8400517" lon="11.5038183"><ele>175.66666666666666</ele><time>2026-04-11T15:34:21.157Z</time></trkpt><trkpt lat="43.8399933" lon="11.5039017"><ele>177.0</ele><time>2026-04-11T15:34:22.157Z</time></trkpt><trkpt lat="43.8399317" lon="11.5039733"><ele>178.33333333333334</ele><time>2026-04-11T15:34:23.157Z</time></trkpt><trkpt lat="43.8398683" lon="11.5040183"><ele>179.66666666666669</ele><time>2026-04-11T15:34:24.158Z</time></trkpt><trkpt lat="43.8398033" lon="11.5040233"><ele>181.0</ele><time>2026-04-11T15:34:25.157Z</time></trkpt><trkpt lat="43.839745" lon="11.50388"><ele>181.0</ele><time>2026-04-11T15:34:27.157Z</time></trkpt><trkpt lat="43.8397467" lon="11.5037867"><ele>181.0</ele><time>2026-04-11T15:34:28.157Z</time></trkpt><trkpt lat="43.83978" lon="11.5036833"><ele>181.0</ele><time>2026-04-11T15:34:29.157Z</time></trkpt><trkpt lat="43.8398433" lon="11.5035717"><ele>181.0</ele><time>2026-04-11T15:34:30.157Z</time></trkpt><trkpt lat="43.8399167" lon="11.5034633"><ele>181.0</ele><time>2026-04-11T15:34:31.157Z</time></trkpt><trkpt lat="43.8399883" lon="11.5033483"><ele>179.66666666666669</ele><time>2026-04-11T15:34:32.158Z</time></trkpt><trkpt lat="43.84005" lon="11.5032533"><ele>178.33333333333334</ele><time>2026-04-11T15:34:33.157Z</time></trkpt><trkpt lat="43.8401033" lon="11.5031667"><ele>177.0</ele><time>2026-04-11T15:34:34.157Z</time></trkpt><trkpt lat="43.8401483" lon="11.503085"><ele>175.66666666666666</ele><time>2026-04-11T15:34:35.157Z</time></trkpt><trkpt lat="43.840185" lon="11.5029883"><ele>174.33333333333331</ele><time>2026-04-11T15:34:36.157Z</time></trkpt><trkpt lat="43.8401967" lon="11.5028833"><ele>173.0</ele><time>2026-04-11T15:34:37.157Z</time></trkpt><trkpt lat="43.84017" lon="11.5027517"><ele>168.5</ele><time>2026-04-11T15:34:38.158Z</time></trkpt><trkpt lat="43.8401217" lon="11.50261"><ele>164.0</ele><time>2026-04-11T15:34:39.157Z</time></trkpt><trkpt lat="43.8400417" lon="11.5024517"><ele>159.5</ele><time>2026-04-11T15:34:40.157Z</time></trkpt><trkpt lat="43.83995" lon="11.502275"><ele>155.0</ele><time>2026-04-11T15:34:41.158Z</time></trkpt><trkpt lat="43.8398633" lon="11.5020983"><ele>153.5</ele><time>2026-04-11T15:34:42.157Z</time></trkpt><trkpt lat="43.83979" lon="11.5019267"><ele>152.0</ele><time>2026-04-11T15:34:43.157Z</time></trkpt><trkpt lat="43.839715" lon="11.5017633"><ele>150.5</ele><time>2026-04-11T15:34:44.157Z</time></trkpt><trkpt lat="43.8396433" lon="11.501615"><ele>149.0</ele><time>2026-04-11T15:34:45.157Z</time></trkpt><trkpt lat="43.8395817" lon="11.5014867"><ele>149.0</ele><time>2026-04-11T15:34:46.157Z</time></trkpt><trkpt lat="43.8395383" lon="11.5013717"><ele>149.0</ele><time>2026-04-11T15:34:47.157Z</time></trkpt><trkpt lat="43.8394967" lon="11.5012667"><ele>149.0</ele><time>2026-04-11T15:34:48.157Z</time></trkpt><trkpt lat="43.8394767" lon="11.50116"><ele>149.0</ele><time>2026-04-11T15:34:49.158Z</time></trkpt><trkpt lat="43.8394767" lon="11.5010467"><ele>149.0</ele><time>2026-04-11T15:34:50.157Z</time></trkpt><trkpt lat="43.8395017" lon="11.5009567"><ele>149.0</ele><time>2026-04-11T15:34:51.157Z</time></trkpt><trkpt lat="43.8395317" lon="11.500845"><ele>148.33333333333331</ele><time>2026-04-11T15:34:53.157Z</time></trkpt><trkpt lat="43.8395083" lon="11.5007617"><ele>147.66666666666666</ele><time>2026-04-11T15:35:10.157Z</time></trkpt><trkpt lat="43.83946" lon="11.5007"><ele>147.0</ele><time>2026-04-11T15:35:12.157Z</time></trkpt><trkpt lat="43.8393867" lon="11.5006567"><ele>146.33333333333334</ele><time>2026-04-11T15:35:13.157Z</time></trkpt><trkpt lat="43.83929" lon="11.5006267"><ele>145.66666666666669</ele><time>2026-04-11T15:35:14.157Z</time></trkpt><trkpt lat="43.8391733" lon="11.5005917"><ele>145.0</ele><time>2026-04-11T15:35:15.158Z</time></trkpt><trkpt lat="43.8390417" lon="11.500555"><ele>144.0</ele><time>2026-04-11T15:35:16.157Z</time></trkpt><trkpt lat="43.8388983" lon="11.500515"><ele>143.0</ele><time>2026-04-11T15:35:17.157Z</time></trkpt><trkpt lat="43.8387433" lon="11.5004733"><ele>142.0</ele><time>2026-04-11T15:35:18.158Z</time></trkpt><trkpt lat="43.83859" lon="11.500435"><ele>140.0</ele><time>2026-04-11T15:35:19.157Z</time></trkpt><trkpt lat="43.8384367" lon="11.5003867"><ele>138.0</ele><time>2026-04-11T15:35:20.157Z</time></trkpt><trkpt lat="43.8382967" lon="11.5003467"><ele>136.0</ele><time>2026-04-11T15:35:21.157Z</time></trkpt><trkpt lat="43.8381683" lon="11.5003117"><ele>134.0</ele><time>2026-04-11T15:35:22.157Z</time></trkpt><trkpt lat="43.83805" lon="11.5002717"><ele>134.0</ele><time>2026-04-11T15:35:23.157Z</time></trkpt><trkpt lat="43.8379383" lon="11.5002083"><ele>134.0</ele><time>2026-04-11T15:35:24.157Z</time></trkpt><trkpt lat="43.8378367" lon="11.500115"><ele>134.0</ele><time>2026-04-11T15:35:25.157Z</time></trkpt><trkpt lat="43.8377583" lon="11.4999933"><ele>134.0</ele><time>2026-04-11T15:35:26.157Z</time></trkpt><trkpt lat="43.8376967" lon="11.4998317"><ele>134.0</ele><time>2026-04-11T15:35:27.157Z</time></trkpt><trkpt lat="43.8376483" lon="11.4996633"><ele>134.0</ele><time>2026-04-11T15:35:28.157Z</time></trkpt><trkpt lat="43.8376033" lon="11.4994983"><ele>134.0</ele><time>2026-04-11T15:35:29.158Z</time></trkpt><trkpt lat="43.8375633" lon="11.499345"><ele>134.0</ele><time>2026-04-11T15:35:30.157Z</time></trkpt><trkpt lat="43.8375317" lon="11.4991967"><ele>133.2</ele><time>2026-04-11T15:35:31.158Z</time></trkpt><trkpt lat="43.837525" lon="11.4990467"><ele>132.4</ele><time>2026-04-11T15:35:32.157Z</time></trkpt><trkpt lat="43.8375383" lon="11.49891"><ele>131.6</ele><time>2026-04-11T15:35:33.157Z</time></trkpt><trkpt lat="43.8375783" lon="11.4987767"><ele>130.8</ele><time>2026-04-11T15:35:34.157Z</time></trkpt><trkpt lat="43.8376017" lon="11.498645"><ele>130.0</ele><time>2026-04-11T15:35:35.158Z</time></trkpt><trkpt lat="43.837595" lon="11.4985133"><ele>129.2</ele><time>2026-04-11T15:35:36.157Z</time></trkpt><trkpt lat="43.83755" lon="11.49839"><ele>128.4</ele><time>2026-04-11T15:35:37.157Z</time></trkpt><trkpt lat="43.837475" lon="11.49831"><ele>127.6</ele><time>2026-04-11T15:35:38.157Z</time></trkpt><trkpt lat="43.83738" lon="11.4982617"><ele>126.8</ele><time>2026-04-11T15:35:39.157Z</time></trkpt><trkpt lat="43.8372683" lon="11.4982733"><ele>126.0</ele><time>2026-04-11T15:35:40.157Z</time></trkpt><trkpt lat="43.8371717" lon="11.498345"><ele>126.0</ele><time>2026-04-11T15:35:41.157Z</time></trkpt><trkpt lat="43.8370767" lon="11.4984433"><ele>126.0</ele><time>2026-04-11T15:35:42.157Z</time></trkpt><trkpt lat="43.8369833" lon="11.4985083"><ele>126.0</ele><time>2026-04-11T15:35:43.157Z</time></trkpt><trkpt lat="43.8368733" lon="11.498535"><ele>126.0</ele><time>2026-04-11T15:35:44.157Z</time></trkpt><trkpt lat="43.836735" lon="11.4985417"><ele>125.33333333333334</ele><time>2026-04-11T15:35:45.157Z</time></trkpt><trkpt lat="43.836575" lon="11.4985383"><ele>124.66666666666667</ele><time>2026-04-11T15:35:46.157Z</time></trkpt><trkpt lat="43.836405" lon="11.4985417"><ele>124.0</ele><time>2026-04-11T15:35:47.157Z</time></trkpt><trkpt lat="43.8362233" lon="11.498545"><ele>124.0</ele><time>2026-04-11T15:35:48.157Z</time></trkpt><trkpt lat="43.8360333" lon="11.4985517"><ele>124.0</ele><time>2026-04-11T15:35:49.158Z</time></trkpt><trkpt lat="43.8358583" lon="11.4985533"><ele>124.0</ele><time>2026-04-11T15:35:50.157Z</time></trkpt><trkpt lat="43.8356867" lon="11.4985567"><ele>123.0</ele><time>2026-04-11T15:35:51.157Z</time></trkpt><trkpt lat="43.8355317" lon="11.49856"><ele>122.0</ele><time>2026-04-11T15:35:52.157Z</time></trkpt><trkpt lat="43.835395" lon="11.4985567"><ele>121.0</ele><time>2026-04-11T15:35:53.157Z</time></trkpt><trkpt lat="43.8352717" lon="11.4985583"><ele>120.0</ele><time>2026-04-11T15:35:54.157Z</time></trkpt><trkpt lat="43.83515" lon="11.4985633"><ele>119.75</ele><time>2026-04-11T15:35:55.158Z</time></trkpt><trkpt lat="43.8350267" lon="11.498565"><ele>119.5</ele><time>2026-04-11T15:35:56.157Z</time></trkpt><trkpt lat="43.8348883" lon="11.4985717"><ele>119.25</ele><time>2026-04-11T15:35:57.157Z</time></trkpt><trkpt lat="43.83474" lon="11.4985867"><ele>119.0</ele><time>2026-04-11T15:35:58.157Z</time></trkpt><trkpt lat="43.834595" lon="11.4985983"><ele>119.0</ele><time>2026-04-11T15:35:59.157Z</time></trkpt><trkpt lat="43.83445" lon="11.4985967"><ele>119.0</ele><time>2026-04-11T15:36:00.157Z</time></trkpt><trkpt lat="43.8343017" lon="11.49859"><ele>119.0</ele><time>2026-04-11T15:36:01.157Z</time></trkpt><trkpt lat="43.83415" lon="11.4986117"><ele>119.0</ele><time>2026-04-11T15:36:02.157Z</time></trkpt><trkpt lat="43.8339967" lon="11.4986333"><ele>119.0</ele><time>2026-04-11T15:36:03.157Z</time></trkpt><trkpt lat="43.8338433" lon="11.4986383"><ele>119.0</ele><time>2026-04-11T15:36:04.157Z</time></trkpt><trkpt lat="43.8336667" lon="11.49864"><ele>119.0</ele><time>2026-04-11T15:36:05.157Z</time></trkpt><trkpt lat="43.83347" lon="11.4986367"><ele>119.0</ele><time>2026-04-11T15:36:06.157Z</time></trkpt><trkpt lat="43.8332867" lon="11.4986317"><ele>119.0</ele><time>2026-04-11T15:36:07.158Z</time></trkpt><trkpt lat="43.8331267" lon="11.498635"><ele>119.0</ele><time>2026-04-11T15:36:08.157Z</time></trkpt><trkpt lat="43.832975" lon="11.4986367"><ele>119.0</ele><time>2026-04-11T15:36:09.157Z</time></trkpt><trkpt lat="43.8328317" lon="11.4986317"><ele>119.0</ele><time>2026-04-11T15:36:10.157Z</time></trkpt><trkpt lat="43.8326883" lon="11.4986283"><ele>119.0</ele><time>2026-04-11T15:36:11.157Z</time></trkpt><trkpt lat="43.8325533" lon="11.4986283"><ele>119.0</ele><time>2026-04-11T15:36:12.157Z</time></trkpt><trkpt lat="43.8324233" lon="11.4986167"><ele>119.5</ele><time>2026-04-11T15:36:13.157Z</time></trkpt><trkpt lat="43.832295" lon="11.4986017"><ele>120.0</ele><time>2026-04-11T15:36:14.157Z</time></trkpt><trkpt lat="43.832165" lon="11.4985817"><ele>120.5</ele><time>2026-04-11T15:36:15.158Z</time></trkpt><trkpt lat="43.8320383" lon="11.498535"><ele>121.0</ele><time>2026-04-11T15:36:16.157Z</time></trkpt><trkpt lat="43.831905" lon="11.4985"><ele>122.33333333333334</ele><time>2026-04-11T15:36:17.157Z</time></trkpt><trkpt lat="43.831755" lon="11.4984633"><ele>123.66666666666666</ele><time>2026-04-11T15:36:18.158Z</time></trkpt><trkpt lat="43.8316017" lon="11.4984033"><ele>125.0</ele><time>2026-04-11T15:36:19.157Z</time></trkpt><trkpt lat="43.8314467" lon="11.4983417"><ele>125.0</ele><time>2026-04-11T15:36:20.157Z</time></trkpt><trkpt lat="43.8312933" lon="11.4982633"><ele>125.0</ele><time>2026-04-11T15:36:21.158Z</time></trkpt><trkpt lat="43.8311467" lon="11.4981867"><ele>125.0</ele><time>2026-04-11T15:36:22.157Z</time></trkpt><trkpt lat="43.831005" lon="11.49811"><ele>127.33333333333333</ele><time>2026-04-11T15:36:23.157Z</time></trkpt><trkpt lat="43.8308583" lon="11.4980333"><ele>129.66666666666666</ele><time>2026-04-11T15:36:24.158Z</time></trkpt><trkpt lat="43.830715" lon="11.49796"><ele>132.0</ele><time>2026-04-11T15:36:25.157Z</time></trkpt><trkpt lat="43.8305833" lon="11.4978883"><ele>127.0</ele><time>2026-04-11T15:36:26.157Z</time></trkpt><trkpt lat="43.8304483" lon="11.4977917"><ele>122.0</ele><time>2026-04-11T15:36:27.157Z</time></trkpt><trkpt lat="43.8303233" lon="11.4976733"><ele>117.0</ele><time>2026-04-11T15:36:28.157Z</time></trkpt><trkpt lat="43.83021" lon="11.4975367"><ele>116.5</ele><time>2026-04-11T15:36:29.157Z</time></trkpt><trkpt lat="43.8301033" lon="11.4974"><ele>116.0</ele><time>2026-04-11T15:36:30.158Z</time></trkpt><trkpt lat="43.8299917" lon="11.4972717"><ele>115.5</ele><time>2026-04-11T15:36:31.157Z</time></trkpt><trkpt lat="43.8298833" lon="11.4971483"><ele>115.0</ele><time>2026-04-11T15:36:32.157Z</time></trkpt><trkpt lat="43.8297883" lon="11.4970267"><ele>115.0</ele><time>2026-04-11T15:36:33.157Z</time></trkpt><trkpt lat="43.8296933" lon="11.4969133"><ele>115.0</ele><time>2026-04-11T15:36:34.158Z</time></trkpt><trkpt lat="43.8296067" lon="11.4968"><ele>115.0</ele><time>2026-04-11T15:36:35.157Z</time></trkpt><trkpt lat="43.8295267" lon="11.49669"><ele>115.0</ele><time>2026-04-11T15:36:36.157Z</time></trkpt><trkpt lat="43.82944" lon="11.49659"><ele>115.0</ele><time>2026-04-11T15:36:37.157Z</time></trkpt><trkpt lat="43.8293533" lon="11.496485"><ele>115.0</ele><time>2026-04-11T15:36:38.157Z</time></trkpt><trkpt lat="43.8292667" lon="11.4963717"><ele>115.0</ele><time>2026-04-11T15:36:39.158Z</time></trkpt><trkpt lat="43.829175" lon="11.4962467"><ele>115.0</ele><time>2026-04-11T15:36:40.157Z</time></trkpt><trkpt lat="43.8290783" lon="11.4961067"><ele>115.0</ele><time>2026-04-11T15:36:41.157Z</time></trkpt><trkpt lat="43.8289733" lon="11.4959533"><ele>115.0</ele><time>2026-04-11T15:36:42.158Z</time></trkpt><trkpt lat="43.8288583" lon="11.495785"><ele>115.0</ele><time>2026-04-11T15:36:43.158Z</time></trkpt><trkpt lat="43.8287417" lon="11.4956267"><ele>115.0</ele><time>2026-04-11T15:36:44.157Z</time></trkpt><trkpt lat="43.8286333" lon="11.4954817"><ele>115.0</ele><time>2026-04-11T15:36:45.157Z</time></trkpt><trkpt lat="43.8285267" lon="11.4953267"><ele>115.0</ele><time>2026-04-11T15:36:46.157Z</time></trkpt><trkpt lat="43.8284383" lon="11.4951633"><ele>115.25</ele><time>2026-04-11T15:36:47.157Z</time></trkpt><trkpt lat="43.82836" lon="11.4950017"><ele>115.5</ele><time>2026-04-11T15:36:48.157Z</time></trkpt><trkpt lat="43.8283033" lon="11.4948433"><ele>115.75</ele><time>2026-04-11T15:36:49.157Z</time></trkpt><trkpt lat="43.828255" lon="11.4946867"><ele>116.0</ele><time>2026-04-11T15:36:50.157Z</time></trkpt><trkpt lat="43.8282083" lon="11.4945317"><ele>116.0</ele><time>2026-04-11T15:36:51.158Z</time></trkpt><trkpt lat="43.8281667" lon="11.49437"><ele>116.0</ele><time>2026-04-11T15:36:52.158Z</time></trkpt><trkpt lat="43.8281283" lon="11.4942183"><ele>116.0</ele><time>2026-04-11T15:36:53.157Z</time></trkpt><trkpt lat="43.82808" lon="11.494065"><ele>116.0</ele><time>2026-04-11T15:36:54.157Z</time></trkpt><trkpt lat="43.8280383" lon="11.4939033"><ele>115.5</ele><time>2026-04-11T15:36:55.157Z</time></trkpt><trkpt lat="43.8279967" lon="11.4937417"><ele>115.0</ele><time>2026-04-11T15:36:56.157Z</time></trkpt><trkpt lat="43.827955" lon="11.493575"><ele>114.5</ele><time>2026-04-11T15:36:57.157Z</time></trkpt><trkpt lat="43.8278933" lon="11.4934217"><ele>114.0</ele><time>2026-04-11T15:36:58.157Z</time></trkpt><trkpt lat="43.8278317" lon="11.4932633"><ele>114.0</ele><time>2026-04-11T15:36:59.157Z</time></trkpt><trkpt lat="43.82778" lon="11.49309"><ele>114.0</ele><time>2026-04-11T15:37:00.157Z</time></trkpt><trkpt lat="43.827725" lon="11.49289"><ele>114.0</ele><time>2026-04-11T15:37:01.157Z</time></trkpt><trkpt lat="43.8276517" lon="11.49268"><ele>115.0</ele><time>2026-04-11T15:37:02.157Z</time></trkpt><trkpt lat="43.8275717" lon="11.492445"><ele>116.0</ele><time>2026-04-11T15:37:03.157Z</time></trkpt><trkpt lat="43.82749" lon="11.4922167"><ele>117.0</ele><time>2026-04-11T15:37:04.157Z</time></trkpt><trkpt lat="43.8274317" lon="11.4919867"><ele>117.0</ele><time>2026-04-11T15:37:05.157Z</time></trkpt><trkpt lat="43.8273567" lon="11.4917867"><ele>117.0</ele><time>2026-04-11T15:37:06.157Z</time></trkpt><trkpt lat="43.827295" lon="11.4916033"><ele>117.0</ele><time>2026-04-11T15:37:07.157Z</time></trkpt><trkpt lat="43.8272317" lon="11.4914317"><ele>117.0</ele><time>2026-04-11T15:37:08.158Z</time></trkpt><trkpt lat="43.8271783" lon="11.4912783"><ele>117.33333333333333</ele><time>2026-04-11T15:37:09.157Z</time></trkpt><trkpt lat="43.82714" lon="11.491145"><ele>117.66666666666666</ele><time>2026-04-11T15:37:10.157Z</time></trkpt><trkpt lat="43.8271267" lon="11.491025"><ele>118.0</ele><time>2026-04-11T15:37:11.157Z</time></trkpt><trkpt lat="43.8271133" lon="11.49093"><ele>118.33333333333333</ele><time>2026-04-11T15:37:12.158Z</time></trkpt><trkpt lat="43.82713" lon="11.4908267"><ele>118.66666666666666</ele><time>2026-04-11T15:37:13.157Z</time></trkpt><trkpt lat="43.827165" lon="11.4907367"><ele>119.0</ele><time>2026-04-11T15:37:14.157Z</time></trkpt><trkpt lat="43.8272217" lon="11.4906083"><ele>119.0</ele><time>2026-04-11T15:37:16.157Z</time></trkpt><trkpt lat="43.8272433" lon="11.4905233"><ele>119.0</ele><time>2026-04-11T15:37:18.157Z</time></trkpt><trkpt lat="43.8271783" lon="11.4905367"><ele>119.0</ele><time>2026-04-11T15:37:22.157Z</time></trkpt><trkpt lat="43.8271783" lon="11.4905367"><ele>119.0</ele><time>2026-04-11T15:37:22.157Z</time></trkpt></trkseg></trk></gpx>